# Wetter Temperatur Luftdruck Luftfeuchtigkeit Sichtweite Windgeschwindigkeit Windrichtung Zeit
1 Clouds 6 1018 62 10000 2.68 288 13:44 01.02.2023
2 Clouds 5 1019 65 10000 2.68 283 13:19 01.02.2023
3 Clouds 4 1020 68 10000 2.68 270 12:26 01.02.2023
4 Snow 2 1020 77 10000 2.68 292 10:35 01.02.2023
5 Clouds -3 1020 85 10000 2.68 270 06:54 01.02.2023
6 Clouds 2 1022 73 10000 2.06 340 22:26 31.01.2023
7 Clouds 2 1022 75 10000 2.24 270 20:53 31.01.2023
8 Clouds 2 1024 69 10000 1.54 0 19:24 31.01.2023
9 Clouds 3 1022 65 10000 1.03 0 17:31 31.01.2023
10 Clouds 6 1021 57 10000 2.24 260 15:36 31.01.2023
11 Clouds 6 1022 58 10000 3.09 80 15:18 31.01.2023
12 Clouds 5 1026 58 10000 1.03 0 12:56 31.01.2023
13 Clouds 3 1025 73 10000 2.24 264 11:26 31.01.2023
14 Clouds 0 1028 86 10000 1.03 0 09:55 31.01.2023
15 Clouds -3 1025 92 10000 2.68 285 09:25 31.01.2023
16 Clouds -4 1022 91 10000 2.68 275 08:35 31.01.2023
17 Clouds -3 1025 100 10000 1.03 0 06:20 31.01.2023
18 Clouds 4 1023 56 10000 6.17 320 00:54 31.01.2023
19 Clouds 4 1023 56 10000 9.77 260 23:24 30.01.2023
20 Clouds 2 1022 80 10000 2.57 0 22:47 30.01.2023
21 Snow 2 1020 90 10000 2.24 287 21:30 30.01.2023
22 Snow 3 1020 87 10000 2.24 270 20:43 30.01.2023
23 Clouds 2 1019 66 10000 3.09 130 18:26 30.01.2023
24 Clouds 3 1018 63 10000 2.06 160 16:58 30.01.2023
25 Clouds 5 1019 53 10000 2.57 130 14:33 30.01.2023
26 Clouds 4 1019 56 10000 2.06 120 13:37 30.01.2023
27 Clouds -1 1021 74 10000 0.51 0 11:28 30.01.2023
28 Clouds -4 1022 86 10000 1.03 0 10:18 30.01.2023
29 Clouds -5 1022 93 10000 1.54 270 09:49 30.01.2023
30 Clear -4 1023 87 10000 0.51 0 08:18 30.01.2023
31 Clouds -4 1025 87 10000 1.03 0 02:33 30.01.2023
32 Clouds -4 1026 86 10000 0.51 0 23:35 29.01.2023
33 Clear -3 1024 86 10000 2.24 291 22:38 29.01.2023
34 Clear -3 1024 85 10000 2.24 286 21:53 29.01.2023
35 Clear -2 1024 83 10000 2.24 300 20:50 29.01.2023
36 Clear -2 1024 82 10000 2.24 285 20:18 29.01.2023
37 Clear -1 1023 82 10000 2.24 297 19:32 29.01.2023
38 Clear -1 1022 76 10000 2.24 280 17:51 29.01.2023
39 Clear 3 1025 64 10000 0.51 0 16:22 29.01.2023
40 Clear 3 1022 65 10000 1.54 280 15:50 29.01.2023
41 Clear 4 1024 64 10000 2.24 265 13:34 29.01.2023
42 Clouds 2 1023 68 10000 2.24 300 12:52 29.01.2023
43 Clouds 1 1024 71 10000 1.34 312 12:24 29.01.2023
44 Clouds 1 1027 64 10000 1.03 0 11:58 29.01.2023
45 Clouds 1 1027 63 10000 1.34 225 11:33 29.01.2023
46 Clouds 0 1028 69 10000 0.51 0 10:20 29.01.2023
47 Clouds -3 1027 80 9000 1.54 120 07:48 29.01.2023
48 Clouds -2 1026 74 10000 2.06 300 03:42 29.01.2023
49 Clouds -1 1026 80 10000 0.51 0 23:46 28.01.2023
50 Clouds 0 1025 80 10000 1.03 0 20:45 28.01.2023
51 Clouds 0 1025 74 10000 2.57 70 19:53 28.01.2023
52 Clouds 0 1024 74 10000 1.03 0 18:49 28.01.2023
53 Clouds 1 1021 76 10000 2.68 262 17:24 28.01.2023
54 Clouds 1 1021 77 10000 2.24 270 16:28 28.01.2023
55 Clouds 1 1021 76 10000 2.68 158 15:59 28.01.2023
56 Clouds 1 1020 79 10000 2.24 270 15:22 28.01.2023
57 Clouds 1 1020 79 10000 2.24 270 15:22 28.01.2023
58 Clouds 1 1021 83 10000 2.24 276 13:47 28.01.2023
59 Mist 0 1021 89 5000 2.24 264 11:55 28.01.2023
60 Mist -2 1020 89 5000 2.24 275 10:34 28.01.2023
61 Clouds -3 1017 92 6000 2.24 270 08:53 28.01.2023
62 Clouds -3 1016 91 4900 2.24 278 01:51 28.01.2023
63 Clouds -2 1019 88 4400 2.24 277 00:27 28.01.2023
64 Clouds -2 1018 80 10000 2.68 274 21:56 27.01.2023
65 Clouds -1 1017 77 10000 2.24 270 18:57 27.01.2023
66 Clouds -1 1016 77 10000 2.57 70 17:58 27.01.2023
67 Clouds 0 1017 72 10000 2.24 281 17:20 27.01.2023
68 Clouds 0 1016 71 10000 2.24 280 16:41 27.01.2023
69 Clouds 1 1019 66 10000 2.24 90 15:25 27.01.2023
70 Clouds 1 1016 70 10000 2.24 259 14:26 27.01.2023
71 Clouds 0 1016 73 10000 1.34 285 13:33 27.01.2023
72 Clouds -2 1017 83 10000 2.24 270 09:30 27.01.2023
73 Clouds -3 1009 89 6000 2.68 270 06:30 27.01.2023
74 Clouds -1 1016 82 10000 2.24 270 00:28 27.01.2023
75 Clouds -1 1016 88 10000 2.24 270 21:57 26.01.2023
76 Clouds -1 1017 88 10000 2.24 270 20:55 26.01.2023
77 Clouds -1 1017 88 10000 2.68 261 19:59 26.01.2023
78 Clouds -1 1019 87 10000 1.54 280 17:57 26.01.2023
79 Clouds -1 1019 82 10000 1.03 0 16:50 26.01.2023
80 Clouds -1 1019 85 10000 1.03 0 16:20 26.01.2023
81 Clouds -1 1019 85 10000 2.57 60 15:42 26.01.2023
82 Clouds -1 1018 81 10000 2.57 130 15:24 26.01.2023
83 Clouds -1 1018 80 10000 0.51 0 13:53 26.01.2023
84 Clouds -2 1018 80 10000 0.89 158 12:31 26.01.2023
85 Clouds -3 1019 88 10000 2.06 280 10:56 26.01.2023
86 Clouds -2 1020 90 10000 2.57 270 10:25 26.01.2023
87 Clouds -2 1020 90 10000 2.57 260 09:40 26.01.2023
88 Clouds -3 1020 91 10000 2.24 248 06:55 26.01.2023
89 Clouds -1 1023 88 10000 1.54 260 23:42 25.01.2023
90 Clouds -1 1023 91 10000 1.03 0 22:51 25.01.2023
91 Clouds -1 1024 91 9000 0.51 0 21:41 25.01.2023
92 Clouds -1 1024 88 9000 1.03 0 21:18 25.01.2023
93 Clouds 0 1026 84 10000 3.6 70 18:30 25.01.2023
94 Clear 3 1025 74 10000 2.57 110 16:22 25.01.2023
95 Clear 3 1025 74 10000 2.57 110 16:22 25.01.2023
96 Clear 3 1026 74 10000 2.06 130 15:21 25.01.2023
97 Clear -1 1027 80 10000 0.51 0 12:37 25.01.2023
98 Clouds -6 1031 100 8000 0.51 0 09:53 25.01.2023
99 Clouds -7 1031 100 6000 1.03 0 09:29 25.01.2023
100 Mist -5 1032 96 5000 0.51 0 06:52 25.01.2023
101 Clouds -3 1033 92 10000 0.51 0 00:33 25.01.2023
102 Clear -3 1035 90 10000 0.51 0 22:45 24.01.2023
103 Clear -2 1034 90 10000 2.06 260 21:29 24.01.2023
104 Clear -1 1034 86 10000 0.51 0 19:40 24.01.2023
105 Clear 0 1033 85 10000 1.03 0 18:31 24.01.2023
106 Clouds 1 1033 80 10000 1.03 0 17:19 24.01.2023
107 Clouds 1 1033 76 10000 1.03 0 16:52 24.01.2023
108 Clouds 1 1030 64 10000 0.51 0 14:49 24.01.2023
109 Clouds -2 1032 80 10000 0.51 0 12:47 24.01.2023
110 Clouds -3 1033 80 10000 0.51 0 11:20 24.01.2023
111 Clouds -5 1033 88 10000 1.03 0 08:21 24.01.2023
112 Clouds -5 1033 88 7000 1.03 0 07:50 24.01.2023
113 Clouds -3 1032 88 10000 1.54 120 05:22 24.01.2023
114 Clouds -3 1032 90 10000 0.51 0 00:46 24.01.2023
115 Clouds -3 1031 87 10000 1.54 160 23:43 23.01.2023
116 Clouds -4 1027 86 10000 2.24 341 21:50 23.01.2023
117 Clouds -2 1029 85 10000 2.06 120 19:45 23.01.2023
118 Clouds -2 1028 84 10000 2.06 70 17:59 23.01.2023
119 Clouds -1 1028 78 10000 3.6 60 15:35 23.01.2023
120 Clouds -1 1027 75 10000 3.6 80 14:22 23.01.2023
121 Clouds -1 1029 80 10000 3.09 120 13:23 23.01.2023
122 Clouds -2 1030 82 10000 3.09 100 12:48 23.01.2023
123 Clouds -2 1030 85 10000 2.57 60 11:43 23.01.2023
124 Clouds -4 1027 88 10000 2.24 300 08:42 23.01.2023
125 Mist -5 1023 88 5000 2.06 80 06:29 23.01.2023
126 Clouds -4 1022 88 10000 2.24 311 23:28 22.01.2023
127 Clouds -4 1022 85 10000 2.24 310 21:46 22.01.2023
128 Clouds -4 1021 81 10000 3.09 70 20:53 22.01.2023
129 Clouds -3 1021 84 10000 2.24 290 19:53 22.01.2023
130 Clouds -2 1023 82 10000 2.24 303 19:20 22.01.2023
131 Clouds -1 1020 78 10000 3.09 80 17:58 22.01.2023
132 Clouds -1 1023 82 10000 2.24 291 17:27 22.01.2023
133 Clouds -1 1021 78 10000 2.68 68 16:39 22.01.2023
134 Clouds 1 1024 78 10000 1.34 135 14:55 22.01.2023
135 Clouds 0 1021 81 10000 2.06 140 13:49 22.01.2023
136 Clouds -1 1022 83 10000 2.68 199 12:53 22.01.2023
137 Clouds -1 1022 90 10000 2.68 0 11:39 22.01.2023
138 Clouds -2 1022 91 9000 2.68 0 09:36 22.01.2023
139 Clouds -4 1018 93 9000 2.68 0 08:43 22.01.2023
140 Clouds -2 1022 98 3000 0.51 0 02:51 22.01.2023
141 Clouds -3 1017 91 7000 2.68 0 23:41 21.01.2023
142 Clouds -3 1017 91 6000 2.68 0 22:47 21.01.2023
143 Snow -2 1018 91 6000 2.68 0 20:43 21.01.2023
144 Snow -1 1019 90 4000 2.68 0 18:48 21.01.2023
145 Snow 0 1017 85 10000 2.68 318 15:19 21.01.2023
146 Snow 0 1017 88 4000 2.68 318 13:30 21.01.2023
147 Snow 0 1017 89 6000 2.68 318 12:42 21.01.2023
148 Snow -1 1017 92 6000 2.68 318 11:27 21.01.2023
149 Snow -1 1017 92 6000 2.68 318 11:27 21.01.2023
150 Mist -1 1017 92 4500 2.68 318 10:46 21.01.2023
151 Snow -2 1019 95 3200 1.03 0 05:40 21.01.2023
152 Snow -2 1016 91 2500 2.68 318 22:50 20.01.2023
153 Snow -2 1016 93 3500 2.68 318 22:26 20.01.2023
154 Snow -2 1016 93 3500 2.68 318 21:35 20.01.2023
155 Snow -2 1016 91 4000 2.68 318 20:42 20.01.2023
156 Clouds -1 1015 86 8000 2.68 318 18:23 20.01.2023
157 Snow 0 1016 69 10000 3.09 50 15:27 20.01.2023
158 Snow 0 1016 68 10000 1.54 50 14:33 20.01.2023
159 Clouds -1 1016 76 10000 0.89 270 11:59 20.01.2023
160 Clouds -4 1012 86 10000 1.03 270 08:59 20.01.2023
161 Clouds -4 1012 86 10000 1.54 260 07:41 20.01.2023
162 Clouds -5 1005 87 10000 2.68 318 02:33 20.01.2023
163 Clouds -4 1004 89 10000 2.24 270 22:38 19.01.2023
164 Clouds -2 1008 86 10000 0.51 0 21:59 19.01.2023
165 Clouds -1 1008 74 10000 0.51 0 20:21 19.01.2023
166 Clouds -1 1008 69 10000 1.54 70 18:57 19.01.2023
167 Clouds 1 1008 71 10000 1.03 0 15:22 19.01.2023
168 Clouds 0 1008 86 9000 1.54 20 10:44 19.01.2023
169 Mist -1 1007 92 4000 1.03 0 08:59 19.01.2023
170 Snow 1 1000 88 10000 2.68 262 23:19 18.01.2023
171 Snow 1 997 91 10000 2.24 270 20:38 18.01.2023
172 Snow 1 997 91 10000 2.24 270 20:18 18.01.2023
173 Snow 1 994 91 10000 2.24 274 19:36 18.01.2023
174 Snow 1 997 93 10000 3.09 60 17:32 18.01.2023
175 Clouds 4 995 76 10000 3.6 90 14:41 18.01.2023
176 Clouds 3 994 80 10000 1.34 135 12:53 18.01.2023
177 Snow 2 993 87 10000 1.03 0 10:29 18.01.2023
178 Snow 0 990 92 10000 1.03 320 07:57 18.01.2023
179 Snow 0 986 90 10000 2.24 270 01:26 18.01.2023
180 Snow 2 985 83 10000 2.24 270 22:49 17.01.2023
181 Clouds 1 983 77 10000 5.66 300 20:27 17.01.2023
182 Clouds 1 985 77 10000 4.12 290 19:25 17.01.2023
183 Clouds 2 985 77 10000 1.54 240 17:53 17.01.2023
184 Clouds 3 985 68 10000 1.03 0 15:57 17.01.2023
185 Clouds 3 986 76 10000 3.09 280 14:52 17.01.2023
186 Clouds 3 988 81 10000 0.45 196 13:46 17.01.2023
187 Clouds 1 989 82 10000 1.03 0 11:51 17.01.2023
188 Clouds 0 990 85 10000 3.09 260 10:49 17.01.2023
189 Clouds -1 991 86 10000 0.51 0 09:31 17.01.2023
190 Clouds -3 991 91 10000 1.03 0 07:50 17.01.2023
191 Clouds -2 990 83 10000 1.54 0 03:54 17.01.2023
192 Clouds -1 990 84 10000 2.57 290 00:54 17.01.2023
193 Clouds 0 990 79 10000 2.06 280 22:58 16.01.2023
194 Clouds 0 990 75 10000 2.57 220 21:47 16.01.2023
195 Clouds 1 990 71 10000 1.54 330 20:23 16.01.2023
196 Clouds 1 990 69 10000 3.09 290 19:28 16.01.2023
197 Clouds 1 990 69 10000 3.6 300 18:52 16.01.2023
198 Clouds 1 990 69 10000 3.6 280 18:20 16.01.2023
199 Clouds 1 990 69 10000 3.6 280 17:34 16.01.2023
200 Clouds 6 991 58 10000 5.66 270 14:36 16.01.2023
201 Clouds 5 992 60 10000 7.72 270 13:37 16.01.2023
202 Clouds 2 998 79 10000 2.57 260 10:27 16.01.2023
203 Clouds 1 1000 84 10000 1.03 0 08:53 16.01.2023
204 Clouds 4 1010 91 10000 2.06 130 23:21 15.01.2023
205 Clouds 3 1009 89 10000 2.24 265 21:32 15.01.2023
206 Clouds 4 1009 86 10000 3.6 80 20:32 15.01.2023
207 Clouds 4 1009 85 10000 4.12 90 19:43 15.01.2023
208 Rain 5 1009 80 10000 3.09 290 17:39 15.01.2023
209 Rain 10 1007 46 10000 5.14 170 15:22 15.01.2023
210 Clouds 6 1007 70 10000 3.09 260 12:30 15.01.2023
211 Clouds 6 1007 70 10000 3.09 260 12:30 15.01.2023
212 Clouds 5 1008 75 10000 5.14 280 11:30 15.01.2023
213 Clouds 3 1008 81 10000 3.09 0 10:28 15.01.2023
214 Clouds 3 1009 87 10000 5.14 260 09:34 15.01.2023
215 Rain 2 1013 87 10000 4.63 270 01:42 15.01.2023
216 Clouds 2 1015 92 10000 4.12 280 22:44 14.01.2023
217 Clouds 2 1016 92 10000 5.14 270 21:55 14.01.2023
218 Clouds 2 1016 92 10000 5.14 270 21:36 14.01.2023
219 Clouds 2 1016 92 10000 5.14 270 21:36 14.01.2023
220 Clouds 3 1016 92 10000 5.14 270 21:18 14.01.2023
221 Clouds 3 1016 92 10000 5.14 270 21:18 14.01.2023
222 Clouds 2 1016 93 10000 4.12 250 20:28 14.01.2023
223 Clouds 4 1015 85 10000 3.6 270 18:29 14.01.2023
224 Clouds 6 1018 81 10000 4.63 260 15:48 14.01.2023
225 Clouds 7 1016 84 10000 4.63 280 15:26 14.01.2023
226 Clouds 7 1017 85 10000 3.09 280 14:25 14.01.2023
227 Clouds 6 1017 82 10000 2.57 270 13:33 14.01.2023
228 Mist 4 1024 90 4000 1.54 270 10:51 14.01.2023
229 Mist 2 1023 94 3000 2.06 280 09:56 14.01.2023
230 Clouds 2 1024 98 10000 0.51 0 04:56 14.01.2023
231 Rain 3 1020 95 10000 2.24 266 23:21 13.01.2023
232 Rain 4 1020 94 10000 3.13 266 22:45 13.01.2023
233 Rain 4 1019 91 10000 2.68 252 21:58 13.01.2023
234 Clouds 4 1018 89 10000 2.68 270 20:52 13.01.2023
235 Clouds 5 1017 86 10000 2.68 303 19:36 13.01.2023
236 Rain 5 1015 81 10000 2.24 277 17:59 13.01.2023
237 Clouds 7 1014 73 10000 2.24 278 16:24 13.01.2023
238 Clouds 7 1015 75 10000 2.68 248 12:51 13.01.2023
239 Clouds 6 1014 77 10000 2.68 256 12:19 13.01.2023
240 Clouds 4 1015 82 10000 2.24 262 10:24 13.01.2023
241 Rain 3 1017 86 9000 1.54 280 09:45 13.01.2023
242 Mist 2 1016 89 5000 3.6 250 08:52 13.01.2023
243 Mist 2 1018 91 2500 1.54 250 07:49 13.01.2023
244 Mist 2 1019 92 1500 2.06 260 06:52 13.01.2023
245 Mist 2 1019 91 5000 1.54 130 03:56 13.01.2023
246 Clouds 1 1020 98 10000 1.03 0 23:47 12.01.2023
247 Fog 0 1020 98 10000 1.03 0 22:40 12.01.2023
248 Clouds 1 1017 94 10000 2.68 274 20:55 12.01.2023
249 Clouds 2 1018 93 10000 2.24 286 18:53 12.01.2023
250 Clouds 3 1020 91 10000 0.51 0 17:33 12.01.2023
251 Clouds 7 1018 80 10000 2.24 278 15:54 12.01.2023
252 Clouds 7 1019 82 10000 2.24 270 14:44 12.01.2023
253 Clouds 7 1019 82 10000 2.24 253 14:22 12.01.2023
254 Clouds 6 1022 84 10000 2.06 280 12:48 12.01.2023
255 Mist 3 1024 93 4500 2.57 250 10:36 12.01.2023
256 Mist 2 1022 96 2000 2.24 277 08:28 12.01.2023
257 Drizzle 3 1024 96 10000 1.03 0 01:50 12.01.2023
258 Clouds 3 1021 94 10000 2.68 261 23:59 11.01.2023
259 Clouds 3 1021 94 10000 2.68 261 23:40 11.01.2023
260 Clouds 3 1021 94 10000 2.24 270 23:21 11.01.2023
261 Clouds 4 1020 92 10000 2.68 270 21:45 11.01.2023
262 Clouds 3 1020 88 10000 2.68 256 20:26 11.01.2023
263 Clouds 4 1019 83 10000 2.24 270 18:39 11.01.2023
264 Clouds 4 1017 81 10000 2.24 270 16:49 11.01.2023
265 Clouds 5 1016 78 10000 2.24 262 14:57 11.01.2023
266 Clear 2 1020 75 10000 1.03 0 12:50 11.01.2023
267 Clouds 1 1021 80 10000 1.54 280 11:55 11.01.2023
268 Clouds 0 1022 86 10000 1.03 0 10:32 11.01.2023
269 Clouds 0 1023 89 10000 1.03 330 08:19 11.01.2023
270 Clouds 1 1023 89 10000 1.03 10 07:25 11.01.2023
271 Clouds 0 1023 90 10000 3.09 270 00:42 11.01.2023
272 Clouds 0 1023 90 10000 2.68 270 22:46 10.01.2023
273 Clouds 0 1024 91 10000 2.24 285 21:34 10.01.2023
274 Clouds 0 1023 96 10000 2.68 280 20:42 10.01.2023
275 Clouds 1 1022 92 10000 2.24 270 19:39 10.01.2023
276 Clouds 1 1022 91 10000 2.68 255 18:47 10.01.2023
277 Clouds 2 1022 90 10000 2.24 270 17:59 10.01.2023
278 Clouds 4 1024 87 10000 2.06 130 16:39 10.01.2023
279 Clouds 5 1024 86 10000 3.6 100 15:31 10.01.2023
280 Clouds 5 1024 86 10000 3.6 100 15:31 10.01.2023
281 Clouds 5 1022 86 10000 2.57 60 14:32 10.01.2023
282 Clouds 3 1021 92 10000 2.24 266 12:23 10.01.2023
283 Mist 2 1019 95 2000 5.36 263 09:26 10.01.2023
284 Snow 2 1020 96 4000 1.34 349 08:29 10.01.2023
285 Clouds 3 1018 93 6000 2.06 70 07:27 10.01.2023
286 Clouds 3 1016 95 10000 1.34 42 04:54 10.01.2023
287 Drizzle 4 1007 79 10000 2.24 263 23:29 09.01.2023
288 Clouds 4 1006 83 10000 3.13 270 21:51 09.01.2023
289 Clouds 4 1005 84 10000 3.13 278 20:45 09.01.2023
290 Clouds 5 1007 89 10000 4.02 263 19:30 09.01.2023
291 Clouds 5 1007 87 10000 1.03 0 17:55 09.01.2023
292 Clouds 5 1007 89 10000 0.89 45 17:26 09.01.2023
293 Clouds 6 1006 89 10000 2.06 100 16:32 09.01.2023
294 Clouds 7 1004 87 10000 2.68 252 15:28 09.01.2023
295 Clouds 7 1004 87 10000 2.68 252 14:45 09.01.2023
296 Clouds 7 1004 84 10000 2.68 257 13:38 09.01.2023
297 Rain 7 1004 80 10000 2.68 253 12:49 09.01.2023
298 Clouds 7 1004 83 10000 2.68 255 11:42 09.01.2023
299 Rain 6 1006 88 10000 2.06 340 10:26 09.01.2023
300 Rain 6 1003 83 8000 2.24 293 06:41 09.01.2023
301 Clouds 5 1002 73 10000 3.6 240 02:54 09.01.2023
302 Clouds 6 1003 69 10000 4.47 293 23:53 08.01.2023
303 Clouds 3 1004 81 10000 2.06 0 21:24 08.01.2023
304 Rain 3 1005 75 10000 2.06 290 20:58 08.01.2023
305 Clouds 4 1005 75 10000 1.54 0 20:21 08.01.2023
306 Clouds 4 1008 74 10000 2.57 270 17:53 08.01.2023
307 Clouds 5 1009 70 10000 2.06 260 17:20 08.01.2023
308 Clouds 7 1006 64 10000 5.81 259 15:39 08.01.2023
309 Rain 8 1006 59 10000 4.12 270 14:41 08.01.2023
310 Rain 9 1007 59 10000 5.14 270 13:57 08.01.2023
311 Clouds 9 1007 58 10000 4.47 278 13:28 08.01.2023
312 Clouds 7 1008 60 10000 4.47 275 12:19 08.01.2023
313 Clear 0 1012 86 10000 5.14 280 09:38 08.01.2023
314 Clear 0 1012 80 10000 4.12 290 08:45 08.01.2023
315 Clear -1 1012 86 10000 2.57 280 07:21 08.01.2023
316 Clouds 1 1012 78 10000 2.57 250 23:35 07.01.2023
317 Clear 1 1012 78 10000 2.68 278 22:45 07.01.2023
318 Clear 1 1013 81 10000 2.68 270 22:20 07.01.2023
319 Clear 1 1013 78 10000 2.24 274 21:36 07.01.2023
320 Clear 2 1013 76 10000 2.68 270 20:29 07.01.2023
321 Clear 3 1013 71 10000 2.24 270 19:28 07.01.2023
322 Clear 3 1013 72 10000 2.24 270 18:21 07.01.2023
323 Clear 4 1014 69 10000 2.24 270 17:43 07.01.2023
324 Clear 7 1014 62 10000 2.68 270 16:54 07.01.2023
325 Clear 8 1014 58 10000 2.68 270 16:29 07.01.2023
326 Clear 9 1014 55 10000 2.68 258 15:40 07.01.2023
327 Clear 10 1014 54 10000 2.68 260 15:22 07.01.2023
328 Clear 10 1014 54 10000 2.68 260 15:22 07.01.2023
329 Clear 11 1014 53 10000 2.68 254 14:25 07.01.2023
330 Clear 11 1015 54 10000 2.68 256 13:43 07.01.2023
331 Clear 10 1015 54 10000 3.09 270 13:22 07.01.2023
332 Clear 7 1015 71 10000 2.57 290 12:21 07.01.2023
333 Clouds 0 1021 86 10000 1.03 0 10:29 07.01.2023
334 Clouds -2 1021 100 10000 0.51 0 09:51 07.01.2023
335 Clouds -3 1021 100 10000 0.51 0 08:18 07.01.2023
336 Clear -3 1022 100 10000 0.51 0 07:42 07.01.2023
337 Clear -2 1022 93 10000 1.54 250 06:31 07.01.2023
338 Clouds 0 1025 85 10000 1.54 290 23:53 06.01.2023
339 Clear 1 1025 84 10000 0.51 0 22:22 06.01.2023
340 Clear 1 1024 79 10000 0.51 0 21:53 06.01.2023
341 Clear 2 1021 80 10000 2.68 270 20:38 06.01.2023
342 Clear 3 1021 79 10000 3.13 264 19:56 06.01.2023
343 Clear 3 1021 79 10000 2.68 264 19:38 06.01.2023
344 Clear 3 1020 79 10000 2.68 266 19:20 06.01.2023
345 Clear 4 1021 75 10000 2.68 294 17:56 06.01.2023
346 Clear 7 1021 69 10000 2.68 295 16:53 06.01.2023
347 Clear 8 1020 63 10000 2.68 276 16:23 06.01.2023
348 Clear 10 1023 52 10000 1.54 170 15:52 06.01.2023
349 Clear 10 1023 52 10000 2.57 130 15:30 06.01.2023
350 Clear 12 1021 57 10000 3.09 250 13:46 06.01.2023
351 Clear 6 1024 70 10000 3.09 270 11:55 06.01.2023
352 Clear 3 1025 87 10000 1.54 250 10:55 06.01.2023
353 Fog -1 1025 100 10000 0.89 137 08:50 06.01.2023
354 Clouds 2 1024 93 10000 0.51 0 05:23 06.01.2023
355 Clouds 7 1024 80 10000 2.68 261 22:57 05.01.2023
356 Clouds 8 1023 78 10000 2.68 270 22:30 05.01.2023
357 Clouds 9 1023 73 10000 3.13 264 20:34 05.01.2023
358 Clouds 12 1024 58 10000 7.72 270 17:30 05.01.2023
359 Clouds 12 1024 57 10000 5.66 290 16:50 05.01.2023
360 Clouds 9 1023 73 10000 3.09 110 15:58 05.01.2023
361 Clouds 9 1023 73 10000 3.09 110 15:34 05.01.2023
362 Clouds 12 1019 64 10000 3.6 110 13:36 05.01.2023
363 Clouds 11 1021 67 10000 3.6 100 12:41 05.01.2023
364 Clouds 8 1021 80 10000 3.13 263 10:48 05.01.2023
365 Clouds 7 1019 85 10000 2.68 267 09:43 05.01.2023
366 Clouds 6 1020 87 10000 3.58 274 08:22 05.01.2023
367 Clouds 5 1023 83 10000 2.06 260 06:49 05.01.2023
368 Clouds 3 1025 90 10000 1.03 0 02:56 05.01.2023
369 Clouds 4 1024 88 10000 2.24 270 22:27 04.01.2023
370 Clouds 4 1025 88 10000 2.24 274 21:31 04.01.2023
371 Clouds 5 1025 86 10000 2.24 276 20:21 04.01.2023
372 Clouds 3 1024 90 10000 2.68 275 19:45 04.01.2023
373 Clouds 6 1027 81 10000 1.79 174 19:27 04.01.2023
374 Clouds 6 1025 84 10000 2.24 262 18:18 04.01.2023
375 Clouds 8 1026 79 10000 2.68 270 16:31 04.01.2023
376 Clouds 9 1026 79 10000 2.24 259 14:50 04.01.2023
377 Clouds 8 1030 76 10000 3.09 260 12:36 04.01.2023
378 Clouds 7 1031 82 10000 2.57 250 11:23 04.01.2023
379 Clouds 4 1031 93 10000 2.57 260 10:44 04.01.2023
380 Clouds 6 1032 89 10000 2.06 250 10:25 04.01.2023
381 Fog 5 1031 93 10000 2.57 260 09:40 04.01.2023
382 Clouds 6 1031 94 8000 1.54 250 05:39 04.01.2023
383 Clouds 5 1031 98 7000 0.51 0 01:41 04.01.2023
384 Clouds 6 1030 96 8000 4.02 249 23:42 03.01.2023
385 Clouds 6 1030 96 8000 4.02 246 22:56 03.01.2023
386 Clouds 6 1029 95 8000 3.58 246 21:39 03.01.2023
387 Clouds 7 1030 95 8000 4.02 232 20:50 03.01.2023
388 Clouds 7 1029 94 10000 3.58 244 18:24 03.01.2023
389 Clouds 7 1028 87 10000 3.13 253 16:40 03.01.2023
390 Clouds 8 1028 84 10000 2.68 251 15:28 03.01.2023
391 Clouds 9 1028 76 10000 2.68 255 13:33 03.01.2023
392 Clouds 9 1028 76 10000 2.68 255 12:59 03.01.2023
393 Clouds 9 1028 76 10000 2.68 253 12:38 03.01.2023
394 Clouds 8 1028 81 10000 2.68 256 11:56 03.01.2023
395 Clouds 6 1028 85 10000 3.58 238 09:50 03.01.2023
396 Clouds 4 1028 89 10000 1.54 270 04:28 03.01.2023
397 Clouds 4 1026 88 10000 2.68 259 03:49 03.01.2023
398 Clouds 4 1026 85 10000 2.68 259 03:28 03.01.2023
399 Clear 6 1026 82 10000 2.68 270 23:19 02.01.2023
400 Clear 5 1025 82 10000 2.68 262 22:39 02.01.2023
401 Clear 7 1025 78 10000 3.13 270 20:59 02.01.2023
402 Clear 7 1025 75 10000 2.68 270 20:31 02.01.2023
403 Clear 8 1022 73 10000 4.12 270 18:49 02.01.2023
404 Clear 10 1023 62 10000 2.57 0 16:20 02.01.2023
405 Clear 11 1023 58 10000 5.14 270 14:26 02.01.2023
406 Clear 12 1022 63 10000 6.17 270 12:38 02.01.2023
407 Clear 9 1023 75 10000 4.12 290 11:27 02.01.2023
408 Clear 5 1023 84 10000 4.63 270 08:51 02.01.2023
409 Clouds 5 1026 85 10000 5.66 280 04:42 02.01.2023
410 Clouds 5 1026 85 10000 4.63 270 23:28 01.01.2023
411 Clear 6 1024 82 10000 2.68 261 21:54 01.01.2023
412 Clear 6 1024 82 10000 3.13 252 20:49 01.01.2023
413 Clear 7 1024 80 10000 3.09 260 20:18 01.01.2023
414 Clear 7 1024 80 10000 3.09 260 20:18 01.01.2023
415 Clear 7 1026 77 10000 2.06 280 18:53 01.01.2023
416 Clear 7 1025 76 10000 2.57 280 17:24 01.01.2023
417 Clear 9 1025 66 10000 2.06 230 16:57 01.01.2023
418 Clear 11 1024 62 10000 2.57 270 15:38 01.01.2023
419 Clear 12 1026 59 10000 4.12 270 13:49 01.01.2023
420 Clear 11 1026 64 10000 5.66 270 12:59 01.01.2023
421 Clear 9 1025 75 10000 6.17 270 11:41 01.01.2023
422 Clear 9 1025 75 10000 4.63 290 11:21 01.01.2023
423 Clear 4 1026 86 10000 2.68 257 09:35 01.01.2023
424 Clear 5 1028 81 10000 5.66 260 08:25 01.01.2023
425 Clear 5 1028 81 10000 3.6 250 07:57 01.01.2023
426 Clear 6 1028 81 10000 4.12 290 06:42 01.01.2023
427 Clouds 6 1026 82 10000 2.06 0 23:46 31.12.2022
428 Clouds 6 1026 85 10000 1.03 0 23:21 31.12.2022
429 Clouds 6 1026 83 10000 2.06 220 22:22 31.12.2022
430 Clouds 6 1025 85 10000 1.54 0 21:24 31.12.2022
431 Clouds 6 1026 85 10000 2.06 250 20:24 31.12.2022
432 Clouds 6 1025 85 10000 1.54 240 18:51 31.12.2022
433 Clouds 6 1025 85 10000 1.03 0 18:32 31.12.2022
434 Clouds 8 1022 80 10000 2.68 270 17:57 31.12.2022
435 Clouds 8 1022 78 10000 2.68 270 17:32 31.12.2022
436 Clouds 9 1022 76 10000 3.09 250 16:32 31.12.2022
437 Clouds 10 1022 74 10000 2.57 290 15:36 31.12.2022
438 Clouds 9 1021 82 10000 3.6 270 13:56 31.12.2022
439 Clouds 9 1021 78 10000 2.68 256 13:27 31.12.2022
440 Clouds 10 1025 73 10000 3.09 270 12:24 31.12.2022
441 Clouds 10 1025 74 10000 3.6 260 11:55 31.12.2022
442 Clouds 10 1025 74 10000 3.6 260 11:37 31.12.2022
443 Clouds 8 1024 81 10000 2.68 259 09:57 31.12.2022
444 Clouds 8 1024 80 10000 3.6 260 09:39 31.12.2022
445 Clouds 5 1026 90 10000 2.57 270 08:22 31.12.2022
446 Clouds 6 1019 82 10000 3.09 260 02:26 31.12.2022
447 Clouds 6 1018 81 10000 2.68 261 00:32 31.12.2022
448 Clouds 7 1018 74 10000 2.68 255 22:55 30.12.2022
449 Clouds 7 1018 74 10000 2.24 260 22:18 30.12.2022
450 Clouds 6 1020 73 10000 2.68 270 21:38 30.12.2022
451 Clouds 6 1020 74 10000 1.54 300 21:18 30.12.2022
452 Rain 8 1016 68 10000 4.63 260 18:28 30.12.2022
453 Clouds 7 1018 70 10000 4.12 260 17:34 30.12.2022
454 Clouds 8 1015 68 10000 4.63 270 16:48 30.12.2022
455 Clouds 9 1017 60 10000 5.14 270 14:55 30.12.2022
456 Clouds 9 1017 60 10000 5.14 270 14:55 30.12.2022
457 Clouds 8 1017 67 10000 3.6 260 12:54 30.12.2022
458 Clouds 2 1021 86 10000 0.51 0 08:24 30.12.2022
459 Clouds 3 1019 79 10000 2.06 90 03:58 30.12.2022
460 Clouds 3 1018 77 10000 3.6 280 02:26 30.12.2022
461 Clouds 3 1017 76 10000 5.66 280 23:45 29.12.2022
462 Clouds 4 1015 75 10000 4.12 280 21:55 29.12.2022
463 Clouds 4 1015 72 10000 4.63 280 21:20 29.12.2022
464 Clouds 4 1015 74 10000 3.6 280 20:45 29.12.2022
465 Clouds 4 1013 74 10000 4.63 270 19:21 29.12.2022
466 Clouds 5 1013 70 10000 2.24 279 17:53 29.12.2022
467 Clouds 5 1013 72 10000 2.24 270 17:25 29.12.2022
468 Clouds 5 1016 65 10000 4.63 250 16:54 29.12.2022
469 Clouds 6 1017 61 10000 3.6 260 15:49 29.12.2022
470 Clouds 8 1018 58 10000 6.17 270 13:41 29.12.2022
471 Clouds 5 1020 70 10000 5.66 260 11:52 29.12.2022
472 Clouds 2 1020 82 10000 4.63 280 09:47 29.12.2022
473 Clouds -1 1020 93 10000 5.14 270 03:35 29.12.2022
474 Clouds 0 1021 93 10000 0.51 0 23:29 28.12.2022
475 Clouds 2 1021 86 10000 1.54 260 22:19 28.12.2022
476 Clouds 1 1021 92 10000 1.03 0 21:20 28.12.2022
477 Clouds 2 1021 90 10000 1.54 0 19:57 28.12.2022
478 Clouds 3 1022 86 10000 1.54 260 18:25 28.12.2022
479 Clouds 6 1022 73 10000 1.03 0 16:21 28.12.2022
480 Clouds 6 1022 70 10000 2.06 250 13:55 28.12.2022
481 Clouds 4 1023 81 10000 1.03 0 12:48 28.12.2022
482 Clouds 3 1025 87 10000 1.03 0 11:33 28.12.2022
483 Mist 3 1026 93 5000 1.54 250 09:32 28.12.2022
484 Mist 2 1026 94 4000 1.54 160 07:32 28.12.2022
485 Mist 2 1026 94 4000 2.06 240 06:45 28.12.2022
486 Clouds 1 1029 98 10000 1.54 210 00:56 28.12.2022
487 Clouds 4 1029 94 10000 1.54 160 21:29 27.12.2022
488 Clouds 5 1030 88 10000 1.03 0 19:50 27.12.2022
489 Clouds 5 1030 89 10000 1.54 120 18:21 27.12.2022
490 Clouds 6 1030 84 10000 2.06 140 16:59 27.12.2022
491 Clouds 7 1029 80 10000 1.54 150 15:54 27.12.2022
492 Clouds 8 1029 77 10000 1.03 0 14:20 27.12.2022
493 Clouds 6 1030 83 10000 2.24 90 12:22 27.12.2022
494 Clouds 5 1029 91 10000 1.54 160 09:47 27.12.2022
495 Clouds 5 1029 91 10000 2.06 120 09:23 27.12.2022
496 Clouds 5 1029 93 10000 1.54 110 08:44 27.12.2022
497 Mist 5 1026 95 5000 1.03 0 04:33 27.12.2022
498 Clouds 6 1024 95 10000 1.54 150 23:25 26.12.2022
499 Rain 6 1025 98 10000 1.54 80 21:39 26.12.2022
500 Rain 6 1025 97 10000 1.03 0 20:43 26.12.2022
501 Clouds 6 1022 92 10000 2.57 150 18:50 26.12.2022
502 Clouds 7 1022 87 10000 3.09 0 17:52 26.12.2022
503 Clouds 8 1021 81 10000 3.09 260 16:37 26.12.2022
504 Clouds 9 1022 79 10000 5.14 270 14:49 26.12.2022
505 Clouds 10 1022 74 10000 5.14 270 12:53 26.12.2022
506 Mist 0 1023 100 10000 1.03 0 09:27 26.12.2022
507 Fog 4 1023 99 750 1.03 0 00:25 26.12.2022
508 Mist 5 1022 99 1300 1.34 248 23:38 25.12.2022
509 Fog 4 1022 98 1200 1.54 0 22:39 25.12.2022
510 Fog 4 1021 98 6000 1.54 80 21:49 25.12.2022
511 Fog 4 1021 98 5000 0.51 0 19:23 25.12.2022
512 Clouds 5 1021 98 10000 1.03 0 17:52 25.12.2022
513 Clouds 5 1021 97 10000 1.03 0 17:34 25.12.2022
514 Clouds 7 1020 92 10000 1.03 0 16:19 25.12.2022
515 Clouds 5 1020 100 7000 1.03 0 13:23 25.12.2022
516 Fog 4 1022 100 700 2.06 250 10:59 25.12.2022
517 Mist 7 1022 97 5000 1.03 0 02:57 25.12.2022
518 Drizzle 7 1022 97 3800 0.51 0 22:38 24.12.2022
519 Clouds 7 1022 98 6000 1.34 293 19:52 24.12.2022
520 Drizzle 8 1021 96 10000 1.03 300 16:51 24.12.2022
521 Clouds 9 1020 97 10000 0.51 0 14:55 24.12.2022
522 Clouds 9 1019 94 10000 0.51 0 13:35 24.12.2022
523 Rain 8 1020 96 7000 0.51 0 11:29 24.12.2022
524 Rain 8 1020 96 6000 0.89 357 10:22 24.12.2022
525 Rain 7 1019 95 10000 1.03 0 09:37 24.12.2022
526 Rain 6 1018 98 10000 1.54 110 07:37 24.12.2022
527 Fog 6 1015 98 10000 1.54 100 02:51 24.12.2022
528 Clouds 7 1014 98 10000 2.06 240 23:57 23.12.2022
529 Fog 6 1014 98 4000 1.03 0 22:29 23.12.2022
530 Rain 5 1013 98 5000 1.03 0 20:55 23.12.2022
531 Rain 6 1013 98 7000 1.03 0 19:39 23.12.2022
532 Rain 6 1013 98 5000 0.51 0 19:21 23.12.2022
533 Rain 6 1013 98 5000 1.03 0 18:53 23.12.2022
534 Rain 6 1013 98 6000 1.03 0 18:21 23.12.2022
535 Rain 6 1013 98 7000 0.51 0 16:39 23.12.2022
536 Rain 6 1013 98 10000 1.03 0 15:43 23.12.2022
537 Clouds 7 1014 95 10000 4.12 280 12:28 23.12.2022
538 Clouds 5 1015 96 9000 3.09 250 09:52 23.12.2022
539 Rain 5 1014 96 9000 2.57 310 09:33 23.12.2022
540 Rain 5 1014 96 7000 3.6 280 07:20 23.12.2022
541 Rain 5 1014 96 7000 2.06 310 06:48 23.12.2022
542 Clouds 1 1014 98 10000 1.03 0 23:24 22.12.2022
543 Clouds 1 1014 97 10000 1.03 0 22:58 22.12.2022
544 Fog 1 1015 97 10000 1.03 0 21:48 22.12.2022
545 Clouds 2 1015 96 10000 1.54 0 19:43 22.12.2022
546 Clouds 3 1015 92 10000 2.06 70 19:18 22.12.2022
547 Clouds 4 1015 90 10000 1.03 0 17:31 22.12.2022
548 Clouds 5 1015 86 10000 1.03 0 16:39 22.12.2022
549 Clouds 5 1013 81 10000 1.54 10 15:35 22.12.2022
550 Clouds 7 1014 80 10000 2.57 120 14:53 22.12.2022
551 Clouds 8 1013 77 10000 1.03 0 13:51 22.12.2022
552 Clouds 7 1014 76 10000 1.03 0 13:18 22.12.2022
553 Clouds 5 1015 85 10000 1.54 290 10:55 22.12.2022
554 Clouds 4 1015 88 10000 1.03 0 10:30 22.12.2022
555 Clouds 2 1015 93 10000 1.03 0 09:21 22.12.2022
556 Fog 2 1016 93 10000 1.03 0 08:28 22.12.2022
557 Clouds 4 1014 91 10000 1.54 60 06:41 22.12.2022
558 Fog 2 1016 93 450 0.51 0 04:18 22.12.2022
559 Clouds 1 1018 98 9000 1.54 220 23:51 21.12.2022
560 Clouds 2 1018 97 10000 1.54 120 21:58 21.12.2022
561 Clouds 4 1018 89 10000 2.06 280 21:24 21.12.2022
562 Clouds 4 1018 91 10000 2.57 260 20:54 21.12.2022
563 Clouds 5 1017 86 10000 1.03 0 20:29 21.12.2022
564 Clouds 5 1017 90 10000 1.03 0 19:43 21.12.2022
565 Clouds 5 1018 88 10000 1.03 0 19:24 21.12.2022
566 Clouds 3 1019 96 10000 0.89 0 18:46 21.12.2022
567 Clouds 3 1019 92 10000 1.54 270 17:38 21.12.2022
568 Clouds 7 1018 79 10000 1.03 0 14:58 21.12.2022
569 Clouds 6 1018 83 10000 1.03 0 13:28 21.12.2022
570 Clouds 6 1019 83 10000 1.54 120 11:47 21.12.2022
571 Clouds 5 1019 88 10000 0.51 0 11:20 21.12.2022
572 Clouds 4 1019 88 10000 1.03 300 09:47 21.12.2022
573 Clouds 1 1020 98 10000 0.51 0 07:38 21.12.2022
574 Mist 1 1020 97 4900 1.03 0 02:28 21.12.2022
575 Clouds -1 1019 100 9000 1.03 0 22:56 20.12.2022
576 Clouds 0 1020 100 9000 2.06 230 21:22 20.12.2022
577 Fog 0 1020 100 10000 1.03 0 20:23 20.12.2022
578 Clear 1 1022 96 10000 1.03 0 19:40 20.12.2022
579 Clouds 2 1022 95 10000 1.03 0 18:30 20.12.2022
580 Clouds 2 1022 95 10000 1.03 0 17:55 20.12.2022
581 Clouds 2 1022 95 10000 1.03 0 17:55 20.12.2022
582 Clouds 2 1022 94 10000 1.54 270 17:34 20.12.2022
583 Clear 3 1022 89 10000 1.03 0 16:35 20.12.2022
584 Clear 3 1021 87 10000 1.03 0 15:30 20.12.2022
585 Clear 3 1022 81 10000 1.54 260 14:47 20.12.2022
586 Clear 2 1022 87 10000 1.03 0 14:28 20.12.2022
587 Clouds 10 1023 65 10000 1.49 177 12:57 20.12.2022
588 Clouds 10 1023 67 10000 1.53 181 12:26 20.12.2022
589 Clouds 10 1024 63 10000 1.49 193 11:33 20.12.2022
590 Fog -3 1025 100 1100 2.06 280 08:48 20.12.2022
591 Mist -2 1027 100 1100 1.03 0 01:20 20.12.2022
592 Fog -3 1027 100 3000 1.03 0 22:39 19.12.2022
593 Fog -2 1027 100 5000 0.51 0 21:45 19.12.2022
594 Clouds -2 1027 100 10000 1.03 290 19:57 19.12.2022
595 Clouds -2 1027 100 10000 1.03 290 19:39 19.12.2022
596 Clear 0 1027 100 10000 1.03 0 18:33 19.12.2022
597 Clear 1 1027 93 10000 1.03 0 16:43 19.12.2022
598 Clouds 2 1028 80 10000 1.03 0 13:28 19.12.2022
599 Clouds 1 1029 86 10000 0.51 0 11:56 19.12.2022
600 Clouds 0 1030 86 10000 1.79 189 10:41 19.12.2022
601 Clouds -2 1029 93 10000 1.34 186 07:43 19.12.2022
602 Clouds -3 1029 93 10000 1.03 160 03:42 19.12.2022
603 Clear -5 1031 93 10000 1.03 0 22:35 18.12.2022
604 Clear -5 1031 93 10000 1.03 0 21:46 18.12.2022
605 Clear -6 1031 100 10000 1.34 182 21:22 18.12.2022
606 Clear -6 1031 100 10000 1.03 0 19:52 18.12.2022
607 Clear -6 1031 100 10000 1.03 0 19:34 18.12.2022
608 Clear -5 1031 93 10000 0.51 0 17:53 18.12.2022
609 Clear -2 1030 80 10000 1.54 270 16:32 18.12.2022
610 Snow -2 1030 74 10000 2.57 270 15:40 18.12.2022
611 Snow -2 1030 80 10000 1.03 0 15:40 18.12.2022
612 Snow -2 1030 74 10000 2.57 270 15:19 18.12.2022
613 Clear 8 1027 51 10000 1.19 166 13:40 18.12.2022
614 Clear 8 1028 46 10000 1.14 176 12:57 18.12.2022
615 Clear 7 1028 42 10000 1.14 196 12:20 18.12.2022
616 Clear 4 1031 40 10000 1.72 193 10:38 18.12.2022
617 Clear -9 1031 100 10000 1.03 0 08:47 18.12.2022
618 Fog -9 1031 92 10000 1.03 0 07:43 18.12.2022
619 Fog -8 1030 93 10000 0.89 169 06:21 18.12.2022
620 Clouds -5 1031 92 9000 1.03 0 03:40 18.12.2022
621 Clouds -5 1030 92 10000 1.03 0 01:48 18.12.2022
622 Clouds -3 1028 86 10000 2.06 120 22:21 17.12.2022
623 Clouds -1 1026 80 10000 1.54 110 19:42 17.12.2022
624 Clouds -1 1026 88 10000 1.54 150 17:18 17.12.2022
625 Snow 1 1024 87 10000 2.06 80 14:44 17.12.2022
626 Clouds 1 1024 91 10000 1.03 0 11:55 17.12.2022
627 Clouds 0 1024 92 9000 2.06 70 10:49 17.12.2022
628 Clouds 0 1023 92 9000 2.06 60 09:48 17.12.2022
629 Clouds -1 1022 92 7000 0.51 0 08:34 17.12.2022
630 Mist -1 1020 94 5000 1.03 0 06:46 17.12.2022
631 Clouds 0 1015 94 10000 2.57 80 23:58 16.12.2022
632 Clouds 1 1014 97 5000 2.57 90 21:38 16.12.2022
633 Snow 0 1012 98 3500 1.54 100 20:23 16.12.2022
634 Snow 1 1010 98 4000 2.06 90 17:19 16.12.2022
635 Clouds 1 1008 98 3000 2.06 90 14:49 16.12.2022
636 Clouds 1 1007 94 5000 1.54 90 13:50 16.12.2022
637 Clouds 1 1006 93 4500 1.54 80 12:20 16.12.2022
638 Clouds 2 1005 93 6000 2.57 70 10:47 16.12.2022
639 Clouds 2 1004 93 6000 2.06 70 09:29 16.12.2022
640 Clouds 1 1004 96 6000 3.6 70 08:26 16.12.2022
641 Clouds 1 1004 96 7000 3.6 90 07:54 16.12.2022
642 Snow 1 1001 96 7000 1.34 20 23:45 15.12.2022
643 Clouds 1 1001 96 8000 2.06 270 22:30 15.12.2022
644 Clouds 2 1001 93 10000 0.51 0 20:41 15.12.2022
645 Rain 2 1002 91 10000 1.54 250 19:37 15.12.2022
646 Rain 2 1004 90 10000 1.54 120 18:29 15.12.2022
647 Rain 2 1003 87 10000 1.03 0 17:27 15.12.2022
648 Clouds 3 1003 86 10000 1.03 0 15:39 15.12.2022
649 Clear 3 1004 86 10000 0.51 0 13:59 15.12.2022
650 Clear 0 1005 93 10000 1.03 0 12:43 15.12.2022
651 Clouds 1 1006 91 10000 2.06 260 10:29 15.12.2022
652 Fog -1 1005 93 450 1.03 0 08:54 15.12.2022
653 Clouds 0 1004 92 10000 1.03 0 06:27 15.12.2022
654 Clouds 1 1003 92 10000 2.06 110 05:19 15.12.2022
655 Clouds 1 1003 91 10000 2.06 110 05:19 15.12.2022
656 Clouds 2 1001 80 10000 1.79 204 21:25 14.12.2022
657 Clouds 2 1001 81 10000 1.34 186 20:59 14.12.2022
658 Clouds 3 1001 80 10000 2.06 260 20:31 14.12.2022
659 Clouds 3 1001 75 10000 1.34 174 18:38 14.12.2022
660 Clouds 4 1000 73 10000 2.06 240 16:58 14.12.2022
661 Clouds 3 999 72 10000 2.57 260 15:49 14.12.2022
662 Clouds 5 1000 66 10000 3.6 290 14:34 14.12.2022
663 Clouds 1 1000 80 10000 3.09 270 12:21 14.12.2022
664 Clouds -1 1001 80 10000 2.06 250 10:39 14.12.2022
665 Clouds 0 1003 81 10000 2.57 240 09:25 14.12.2022
666 Clouds -3 1005 89 10000 1.03 0 02:47 14.12.2022
667 Clouds -2 1008 84 10000 1.03 0 21:51 13.12.2022
668 Clouds -2 1008 82 10000 1.03 0 21:27 13.12.2022
669 Clouds -2 1008 84 10000 1.03 0 20:46 13.12.2022
670 Clouds -2 1009 82 10000 1.03 0 18:40 13.12.2022
671 Clouds -2 1009 77 10000 2.57 70 16:22 13.12.2022
672 Clouds -2 1008 77 10000 1.03 0 14:53 13.12.2022
673 Clouds -7 1007 79 10000 1.03 0 12:43 13.12.2022
674 Clear -8 1009 86 10000 1.03 0 10:38 13.12.2022
675 Clear -11 1009 92 10000 1.03 0 09:45 13.12.2022
676 Clear -9 1010 90 10000 1.03 0 07:51 13.12.2022
677 Clear -9 1013 89 10000 1.03 0 22:23 12.12.2022
678 Clear -8 1013 90 10000 1.03 240 21:39 12.12.2022
679 Clouds -7 1013 89 10000 1.03 0 19:33 12.12.2022
680 Clouds -6 1013 85 10000 1.03 0 17:39 12.12.2022
681 Snow -3 1012 72 10000 2.57 130 15:23 12.12.2022
682 Snow -4 1013 76 10000 1.03 0 12:50 12.12.2022
683 Clouds -9 1013 90 10000 1.03 0 09:20 12.12.2022
684 Clouds -9 1012 89 10000 1.03 260 07:37 12.12.2022
685 Clouds -8 1011 90 10000 1.54 270 03:53 12.12.2022
686 Clouds -5 1009 89 10000 1.54 260 23:51 11.12.2022
687 Clouds -4 1009 84 10000 2.57 280 21:43 11.12.2022
688 Clouds -4 1009 88 10000 2.06 270 20:26 11.12.2022
689 Clouds -3 1007 80 10000 2.06 270 19:37 11.12.2022
690 Clouds -3 1008 87 10000 1.54 270 18:29 11.12.2022
691 Clouds -3 1008 87 10000 2.57 270 17:33 11.12.2022
692 Clouds -2 1008 86 10000 2.06 80 16:52 11.12.2022
693 Snow -2 1007 84 10000 2.57 120 15:48 11.12.2022
694 Snow -1 1007 80 10000 2.57 80 15:28 11.12.2022
695 Clouds -1 1008 83 10000 3.09 80 13:23 11.12.2022
696 Clouds -1 1008 88 10000 3.09 80 12:40 11.12.2022
697 Clouds -2 1009 93 9000 2.06 90 09:46 11.12.2022
698 Clouds 1 1007 97 6000 2.06 280 00:35 11.12.2022
699 Clouds 1 1007 97 2400 1.03 0 23:56 10.12.2022
700 Clouds 1 1007 97 5000 1.54 260 22:33 10.12.2022
701 Clouds 1 1007 97 3700 1.03 270 21:26 10.12.2022
702 Clouds 1 1007 97 3800 1.03 0 20:41 10.12.2022
703 Snow 1 1006 97 2700 2.06 270 19:55 10.12.2022
704 Snow 1 1006 97 2700 2.06 270 19:55 10.12.2022
705 Clouds 1 1005 97 4000 1.34 295 17:18 10.12.2022
706 Mist 1 1004 94 3000 1.03 0 16:36 10.12.2022
707 Clouds 1 1004 94 3500 2.06 90 15:39 10.12.2022
708 Clouds 1 1003 94 3500 2.57 90 14:58 10.12.2022
709 Clouds 2 1003 95 5000 1.54 70 12:55 10.12.2022
710 Clouds 2 1003 95 3300 1.54 80 11:49 10.12.2022
711 Clouds 1 1004 97 1500 1.03 0 10:45 10.12.2022
712 Snow 1 1004 97 3500 1.03 0 09:38 10.12.2022
713 Clouds 1 1004 97 3300 1.54 90 07:20 10.12.2022
714 Clouds 1 1004 96 10000 1.03 0 01:58 10.12.2022
715 Clouds 1 1003 96 10000 1.03 0 23:20 09.12.2022
716 Clouds 1 1003 96 10000 3.09 70 22:41 09.12.2022
717 Clouds 1 1002 96 6000 3.09 80 21:26 09.12.2022
718 Clouds 1 1002 96 4000 2.57 80 20:44 09.12.2022
719 Clouds 1 1002 94 6000 1.03 0 19:28 09.12.2022
720 Snow 3 1001 79 10000 1.54 210 17:55 09.12.2022
721 Rain 3 1000 76 10000 1.03 0 16:36 09.12.2022
722 Clouds 3 1000 76 10000 2.57 80 16:18 09.12.2022
723 Clouds 3 998 73 10000 1.03 0 15:19 09.12.2022
724 Snow 2 1001 78 10000 0.51 0 11:36 09.12.2022
725 Snow 1 1002 84 10000 0.89 322 10:37 09.12.2022
726 Clouds 0 1003 83 10000 1.03 0 08:55 09.12.2022
727 Clouds -2 1007 82 10000 1.54 250 03:33 09.12.2022
728 Clouds -2 1008 86 10000 2.06 250 00:56 09.12.2022
729 Clouds -1 1010 86 10000 1.03 0 22:20 08.12.2022
730 Clear -1 1009 86 10000 1.03 0 20:51 08.12.2022
731 Clear 1 1009 81 10000 2.06 250 17:51 08.12.2022
732 Clear 2 1008 73 10000 2.06 160 15:44 08.12.2022
733 Clouds 4 1009 66 10000 1.54 160 14:27 08.12.2022
734 Clouds 1 1011 77 10000 1.03 0 11:33 08.12.2022
735 Clouds -2 1011 93 10000 1.03 0 09:54 08.12.2022
736 Clouds -2 1012 90 10000 0.51 0 09:26 08.12.2022
737 Clouds -2 1013 89 10000 1.03 0 02:36 08.12.2022
738 Clouds 0 1013 93 10000 1.54 260 22:19 07.12.2022
739 Clouds 1 1013 86 10000 1.54 260 21:50 07.12.2022
740 Clouds 1 1015 87 10000 0.51 0 21:31 07.12.2022
741 Clouds 2 1015 87 10000 1.03 130 19:44 07.12.2022
742 Clouds 2 1016 86 10000 1.54 120 17:37 07.12.2022
743 Clouds 4 1016 77 10000 3.09 90 14:41 07.12.2022
744 Clouds 3 1017 82 10000 1.03 0 12:37 07.12.2022
745 Clouds 1 1018 88 10000 0.51 0 10:43 07.12.2022
746 Clouds 1 1018 89 10000 1.03 230 09:54 07.12.2022
747 Clouds 0 1017 90 10000 1.03 0 08:47 07.12.2022
748 Clouds -1 1015 100 10000 0.51 0 06:48 07.12.2022
749 Clouds -1 1015 100 10000 1.03 250 05:23 07.12.2022
750 Clouds -1 1016 93 10000 0.51 0 23:37 06.12.2022
751 Clouds 1 1016 93 10000 1.03 0 20:53 06.12.2022
752 Clouds 1 1016 93 10000 1.03 0 18:21 06.12.2022
753 Clouds 3 1016 81 10000 1.03 0 16:43 06.12.2022
754 Clouds 4 1017 81 10000 1.54 200 16:20 06.12.2022
755 Clouds 5 1017 78 10000 1.54 180 15:34 06.12.2022
756 Clouds 6 1018 70 10000 1.54 140 14:28 06.12.2022
757 Clouds 4 1018 72 10000 2.06 170 12:59 06.12.2022
758 Clouds 4 1018 72 10000 2.06 170 12:40 06.12.2022
759 Clouds 1 1019 91 10000 2.06 260 09:43 06.12.2022
760 Clouds 0 1019 100 10000 1.03 0 06:44 06.12.2022
761 Clouds 2 1020 96 8000 1.03 0 01:26 06.12.2022
762 Clouds 3 1020 97 10000 1.54 90 22:37 05.12.2022
763 Rain 3 1020 94 10000 1.54 90 21:19 05.12.2022
764 Rain 3 1020 97 10000 2.57 110 20:36 05.12.2022
765 Rain 3 1019 96 10000 3.09 70 19:46 05.12.2022
766 Rain 3 1019 96 10000 1.54 30 18:38 05.12.2022
767 Rain 4 1018 92 10000 3.6 0 16:49 05.12.2022
768 Clouds 6 1017 89 10000 2.68 23 15:24 05.12.2022
769 Clouds 7 1016 83 10000 1.03 0 13:27 05.12.2022
770 Clouds 7 1017 82 10000 1.54 240 12:52 05.12.2022
771 Clouds 6 1017 83 10000 1.54 240 12:34 05.12.2022
772 Clouds 5 1017 91 10000 1.54 120 10:58 05.12.2022
773 Clouds 3 1015 93 10000 3.6 270 04:52 05.12.2022
774 Clouds 4 1014 87 10000 5.14 280 23:25 04.12.2022
775 Clouds 5 1014 90 10000 3.6 290 22:37 04.12.2022
776 Clouds 5 1014 89 10000 3.6 290 22:18 04.12.2022
777 Clouds 5 1013 89 10000 3.6 310 21:27 04.12.2022
778 Clouds 4 1012 89 10000 4.12 270 19:47 04.12.2022
779 Clouds 5 1012 89 10000 3.6 260 19:22 04.12.2022
780 Clouds 5 1011 88 10000 2.06 290 17:40 04.12.2022
781 Clouds 5 1011 84 10000 1.54 130 17:21 04.12.2022
782 Clouds 6 1011 80 10000 1.03 0 16:36 04.12.2022
783 Clouds 6 1011 79 10000 2.24 293 16:18 04.12.2022
784 Clouds 8 1010 82 10000 1.54 0 14:49 04.12.2022
785 Clouds 7 1010 84 10000 1.03 0 13:38 04.12.2022
786 Clouds 6 1011 87 10000 1.03 0 12:44 04.12.2022
787 Clouds 6 1011 87 10000 2.57 270 11:59 04.12.2022
788 Clouds 3 1012 96 10000 1.03 350 09:40 04.12.2022
789 Clouds 3 1012 95 10000 1.03 0 07:33 04.12.2022
790 Clouds 1 1014 93 10000 1.54 230 02:22 04.12.2022
791 Clouds 3 1015 94 10000 0.51 0 23:43 03.12.2022
792 Clouds 3 1015 91 10000 1.03 0 22:24 03.12.2022
793 Clouds 3 1015 91 10000 1.03 0 21:39 03.12.2022
794 Clouds 3 1016 91 10000 1.03 0 20:34 03.12.2022
795 Clouds 2 1016 87 10000 1.54 150 18:40 03.12.2022
796 Clouds 3 1015 83 10000 1.54 70 17:22 03.12.2022
797 Clouds 4 1015 82 10000 2.57 80 15:48 03.12.2022
798 Clouds 4 1016 83 10000 4.63 260 12:55 03.12.2022
799 Clouds 4 1016 86 10000 2.57 260 12:26 03.12.2022
800 Clouds 2 1018 95 10000 2.57 280 10:27 03.12.2022
801 Clouds 1 1019 93 10000 3.6 260 07:58 03.12.2022
802 Clouds 2 1019 93 10000 1.54 290 01:31 03.12.2022
803 Clouds 2 1019 93 10000 1.54 290 01:31 03.12.2022
804 Clouds 2 1019 92 10000 1.54 180 23:25 02.12.2022
805 Clouds 2 1018 92 10000 1.54 140 21:23 02.12.2022
806 Clouds 3 1018 91 10000 3.09 70 19:34 02.12.2022
807 Clouds 4 1017 87 10000 0.89 68 16:19 02.12.2022
808 Clouds 4 1017 87 10000 1.03 0 14:46 02.12.2022
809 Clouds 4 1017 89 10000 0.51 0 14:27 02.12.2022
810 Clouds 4 1017 88 10000 1.03 0 13:36 02.12.2022
811 Drizzle 3 1018 92 8000 1.54 100 11:44 02.12.2022
812 Drizzle 3 1018 95 7000 2.06 70 09:46 02.12.2022
813 Drizzle 3 1018 95 7000 2.06 70 09:46 02.12.2022
814 Drizzle 3 1018 95 7000 2.06 70 09:46 02.12.2022
815 Drizzle 3 1018 95 7000 2.06 70 09:46 02.12.2022
816 Drizzle 3 1018 95 7000 2.06 70 09:46 02.12.2022
817 Drizzle 3 1018 94 8000 0.51 0 07:25 02.12.2022
818 Clouds 3 1019 94 10000 1.03 0 05:58 02.12.2022
819 Clouds 4 1021 91 10000 2.06 90 22:30 01.12.2022
820 Clouds 4 1020 90 10000 1.54 80 21:39 01.12.2022
821 Clouds 4 1020 90 10000 2.06 80 20:30 01.12.2022
822 Clouds 4 1020 84 10000 3.09 80 18:56 01.12.2022
823 Clouds 4 1020 86 10000 3.09 60 16:22 01.12.2022
824 Clouds 5 1020 83 10000 2.57 110 13:41 01.12.2022
825 Clouds 4 1021 91 10000 2.57 80 10:42 01.12.2022
826 Clouds 4 1021 91 10000 2.57 80 10:42 01.12.2022
827 Clouds 3 1021 92 10000 1.54 70 09:54 01.12.2022
828 Clouds 3 1021 92 10000 1.54 70 09:36 01.12.2022
829 Clouds 3 1020 92 10000 2.57 80 05:34 01.12.2022
830 Clouds 4 1021 94 10000 2.57 80 22:40 30.11.2022
831 Clouds 4 1020 94 10000 3.09 80 21:20 30.11.2022
832 Clouds 4 1020 94 10000 2.57 80 20:48 30.11.2022
833 Clouds 4 1020 92 10000 4.12 80 20:23 30.11.2022
834 Clouds 5 1020 92 10000 2.57 90 18:35 30.11.2022
835 Clouds 5 1020 91 10000 4.12 70 17:39 30.11.2022
836 Clouds 5 1020 91 10000 2.57 80 16:20 30.11.2022
837 Clouds 5 1019 90 10000 2.57 80 14:41 30.11.2022
838 Clouds 5 1019 90 10000 2.24 68 14:23 30.11.2022
839 Clouds 5 1020 92 10000 2.57 70 11:38 30.11.2022
840 Clouds 5 1020 95 7000 3.6 70 08:40 30.11.2022
841 Clouds 5 1020 97 7000 1.03 0 07:58 30.11.2022
842 Clouds 5 1020 97 7000 1.03 0 07:58 30.11.2022
843 Clouds 5 1019 97 8000 0.89 68 04:24 30.11.2022
844 Clouds 4 1019 97 10000 0.51 0 23:22 29.11.2022
845 Drizzle 4 1019 97 10000 0.51 0 21:47 29.11.2022
846 Clouds 5 1018 95 10000 1.03 0 20:42 29.11.2022
847 Clouds 4 1018 95 10000 1.54 80 19:36 29.11.2022
848 Clouds 4 1017 95 10000 2.57 80 17:51 29.11.2022
849 Clouds 5 1017 95 10000 1.03 90 16:28 29.11.2022
850 Clouds 5 1017 92 10000 1.03 100 14:51 29.11.2022
851 Clouds 5 1016 94 10000 0.51 0 13:38 29.11.2022
852 Clouds 5 1016 94 10000 1.03 0 12:35 29.11.2022
853 Clouds 5 1017 95 9000 1.03 0 11:30 29.11.2022
854 Clouds 5 1016 97 7000 1.03 0 10:23 29.11.2022
855 Rain 4 1016 94 5000 1.54 110 08:43 29.11.2022
856 Clouds 5 1015 97 6000 0.51 0 05:52 29.11.2022
857 Clouds 5 1016 94 6000 0.51 0 23:46 28.11.2022
858 Clouds 5 1016 94 8000 1.03 260 23:21 28.11.2022
859 Clouds 5 1016 93 10000 1.03 0 21:55 28.11.2022
860 Clouds 5 1016 93 10000 1.03 0 21:36 28.11.2022
861 Clouds 5 1016 92 10000 1.54 260 20:20 28.11.2022
862 Clouds 6 1016 86 10000 1.03 0 18:40 28.11.2022
863 Clouds 6 1016 88 10000 1.54 270 17:54 28.11.2022
864 Clouds 6 1016 83 10000 1.03 0 17:21 28.11.2022
865 Clouds 6 1016 77 10000 1.03 0 14:43 28.11.2022
866 Rain 7 1016 72 10000 0.51 0 13:52 28.11.2022
867 Clouds 7 1015 67 10000 2.06 0 12:44 28.11.2022
868 Clouds 7 1015 67 10000 2.06 0 12:44 28.11.2022
869 Clouds 6 1016 70 10000 3.09 270 10:55 28.11.2022
870 Rain 4 1017 70 10000 1.54 260 07:54 28.11.2022
871 Clouds -1 1017 86 10000 1.54 350 04:53 28.11.2022
872 Clouds -1 1018 86 10000 2.06 280 03:59 28.11.2022
873 Clouds -1 1018 86 10000 1.54 250 03:20 28.11.2022
874 Clouds 0 1020 77 10000 2.57 280 23:43 27.11.2022
875 Clear 1 1023 79 10000 1.34 181 21:49 27.11.2022
876 Clear 1 1024 77 10000 1.03 0 20:36 27.11.2022
877 Clear 3 1025 75 10000 1.54 230 18:00 27.11.2022
878 Clear 7 1025 55 10000 1.54 200 15:36 27.11.2022
879 Clear 5 1026 55 10000 2.06 240 13:34 27.11.2022
880 Clear 1 1028 80 10000 1.54 240 10:57 27.11.2022
881 Clear 0 1030 88 10000 1.54 240 08:47 27.11.2022
882 Clouds -1 1030 93 10000 1.03 280 04:47 27.11.2022
883 Clouds 3 1031 93 10000 0.51 0 22:34 26.11.2022
884 Clouds 3 1031 93 10000 1.54 270 20:51 26.11.2022
885 Clouds 4 1032 91 10000 0.51 0 19:30 26.11.2022
886 Clouds 5 1032 88 10000 1.54 130 17:56 26.11.2022
887 Clouds 7 1031 77 10000 2.57 90 15:53 26.11.2022
888 Clouds 7 1031 82 10000 3.09 110 13:51 26.11.2022
889 Clouds 6 1032 88 10000 1.34 135 12:23 26.11.2022
890 Clouds 6 1032 91 10000 1.54 320 10:51 26.11.2022
891 Clouds 4 1032 93 10000 0.89 270 09:31 26.11.2022
892 Clouds 2 1029 100 10000 1.03 0 06:41 26.11.2022
893 Clouds 4 1026 88 10000 0.51 0 21:46 25.11.2022
894 Clouds 4 1026 88 10000 0.51 0 21:46 25.11.2022
895 Clouds 4 1024 90 10000 1.03 150 21:24 25.11.2022
896 Clouds 3 1022 93 10000 1.03 0 19:57 25.11.2022
897 Clouds 4 1020 81 10000 2.06 0 16:50 25.11.2022
898 Clear 8 1021 71 10000 1.54 150 14:37 25.11.2022
899 Clouds 3 1021 91 10000 1.03 0 09:24 25.11.2022
900 Clouds 2 1021 94 10000 1.54 100 08:41 25.11.2022
901 Clouds 2 1020 94 10000 1.54 240 06:55 25.11.2022
902 Clouds 2 1020 93 8000 1.54 280 06:24 25.11.2022
903 Clouds 2 1020 98 10000 1.03 0 23:55 24.11.2022
904 Fog 2 1020 98 2500 2.57 260 22:51 24.11.2022
905 Fog 2 1020 98 8000 1.03 0 21:59 24.11.2022
906 Clouds 3 1020 96 10000 1.03 0 20:33 24.11.2022
907 Clouds 3 1020 96 10000 1.03 0 18:54 24.11.2022
908 Clouds 3 1019 93 10000 1.54 140 17:43 24.11.2022
909 Clouds 3 1019 96 10000 1.54 130 17:20 24.11.2022
910 Clouds 7 1018 87 10000 2.06 120 15:18 24.11.2022
911 Rain 6 1018 90 10000 1.03 0 13:49 24.11.2022
912 Clouds 5 1018 94 10000 1.54 330 11:56 24.11.2022
913 Fog 4 1017 94 500 1.54 0 10:36 24.11.2022
914 Clouds 2 1017 98 6000 1.03 0 07:53 24.11.2022
915 Clouds 2 1014 98 10000 1.54 0 03:22 24.11.2022
916 Clouds 3 1012 96 10000 1.03 0 23:46 23.11.2022
917 Rain 3 1011 93 10000 1.54 120 21:57 23.11.2022
918 Rain 3 1010 94 10000 2.57 290 21:24 23.11.2022
919 Clouds 2 1008 93 10000 1.54 240 20:21 23.11.2022
920 Clouds 2 1007 97 10000 1.03 0 19:27 23.11.2022
921 Clouds 2 1007 97 10000 1.03 0 19:27 23.11.2022
922 Clouds 1 1007 96 10000 0.51 0 18:41 23.11.2022
923 Clouds 3 1005 87 10000 1.54 120 16:39 23.11.2022
924 Clouds 5 1006 88 10000 1.03 0 13:40 23.11.2022
925 Clouds 4 1006 89 10000 2.06 0 13:20 23.11.2022
926 Clouds 4 1007 92 10000 1.54 220 12:21 23.11.2022
927 Clouds 4 1007 92 10000 1.54 220 11:41 23.11.2022
928 Clouds 3 1007 92 10000 1.54 240 10:42 23.11.2022
929 Clouds 3 1007 95 10000 1.54 180 09:43 23.11.2022
930 Clouds 3 1007 95 10000 1.54 220 09:25 23.11.2022
931 Clouds 3 1007 97 10000 1.03 280 08:37 23.11.2022
932 Clouds 2 1006 98 9000 1.03 280 05:22 23.11.2022
933 Snow 2 1006 98 7000 1.03 70 04:23 23.11.2022
934 Clouds 3 1005 98 8000 1.03 0 22:59 22.11.2022
935 Clouds 3 1005 98 8000 1.03 0 22:33 22.11.2022
936 Clouds 3 1005 98 8000 1.54 130 21:34 22.11.2022
937 Clouds 2 1005 98 8000 1.03 0 20:45 22.11.2022
938 Clouds 2 1005 98 8000 1.03 0 20:45 22.11.2022
939 Rain 2 1005 98 8000 2.06 100 19:53 22.11.2022
940 Clouds 2 1004 97 7000 0.51 0 17:56 22.11.2022
941 Snow 2 1004 97 5000 1.54 90 17:21 22.11.2022
942 Snow 2 1004 97 5000 1.54 90 17:21 22.11.2022
943 Snow 2 1004 97 5000 1.54 90 17:21 22.11.2022
944 Snow 2 1003 97 4000 0.51 0 15:51 22.11.2022
945 Snow 2 1001 98 1500 1.03 0 13:42 22.11.2022
946 Mist 3 1001 97 2500 1.03 0 11:40 22.11.2022
947 Rain 3 1001 95 4500 1.54 300 09:20 22.11.2022
948 Rain 4 1000 92 10000 3.09 90 07:20 22.11.2022
949 Clouds 2 1000 93 10000 5.66 280 01:46 22.11.2022
950 Clouds 3 1001 92 10000 4.12 300 23:40 21.11.2022
951 Clouds 2 1001 97 10000 2.57 270 22:42 21.11.2022
952 Clouds 3 1002 93 10000 2.06 0 21:58 21.11.2022
953 Clouds 3 1002 95 10000 2.06 260 20:52 21.11.2022
954 Clouds 3 1003 92 10000 1.54 130 19:41 21.11.2022
955 Clouds 3 1004 93 10000 1.03 0 18:54 21.11.2022
956 Clouds 3 1005 90 10000 3.09 110 17:58 21.11.2022
957 Clouds 4 1005 89 10000 4.63 100 16:55 21.11.2022
958 Clouds 4 1005 88 10000 4.63 100 16:37 21.11.2022
959 Clouds 7 1006 81 10000 5.14 80 15:37 21.11.2022
960 Clouds 6 1006 82 10000 2.57 130 14:28 21.11.2022
961 Clouds 6 1007 83 10000 4.12 120 13:43 21.11.2022
962 Clouds 5 1010 89 10000 1.03 0 11:37 21.11.2022
963 Snow 3 1010 94 6000 2.06 290 09:18 21.11.2022
964 Rain 4 1009 86 10000 1.03 280 07:39 21.11.2022
965 Clouds 2 1011 81 10000 1.54 350 22:34 20.11.2022
966 Clear 3 1011 77 10000 1.03 0 21:34 20.11.2022
967 Clear 3 1012 79 10000 1.03 0 20:32 20.11.2022
968 Clouds 4 1012 72 10000 0.51 0 18:26 20.11.2022
969 Clouds 7 1010 57 10000 1.03 0 16:24 20.11.2022
970 Clouds 9 1012 56 10000 2.24 90 15:29 20.11.2022
971 Clouds 9 1011 55 10000 1.03 0 14:41 20.11.2022
972 Clouds 10 1012 60 10000 1.54 0 13:32 20.11.2022
973 Clouds 9 1013 69 10000 1.03 0 12:38 20.11.2022
974 Clouds 6 1014 84 10000 1.03 0 11:25 20.11.2022
975 Clouds 6 1014 87 10000 1.03 320 10:30 20.11.2022
976 Clouds 4 1014 90 10000 1.03 290 09:23 20.11.2022
977 Clouds 5 1014 89 10000 1.03 0 08:35 20.11.2022
978 Clouds 5 1013 90 10000 0.51 0 07:29 20.11.2022
979 Clouds 4 1012 93 10000 0.51 0 02:19 20.11.2022
980 Clouds 4 1012 90 10000 1.03 0 01:20 20.11.2022
981 Clouds 5 1012 90 10000 1.03 300 00:41 20.11.2022
982 Clouds 5 1012 93 10000 1.03 0 00:22 20.11.2022
983 Clouds 4 1012 90 10000 1.03 0 23:49 19.11.2022
984 Clouds 5 1012 90 10000 1.03 0 23:23 19.11.2022
985 Clouds 5 1012 90 10000 1.03 0 22:38 19.11.2022
986 Clouds 6 1012 89 10000 0.51 0 21:32 19.11.2022
987 Clouds 6 1011 87 10000 1.03 140 20:57 19.11.2022
988 Clouds 6 1011 87 10000 1.03 140 20:33 19.11.2022
989 Clouds 6 1010 81 10000 1.03 0 18:57 19.11.2022
990 Clouds 8 1010 75 10000 1.03 240 17:41 19.11.2022
991 Clouds 8 1010 76 10000 1.54 190 17:19 19.11.2022
992 Clouds 7 1008 76 10000 2.06 160 15:41 19.11.2022
993 Clouds 10 1009 63 10000 1.54 140 14:30 19.11.2022
994 Clouds 8 1011 78 10000 1.54 170 11:58 19.11.2022
995 Clouds 7 1011 83 10000 1.03 0 10:56 19.11.2022
996 Clouds 4 1011 93 10000 1.03 0 08:39 19.11.2022
997 Clouds 4 1009 94 10000 2.06 250 04:55 19.11.2022
998 Clouds 4 1008 94 10000 1.03 0 02:51 19.11.2022
999 Clouds 5 1009 94 10000 1.54 240 23:45 18.11.2022
1000 Clouds 6 1008 94 10000 0.51 0 22:35 18.11.2022
1001 Clouds 6 1008 93 10000 1.03 0 21:37 18.11.2022
1002 Clouds 7 1008 94 10000 1.54 130 20:59 18.11.2022
1003 Clouds 7 1007 94 10000 2.57 130 20:30 18.11.2022
1004 Clouds 7 1007 94 10000 1.34 68 19:46 18.11.2022
1005 Clouds 7 1006 90 10000 1.03 0 18:36 18.11.2022
1006 Clouds 7 1005 89 10000 2.06 40 17:42 18.11.2022
1007 Clouds 9 1004 81 10000 2.06 120 13:57 18.11.2022
1008 Clouds 7 1004 92 10000 1.54 90 11:28 18.11.2022
1009 Rain 6 1003 95 10000 1.03 0 08:46 18.11.2022
1010 Clouds 5 1003 93 10000 1.03 0 07:51 18.11.2022
1011 Clouds 5 1001 95 10000 2.06 260 05:18 18.11.2022
1012 Clouds 6 1001 90 10000 2.06 90 00:46 18.11.2022
1013 Clouds 5 1001 92 10000 2.06 270 21:30 17.11.2022
1014 Clouds 6 1001 91 10000 1.54 220 20:45 17.11.2022
1015 Clouds 6 1001 92 10000 1.54 270 19:51 17.11.2022
1016 Clouds 6 1001 87 10000 1.54 240 18:35 17.11.2022
1017 Clouds 8 1001 87 10000 1.03 0 17:32 17.11.2022
1018 Clouds 9 1001 83 10000 2.06 140 16:48 17.11.2022
1019 Clouds 11 1001 74 10000 1.54 100 13:33 17.11.2022
1020 Clouds 8 1001 81 10000 2.06 170 11:21 17.11.2022
1021 Clouds 6 1002 95 10000 2.57 70 08:23 17.11.2022
1022 Clouds 5 1003 96 10000 1.54 280 03:51 17.11.2022
1023 Clouds 6 1004 97 10000 0.51 0 00:21 17.11.2022
1024 Clouds 7 1004 99 10000 0.51 0 22:29 16.11.2022
1025 Clouds 7 1004 98 10000 1.03 0 20:36 16.11.2022
1026 Clouds 7 1005 100 10000 0.51 0 19:49 16.11.2022
1027 Clouds 8 1005 97 10000 1.03 0 18:40 16.11.2022
1028 Clouds 9 1005 95 10000 2.06 90 17:20 16.11.2022
1029 Rain 10 1005 94 10000 1.34 90 13:54 16.11.2022
1030 Rain 9 1006 93 10000 2.06 80 09:38 16.11.2022
1031 Clouds 8 1007 78 10000 1.54 0 02:32 16.11.2022
1032 Clouds 6 1007 84 10000 2.57 240 01:25 16.11.2022
1033 Clouds 7 1009 77 10000 3.6 250 22:22 15.11.2022
1034 Clouds 8 1010 76 10000 3.6 270 20:45 15.11.2022
1035 Clouds 9 1010 68 10000 4.63 290 19:34 15.11.2022
1036 Clouds 10 1010 67 10000 4.12 270 18:26 15.11.2022
1037 Clouds 10 1009 62 10000 2.57 270 17:21 15.11.2022
1038 Clouds 11 1010 57 10000 3.6 270 16:19 15.11.2022
1039 Clouds 13 1011 53 10000 4.63 270 14:44 15.11.2022
1040 Clear 12 1012 54 10000 6.69 270 12:59 15.11.2022
1041 Clear 9 1013 57 10000 4.63 260 11:43 15.11.2022
1042 Clear 7 1015 70 10000 2.57 250 10:41 15.11.2022
1043 Clear 4 1016 84 10000 2.06 280 07:40 15.11.2022
1044 Clouds 4 1020 84 10000 2.06 240 00:35 15.11.2022
1045 Clouds 5 1020 81 10000 2.57 260 22:59 14.11.2022
1046 Clouds 6 1020 73 10000 1.54 260 21:19 14.11.2022
1047 Clouds 6 1020 73 10000 1.54 260 20:38 14.11.2022
1048 Clouds 11 1018 50 10000 2.06 0 18:29 14.11.2022
1049 Clouds 15 1018 38 10000 6.69 110 15:45 14.11.2022
1050 Clouds 16 1018 36 10000 5.14 50 12:54 14.11.2022
1051 Clouds 10 1018 66 10000 3.6 270 11:41 14.11.2022
1052 Clouds 6 1018 81 10000 4.12 250 09:25 14.11.2022
1053 Clouds 6 1018 81 10000 2.57 0 07:54 14.11.2022
1054 Clouds 5 1018 81 10000 1.54 260 06:19 14.11.2022
1055 Clouds 4 1019 87 10000 3.09 260 00:18 14.11.2022
1056 Clear 5 1019 87 10000 3.09 260 21:53 13.11.2022
1057 Clear 5 1019 81 10000 2.06 0 21:21 13.11.2022
1058 Clear 7 1020 77 10000 2.06 0 19:27 13.11.2022
1059 Clear 9 1019 72 10000 1.34 68 17:56 13.11.2022
1060 Clear 9 1019 65 10000 1.03 0 17:21 13.11.2022
1061 Clear 13 1020 51 10000 2.06 0 14:58 13.11.2022
1062 Clear 12 1020 54 10000 4.63 270 13:35 13.11.2022
1063 Clear 10 1022 62 10000 2.06 250 12:37 13.11.2022
1064 Clear 5 1024 87 10000 1.03 0 10:52 13.11.2022
1065 Fog -1 1025 100 10000 1.03 0 07:39 13.11.2022
1066 Mist 5 1028 83 1100 1.03 250 01:34 13.11.2022
1067 Clear 7 1030 84 10000 0.51 0 22:29 12.11.2022
1068 Clear 7 1030 80 10000 0.51 0 21:24 12.11.2022
1069 Clear 8 1031 80 10000 0 0 19:55 12.11.2022
1070 Clear 9 1031 81 10000 0.51 0 17:57 12.11.2022
1071 Clear 12 1031 71 10000 1.03 0 16:25 12.11.2022
1072 Clear 14 1032 61 10000 0.51 0 15:22 12.11.2022
1073 Clear 9 1033 76 10000 0.51 0 12:27 12.11.2022
1074 Clouds 11 1034 69 10000 1.16 212 09:20 12.11.2022
1075 Clouds 1 1034 100 10000 0.51 0 05:31 12.11.2022
1076 Clear 6 1036 88 10000 2.06 260 22:30 11.11.2022
1077 Clear 7 1036 88 10000 1.03 0 20:46 11.11.2022
1078 Clear 7 1036 88 10000 1.03 0 20:46 11.11.2022
1079 Clear 8 1035 85 10000 1.03 0 19:42 11.11.2022
1080 Clear 5 1035 93 10000 0.51 0 19:20 11.11.2022
1081 Clear 9 1035 83 10000 0.51 0 17:56 11.11.2022
1082 Clear 9 1035 83 10000 0.51 0 17:56 11.11.2022
1083 Clear 9 1035 83 10000 0.51 0 17:56 11.11.2022
1084 Clear 11 1034 76 10000 1.54 180 16:27 11.11.2022
1085 Clear 13 1033 70 10000 2.06 270 14:20 11.11.2022
1086 Clear 12 1034 71 10000 0.51 0 13:29 11.11.2022
1087 Fog 4 1036 100 900 2.06 260 09:48 11.11.2022
1088 Fog 3 1036 100 450 1.03 0 08:27 11.11.2022
1089 Fog 5 1035 96 650 1.54 230 05:44 11.11.2022
1090 Fog 6 1034 94 10000 0.51 0 23:22 10.11.2022
1091 Fog 6 1034 94 10000 1.03 0 22:35 10.11.2022
1092 Fog 7 1034 94 10000 2.06 270 21:33 10.11.2022
1093 Fog 6 1033 97 10000 1.03 0 20:50 10.11.2022
1094 Clouds 7 1032 97 10000 0.51 0 20:22 10.11.2022
1095 Clouds 7 1033 96 10000 1.03 0 19:43 10.11.2022
1096 Clouds 8 1032 90 10000 1.54 290 18:32 10.11.2022
1097 Clouds 11 1029 82 10000 2.06 170 16:26 10.11.2022
1098 Clouds 13 1029 85 10000 2.06 150 13:57 10.11.2022
1099 Clouds 12 1029 86 10000 2.06 130 12:50 10.11.2022
1100 Drizzle 9 1027 96 7000 1.03 0 08:50 10.11.2022
1101 Rain 9 1022 89 10000 1.03 0 01:35 10.11.2022
1102 Rain 9 1021 84 10000 1.03 170 00:31 10.11.2022
1103 Clouds 9 1020 81 10000 1.54 240 22:45 09.11.2022
1104 Clouds 9 1019 80 10000 1.03 0 20:49 09.11.2022
1105 Clouds 9 1018 79 10000 1.03 0 20:29 09.11.2022
1106 Clouds 9 1018 76 10000 1.03 0 19:43 09.11.2022
1107 Clouds 10 1018 76 10000 1.03 0 19:18 09.11.2022
1108 Clouds 12 1017 64 10000 1.03 0 16:50 09.11.2022
1109 Clouds 16 1016 51 10000 1.54 220 14:48 09.11.2022
1110 Clear 16 1016 50 10000 1.54 0 14:26 09.11.2022
1111 Clear 15 1017 55 10000 1.34 158 13:31 09.11.2022
1112 Clear 14 1017 53 10000 2.57 260 12:34 09.11.2022
1113 Clear 3 1019 87 10000 2.06 250 08:44 09.11.2022
1114 Clear 1 1018 93 10000 1.54 270 07:46 09.11.2022
1115 Clouds 3 1019 90 10000 2.06 310 01:44 09.11.2022
1116 Clear 5 1019 86 10000 1.03 0 21:56 08.11.2022
1117 Clear 5 1019 85 10000 1.03 0 21:35 08.11.2022
1118 Clear 5 1019 85 10000 1.03 0 20:41 08.11.2022
1119 Clear 6 1019 81 10000 1.54 250 19:47 08.11.2022
1120 Clear 7 1018 80 10000 1.03 0 18:59 08.11.2022
1121 Clear 9 1017 74 10000 1.03 0 17:32 08.11.2022
1122 Clear 15 1017 49 10000 5.66 280 14:57 08.11.2022
1123 Clear 14 1017 50 10000 5.66 270 14:23 08.11.2022
1124 Clear 13 1018 52 10000 5.66 270 13:26 08.11.2022
1125 Clear 6 1020 81 10000 3.6 260 10:26 08.11.2022
1126 Fog 0 1020 93 10000 1.54 350 07:30 08.11.2022
1127 Clouds 4 1022 90 10000 1.03 0 01:41 08.11.2022
1128 Clouds 4 1022 90 10000 1.03 0 01:41 08.11.2022
1129 Clear 5 1022 88 10000 0.51 0 22:54 07.11.2022
1130 Clear 6 1022 90 10000 1.03 0 21:39 07.11.2022
1131 Clear 6 1022 87 10000 1.03 260 20:45 07.11.2022
1132 Clear 7 1022 86 10000 1.03 0 19:33 07.11.2022
1133 Clear 9 1021 79 10000 1.03 0 17:41 07.11.2022
1134 Clear 14 1020 56 10000 1.54 120 15:38 07.11.2022
1135 Clouds 14 1020 64 10000 0.89 158 14:55 07.11.2022
1136 Clear 12 1021 64 10000 0.51 0 13:20 07.11.2022
1137 Clear 9 1021 71 10000 1.54 260 11:50 07.11.2022
1138 Clear 5 1022 87 10000 1.54 230 09:50 07.11.2022
1139 Clear 4 1023 93 10000 0.51 0 08:25 07.11.2022
1140 Clear 4 1022 90 10000 1.03 280 06:29 07.11.2022
1141 Clouds 7 1020 87 10000 1.54 270 01:43 07.11.2022
1142 Clouds 7 1019 82 10000 1.54 110 23:19 06.11.2022
1143 Clouds 7 1018 83 10000 0.51 0 21:21 06.11.2022
1144 Clouds 7 1018 82 10000 1.03 270 20:36 06.11.2022
1145 Clear 7 1018 81 10000 1.54 260 19:56 06.11.2022
1146 Clear 7 1017 80 10000 2.06 270 18:50 06.11.2022
1147 Clear 7 1017 79 10000 0.51 0 18:20 06.11.2022
1148 Clear 8 1016 77 10000 3.09 280 17:22 06.11.2022
1149 Clear 9 1016 73 10000 3.6 270 16:53 06.11.2022
1150 Clear 11 1016 61 10000 4.63 260 15:56 06.11.2022
1151 Clear 11 1016 63 10000 6.17 270 14:43 06.11.2022
1152 Clouds 9 1017 66 10000 3.6 260 12:43 06.11.2022
1153 Clouds 8 1020 77 10000 2.68 225 10:49 06.11.2022
1154 Clouds 6 1021 86 10000 2.06 280 09:51 06.11.2022
1155 Clouds 6 1021 87 10000 1.03 0 06:40 06.11.2022
1156 Clouds 7 1023 97 9000 0.51 0 23:22 05.11.2022
1157 Clouds 7 1022 96 10000 1.03 0 19:59 05.11.2022
1158 Clouds 8 1022 93 10000 0.51 0 18:22 05.11.2022
1159 Clouds 8 1021 86 10000 1.54 260 16:23 05.11.2022
1160 Clouds 9 1020 80 10000 1.03 0 14:34 05.11.2022
1161 Clouds 8 1020 82 10000 1.03 0 13:21 05.11.2022
1162 Clouds 7 1020 88 10000 1.03 0 10:43 05.11.2022
1163 Drizzle 6 1019 94 10000 1.03 0 08:49 05.11.2022
1164 Clouds 4 1017 100 7000 1.03 0 07:22 05.11.2022
1165 Clouds 4 1017 100 8000 0.51 0 06:54 05.11.2022
1166 Clouds 4 1014 93 10000 1.03 0 23:36 04.11.2022
1167 Clouds 4 1015 94 10000 1.03 0 23:18 04.11.2022
1168 -273 0 0 0 0 0 20:32 04.11.2022
1169 -273 0 0 0 0 0 20:32 04.11.2022
1170 Clouds 5 1012 97 10000 2.06 80 20:30 04.11.2022
1171 Clouds 5 1012 97 10000 2.06 80 20:29 04.11.2022
1172 Clouds 5 1011 91 10000 3.09 110 17:56 04.11.2022
1173 Clouds 5 1010 92 10000 3.09 100 17:21 04.11.2022
1174 Rain 5 1009 93 10000 3.6 60 13:47 04.11.2022
1175 Rain 5 1009 93 10000 2.24 345 12:26 04.11.2022
1176 Rain 6 1009 93 10000 1.03 0 10:39 04.11.2022
1177 Rain 7 1010 92 7000 3.6 70 08:45 04.11.2022
1178 Rain 7 1010 92 7000 3.6 70 08:45 04.11.2022
1179 Rain 8 1009 91 7000 3.6 60 07:43 04.11.2022
1180 Clouds 12 1006 70 10000 4.63 250 03:51 04.11.2022
1181 Clouds 16 1007 48 10000 4.63 10 22:50 03.11.2022
1182 Rain 17 1008 42 10000 4.63 360 20:51 03.11.2022
1183 Rain 17 1008 42 10000 3.6 0 20:22 03.11.2022
1184 Rain 17 1009 39 10000 5.14 130 19:27 03.11.2022
1185 Clouds 17 1010 42 10000 5.66 140 17:49 03.11.2022
1186 Clouds 17 1012 42 10000 3.09 0 16:52 03.11.2022
1187 Clouds 18 1014 47 10000 4.63 110 14:19 03.11.2022
1188 Clouds 16 1015 58 10000 5.66 280 12:39 03.11.2022
1189 Clouds 14 1016 64 10000 5.66 270 11:47 03.11.2022
1190 Clouds 8 1019 87 10000 1.03 0 09:25 03.11.2022
1191 Clouds 7 1019 88 10000 1.03 0 07:43 03.11.2022
1192 Clouds 10 1024 86 10000 1.03 140 21:29 02.11.2022
1193 Clouds 11 1024 85 10000 0.51 0 20:39 02.11.2022
1194 Clouds 10 1025 80 10000 0.51 0 19:56 02.11.2022
1195 Clouds 15 1024 69 10000 2.57 100 16:51 02.11.2022
1196 Clouds 16 1024 67 10000 3.09 80 15:50 02.11.2022
1197 Clouds 15 1024 68 10000 1.34 45 14:32 02.11.2022
1198 Clouds 15 1025 69 10000 2.06 260 12:44 02.11.2022
1199 Clouds 14 1026 72 10000 1.54 270 11:25 02.11.2022
1200 Clouds 10 1026 89 10000 0.51 0 08:51 02.11.2022
1201 Clouds 8 1025 91 10000 1.03 0 05:30 02.11.2022
1202 Clouds 10 1024 89 10000 0.51 0 00:21 02.11.2022
1203 Clouds 10 1025 88 10000 1.03 0 22:19 01.11.2022
1204 Clouds 12 1023 81 10000 1.03 0 21:37 01.11.2022
1205 Clouds 12 1024 76 10000 1.03 0 20:26 01.11.2022
1206 Clouds 14 1023 75 10000 1.54 340 19:43 01.11.2022
1207 Clouds 14 1022 74 10000 0.51 0 18:49 01.11.2022
1208 Rain 15 1021 67 10000 0.51 0 17:28 01.11.2022
1209 Clouds 16 1021 58 10000 1.03 0 16:20 01.11.2022
1210 Clouds 16 1021 56 10000 1.54 120 14:22 01.11.2022
1211 Clouds 17 1020 53 10000 0.45 90 12:27 01.11.2022
1212 Clouds 15 1021 59 10000 1.54 260 11:24 01.11.2022
1213 Clouds 14 1021 62 10000 1.03 0 10:23 01.11.2022
1214 Clouds 10 1022 75 10000 5.14 270 08:43 01.11.2022
1215 Clear 9 1021 76 10000 3.09 270 07:30 01.11.2022
1216 Clear 9 1021 76 10000 3.09 270 07:30 01.11.2022
1217 Clear 9 1021 74 10000 5.66 280 06:47 01.11.2022
1218 Clouds 8 1020 81 10000 4.63 280 05:57 01.11.2022
1219 Clouds 9 1020 81 10000 5.14 270 03:38 01.11.2022
1220 Clear 11 1020 82 10000 4.63 280 21:55 31.10.2022
1221 Clear 11 1020 82 10000 3.6 270 20:40 31.10.2022
1222 Clear 13 1020 72 10000 2.06 0 18:54 31.10.2022
1223 Clear 15 1019 68 10000 1.54 0 17:51 31.10.2022
1224 Clear 16 1019 67 10000 2.68 135 16:42 31.10.2022
1225 Clear 18 1021 55 10000 3.09 280 13:24 31.10.2022
1226 Clear 15 1022 63 10000 2.06 260 11:52 31.10.2022
1227 Clear 7 1024 93 10000 1.03 0 08:37 31.10.2022
1228 Clouds 11 1023 82 10000 0.51 0 04:49 31.10.2022
1229 Clouds 7 1024 100 10000 0.51 0 02:20 31.10.2022
1230 Clouds 11 1024 83 10000 1.03 0 23:19 30.10.2022
1231 Clouds 12 1024 83 10000 1.54 260 20:51 30.10.2022
1232 Clouds 13 1024 81 10000 1.54 0 20:27 30.10.2022
1233 Clouds 14 1023 79 10000 0.51 0 18:29 30.10.2022
1234 Clouds 21 1022 54 10000 1.03 0 16:18 30.10.2022
1235 Clear 23 1021 47 10000 1.03 0 13:53 30.10.2022
1236 Clear 21 1022 52 10000 2.57 260 13:18 30.10.2022
1237 Clear 17 1024 59 10000 0.51 0 11:37 30.10.2022
1238 Clear 12 1025 76 10000 0.51 0 09:37 30.10.2022
1239 Clear 6 1026 100 10000 1.03 0 08:30 30.10.2022
1240 Clouds 11 1025 85 7000 0.51 0 02:56 30.10.2022
1241 Clouds 13 1026 79 10000 1.03 270 00:28 30.10.2022
1242 Clouds 13 1026 79 10000 1.03 0 23:44 29.10.2022
1243 Clear 15 1025 74 10000 1.03 300 21:27 29.10.2022
1244 Clouds 20 1025 63 10000 0.51 0 17:51 29.10.2022
1245 Clouds 21 1025 59 10000 1.03 0 17:18 29.10.2022
1246 Clear 22 1025 48 10000 2.06 260 15:37 29.10.2022
1247 Clear 22 1025 53 10000 2.57 260 14:47 29.10.2022
1248 Clouds 16 1029 63 10000 1.03 0 12:35 29.10.2022
1249 Clouds 13 1029 76 10000 1.03 0 11:32 29.10.2022
1250 Clear 10 1028 85 10000 1.03 0 07:38 29.10.2022
1251 Clear 10 1028 85 10000 1.03 0 07:38 29.10.2022
1252 Clouds 11 1028 84 10000 1.03 300 05:56 29.10.2022
1253 Clouds 11 1028 86 10000 0.51 0 04:18 29.10.2022
1254 Clouds 13 1028 80 10000 1.03 0 23:42 28.10.2022
1255 Clear 14 1028 78 10000 1.03 270 20:47 28.10.2022
1256 Clear 15 1029 77 10000 0.51 0 19:26 28.10.2022
1257 Clouds 17 1028 67 10000 0.51 0 18:31 28.10.2022
1258 Clouds 21 1027 49 10000 2.57 260 15:37 28.10.2022
1259 Clouds 20 1028 51 10000 2.57 270 14:43 28.10.2022
1260 Clear 19 1029 59 10000 3.6 270 12:57 28.10.2022
1261 Clear 13 1030 76 10000 0.51 0 11:35 28.10.2022
1262 Clear 11 1030 82 10000 0.51 0 10:59 28.10.2022
1263 Clear 8 1031 93 10000 0.51 0 09:48 28.10.2022
1264 Fog 5 1030 100 10000 0.51 0 08:29 28.10.2022
1265 Clouds 10 1029 85 10000 1.54 330 03:51 28.10.2022
1266 Clouds 10 1029 85 10000 1.54 330 03:51 28.10.2022
1267 Clouds 10 1029 85 10000 1.54 330 03:51 28.10.2022
1268 Clear 11 1030 83 10000 1.03 240 23:49 27.10.2022
1269 Clear 11 1030 84 10000 1.03 230 22:41 27.10.2022
1270 Clear 12 1030 81 10000 0.51 0 21:56 27.10.2022
1271 Clear 13 1029 80 10000 0.51 0 20:30 27.10.2022
1272 Clear 13 1029 80 10000 0.51 0 20:30 27.10.2022
1273 Clear 15 1029 71 10000 0.51 0 18:23 27.10.2022
1274 Clear 19 1028 50 10000 2.57 260 14:52 27.10.2022
1275 Clear 12 1031 76 10000 2.06 230 11:33 27.10.2022
1276 Fog 8 1030 95 400 0.51 0 07:30 27.10.2022
1277 Clouds 10 1028 93 10000 0.51 0 00:22 27.10.2022
1278 Clouds 11 1028 93 10000 0.51 0 23:46 26.10.2022
1279 Clouds 11 1028 93 10000 1.03 0 22:38 26.10.2022
1280 Clouds 13 1026 88 10000 1.03 0 20:36 26.10.2022
1281 Clouds 17 1024 76 10000 1.03 250 17:27 26.10.2022
1282 Clouds 17 1023 81 10000 3.6 260 14:53 26.10.2022
1283 Clouds 15 1024 86 10000 0.51 0 12:52 26.10.2022
1284 Clouds 13 1024 91 10000 2.06 200 11:35 26.10.2022
1285 Rain 12 1023 93 10000 1.54 0 09:18 26.10.2022
1286 Rain 12 1023 90 10000 1.03 200 08:44 26.10.2022
1287 Clouds 10 1022 95 10000 1.34 293 00:51 26.10.2022
1288 Clouds 10 1022 95 10000 1.03 0 00:30 26.10.2022
1289 Clear 11 1022 94 10000 1.03 0 22:23 25.10.2022
1290 Clear 11 1022 91 10000 1.54 260 21:44 25.10.2022
1291 Clear 12 1021 90 10000 1.54 260 20:27 25.10.2022
1292 Clouds 14 1020 83 10000 1.03 170 18:40 25.10.2022
1293 Clouds 17 1021 70 10000 1.03 0 15:48 25.10.2022
1294 Clouds 11 1023 93 10000 2.06 250 11:41 25.10.2022
1295 Clouds 12 1023 98 10000 0.51 0 10:46 25.10.2022
1296 Clouds 12 1023 98 10000 0.51 0 10:46 25.10.2022
1297 Clouds 11 1023 97 10000 1.03 0 10:28 25.10.2022
1298 Clouds 10 1022 97 10000 0.51 0 08:38 25.10.2022
1299 Clouds 10 1022 97 10000 0.51 0 08:18 25.10.2022
1300 Fog 10 1022 97 10000 1.03 0 07:44 25.10.2022
1301 Clouds 11 1021 97 10000 0.51 0 06:41 25.10.2022
1302 Clouds 12 1021 94 10000 1.54 280 03:28 25.10.2022
1303 Clouds 12 1021 97 10000 2.06 260 00:32 25.10.2022
1304 Rain 12 1021 97 10000 1.54 280 22:26 24.10.2022
1305 Clouds 13 1021 97 10000 2.06 260 21:37 24.10.2022
1306 Clouds 13 1021 97 10000 1.03 0 20:49 24.10.2022
1307 Rain 13 1021 97 10000 1.03 0 20:19 24.10.2022
1308 Rain 14 1020 96 7000 1.34 323 17:53 24.10.2022
1309 Rain 14 1019 93 10000 2.68 29 16:54 24.10.2022
1310 Rain 15 1017 94 8000 2.57 270 15:19 24.10.2022
1311 Rain 16 1017 86 10000 3.6 260 14:18 24.10.2022
1312 Clouds 16 1017 87 10000 1.03 0 12:26 24.10.2022
1313 Rain 14 1018 93 10000 0.51 0 08:51 24.10.2022
1314 Clouds 13 1019 83 10000 4.12 270 02:58 24.10.2022
1315 Clear 14 1018 82 10000 4.12 270 22:19 23.10.2022
1316 Clear 15 1019 77 10000 3.09 260 20:25 23.10.2022
1317 Clouds 17 1018 69 10000 3.09 0 18:26 23.10.2022
1318 Clouds 19 1018 60 10000 3.6 270 17:27 23.10.2022
1319 Clear 19 1018 57 10000 6.69 260 15:24 23.10.2022
1320 Clouds 19 1018 56 10000 6.17 260 14:46 23.10.2022
1321 Clouds 14 1021 77 10000 6.17 270 11:25 23.10.2022
1322 Clouds 8 1022 100 10000 1.54 310 09:18 23.10.2022
1323 Clouds 10 1022 94 10000 1.03 0 03:52 23.10.2022
1324 Clouds 11 1022 91 10000 2.06 270 22:32 22.10.2022
1325 Clear 11 1022 93 10000 1.54 280 21:42 22.10.2022
1326 Clear 11 1022 93 10000 1.03 0 20:55 22.10.2022
1327 Clouds 13 1021 89 10000 1.03 0 19:52 22.10.2022
1328 Clouds 13 1021 89 10000 1.03 0 19:29 22.10.2022
1329 Clouds 16 1020 82 10000 1.54 160 17:37 22.10.2022
1330 Clouds 17 1019 76 10000 1.54 110 15:57 22.10.2022
1331 Clouds 16 1019 80 10000 0.89 225 14:46 22.10.2022
1332 Clouds 15 1020 87 10000 2.06 290 13:45 22.10.2022
1333 Rain 14 1020 93 10000 3.09 270 10:26 22.10.2022
1334 Rain 14 1019 96 10000 1.54 250 09:39 22.10.2022
1335 Rain 14 1018 95 10000 1.54 0 08:29 22.10.2022
1336 Rain 13 1015 86 10000 2.06 290 03:42 22.10.2022
1337 Clouds 16 1016 74 10000 2.06 80 23:51 21.10.2022
1338 Rain 17 1016 64 10000 4.63 0 21:35 21.10.2022
1339 Clouds 17 1017 64 10000 5.14 100 20:59 21.10.2022
1340 Clouds 18 1016 57 10000 5.66 50 19:36 21.10.2022
1341 Clouds 21 1015 43 10000 6.69 150 16:51 21.10.2022
1342 Clouds 22 1014 45 10000 5.14 0 13:59 21.10.2022
1343 Clouds 20 1014 52 10000 5.81 270 12:59 21.10.2022
1344 Clouds 17 1015 62 10000 5.14 250 11:33 21.10.2022
1345 Clouds 13 1015 81 10000 6.69 270 10:20 21.10.2022
1346 Clouds 12 1015 83 10000 4.63 260 08:39 21.10.2022
1347 Clouds 12 1016 87 10000 2.57 270 07:28 21.10.2022
1348 Clouds 14 1018 77 10000 2.06 0 01:20 21.10.2022
1349 Clouds 15 1017 77 10000 4.12 290 22:26 20.10.2022
1350 Clouds 16 1017 68 10000 2.57 250 20:38 20.10.2022
1351 Clouds 17 1017 64 10000 6.17 260 19:38 20.10.2022
1352 Clouds 18 1018 59 10000 4.63 270 17:53 20.10.2022
1353 Clouds 20 1018 55 10000 3.09 270 17:33 20.10.2022
1354 Clear 18 1019 59 10000 6.17 270 12:37 20.10.2022
1355 Clear 18 1019 59 10000 6.17 270 12:18 20.10.2022
1356 Clear 14 1021 72 10000 1.54 260 11:20 20.10.2022
1357 Clear 12 1021 76 10000 1.03 0 10:45 20.10.2022
1358 Clear 9 1021 91 10000 0.51 0 08:18 20.10.2022
1359 Clouds 9 1021 91 10000 1.03 0 05:43 20.10.2022
1360 Clouds 12 1023 84 10000 1.54 210 01:50 20.10.2022
1361 Clouds 13 1023 87 10000 0.51 0 22:46 19.10.2022
1362 Clear 14 1023 88 10000 1.54 100 21:57 19.10.2022
1363 Clear 15 1023 84 10000 2.57 120 20:53 19.10.2022
1364 Clear 17 1023 76 10000 3.6 70 18:50 19.10.2022
1365 Clouds 19 1022 68 10000 4.63 80 17:38 19.10.2022
1366 Clouds 21 1023 62 10000 4.63 90 15:58 19.10.2022
1367 Clouds 20 1024 61 10000 1.54 0 13:52 19.10.2022
1368 Clouds 10 1027 100 10000 1.54 270 09:42 19.10.2022
1369 Clouds 11 1026 93 10000 2.06 260 08:35 19.10.2022
1370 Clouds 11 1027 94 10000 0.51 0 06:25 19.10.2022
1371 Clouds 13 1027 87 10000 0.51 0 01:26 19.10.2022
1372 Clouds 15 1028 85 10000 1.03 0 23:19 18.10.2022
1373 Clouds 16 1028 79 10000 1.03 0 21:45 18.10.2022
1374 Clouds 16 1028 75 10000 2.06 160 20:59 18.10.2022
1375 Clouds 16 1028 74 10000 1.54 120 20:18 18.10.2022
1376 Clouds 19 1025 64 10000 1.03 0 17:48 18.10.2022
1377 Clouds 22 1026 48 10000 1.03 0 16:52 18.10.2022
1378 Clear 21 1027 49 10000 1.03 0 14:32 18.10.2022
1379 Clouds 19 1028 57 10000 1.03 0 12:33 18.10.2022
1380 Clouds 16 1029 65 10000 1.03 0 11:22 18.10.2022
1381 Clouds 9 1030 93 10000 1.54 350 09:58 18.10.2022
1382 Clouds 10 1029 85 10000 0.89 183 07:57 18.10.2022
1383 Clouds 8 1030 92 10000 0.51 0 03:45 18.10.2022
1384 Clear 11 1029 87 10000 0.51 0 22:37 17.10.2022
1385 Clear 13 1029 76 10000 0.51 0 20:55 17.10.2022
1386 Clear 14 1029 73 10000 1.03 0 20:32 17.10.2022
1387 Clear 15 1028 72 10000 1.03 0 19:52 17.10.2022
1388 Clear 18 1027 62 10000 2.06 0 18:52 17.10.2022
1389 Clear 24 1026 43 10000 3.6 270 16:52 17.10.2022
1390 Clear 24 1026 39 10000 6.17 270 15:29 17.10.2022
1391 Clear 24 1026 39 10000 6.17 270 15:29 17.10.2022
1392 Clear 24 1026 39 10000 6.17 270 15:29 17.10.2022
1393 Clear 22 1026 45 10000 6.69 270 14:35 17.10.2022
1394 Clear 16 1028 63 10000 3.6 260 11:24 17.10.2022
1395 Clear 9 1026 88 10000 1.03 0 06:41 17.10.2022
1396 Clear 12 1026 90 10000 0.51 0 23:33 16.10.2022
1397 Clear 13 1024 88 10000 0.51 0 21:56 16.10.2022
1398 Clear 14 1024 81 10000 1.03 0 20:47 16.10.2022
1399 Clear 15 1023 79 10000 1.03 0 19:46 16.10.2022
1400 Clear 21 1020 56 10000 2.57 140 17:57 16.10.2022
1401 Clear 23 1020 59 10000 2.57 160 17:33 16.10.2022
1402 Clouds 23 1020 53 10000 2.57 120 15:58 16.10.2022
1403 Clouds 22 1021 54 10000 1.54 110 14:33 16.10.2022
1404 Clear 18 1021 72 10000 2.57 270 12:23 16.10.2022
1405 Clouds 15 1022 84 10000 3.09 270 10:27 16.10.2022
1406 Clouds 13 1022 93 10000 1.54 90 08:47 16.10.2022
1407 Clouds 12 1019 93 10000 1.03 0 01:30 16.10.2022
1408 Clouds 13 1019 93 10000 1.03 0 23:41 15.10.2022
1409 Clouds 15 1017 88 10000 1.03 0 21:26 15.10.2022
1410 Clouds 14 1017 89 10000 0.51 0 20:56 15.10.2022
1411 Clouds 16 1015 82 10000 2.06 100 18:50 15.10.2022
1412 Clouds 18 1014 73 10000 2.57 90 15:49 15.10.2022
1413 Clouds 18 1014 75 10000 3.6 100 15:31 15.10.2022
1414 Clouds 15 1015 91 10000 2.57 290 11:58 15.10.2022
1415 Clouds 15 1015 91 10000 1.54 270 11:18 15.10.2022
1416 Clouds 13 1015 96 10000 1.54 270 08:54 15.10.2022
1417 Rain 13 1015 95 10000 1.03 0 03:21 15.10.2022
1418 Rain 13 1016 91 10000 0.51 0 00:23 15.10.2022
1419 Clouds 13 1016 90 10000 2.06 280 22:24 14.10.2022
1420 Clouds 14 1016 89 10000 1.03 0 21:36 14.10.2022
1421 Clouds 14 1017 87 10000 1.03 0 20:25 14.10.2022
1422 Clouds 16 1016 74 10000 6.17 270 16:59 14.10.2022
1423 Clouds 17 1017 74 10000 1.03 0 14:25 14.10.2022
1424 Clouds 15 1019 82 10000 2.06 250 12:44 14.10.2022
1425 Clouds 12 1020 97 10000 1.03 0 09:46 14.10.2022
1426 Clouds 12 1020 96 10000 0 0 07:57 14.10.2022
1427 Drizzle 12 1020 97 10000 1.03 260 06:18 14.10.2022
1428 Clouds 12 1020 97 10000 0.51 0 05:49 14.10.2022
1429 Clouds 12 1020 96 10000 1.54 260 05:31 14.10.2022
1430 Rain 13 1020 93 10000 2.57 60 00:53 14.10.2022
1431 Clouds 13 1020 89 10000 1.54 90 22:32 13.10.2022
1432 Clouds 14 1020 87 10000 1.03 0 21:29 13.10.2022
1433 Rain 14 1019 82 10000 0.51 0 20:19 13.10.2022
1434 Clouds 14 1019 82 10000 1.03 150 19:38 13.10.2022
1435 Clouds 16 1019 72 10000 0.51 0 18:43 13.10.2022
1436 Clouds 17 1019 67 10000 3.6 80 17:24 13.10.2022
1437 Clouds 18 1019 61 10000 1.54 100 15:48 13.10.2022
1438 Clouds 18 1020 61 10000 1.03 0 14:25 13.10.2022
1439 Clouds 17 1021 67 10000 1.54 0 12:50 13.10.2022
1440 Clouds 13 1022 76 10000 0.51 0 11:36 13.10.2022
1441 Clouds 10 1023 93 10000 2.06 260 09:40 13.10.2022
1442 Clouds 10 1023 90 10000 0.51 0 08:19 13.10.2022
1443 Clouds 10 1023 94 10000 0.51 0 07:33 13.10.2022
1444 Clouds 11 1024 93 10000 1.03 0 01:53 13.10.2022
1445 Clouds 11 1024 90 10000 0.51 0 00:57 13.10.2022
1446 Clouds 11 1024 91 10000 0.51 0 22:47 12.10.2022
1447 Clouds 13 1023 89 10000 1.03 0 22:28 12.10.2022
1448 Clouds 14 1023 82 10000 3.09 90 21:21 12.10.2022
1449 Clouds 14 1023 82 10000 3.6 90 20:52 12.10.2022
1450 Clouds 17 1021 72 10000 4.63 100 19:30 12.10.2022
1451 Clouds 18 1022 66 10000 4.63 90 18:25 12.10.2022
1452 Clouds 20 1021 56 10000 4.12 80 17:47 12.10.2022
1453 Clouds 20 1021 56 10000 4.12 80 17:47 12.10.2022
1454 Clouds 21 1021 55 10000 2.24 113 15:40 12.10.2022
1455 Clouds 19 1022 66 10000 1.34 318 13:56 12.10.2022
1456 Clouds 18 1023 71 10000 1.03 0 12:46 12.10.2022
1457 Clouds 13 1024 92 10000 2.06 260 09:41 12.10.2022
1458 Clouds 12 1023 95 10000 0.51 0 07:58 12.10.2022
1459 Rain 12 1023 94 10000 0.51 0 07:38 12.10.2022
1460 Rain 12 1023 94 10000 0.51 0 06:43 12.10.2022
1461 Clouds 13 1024 85 10000 0.51 0 00:58 12.10.2022
1462 Clouds 13 1024 87 10000 0.51 0 22:18 11.10.2022
1463 Clouds 14 1023 85 10000 0.51 0 20:39 11.10.2022
1464 Clouds 16 1022 72 10000 0.51 0 18:46 11.10.2022
1465 Clouds 19 1022 63 10000 2.68 90 16:49 11.10.2022
1466 Clouds 19 1022 63 10000 2.68 90 16:49 11.10.2022
1467 Clouds 18 1023 66 10000 3.13 45 14:36 11.10.2022
1468 Clouds 16 1024 75 10000 2.57 260 12:53 11.10.2022
1469 Clouds 13 1025 85 10000 2.57 270 10:29 11.10.2022
1470 Clouds 12 1025 91 10000 1.03 0 09:30 11.10.2022
1471 Clouds 11 1024 93 9000 2.57 270 06:46 11.10.2022
1472 Clouds 11 1023 98 10000 1.54 290 02:26 11.10.2022
1473 Clouds 13 1023 95 10000 2.06 270 00:31 11.10.2022
1474 Rain 16 1022 82 10000 2.57 340 21:35 10.10.2022
1475 Rain 16 1021 74 10000 1.54 250 19:49 10.10.2022
1476 Clouds 17 1020 72 10000 0.51 0 18:33 10.10.2022
1477 Clouds 20 1019 59 10000 2.57 270 16:58 10.10.2022
1478 Clouds 21 1018 50 10000 3.6 260 15:24 10.10.2022
1479 Clouds 18 1020 68 10000 5.14 270 12:54 10.10.2022
1480 Clouds 16 1020 79 10000 4.63 270 11:56 10.10.2022
1481 Clouds 12 1020 88 10000 1.03 0 08:58 10.10.2022
1482 Clouds 10 1021 96 10000 4.12 280 05:43 10.10.2022
1483 Clouds 11 1020 93 10000 4.12 290 04:39 10.10.2022
1484 Clouds 12 1020 93 10000 3.6 300 00:33 10.10.2022
1485 Clouds 12 1020 97 10000 1.54 260 22:51 09.10.2022
1486 Clouds 12 1020 96 10000 0.51 0 22:18 09.10.2022
1487 Clouds 13 1020 94 10000 1.03 0 21:22 09.10.2022
1488 Clouds 13 1020 92 10000 1.03 0 20:20 09.10.2022
1489 Clouds 13 1020 91 10000 1.03 0 19:45 09.10.2022
1490 Clouds 14 1020 90 10000 1.03 0 18:43 09.10.2022
1491 Clouds 14 1021 82 10000 0.51 0 16:56 09.10.2022
1492 Clouds 14 1021 82 10000 0.51 0 16:33 09.10.2022
1493 Clouds 14 1021 77 10000 3.09 280 15:38 09.10.2022
1494 Rain 13 1022 88 10000 2.06 260 14:31 09.10.2022
1495 Rain 12 1023 87 10000 2.57 260 13:34 09.10.2022
1496 Rain 12 1024 87 10000 1.03 270 12:35 09.10.2022
1497 Rain 12 1024 87 10000 0.51 0 10:49 09.10.2022
1498 Rain 11 1024 94 10000 1.03 0 08:31 09.10.2022
1499 Clouds 12 1024 91 10000 1.03 0 03:40 09.10.2022
1500 Clouds 12 1024 88 10000 2.24 68 02:53 09.10.2022
1501 Clouds 13 1024 93 10000 3.09 90 00:39 09.10.2022
1502 Rain 14 1024 96 10000 2.24 90 22:58 08.10.2022
1503 Rain 14 1024 96 10000 1.03 0 22:19 08.10.2022
1504 Clouds 14 1022 92 10000 1.54 120 20:29 08.10.2022
1505 Clouds 16 1021 83 10000 3.6 290 18:56 08.10.2022
1506 Clouds 18 1019 72 10000 1.54 270 16:52 08.10.2022
1507 Clouds 19 1020 63 10000 0.51 0 14:55 08.10.2022
1508 Clouds 18 1021 62 10000 2.57 280 13:31 08.10.2022
1509 Clouds 13 1022 83 10000 1.03 0 10:48 08.10.2022
1510 Clouds 13 1022 84 10000 2.06 270 10:24 08.10.2022
1511 Clouds 7 1023 100 10000 0.51 0 08:49 08.10.2022
1512 Clouds 10 1021 92 7000 0.51 0 04:46 08.10.2022
1513 Clouds 12 1022 92 8000 1.03 0 00:58 08.10.2022
1514 Clouds 13 1022 90 10000 0.51 0 23:32 07.10.2022
1515 Clear 12 1023 90 10000 0.51 0 22:56 07.10.2022
1516 Clear 13 1023 88 10000 1.03 0 21:40 07.10.2022
1517 Clear 17 1021 73 10000 1.03 0 19:51 07.10.2022
1518 Clear 21 1020 55 10000 3.09 100 17:54 07.10.2022
1519 Clear 22 1021 51 10000 3.6 100 16:42 07.10.2022
1520 Clear 22 1022 49 10000 3.6 80 15:25 07.10.2022
1521 Clear 21 1022 54 10000 1.03 0 13:55 07.10.2022
1522 Clear 14 1026 72 10000 1.54 120 11:28 07.10.2022
1523 Clouds 9 1027 93 10000 0.51 0 09:25 07.10.2022
1524 Fog 6 1028 100 10000 0.51 0 08:21 07.10.2022
1525 Clouds 11 1029 94 10000 1.03 0 02:52 07.10.2022
1526 Clear 14 1030 84 10000 1.03 160 22:54 06.10.2022
1527 Clear 14 1030 85 10000 0.51 0 21:57 06.10.2022
1528 Clear 13 1030 87 10000 0.51 0 21:36 06.10.2022
1529 Clear 14 1030 81 10000 1.03 0 20:39 06.10.2022
1530 Clear 19 1028 59 10000 1.03 0 18:56 06.10.2022
1531 Clear 20 1029 58 10000 2.06 140 18:32 06.10.2022
1532 Clouds 22 1028 48 10000 2.24 282 15:38 06.10.2022
1533 Clear 18 1030 60 10000 0.51 0 12:49 06.10.2022
1534 Clear 8 1032 93 10000 1.03 250 09:27 06.10.2022
1535 Clouds 10 1029 88 10000 1.54 250 04:42 06.10.2022
1536 Clouds 11 1028 88 10000 0.51 0 00:51 06.10.2022
1537 Clear 13 1026 80 10000 0.51 0 21:54 05.10.2022
1538 Clear 16 1025 72 10000 0.51 0 19:44 05.10.2022
1539 Clear 21 1023 55 10000 1.54 150 17:37 05.10.2022
1540 Clear 21 1023 48 10000 1.54 90 16:45 05.10.2022
1541 Clear 19 1023 45 10000 2.57 110 14:59 05.10.2022
1542 Clear 19 1023 45 10000 2.57 110 14:37 05.10.2022
1543 Clear 16 1025 59 10000 1.54 250 12:45 05.10.2022
1544 Clear 14 1026 58 10000 2.57 270 11:38 05.10.2022
1545 Clear 5 1027 100 10000 0.51 0 08:23 05.10.2022
1546 Clear 5 1026 100 10000 1.54 270 07:19 05.10.2022
1547 Clouds 8 1026 90 10000 1.03 0 05:31 05.10.2022
1548 Clouds 9 1027 90 10000 1.03 0 02:31 05.10.2022
1549 Clear 10 1027 88 10000 2.06 270 00:28 05.10.2022
1550 Clear 10 1027 88 10000 0.51 0 23:22 04.10.2022
1551 Clear 11 1025 82 10000 1.54 260 21:22 04.10.2022
1552 Clear 13 1025 82 10000 1.03 0 19:49 04.10.2022
1553 Clear 15 1024 72 10000 0.51 0 18:51 04.10.2022
1554 Clear 18 1023 59 10000 1.03 0 17:57 04.10.2022
1555 Clear 19 1023 54 10000 1.03 0 16:56 04.10.2022
1556 Clear 16 1024 60 10000 1.03 0 14:29 04.10.2022
1557 Clouds 11 1025 82 10000 1.54 260 10:23 04.10.2022
1558 Clouds 8 1025 93 10000 0.51 0 07:50 04.10.2022
1559 Clouds 9 1025 93 10000 1.03 0 04:43 04.10.2022
1560 Clouds 9 1026 91 10000 1.03 0 23:59 03.10.2022
1561 Clouds 10 1026 90 10000 1.03 160 22:45 03.10.2022
1562 Clouds 12 1026 83 10000 0.51 0 21:30 03.10.2022
1563 Clouds 12 1026 76 10000 1.03 0 20:36 03.10.2022
1564 Clouds 15 1024 63 10000 4.12 80 18:52 03.10.2022
1565 Clouds 17 1024 59 10000 4.63 90 17:32 03.10.2022
1566 Clouds 18 1024 64 10000 3.6 100 15:59 03.10.2022
1567 Clouds 17 1025 64 10000 1.54 0 14:26 03.10.2022
1568 Clouds 16 1026 68 10000 1.54 140 12:46 03.10.2022
1569 Drizzle 12 1026 91 10000 1.79 343 11:21 03.10.2022
1570 Clouds 12 1026 89 10000 3.6 110 09:56 03.10.2022
1571 Clouds 11 1025 97 10000 1.03 0 08:46 03.10.2022
1572 Drizzle 12 1024 96 10000 1.34 4 04:41 03.10.2022
1573 Clouds 14 1021 96 9000 2.24 90 23:27 02.10.2022
1574 Clouds 14 1021 96 10000 2.57 100 21:58 02.10.2022
1575 Clouds 13 1020 97 10000 1.03 0 19:52 02.10.2022
1576 Rain 15 1020 91 10000 1.03 160 17:56 02.10.2022
1577 Rain 16 1019 88 10000 2.57 90 16:57 02.10.2022
1578 Clouds 16 1020 87 10000 1.54 90 16:32 02.10.2022
1579 Clouds 16 1020 86 10000 1.03 0 15:34 02.10.2022
1580 Clouds 16 1021 84 10000 2.06 90 13:46 02.10.2022
1581 Clouds 15 1022 87 10000 1.03 0 12:42 02.10.2022
1582 Clouds 15 1022 87 10000 1.54 0 12:20 02.10.2022
1583 Clouds 13 1022 93 10000 1.03 0 11:34 02.10.2022
1584 Clouds 13 1022 94 10000 1.03 0 10:19 02.10.2022
1585 Rain 11 1022 96 10000 1.54 170 08:30 02.10.2022
1586 Rain 11 1022 96 10000 1.54 170 08:30 02.10.2022
1587 Drizzle 11 1023 97 10000 1.03 0 05:21 02.10.2022
1588 Rain 12 1021 97 10000 0.51 0 01:20 02.10.2022
1589 Rain 12 1021 96 3100 1.03 0 00:38 02.10.2022
1590 Rain 12 1020 97 10000 1.54 110 23:29 01.10.2022
1591 Rain 12 1019 95 10000 1.03 0 21:58 01.10.2022
1592 Rain 13 1017 93 10000 1.03 0 19:21 01.10.2022
1593 Rain 13 1016 87 10000 2.06 50 17:46 01.10.2022
1594 Rain 15 1015 73 10000 4.12 300 15:32 01.10.2022
1595 Clouds 14 1015 79 10000 6.17 270 14:18 01.10.2022
1596 Rain 13 1015 78 10000 4.12 280 12:34 01.10.2022
1597 Clouds 13 1015 82 10000 2.06 280 11:23 01.10.2022
1598 Clouds 12 1015 82 10000 2.06 240 10:53 01.10.2022
1599 Clouds 12 1015 85 10000 3.09 260 10:30 01.10.2022
1600 Clouds 11 1016 87 10000 2.06 280 09:25 01.10.2022
1601 Clouds 9 1015 100 10000 1.54 300 08:27 01.10.2022
1602 Clouds 11 1016 92 10000 1.54 280 03:47 01.10.2022
1603 Clouds 11 1016 92 10000 1.54 250 03:18 01.10.2022
1604 Clouds 10 1014 90 10000 1.03 0 23:21 30.09.2022
1605 Clouds 11 1014 90 10000 1.54 280 22:18 30.09.2022
1606 Clouds 12 1014 85 10000 0.51 0 20:57 30.09.2022
1607 Clouds 12 1013 82 10000 0.51 0 20:20 30.09.2022
1608 Clouds 14 1012 62 10000 0.51 0 18:32 30.09.2022
1609 Clouds 15 1011 63 10000 1.03 0 16:54 30.09.2022
1610 Clouds 12 1011 80 10000 0.51 0 14:24 30.09.2022
1611 Clouds 11 1011 87 10000 2.06 280 12:50 30.09.2022
1612 Clouds 12 1011 84 10000 1.54 70 11:56 30.09.2022
1613 Clouds 10 1010 93 9000 2.57 80 09:24 30.09.2022
1614 Clouds 9 1010 97 6000 1.03 0 07:58 30.09.2022
1615 Clouds 8 1008 94 10000 1.03 0 03:35 30.09.2022
1616 Clouds 9 1008 96 10000 1.03 140 01:44 30.09.2022
1617 Clouds 9 1005 89 10000 2.06 120 21:40 29.09.2022
1618 Clouds 9 1005 87 10000 3.09 140 21:19 29.09.2022
1619 Rain 9 1004 98 10000 1.54 90 19:56 29.09.2022
1620 Rain 11 1003 91 10000 1.03 0 17:49 29.09.2022
1621 Clouds 11 1001 83 10000 1.03 260 16:29 29.09.2022
1622 Clouds 11 1001 84 10000 0.51 0 15:37 29.09.2022
1623 Clouds 11 1001 81 10000 1.03 0 14:59 29.09.2022
1624 Clouds 11 1002 85 10000 0.51 0 12:39 29.09.2022
1625 Clouds 8 1002 94 10000 1.03 0 08:45 29.09.2022
1626 Clouds 8 1002 94 10000 1.54 100 04:46 29.09.2022
1627 Clouds 8 1003 96 10000 2.06 110 02:36 29.09.2022
1628 Clouds 11 1001 89 10000 1.34 10 23:21 28.09.2022
1629 Clouds 11 1000 85 10000 3.09 100 21:32 28.09.2022
1630 Clouds 11 1000 85 10000 2.24 90 20:51 28.09.2022
1631 Clouds 11 999 85 10000 2.57 90 19:56 28.09.2022
1632 Clouds 12 999 75 10000 5.66 70 16:46 28.09.2022
1633 Rain 15 998 65 10000 5.66 270 14:19 28.09.2022
1634 Clouds 12 1000 68 10000 7.72 260 11:45 28.09.2022
1635 Rain 9 1000 86 10000 4.12 280 09:37 28.09.2022
1636 Rain 8 1000 88 10000 2.57 290 07:43 28.09.2022
1637 Clouds 7 1002 97 10000 2.06 250 05:37 28.09.2022
1638 Clouds 8 1005 92 10000 1.03 0 01:44 28.09.2022
1639 Rain 9 1005 93 10000 1.54 300 00:36 28.09.2022
1640 Clouds 10 1004 83 10000 1.54 0 22:40 27.09.2022
1641 Rain 10 1004 81 10000 1.03 0 21:20 27.09.2022
1642 Rain 10 1004 84 10000 1.54 40 20:31 27.09.2022
1643 Clouds 11 1003 82 10000 1.03 0 19:40 27.09.2022
1644 Clouds 13 1003 70 10000 2.06 180 17:47 27.09.2022
1645 Clouds 14 1003 65 10000 1.54 30 16:50 27.09.2022
1646 Clouds 14 1002 64 10000 2.24 68 15:18 27.09.2022
1647 Clouds 13 1003 77 10000 2.24 90 13:53 27.09.2022
1648 Clouds 12 1002 86 10000 3.6 90 12:37 27.09.2022
1649 Clouds 13 1002 79 10000 4.63 70 12:37 27.09.2022
1650 Clouds 10 1002 94 10000 2.06 90 10:33 27.09.2022
1651 Rain 10 1001 96 10000 2.06 90 07:51 27.09.2022
1652 Clouds 10 1001 91 10000 2.06 100 04:52 27.09.2022
1653 Clouds 11 1003 89 10000 2.06 70 01:40 27.09.2022
1654 Clouds 11 1005 90 10000 2.57 270 23:52 26.09.2022
1655 Clouds 11 1006 89 10000 4.12 280 23:24 26.09.2022
1656 Clouds 12 1006 86 10000 2.06 270 21:35 26.09.2022
1657 Clouds 13 1005 76 10000 3.09 80 19:49 26.09.2022
1658 Clouds 13 1005 71 10000 4.63 90 18:55 26.09.2022
1659 Clouds 15 1005 69 10000 6.17 90 17:25 26.09.2022
1660 Clouds 17 1006 62 10000 3.6 110 15:23 26.09.2022
1661 Clouds 15 1009 78 10000 2.06 140 12:31 26.09.2022
1662 Clouds 13 1010 88 10000 2.06 100 10:43 26.09.2022
1663 Clouds 12 1010 91 10000 1.54 260 10:23 26.09.2022
1664 Clouds 12 1010 93 10000 1.34 90 09:59 26.09.2022
1665 Clouds 12 1010 94 10000 0.89 45 09:40 26.09.2022
1666 Clouds 12 1010 94 10000 0.51 0 09:20 26.09.2022
1667 Drizzle 11 1011 94 10000 1.03 170 05:30 26.09.2022
1668 Rain 11 1012 100 3300 1.03 0 02:29 26.09.2022
1669 Clouds 12 1012 94 10000 0 0 23:24 25.09.2022
1670 Rain 12 1012 94 8000 1.03 0 21:44 25.09.2022
1671 Rain 12 1012 94 10000 2.57 70 20:59 25.09.2022
1672 Rain 13 1012 93 10000 2.57 80 20:35 25.09.2022
1673 Rain 14 1010 88 10000 2.06 10 18:55 25.09.2022
1674 Rain 16 1009 79 10000 1.03 0 18:24 25.09.2022
1675 Rain 16 1009 75 10000 1.03 280 17:23 25.09.2022
1676 Clouds 17 1010 63 10000 1.03 0 16:00 25.09.2022
1677 Clouds 17 1011 67 10000 1.34 328 14:49 25.09.2022
1678 Clouds 17 1011 67 10000 1.79 318 14:18 25.09.2022
1679 Clouds 13 1012 85 10000 1.54 240 10:40 25.09.2022
1680 Clouds 12 1012 88 10000 1.34 293 09:37 25.09.2022
1681 Clouds 11 1013 94 10000 0.51 0 07:42 25.09.2022
1682 Clouds 11 1013 90 10000 1.03 0 05:22 25.09.2022
1683 Clouds 11 1015 90 10000 2.06 260 23:37 24.09.2022
1684 Clouds 13 1014 89 10000 3.09 270 21:20 24.09.2022
1685 Clouds 13 1014 88 10000 2.06 290 19:45 24.09.2022
1686 Clouds 14 1014 84 10000 2.57 270 19:20 24.09.2022
1687 Rain 16 1014 64 10000 2.06 0 16:51 24.09.2022
1688 Rain 18 1013 48 10000 6.69 140 15:29 24.09.2022
1689 Clouds 18 1013 49 10000 5.66 150 14:37 24.09.2022
1690 Clouds 17 1014 61 10000 3.13 148 13:22 24.09.2022
1691 Clouds 16 1014 63 10000 5.14 280 12:23 24.09.2022
1692 Clouds 12 1014 77 10000 2.06 270 09:59 24.09.2022
1693 Clouds 11 1015 83 10000 1.34 202 08:58 24.09.2022
1694 Clouds 8 1016 91 10000 1.03 0 07:41 24.09.2022
1695 Clouds 10 1016 85 10000 0.51 0 04:53 24.09.2022
1696 Clouds 11 1016 85 10000 1.03 0 04:19 24.09.2022
1697 Clear 11 1017 84 10000 1.03 0 22:58 23.09.2022
1698 Clear 12 1017 79 10000 0.51 0 21:37 23.09.2022
1699 Clear 12 1017 78 10000 0.51 0 21:19 23.09.2022
1700 Clear 12 1016 76 10000 1.03 0 20:43 23.09.2022
1701 Clear 15 1016 63 10000 2.06 30 19:20 23.09.2022
1702 Clear 15 1016 63 10000 2.06 30 19:20 23.09.2022
1703 Clear 20 1016 43 10000 3.09 80 16:23 23.09.2022
1704 Clear 15 1019 47 10000 1.03 0 12:52 23.09.2022
1705 Clear 6 1021 87 10000 1.54 270 09:36 23.09.2022
1706 Clear 6 1021 90 10000 0.51 0 06:51 23.09.2022
1707 Clear 7 1022 84 10000 1.03 0 01:21 23.09.2022
1708 Clear 7 1022 84 10000 0.51 0 23:29 22.09.2022
1709 Clear 9 1022 79 10000 0.51 0 22:27 22.09.2022
1710 Clear 10 1021 76 10000 0.51 0 21:24 22.09.2022
1711 Clouds 11 1020 71 10000 1.54 340 20:18 22.09.2022
1712 Clouds 16 1020 48 10000 4.63 70 18:30 22.09.2022
1713 Clouds 17 1020 49 10000 3.6 60 14:48 22.09.2022
1714 Clouds 9 1024 77 10000 1.03 0 10:38 22.09.2022
1715 Clouds 9 1024 77 10000 1.03 0 10:18 22.09.2022
1716 Clear 4 1024 89 10000 1.03 0 07:48 22.09.2022
1717 Clear 5 1024 88 10000 0.51 0 04:37 22.09.2022
1718 Clear 7 1025 83 10000 1.03 170 23:46 21.09.2022
1719 Clear 7 1024 81 10000 1.54 0 22:26 21.09.2022
1720 Clear 10 1023 71 10000 1.54 0 20:54 21.09.2022
1721 Clouds 15 1022 48 10000 5.14 80 18:30 21.09.2022
1722 Clouds 17 1022 40 10000 5.66 70 17:22 21.09.2022
1723 Clouds 17 1023 39 10000 4.12 90 15:29 21.09.2022
1724 Clouds 15 1024 47 10000 4.63 100 13:39 21.09.2022
1725 Clouds 13 1025 67 10000 1.34 319 11:34 21.09.2022
1726 Clouds 11 1026 72 10000 1.03 0 10:50 21.09.2022
1727 Clouds 9 1026 81 10000 1.54 270 09:38 21.09.2022
1728 Clouds 5 1026 90 10000 0.51 0 08:23 21.09.2022
1729 Clouds 8 1025 82 10000 2.06 80 02:52 21.09.2022
1730 Clouds 8 1025 82 10000 1.03 0 02:33 21.09.2022
1731 Clouds 8 1025 81 10000 1.03 0 01:49 21.09.2022
1732 Clouds 10 1025 75 10000 1.03 0 23:50 20.09.2022
1733 Clouds 11 1024 78 10000 2.68 135 21:34 20.09.2022
1734 Clouds 11 1023 73 10000 2.06 150 20:26 20.09.2022
1735 Clouds 14 1021 66 10000 4.12 90 17:53 20.09.2022
1736 Clouds 15 1021 54 10000 2.68 90 15:18 20.09.2022
1737 Clouds 14 1022 53 10000 2.06 50 13:59 20.09.2022
1738 Clouds 11 1023 67 10000 2.24 248 11:24 20.09.2022
1739 Clouds 6 1023 88 10000 1.03 260 08:29 20.09.2022
1740 Clouds 6 1023 88 10000 1.03 260 08:29 20.09.2022
1741 Clouds 5 1023 89 10000 1.03 0 07:31 20.09.2022
1742 Clouds 5 1023 88 10000 0.51 0 04:33 20.09.2022
1743 Clouds 7 1022 81 10000 0.51 0 01:28 20.09.2022
1744 Clouds 7 1022 87 10000 0.51 0 22:33 19.09.2022
1745 Clouds 9 1021 76 10000 0.51 0 21:28 19.09.2022
1746 Clouds 9 1020 76 10000 1.54 0 20:39 19.09.2022
1747 Clouds 14 1019 47 10000 3.09 150 18:42 19.09.2022
1748 Clouds 16 1019 39 10000 4.12 270 16:29 19.09.2022
1749 Clouds 14 1020 51 10000 3.09 90 13:45 19.09.2022
1750 Clouds 12 1020 71 10000 2.06 90 11:43 19.09.2022
1751 Clouds 9 1019 89 10000 2.24 90 09:35 19.09.2022
1752 Rain 8 1019 93 10000 1.03 0 08:20 19.09.2022
1753 Clouds 9 1016 93 10000 0.51 0 02:46 19.09.2022
1754 Rain 10 1015 89 10000 0.51 0 23:39 18.09.2022
1755 Rain 11 1016 86 10000 1.03 0 22:29 18.09.2022
1756 Clouds 11 1016 81 10000 1.54 100 20:41 18.09.2022
1757 Rain 12 1016 76 10000 3.09 100 19:26 18.09.2022
1758 Clouds 13 1016 70 10000 3.09 70 17:49 18.09.2022
1759 Clouds 15 1016 62 10000 3.6 80 16:43 18.09.2022
1760 Clouds 13 1018 68 10000 3.6 80 14:39 18.09.2022
1761 Clouds 12 1019 74 10000 2.57 110 12:56 18.09.2022
1762 Clouds 11 1019 81 10000 2.06 100 11:53 18.09.2022
1763 Clouds 7 1018 93 9000 1.03 0 06:57 18.09.2022
1764 Rain 8 1017 91 7000 1.54 340 01:37 18.09.2022
1765 Clouds 8 1017 91 10000 2.57 300 01:18 18.09.2022
1766 Rain 9 1017 88 10000 2.57 260 22:54 17.09.2022
1767 Rain 9 1017 84 10000 8.23 270 20:50 17.09.2022
1768 Rain 10 1015 79 10000 2.57 50 19:30 17.09.2022
1769 Clouds 12 1013 54 10000 10.29 270 17:21 17.09.2022
1770 Clouds 13 1013 58 10000 4.12 260 14:18 17.09.2022
1771 Clouds 11 1013 76 10000 2.06 40 12:44 17.09.2022
1772 Clouds 10 1014 84 10000 2.24 12 10:48 17.09.2022
1773 Clouds 11 1010 90 9000 1.03 0 06:31 17.09.2022
1774 Clouds 11 1011 88 10000 0.89 8 03:55 17.09.2022
1775 Clouds 12 1011 88 10000 1.54 230 23:23 16.09.2022
1776 Clouds 13 1010 80 10000 3.6 110 21:46 16.09.2022
1777 Clouds 14 1010 73 10000 4.63 80 20:41 16.09.2022
1778 Clouds 17 1008 64 10000 4.63 100 18:29 16.09.2022
1779 Clouds 19 1007 63 10000 2.06 50 16:21 16.09.2022
1780 Clouds 20 1008 56 10000 2.06 0 14:44 16.09.2022
1781 Clouds 17 1010 72 10000 2.57 110 12:35 16.09.2022
1782 Drizzle 14 1010 94 10000 1.03 0 09:39 16.09.2022
1783 Rain 14 1010 90 10000 0.51 0 07:22 16.09.2022
1784 Clouds 14 1010 87 10000 1.03 0 06:48 16.09.2022
1785 Clouds 14 1010 84 10000 1.54 60 05:43 16.09.2022
1786 Clouds 16 1010 86 10000 4.12 70 01:30 16.09.2022
1787 Clouds 19 1010 68 10000 3.6 260 21:24 15.09.2022
1788 Clouds 19 1008 72 10000 1.03 0 20:28 15.09.2022
1789 Clouds 22 1007 64 10000 3.6 0 18:57 15.09.2022
1790 Clouds 22 1007 68 10000 3.09 60 17:38 15.09.2022
1791 Clouds 22 1007 68 10000 3.09 60 17:18 15.09.2022
1792 Clouds 23 1007 60 10000 1.03 0 15:22 15.09.2022
1793 Clouds 21 1008 78 10000 1.03 0 12:49 15.09.2022
1794 Clouds 18 1009 91 10000 2.57 270 10:42 15.09.2022
1795 Clouds 18 1009 92 10000 1.03 0 09:43 15.09.2022
1796 Clouds 16 1009 96 10000 1.03 0 05:22 15.09.2022
1797 Clouds 16 1009 96 10000 2.57 110 02:57 15.09.2022
1798 Rain 18 1009 87 10000 4.12 90 22:44 14.09.2022
1799 Clouds 21 1007 73 10000 1.54 0 20:24 14.09.2022
1800 Clouds 22 1007 68 10000 1.03 0 19:32 14.09.2022
1801 Clouds 25 1007 47 10000 2.57 0 17:28 14.09.2022
1802 Clouds 26 1006 48 10000 5.14 160 16:36 14.09.2022
1803 Clouds 27 1007 46 10000 3.6 0 14:46 14.09.2022
1804 Clouds 24 1009 59 10000 3.09 260 12:24 14.09.2022
1805 Clouds 18 1011 84 10000 1.54 80 09:49 14.09.2022
1806 Clouds 16 1011 85 10000 0.51 0 07:39 14.09.2022
1807 Clouds 16 1011 89 10000 1.54 0 06:48 14.09.2022
1808 Clouds 16 1010 81 10000 1.54 0 05:22 14.09.2022
1809 Clouds 17 1012 80 10000 1.54 0 01:53 14.09.2022
1810 Clouds 17 1012 81 10000 1.03 0 01:29 14.09.2022
1811 Clouds 17 1012 83 10000 2.06 260 00:52 14.09.2022
1812 Clouds 17 1012 80 10000 1.54 290 23:54 13.09.2022
1813 Clouds 17 1012 79 10000 1.54 290 23:36 13.09.2022
1814 Clear 18 1012 78 10000 1.03 0 23:18 13.09.2022
1815 Clear 18 1013 77 10000 1.03 130 22:21 13.09.2022
1816 Clear 21 1012 66 10000 1.03 0 20:21 13.09.2022
1817 Clear 25 1011 52 10000 4.63 80 18:21 13.09.2022
1818 Clouds 27 1012 44 10000 2.57 80 15:56 13.09.2022
1819 Clouds 26 1013 45 10000 1.34 68 14:47 13.09.2022
1820 Clouds 22 1014 46 10000 1.03 0 13:20 13.09.2022
1821 Clouds 12 1016 82 10000 2.06 260 09:23 13.09.2022
1822 Clear 9 1017 91 10000 1.54 260 06:59 13.09.2022
1823 Clouds 12 1017 85 10000 1.54 230 00:23 13.09.2022
1824 Clear 13 1017 84 10000 1.54 240 22:51 12.09.2022
1825 Clear 14 1017 83 10000 0.51 0 22:18 12.09.2022
1826 Clear 16 1017 71 10000 1.34 0 20:42 12.09.2022
1827 Clear 21 1015 52 10000 4.12 60 18:52 12.09.2022
1828 Clear 23 1015 37 10000 4.12 90 17:25 12.09.2022
1829 Clouds 23 1017 36 10000 2.06 130 14:39 12.09.2022
1830 Clouds 15 1019 72 10000 2.06 270 11:31 12.09.2022
1831 Clouds 12 1020 82 10000 1.54 250 09:57 12.09.2022
1832 Clouds 10 1020 91 10000 1.03 260 04:57 12.09.2022
1833 Clouds 10 1020 91 10000 1.03 0 04:27 12.09.2022
1834 Clear 12 1022 90 10000 0.51 0 23:47 11.09.2022
1835 Clouds 11 1021 93 10000 0.51 0 22:43 11.09.2022
1836 Clouds 14 1020 82 10000 1.03 0 20:51 11.09.2022
1837 Clouds 15 1021 83 10000 2.06 30 20:18 11.09.2022
1838 Clouds 17 1020 77 10000 5.66 70 19:25 11.09.2022
1839 Clouds 17 1020 78 10000 6.69 60 18:36 11.09.2022
1840 Clouds 20 1019 58 10000 2.06 50 16:56 11.09.2022
1841 Clouds 18 1020 74 10000 3.6 90 14:56 11.09.2022
1842 Clouds 16 1021 80 10000 2.06 100 12:53 11.09.2022
1843 Clouds 14 1020 91 10000 1.03 0 09:28 11.09.2022
1844 Clouds 13 1019 95 10000 0.89 293 07:21 11.09.2022
1845 Clouds 14 1019 92 10000 0.51 0 02:55 11.09.2022
1846 Clouds 15 1019 91 10000 1.54 170 23:27 10.09.2022
1847 Clouds 15 1018 85 10000 1.03 0 21:33 10.09.2022
1848 Clouds 15 1017 82 10000 3.09 70 19:49 10.09.2022
1849 Clouds 17 1017 78 10000 3.09 60 19:29 10.09.2022
1850 Clouds 17 1018 71 10000 3.6 80 18:58 10.09.2022
1851 Clouds 18 1017 69 10000 2.57 70 16:58 10.09.2022
1852 Clouds 19 1017 67 10000 2.57 130 15:28 10.09.2022
1853 Clouds 18 1018 73 10000 1.34 349 12:55 10.09.2022
1854 Clouds 17 1018 77 10000 1.54 0 11:36 10.09.2022
1855 Clouds 15 1018 84 10000 2.57 280 10:24 10.09.2022
1856 Clouds 13 1018 92 10000 0.51 0 08:37 10.09.2022
1857 Clouds 13 1018 93 10000 0.51 0 07:57 10.09.2022
1858 Clouds 13 1017 97 10000 0.51 0 02:47 10.09.2022
1859 Clouds 14 1018 95 10000 1.54 170 23:34 09.09.2022
1860 Rain 14 1018 92 10000 2.57 270 22:21 09.09.2022
1861 Clouds 14 1017 92 10000 1.03 0 20:48 09.09.2022
1862 Clouds 16 1016 88 10000 3.09 60 19:25 09.09.2022
1863 Clouds 16 1016 89 10000 1.54 110 18:55 09.09.2022
1864 Clouds 16 1016 88 10000 4.63 280 16:34 09.09.2022
1865 Clouds 16 1016 88 10000 2.06 100 14:27 09.09.2022
1866 Rain 16 1016 94 10000 3.6 70 12:56 09.09.2022
1867 Rain 15 1017 94 10000 2.06 40 10:23 09.09.2022
1868 Rain 15 1016 93 9000 2.06 270 07:18 09.09.2022
1869 Clouds 14 1017 88 10000 1.03 0 03:28 09.09.2022
1870 Clouds 15 1016 86 10000 1.03 130 22:19 08.09.2022
1871 Clouds 15 1016 85 10000 1.03 0 21:43 08.09.2022
1872 Clouds 17 1015 77 10000 1.03 0 20:46 08.09.2022
1873 Clouds 17 1014 77 10000 2.06 40 20:21 08.09.2022
1874 Clouds 20 1014 64 10000 4.63 80 18:34 08.09.2022
1875 Clouds 20 1014 64 10000 4.63 90 16:38 08.09.2022
1876 Clouds 18 1014 72 10000 1.03 0 14:41 08.09.2022
1877 Rain 17 1015 82 10000 1.54 0 13:27 08.09.2022
1878 Rain 16 1015 88 10000 3.09 280 12:33 08.09.2022
1879 Rain 17 1013 87 10000 4.63 300 10:58 08.09.2022
1880 Rain 17 1013 87 10000 4.63 300 10:58 08.09.2022
1881 Rain 17 1012 89 10000 9.26 250 08:59 08.09.2022
1882 Clouds 16 1012 92 10000 4.63 290 06:43 08.09.2022
1883 Clouds 17 1013 90 10000 3.6 290 02:37 08.09.2022
1884 Clouds 17 1013 90 10000 2.06 280 02:19 08.09.2022
1885 Clouds 17 1013 90 10000 2.06 290 01:38 08.09.2022
1886 Clouds 18 1015 87 10000 1.54 0 22:55 07.09.2022
1887 Clouds 19 1015 78 10000 2.06 0 21:43 07.09.2022
1888 Clouds 20 1015 78 10000 1.54 100 20:56 07.09.2022
1889 Clouds 21 1014 78 10000 3.6 280 19:53 07.09.2022
1890 Clouds 22 1014 68 10000 2.06 60 18:39 07.09.2022
1891 Clouds 24 1016 62 10000 2.68 135 14:56 07.09.2022
1892 Clouds 18 1020 82 10000 2.06 280 10:50 07.09.2022
1893 Clouds 16 1020 94 10000 0.51 0 09:52 07.09.2022
1894 Clouds 16 1019 94 10000 1.03 0 07:35 07.09.2022
1895 Clouds 16 1019 92 10000 1.03 0 03:34 07.09.2022
1896 Clouds 17 1019 94 10000 1.54 200 23:48 06.09.2022
1897 Rain 18 1019 91 10000 3.6 110 21:43 06.09.2022
1898 Rain 18 1020 91 10000 1.34 90 21:21 06.09.2022
1899 Clouds 24 1017 53 10000 3.09 70 18:49 06.09.2022
1900 Clouds 25 1017 50 10000 5.66 80 18:22 06.09.2022
1901 Clouds 27 1017 43 10000 3.09 70 17:22 06.09.2022
1902 Clouds 27 1017 45 10000 3.09 110 16:37 06.09.2022
1903 Clouds 27 1018 49 10000 1.34 356 15:22 06.09.2022
1904 Clouds 25 1019 57 10000 2.06 0 13:45 06.09.2022
1905 Clouds 24 1020 62 10000 4.12 280 13:24 06.09.2022
1906 Clouds 19 1022 72 10000 2.06 320 11:59 06.09.2022
1907 Clouds 17 1023 82 10000 2.57 340 10:45 06.09.2022
1908 Clouds 17 1022 86 10000 1.03 0 08:50 06.09.2022
1909 Clouds 17 1022 86 10000 1.03 0 07:49 06.09.2022
1910 Clouds 16 1021 85 10000 1.54 290 03:31 06.09.2022
1911 Clear 19 1022 69 10000 2.06 0 23:27 05.09.2022
1912 Clouds 20 1022 68 10000 3.09 50 22:29 05.09.2022
1913 Clouds 21 1021 68 10000 1.54 0 20:43 05.09.2022
1914 Clouds 24 1020 53 10000 2.06 80 19:26 05.09.2022
1915 Clouds 25 1020 47 10000 4.63 70 18:46 05.09.2022
1916 Clouds 26 1020 44 10000 3.6 80 18:21 05.09.2022
1917 Clouds 26 1020 44 10000 4.12 60 16:43 05.09.2022
1918 Clouds 26 1020 50 10000 2.57 80 15:47 05.09.2022
1919 Clouds 25 1022 52 10000 4.63 280 13:26 05.09.2022
1920 Clouds 24 1022 57 10000 2.06 300 12:28 05.09.2022
1921 Clouds 20 1024 70 10000 2.57 250 10:18 05.09.2022
1922 Clouds 14 1023 88 10000 0.51 0 06:42 05.09.2022
1923 Clear 15 1023 84 10000 0.51 0 02:19 05.09.2022
1924 Clear 16 1024 79 10000 0.51 0 23:18 04.09.2022
1925 Clear 17 1023 77 10000 1.03 0 22:27 04.09.2022
1926 Clouds 19 1023 72 10000 0.51 0 21:31 04.09.2022
1927 Clouds 22 1021 60 10000 3.6 70 19:38 04.09.2022
1928 Clouds 25 1021 47 10000 7.2 80 18:19 04.09.2022
1929 Clouds 26 1020 45 10000 4.12 80 16:44 04.09.2022
1930 Clouds 25 1020 50 10000 2.24 158 14:30 04.09.2022
1931 Clouds 24 1021 58 10000 2.24 90 13:28 04.09.2022
1932 Clouds 20 1022 64 10000 1.34 203 11:54 04.09.2022
1933 Clouds 19 1023 74 10000 1.03 0 10:47 04.09.2022
1934 Clouds 14 1021 95 10000 0.51 0 08:20 04.09.2022
1935 Clouds 13 1020 96 10000 1.03 0 05:19 04.09.2022
1936 Clouds 14 1020 91 10000 3.6 260 00:47 04.09.2022
1937 Clouds 16 1018 89 10000 2.57 90 22:22 03.09.2022
1938 Clouds 16 1018 86 10000 4.63 80 21:23 03.09.2022
1939 Clouds 18 1016 82 10000 3.09 90 19:39 03.09.2022
1940 Clouds 22 1015 67 10000 2.06 270 17:26 03.09.2022
1941 Clouds 21 1014 67 10000 3.09 130 16:31 03.09.2022
1942 Rain 22 1015 62 10000 1.03 0 14:45 03.09.2022
1943 Rain 22 1015 55 10000 1.03 0 14:22 03.09.2022
1944 Rain 20 1016 63 10000 2.57 70 12:24 03.09.2022
1945 Clouds 18 1015 77 10000 3.09 310 10:41 03.09.2022
1946 Clouds 15 1015 89 10000 1.54 270 08:29 03.09.2022
1947 Clouds 14 1015 94 10000 1.54 360 06:58 03.09.2022
1948 Rain 14 1016 91 10000 1.54 0 04:34 03.09.2022
1949 Clouds 14 1016 91 10000 1.54 0 00:29 03.09.2022
1950 Clouds 16 1015 86 10000 1.03 0 22:57 02.09.2022
1951 Thunderstorm 17 1015 82 10000 3.09 40 20:59 02.09.2022
1952 Thunderstorm 20 1014 68 10000 1.54 0 20:28 02.09.2022
1953 Clouds 22 1013 56 10000 5.14 90 19:22 02.09.2022
1954 Clouds 23 1013 52 10000 5.66 90 18:36 02.09.2022
1955 Clouds 24 1013 49 10000 6.17 80 17:53 02.09.2022
1956 Clouds 25 1013 45 10000 4.63 90 16:48 02.09.2022
1957 Clouds 24 1013 49 10000 4.63 80 15:21 02.09.2022
1958 Clouds 22 1015 58 10000 1.54 0 12:39 02.09.2022
1959 Clouds 17 1017 74 10000 2.24 293 10:22 02.09.2022
1960 Clouds 14 1017 77 10000 1.03 0 09:40 02.09.2022
1961 Clouds 11 1017 92 10000 0.51 0 07:32 02.09.2022
1962 Clouds 11 1017 94 10000 0.51 0 06:40 02.09.2022
1963 Clouds 12 1018 89 10000 1.03 0 02:55 02.09.2022
1964 Clouds 15 1019 82 10000 1.03 0 22:35 01.09.2022
1965 Clouds 16 1019 82 10000 0.51 0 21:44 01.09.2022
1966 Clouds 16 1018 82 10000 1.03 0 21:25 01.09.2022
1967 Clouds 17 1018 77 10000 1.54 10 20:44 01.09.2022
1968 Clouds 20 1017 64 10000 4.12 100 18:57 01.09.2022
1969 Clouds 21 1017 58 10000 2.24 90 17:33 01.09.2022
1970 Clouds 21 1017 59 10000 2.68 113 15:59 01.09.2022
1971 Clouds 21 1018 61 10000 3.09 100 14:33 01.09.2022
1972 Clouds 20 1018 66 10000 2.24 345 12:58 01.09.2022
1973 Clouds 19 1018 70 10000 2.06 0 11:53 01.09.2022
1974 Clouds 18 1018 78 10000 2.06 0 11:32 01.09.2022
1975 Clouds 16 1018 89 10000 1.03 0 10:38 01.09.2022
1976 Clouds 15 1018 93 10000 1.03 0 08:30 01.09.2022
1977 Clouds 15 1018 94 7000 1.54 80 06:22 01.09.2022
1978 Clouds 15 1019 96 10000 1.03 110 01:32 01.09.2022
1979 Clouds 15 1019 96 10000 1.03 110 01:32 01.09.2022
1980 Drizzle 15 1019 96 10000 1.03 170 01:32 01.09.2022
1981 Clouds 16 1019 96 9000 1.54 140 23:29 31.08.2022
1982 Clouds 16 1020 92 10000 1.03 0 21:33 31.08.2022
1983 Clouds 17 1018 91 10000 1.34 316 19:50 31.08.2022
1984 Clouds 16 1019 89 10000 4.12 90 18:18 31.08.2022
1985 Clouds 18 1019 94 10000 0.51 0 15:56 31.08.2022
1986 Clouds 18 1018 87 10000 4.63 260 14:27 31.08.2022
1987 Clouds 19 1018 86 10000 2.06 360 12:22 31.08.2022
1988 Clouds 18 1018 95 10000 1.03 0 11:21 31.08.2022
1989 Clouds 17 1017 93 10000 1.54 120 08:35 31.08.2022
1990 Rain 17 1017 93 10000 2.06 280 04:47 31.08.2022
1991 Rain 19 1019 77 10000 6.69 280 23:20 30.08.2022
1992 Rain 19 1018 88 10000 4.12 290 21:38 30.08.2022
1993 Rain 23 1017 56 10000 3.6 80 20:56 30.08.2022
1994 Clouds 26 1016 46 10000 7.72 80 18:23 30.08.2022
1995 Clouds 28 1017 46 10000 4.12 90 14:44 30.08.2022
1996 Clouds 26 1017 54 10000 2.68 135 13:24 30.08.2022
1997 Clouds 24 1019 64 10000 1.34 295 11:21 30.08.2022
1998 Clouds 22 1020 71 10000 1.54 270 10:40 30.08.2022
1999 Clouds 15 1020 92 10000 0.51 0 06:51 30.08.2022
2000 Clouds 16 1021 88 10000 1.54 280 01:53 30.08.2022
2001 Clouds 18 1020 82 10000 1.03 0 22:54 29.08.2022
2002 Clouds 19 1020 82 10000 1.03 0 22:24 29.08.2022
2003 Clouds 20 1019 77 10000 0.51 0 21:24 29.08.2022
2004 Clouds 24 1018 60 10000 3.09 60 19:51 29.08.2022
2005 Clouds 27 1017 46 10000 6.17 80 17:50 29.08.2022
2006 Clouds 28 1017 45 10000 6.17 70 17:24 29.08.2022
2007 Clouds 28 1017 44 10000 4.12 70 16:22 29.08.2022
2008 Clouds 26 1018 52 10000 4.63 80 14:44 29.08.2022
2009 Clouds 25 1019 59 10000 2.68 135 12:52 29.08.2022
2010 Clouds 22 1020 65 10000 1.03 0 10:56 29.08.2022
2011 Clouds 20 1020 75 10000 1.03 0 09:45 29.08.2022
2012 Clouds 17 1020 86 10000 1.54 260 08:28 29.08.2022
2013 Clouds 17 1020 88 10000 1.03 0 02:48 29.08.2022
2014 Clouds 16 1020 94 10000 1.03 0 23:55 28.08.2022
2015 Clouds 17 1020 90 10000 1.03 0 22:36 28.08.2022
2016 Clouds 17 1019 94 10000 0.51 0 21:40 28.08.2022
2017 Clouds 18 1019 84 10000 1.03 0 20:43 28.08.2022
2018 Clouds 21 1017 76 10000 4.12 80 19:20 28.08.2022
2019 Clouds 22 1016 71 10000 5.66 80 18:20 28.08.2022
2020 Clouds 22 1017 75 10000 5.66 90 16:57 28.08.2022
2021 Clouds 23 1016 70 10000 4.12 70 15:50 28.08.2022
2022 Clouds 23 1016 69 10000 3.6 60 13:47 28.08.2022
2023 Clouds 21 1016 81 10000 1.54 0 12:31 28.08.2022
2024 Clouds 19 1016 91 10000 0.51 0 10:40 28.08.2022
2025 Clouds 18 1016 93 10000 0.51 0 09:40 28.08.2022
2026 Clouds 17 1016 96 10000 1.03 0 08:36 28.08.2022
2027 Clouds 17 1015 96 10000 1.54 280 07:41 28.08.2022
2028 Rain 18 1015 95 10000 1.03 0 01:31 28.08.2022
2029 Rain 18 1015 93 10000 1.54 140 00:22 28.08.2022
2030 Rain 18 1016 90 8000 4.12 260 22:31 27.08.2022
2031 Rain 19 1015 87 10000 1.54 270 21:24 27.08.2022
2032 Clouds 19 1014 94 10000 2.57 260 19:39 27.08.2022
2033 Rain 23 1013 61 10000 1.54 280 16:42 27.08.2022
2034 Clouds 24 1013 53 10000 1.54 280 15:39 27.08.2022
2035 Clouds 24 1013 53 10000 1.03 0 14:35 27.08.2022
2036 Clouds 23 1015 60 10000 1.54 0 12:22 27.08.2022
2037 Clouds 21 1014 70 10000 1.54 0 11:24 27.08.2022
2038 Clouds 19 1014 87 10000 1.03 0 09:40 27.08.2022
2039 Clouds 17 1014 91 10000 1.54 300 07:31 27.08.2022
2040 Rain 18 1015 91 10000 1.03 0 02:33 27.08.2022
2041 Clouds 18 1015 94 10000 3.09 100 23:53 26.08.2022
2042 Rain 18 1015 94 10000 1.03 0 22:24 26.08.2022
2043 Rain 20 1013 83 10000 6.17 270 20:39 26.08.2022
2044 Clouds 26 1011 44 10000 6.17 60 19:20 26.08.2022
2045 Clouds 30 1011 30 10000 4.63 80 16:46 26.08.2022
2046 Clouds 30 1012 32 10000 1.54 0 15:27 26.08.2022
2047 Clouds 30 1012 32 10000 1.54 0 15:27 26.08.2022
2048 Clouds 29 1012 37 10000 1.03 0 13:46 26.08.2022
2049 Clouds 27 1013 47 10000 1.54 70 12:35 26.08.2022
2050 Clouds 24 1014 55 10000 1.54 230 11:22 26.08.2022
2051 Clouds 21 1015 68 10000 1.54 260 10:25 26.08.2022
2052 Clear 15 1016 89 10000 1.03 0 06:50 26.08.2022
2053 Clear 18 1016 82 10000 1.03 0 01:22 26.08.2022
2054 Clouds 20 1016 73 10000 1.54 70 23:29 25.08.2022
2055 Clouds 24 1015 57 10000 1.54 340 21:00 25.08.2022
2056 Clouds 26 1014 50 10000 4.12 90 20:21 25.08.2022
2057 Clouds 27 1014 47 10000 6.17 50 18:48 25.08.2022
2058 Clouds 29 1014 39 10000 4.12 80 17:32 25.08.2022
2059 Clouds 29 1014 37 10000 4.12 100 16:49 25.08.2022
2060 Clouds 29 1013 39 10000 5.14 80 15:37 25.08.2022
2061 Clouds 28 1014 42 10000 3.09 90 14:31 25.08.2022
2062 Clouds 24 1016 59 10000 1.54 0 11:49 25.08.2022
2063 Clouds 21 1016 64 10000 1.03 0 10:46 25.08.2022
2064 Clear 17 1017 82 10000 1.54 260 08:52 25.08.2022
2065 Clear 15 1018 86 10000 0.51 0 04:59 25.08.2022
2066 Clear 17 1020 77 10000 1.03 0 00:26 25.08.2022
2067 Clear 18 1020 72 10000 1.03 0 23:25 24.08.2022
2068 Clear 19 1019 72 10000 1.03 0 22:18 24.08.2022
2069 Clouds 21 1019 60 10000 1.03 0 21:32 24.08.2022
2070 Clouds 22 1018 60 10000 1.54 40 20:23 24.08.2022
2071 Clouds 27 1017 35 10000 6.17 90 17:38 24.08.2022
2072 Clouds 28 1017 37 10000 3.13 90 16:22 24.08.2022
2073 Clouds 28 1017 37 10000 2.24 68 15:40 24.08.2022
2074 Clouds 24 1018 42 10000 2.24 305 12:53 24.08.2022
2075 Clear 21 1019 52 10000 1.79 301 11:22 24.08.2022
2076 Clear 16 1020 68 10000 2.06 260 09:19 24.08.2022
2077 Clear 12 1021 84 10000 0.51 0 07:33 24.08.2022
2078 Clouds 13 1021 77 10000 1.03 0 01:43 24.08.2022
2079 Clear 16 1020 72 10000 0.51 0 22:51 23.08.2022
2080 Clear 17 1020 67 10000 1.54 260 22:21 23.08.2022
2081 Clear 20 1019 56 10000 2.06 260 21:21 23.08.2022
2082 Clear 24 1017 38 10000 7.72 70 19:43 23.08.2022
2083 Clouds 26 1017 34 10000 5.14 70 18:30 23.08.2022
2084 Clouds 26 1017 31 10000 4.12 60 17:43 23.08.2022
2085 Clouds 27 1017 29 10000 3.6 90 16:33 23.08.2022
2086 Clouds 26 1017 31 10000 3.09 70 14:55 23.08.2022
2087 Clouds 25 1018 37 10000 3.09 90 13:25 23.08.2022
2088 Clouds 21 1018 56 10000 1.34 314 11:21 23.08.2022
2089 Clouds 19 1018 64 10000 2.06 260 10:35 23.08.2022
2090 Clouds 16 1018 72 10000 2.06 280 09:46 23.08.2022
2091 Clouds 15 1019 81 10000 2.06 260 08:48 23.08.2022
2092 Clouds 14 1018 83 10000 1.03 0 08:20 23.08.2022
2093 Clouds 12 1018 87 10000 0.51 0 07:34 23.08.2022
2094 Clouds 12 1018 87 10000 1.03 0 06:26 23.08.2022
2095 Clear 13 1018 82 10000 1.03 0 01:55 23.08.2022
2096 Clear 13 1018 82 10000 1.03 0 01:55 23.08.2022
2097 Clear 15 1017 77 10000 1.03 0 00:27 23.08.2022
2098 Clear 16 1017 72 10000 1.03 0 23:32 22.08.2022
2099 Clear 17 1016 67 10000 0.51 0 22:32 22.08.2022
2100 Clouds 18 1016 63 10000 0.51 0 21:22 22.08.2022
2101 Clouds 22 1015 49 10000 5.66 80 19:47 22.08.2022
2102 Clouds 24 1014 43 10000 5.14 70 18:38 22.08.2022
2103 Clouds 25 1014 36 10000 4.12 70 16:31 22.08.2022
2104 Clouds 26 1014 40 10000 2.57 0 15:38 22.08.2022
2105 Clouds 24 1015 46 10000 3.09 100 13:44 22.08.2022
2106 Clouds 19 1016 69 10000 1.03 0 10:26 22.08.2022
2107 Clouds 14 1016 92 10000 1.03 0 07:41 22.08.2022
2108 Clouds 14 1017 86 10000 2.06 260 02:56 22.08.2022
2109 Clear 15 1017 83 10000 0.51 0 00:37 22.08.2022
2110 Clouds 16 1017 81 10000 0.51 0 23:58 21.08.2022
2111 Clouds 18 1016 68 10000 0.51 0 21:57 21.08.2022
2112 Clouds 19 1016 63 10000 1.03 0 21:21 21.08.2022
2113 Clouds 22 1015 49 10000 5.66 70 20:26 21.08.2022
2114 Clouds 23 1014 49 10000 3.6 40 19:23 21.08.2022
2115 Clouds 26 1015 39 10000 3.09 110 16:54 21.08.2022
2116 Clouds 26 1015 39 10000 3.09 0 15:53 21.08.2022
2117 Clouds 26 1015 41 10000 2.24 90 15:18 21.08.2022
2118 Clouds 24 1016 51 10000 3.09 90 13:51 21.08.2022
2119 Clouds 23 1017 64 10000 1.79 309 12:57 21.08.2022
2120 Clouds 20 1018 79 10000 1.03 0 10:49 21.08.2022
2121 Clouds 17 1019 92 10000 1.03 0 09:24 21.08.2022
2122 Clouds 16 1019 95 10000 2.06 270 08:56 21.08.2022
2123 Clouds 16 1019 94 10000 2.06 280 08:38 21.08.2022
2124 Clouds 16 1019 96 10000 1.54 260 07:26 21.08.2022
2125 Clouds 17 1019 96 10000 1.03 0 02:52 21.08.2022
2126 Clouds 17 1019 94 10000 0.51 0 23:45 20.08.2022
2127 Clouds 17 1019 96 10000 0.51 0 22:23 20.08.2022
2128 Rain 18 1019 93 10000 1.03 10 21:26 20.08.2022
2129 Rain 18 1019 93 10000 1.54 270 19:58 20.08.2022
2130 Rain 18 1019 92 10000 1.54 270 19:39 20.08.2022
2131 Rain 18 1019 92 10000 1.54 270 19:39 20.08.2022
2132 Clouds 19 1018 89 10000 3.6 70 18:27 20.08.2022
2133 Rain 20 1018 82 10000 4.63 70 17:38 20.08.2022
2134 Clouds 20 1017 80 10000 3.09 70 16:35 20.08.2022
2135 Clouds 21 1018 75 10000 2.06 70 15:23 20.08.2022
2136 Clouds 18 1018 91 10000 1.03 0 12:46 20.08.2022
2137 Clouds 17 1019 92 10000 2.57 270 11:47 20.08.2022
2138 Rain 17 1018 93 10000 3.09 270 09:29 20.08.2022
2139 Rain 16 1017 95 10000 2.06 270 08:25 20.08.2022
2140 Clouds 16 1017 95 8000 3.09 290 05:49 20.08.2022
2141 Clouds 17 1017 91 10000 1.54 310 00:58 20.08.2022
2142 Rain 17 1016 90 10000 1.34 4 00:30 20.08.2022
2143 Rain 17 1016 91 10000 2.24 25 22:50 19.08.2022
2144 Rain 18 1016 92 10000 1.54 90 21:34 19.08.2022
2145 Rain 19 1014 91 10000 4.12 80 19:41 19.08.2022
2146 Rain 20 1012 83 10000 1.54 0 16:40 19.08.2022
2147 Clouds 24 1011 60 10000 8.23 260 14:51 19.08.2022
2148 Clouds 21 1012 73 10000 5.66 270 12:47 19.08.2022
2149 Clouds 19 1012 88 10000 2.57 250 10:43 19.08.2022
2150 Clouds 18 1012 91 10000 1.54 240 09:39 19.08.2022
2151 Clouds 18 1012 86 10000 0.51 0 04:59 19.08.2022
2152 Clouds 19 1011 79 10000 1.03 0 00:46 19.08.2022
2153 Clouds 19 1012 81 10000 1.54 120 00:22 19.08.2022
2154 Clouds 19 1012 79 10000 3.09 290 22:59 18.08.2022
2155 Clouds 19 1011 77 10000 1.54 320 22:30 18.08.2022
2156 Clouds 20 1010 78 10000 1.54 310 21:53 18.08.2022
2157 Clouds 21 1011 74 10000 3.09 280 21:18 18.08.2022
2158 Clouds 22 1011 64 10000 5.66 260 19:54 18.08.2022
2159 Clouds 23 1009 70 10000 4.63 250 19:21 18.08.2022
2160 Rain 22 1009 71 10000 4.12 110 17:41 18.08.2022
2161 Rain 22 1010 60 10000 3.6 90 16:25 18.08.2022
2162 Rain 26 1011 49 10000 5.14 80 14:22 18.08.2022
2163 Rain 26 1011 49 10000 5.14 80 14:22 18.08.2022
2164 Clouds 26 1010 48 10000 6.17 110 13:45 18.08.2022
2165 Rain 24 1011 60 10000 2.68 156 12:30 18.08.2022
2166 Clouds 22 1011 66 10000 2.06 290 11:21 18.08.2022
2167 Clouds 20 1012 76 10000 3.6 290 09:43 18.08.2022
2168 Rain 19 1011 76 10000 1.03 0 07:57 18.08.2022
2169 Clouds 16 1013 82 10000 1.03 0 06:43 18.08.2022
2170 Clouds 20 1013 68 10000 3.09 290 02:32 18.08.2022
2171 Clouds 27 1012 39 10000 5.14 60 22:50 17.08.2022
2172 Clouds 28 1010 34 10000 4.63 100 21:26 17.08.2022
2173 Clouds 28 1011 36 10000 5.66 110 19:59 17.08.2022
2174 Clouds 29 1011 34 10000 6.69 110 18:39 17.08.2022
2175 Clouds 30 1011 32 10000 5.14 110 17:21 17.08.2022
2176 Clouds 30 1011 32 10000 4.63 90 16:20 17.08.2022
2177 Clouds 31 1011 34 10000 4.12 0 14:46 17.08.2022
2178 Clouds 28 1013 43 10000 4.12 270 12:36 17.08.2022
2179 Clouds 26 1012 51 10000 5.14 270 11:36 17.08.2022
2180 Clouds 21 1013 69 10000 1.54 290 09:29 17.08.2022
2181 Clouds 16 1013 84 10000 1.03 0 07:28 17.08.2022
2182 Clear 17 1014 79 10000 1.03 0 01:45 17.08.2022
2183 Clear 19 1013 68 10000 2.06 0 23:33 16.08.2022
2184 Clouds 20 1012 68 10000 1.03 0 21:48 16.08.2022
2185 Clouds 23 1011 56 10000 1.54 60 20:25 16.08.2022
2186 Clouds 25 1011 61 10000 1.54 40 19:40 16.08.2022
2187 Clouds 28 1010 39 10000 3.09 70 18:18 16.08.2022
2188 Clouds 28 1011 39 10000 2.24 322 17:28 16.08.2022
2189 Clouds 28 1011 44 10000 2.57 140 15:46 16.08.2022
2190 Clouds 26 1012 51 10000 2.24 304 14:55 16.08.2022
2191 Clouds 25 1012 57 10000 2.68 303 14:36 16.08.2022
2192 Clouds 22 1013 64 10000 1.54 180 12:41 16.08.2022
2193 Clouds 19 1014 73 10000 1.54 0 10:35 16.08.2022
2194 Clouds 17 1013 86 10000 1.54 270 09:31 16.08.2022
2195 Clouds 16 1013 92 10000 1.54 270 08:26 16.08.2022
2196 Clouds 15 1013 93 10000 1.03 150 07:23 16.08.2022
2197 Clouds 17 1013 93 10000 1.03 150 01:23 16.08.2022
2198 Rain 17 1012 91 10000 2.06 110 22:29 15.08.2022
2199 Rain 18 1012 90 10000 1.03 0 21:53 15.08.2022
2200 Thunderstorm 18 1012 85 10000 4.12 300 20:47 15.08.2022
2201 Thunderstorm 19 1009 84 10000 9.77 240 20:18 15.08.2022
2202 Rain 22 1008 60 10000 5.66 260 18:31 15.08.2022
2203 Rain 23 1008 56 10000 2.57 310 16:40 15.08.2022
2204 Rain 23 1008 56 10000 2.57 310 16:40 15.08.2022
2205 Rain 24 1008 46 10000 1.03 0 16:20 15.08.2022
2206 Clouds 21 1010 68 10000 2.57 80 13:55 15.08.2022
2207 Rain 20 1010 74 10000 3.09 280 12:24 15.08.2022
2208 Clouds 20 1009 71 10000 3.09 270 09:57 15.08.2022
2209 Clouds 20 1008 66 10000 0.51 0 08:21 15.08.2022
2210 Clouds 17 1009 69 10000 1.03 0 04:54 15.08.2022
2211 Rain 19 1009 63 10000 1.54 110 01:35 15.08.2022
2212 Clear 20 1008 56 10000 1.54 190 22:39 14.08.2022
2213 Clouds 21 1008 52 10000 1.03 0 21:38 14.08.2022
2214 Clouds 27 1007 34 10000 1.54 350 19:58 14.08.2022
2215 Clouds 28 1006 32 10000 3.09 50 18:59 14.08.2022
2216 Clouds 30 1006 28 10000 3.09 60 18:19 14.08.2022
2217 Clouds 31 1007 21 10000 3.09 70 16:53 14.08.2022
2218 Clouds 30 1007 24 10000 2.57 90 15:50 14.08.2022
2219 Clouds 29 1008 28 10000 3.09 90 14:34 14.08.2022
2220 Clouds 27 1009 41 10000 2.06 0 13:50 14.08.2022
2221 Clear 27 1010 44 10000 1.34 301 13:20 14.08.2022
2222 Clear 25 1011 40 10000 1.03 0 12:34 14.08.2022
2223 Clear 20 1013 56 10000 2.57 280 10:50 14.08.2022
2224 Clear 15 1015 77 10000 2.57 250 08:52 14.08.2022
2225 Clear 13 1014 84 10000 2.06 270 06:22 14.08.2022
2226 Clear 14 1016 82 10000 1.54 250 02:57 14.08.2022
2227 Clouds 17 1016 67 10000 0.51 0 00:19 14.08.2022
2228 Clouds 19 1016 63 10000 1.03 0 22:56 13.08.2022
2229 Clouds 22 1015 49 10000 4.63 50 21:19 13.08.2022
2230 Clouds 22 1015 49 10000 3.09 50 20:43 13.08.2022
2231 Clouds 24 1014 43 10000 7.2 70 19:44 13.08.2022
2232 Clouds 26 1014 34 10000 4.12 50 17:59 13.08.2022
2233 Clouds 26 1015 33 10000 4.12 60 15:40 13.08.2022
2234 Clouds 25 1015 34 10000 3.6 110 14:28 13.08.2022
2235 Clouds 24 1015 40 10000 3.6 80 13:41 13.08.2022
2236 Clear 22 1016 53 10000 2.24 300 11:53 13.08.2022
2237 Clear 18 1018 59 10000 1.03 0 10:31 13.08.2022
2238 Clear 16 1017 72 10000 2.57 270 09:18 13.08.2022
2239 Clouds 13 1017 81 10000 1.03 0 05:57 13.08.2022
2240 Clouds 14 1018 78 10000 1.54 0 00:29 13.08.2022
2241 Clouds 17 1018 63 10000 0.51 0 22:20 12.08.2022
2242 Clouds 19 1017 55 10000 2.57 120 20:54 12.08.2022
2243 Rain 21 1017 45 10000 5.14 40 19:42 12.08.2022
2244 Clouds 23 1017 40 10000 4.63 70 18:48 12.08.2022
2245 Clouds 22 1016 47 10000 7.72 70 17:36 12.08.2022
2246 Clouds 25 1015 35 10000 4.02 90 16:24 12.08.2022
2247 Clouds 25 1015 39 10000 5.14 70 14:44 12.08.2022
2248 Clouds 24 1016 42 10000 2.57 0 12:56 12.08.2022
2249 Clouds 22 1017 56 10000 2.57 60 11:19 12.08.2022
2250 Clouds 17 1018 75 10000 2.06 120 08:31 12.08.2022
2251 Clouds 15 1019 80 10000 1.03 0 06:56 12.08.2022
2252 Clouds 16 1019 77 10000 0.51 0 03:35 12.08.2022
2253 Clouds 18 1019 68 10000 1.03 0 00:28 12.08.2022
2254 Clouds 20 1019 56 10000 1.54 330 23:35 11.08.2022
2255 Clouds 21 1019 52 10000 1.54 160 22:28 11.08.2022
2256 Clouds 22 1018 49 10000 3.6 60 21:43 11.08.2022
2257 Clouds 23 1018 49 10000 3.09 60 21:19 11.08.2022
2258 Clouds 25 1018 44 10000 5.66 80 20:27 11.08.2022
2259 Clouds 25 1017 44 10000 5.66 80 19:33 11.08.2022
2260 Clouds 26 1018 42 10000 8.75 70 18:36 11.08.2022
2261 Clouds 28 1016 42 10000 6.17 80 16:38 11.08.2022
2262 Clouds 29 1017 42 10000 3.09 100 15:37 11.08.2022
2263 Clouds 27 1018 48 10000 4.12 80 13:51 11.08.2022
2264 Clouds 23 1019 59 10000 1.34 277 11:26 11.08.2022
2265 Clear 16 1021 82 10000 1.54 270 07:56 11.08.2022
2266 Clear 15 1021 83 10000 0.51 0 04:44 11.08.2022
2267 Clear 16 1022 74 10000 2.06 120 01:54 11.08.2022
2268 Clouds 19 1022 72 10000 1.54 0 22:38 10.08.2022
2269 Clouds 20 1021 68 10000 1.54 280 21:44 10.08.2022
2270 Clouds 22 1021 56 10000 1.54 80 20:56 10.08.2022
2271 Clouds 24 1020 46 10000 8.23 80 19:44 10.08.2022
2272 Clouds 26 1020 39 10000 7.2 90 18:45 10.08.2022
2273 Clouds 28 1019 39 10000 6.17 90 17:19 10.08.2022
2274 Clouds 25 1021 50 10000 3.6 110 13:36 10.08.2022
2275 Clouds 25 1021 50 10000 3.6 110 13:36 10.08.2022
2276 Clouds 24 1021 51 10000 3.6 90 12:48 10.08.2022
2277 Clouds 19 1023 66 10000 0.51 0 09:56 10.08.2022
2278 Clear 16 1024 75 10000 0.51 0 08:35 10.08.2022
2279 Clear 15 1024 82 10000 0.51 0 07:21 10.08.2022
2280 Clear 14 1025 82 10000 1.54 260 04:49 10.08.2022
2281 Clear 16 1025 72 10000 0.51 0 00:49 10.08.2022
2282 Clear 18 1024 68 10000 1.03 0 23:25 09.08.2022
2283 Clouds 22 1023 49 10000 2.57 80 21:37 09.08.2022
2284 Clouds 22 1023 53 10000 2.57 70 20:42 09.08.2022
2285 Clouds 26 1022 38 10000 6.69 80 18:48 09.08.2022
2286 Clouds 28 1021 34 10000 7.2 80 17:31 09.08.2022
2287 Clouds 28 1021 34 10000 7.2 80 17:31 09.08.2022
2288 Clouds 28 1021 34 10000 6.69 80 16:42 09.08.2022
2289 Clouds 28 1021 34 10000 5.14 80 15:59 09.08.2022
2290 Clouds 26 1022 43 10000 3.58 68 14:30 09.08.2022
2291 Clouds 21 1025 58 10000 1.03 0 10:45 09.08.2022
2292 Clouds 18 1024 78 10000 0.51 0 08:51 09.08.2022
2293 Clouds 16 1024 85 10000 1.54 290 07:54 09.08.2022
2294 Clear 14 1024 85 10000 1.03 0 04:31 09.08.2022
2295 Clouds 18 1024 72 10000 0.51 0 23:58 08.08.2022
2296 Clouds 19 1024 68 10000 1.03 0 22:58 08.08.2022
2297 Clouds 19 1023 77 10000 1.03 0 22:35 08.08.2022
2298 Clouds 21 1023 60 10000 2.06 70 21:30 08.08.2022
2299 Clouds 24 1021 53 10000 3.6 70 19:57 08.08.2022
2300 Clouds 25 1020 54 10000 5.66 90 19:31 08.08.2022
2301 Clouds 26 1020 51 10000 6.69 80 17:47 08.08.2022
2302 Clouds 26 1021 46 10000 5.66 70 15:46 08.08.2022
2303 Clouds 25 1021 49 10000 5.66 80 14:45 08.08.2022
2304 Clouds 22 1022 57 10000 4.12 90 12:29 08.08.2022
2305 Clouds 19 1022 74 10000 1.34 68 10:23 08.08.2022
2306 Clouds 17 1021 84 10000 2.57 70 07:49 08.08.2022
2307 Clouds 19 1020 81 10000 1.54 50 03:39 08.08.2022
2308 Clouds 19 1021 82 10000 0.51 0 22:52 07.08.2022
2309 Clouds 20 1020 79 10000 1.03 0 21:41 07.08.2022
2310 Clouds 21 1019 74 10000 1.54 80 20:54 07.08.2022
2311 Clouds 21 1019 73 10000 3.09 60 20:18 07.08.2022
2312 Clouds 22 1018 71 10000 3.6 80 19:50 07.08.2022
2313 Clouds 22 1018 70 10000 4.12 90 18:40 07.08.2022
2314 Clouds 23 1018 67 10000 5.14 70 17:21 07.08.2022
2315 Clouds 24 1018 64 10000 6.69 90 16:41 07.08.2022
2316 Clouds 25 1018 63 10000 2.68 90 15:25 07.08.2022
2317 Clouds 24 1019 65 10000 2.24 90 13:47 07.08.2022
2318 Clouds 23 1020 72 10000 2.57 50 12:19 07.08.2022
2319 Clouds 20 1021 70 10000 2.57 120 10:37 07.08.2022
2320 Clouds 19 1021 85 10000 3.09 70 09:35 07.08.2022
2321 Clouds 17 1021 92 10000 1.03 0 04:33 07.08.2022
2322 Clouds 18 1022 92 10000 1.03 0 01:58 07.08.2022
2323 Clouds 18 1023 93 10000 1.54 100 22:30 06.08.2022
2324 Drizzle 18 1022 93 10000 1.34 45 21:43 06.08.2022
2325 Clouds 19 1022 87 10000 1.54 80 19:42 06.08.2022
2326 Clouds 19 1022 84 10000 3.09 60 18:35 06.08.2022
2327 Clouds 20 1022 82 10000 3.6 70 17:44 06.08.2022
2328 Rain 21 1022 80 10000 3.6 100 15:21 06.08.2022
2329 Clouds 21 1022 82 10000 1.54 90 13:50 06.08.2022
2330 Rain 21 1022 84 10000 1.03 0 12:21 06.08.2022
2331 Clouds 20 1022 85 10000 1.03 0 10:40 06.08.2022
2332 Clouds 19 1021 89 10000 0.51 0 09:24 06.08.2022
2333 Clouds 19 1021 92 10000 2.06 250 03:56 06.08.2022
2334 Clouds 19 1021 92 10000 6.69 290 00:46 06.08.2022
2335 Rain 20 1020 95 10000 2.06 30 22:35 05.08.2022
2336 Rain 21 1019 90 10000 6.17 270 20:37 05.08.2022
2337 Rain 22 1017 86 10000 3.6 90 18:56 05.08.2022
2338 Rain 22 1017 86 10000 3.6 90 18:38 05.08.2022
2339 Rain 19 1018 94 10000 2.57 200 16:52 05.08.2022
2340 Thunderstorm 30 1015 47 10000 4.47 270 15:24 05.08.2022
2341 Clouds 31 1014 44 10000 1.79 10 14:35 05.08.2022
2342 Clouds 31 1014 45 10000 1.54 110 13:36 05.08.2022
2343 Clouds 31 1014 49 10000 2.24 180 13:18 05.08.2022
2344 Clouds 28 1017 52 10000 1.54 0 11:29 05.08.2022
2345 Clear 24 1017 67 10000 2.06 260 08:57 05.08.2022
2346 Clear 23 1016 74 10000 1.03 0 07:53 05.08.2022
2347 Clouds 21 1017 80 10000 1.03 0 04:19 05.08.2022
2348 Clouds 24 1017 69 10000 1.03 0 23:36 04.08.2022
2349 Clouds 27 1015 54 10000 1.03 0 21:28 04.08.2022
2350 Clouds 27 1015 54 10000 1.54 20 20:57 04.08.2022
2351 Clouds 27 1015 54 10000 1.54 20 20:37 04.08.2022
2352 Clouds 31 1015 45 10000 4.12 70 18:59 04.08.2022
2353 Clouds 31 1015 45 10000 4.12 70 18:34 04.08.2022
2354 Clouds 34 1015 29 10000 4.12 80 15:59 04.08.2022
2355 Clouds 32 1016 39 10000 1.54 120 13:32 04.08.2022
2356 Clouds 28 1016 53 10000 1.03 0 11:40 04.08.2022
2357 Clear 26 1017 60 10000 2.06 250 10:22 04.08.2022
2358 Clear 26 1017 61 10000 2.06 250 10:22 04.08.2022
2359 Clear 20 1017 78 10000 1.03 0 07:47 04.08.2022
2360 Clear 20 1018 77 10000 1.03 0 03:29 04.08.2022
2361 Clear 21 1018 66 10000 2.06 0 00:52 04.08.2022
2362 Clear 21 1018 78 10000 1.03 0 23:41 03.08.2022
2363 Clouds 24 1017 64 10000 1.03 0 21:34 03.08.2022
2364 Clouds 28 1016 47 10000 2.06 0 20:21 03.08.2022
2365 Clouds 30 1016 39 10000 6.17 80 19:27 03.08.2022
2366 Clouds 32 1016 32 10000 4.12 70 16:53 03.08.2022
2367 Clouds 31 1016 33 10000 4.63 70 16:23 03.08.2022
2368 Clouds 29 1017 48 10000 2.06 60 13:53 03.08.2022
2369 Clouds 22 1020 60 10000 1.54 0 10:57 03.08.2022
2370 Clear 17 1020 83 10000 1.54 250 07:32 03.08.2022
2371 Clouds 17 1019 84 10000 1.03 280 04:22 03.08.2022
2372 Clouds 16 1020 85 10000 0.51 0 03:24 03.08.2022
2373 Clouds 19 1020 73 10000 2.06 50 00:54 03.08.2022
2374 Clear 20 1020 77 10000 1.03 0 22:43 02.08.2022
2375 Clouds 21 1019 73 10000 1.03 0 21:52 02.08.2022
2376 Clouds 23 1019 64 10000 1.03 0 20:37 02.08.2022
2377 Clouds 27 1018 44 10000 5.14 90 18:39 02.08.2022
2378 Clouds 28 1018 44 10000 3.6 90 15:27 02.08.2022
2379 Clouds 22 1020 68 10000 1.54 40 11:32 02.08.2022
2380 Clouds 19 1020 89 10000 1.03 0 09:18 02.08.2022
2381 Clouds 16 1021 95 10000 1.03 0 07:52 02.08.2022
2382 Clouds 17 1020 93 10000 1.54 180 06:42 02.08.2022
2383 Rain 17 1021 95 10000 2.06 100 04:54 02.08.2022
2384 Clouds 19 1019 77 10000 1.54 150 23:35 01.08.2022
2385 Clouds 21 1019 65 10000 2.24 68 22:24 01.08.2022
2386 Clouds 24 1018 50 10000 6.69 80 20:52 01.08.2022
2387 Clouds 27 1016 49 10000 6.17 70 19:25 01.08.2022
2388 Clouds 28 1016 47 10000 7.72 60 18:31 01.08.2022
2389 Clouds 28 1016 40 10000 7.2 70 16:53 01.08.2022
2390 Clouds 30 1015 37 10000 4.63 60 15:52 01.08.2022
2391 Clouds 30 1015 37 10000 3.13 113 15:30 01.08.2022
2392 Clouds 29 1016 35 10000 2.06 0 14:20 01.08.2022
2393 Clouds 26 1019 47 10000 2.24 158 11:59 01.08.2022
2394 Clouds 22 1019 68 10000 0.51 0 09:40 01.08.2022
2395 Clouds 20 1019 76 10000 1.03 0 08:30 01.08.2022
2396 Clouds 18 1018 83 10000 1.03 0 04:54 01.08.2022
2397 Clouds 17 1020 85 10000 1.03 0 03:49 01.08.2022
2398 Clouds 18 1020 88 10000 1.54 220 00:23 01.08.2022
2399 Clouds 19 1020 82 10000 1.03 0 22:39 31.07.2022
2400 Clouds 21 1019 73 10000 1.03 0 21:27 31.07.2022
2401 Clouds 24 1019 60 10000 1.54 0 19:41 31.07.2022
2402 Clouds 24 1019 59 10000 1.03 0 17:57 31.07.2022
2403 Clouds 23 1020 62 10000 1.54 0 15:39 31.07.2022
2404 Clouds 21 1021 63 10000 1.03 0 13:43 31.07.2022
2405 Clouds 17 1022 88 10000 1.03 0 11:58 31.07.2022
2406 Clouds 17 1021 86 10000 0.51 0 09:43 31.07.2022
2407 Clouds 16 1021 90 10000 0.51 0 07:59 31.07.2022
2408 Clouds 15 1022 89 10000 1.03 0 02:58 31.07.2022
2409 Clouds 16 1022 83 10000 0.51 0 23:40 30.07.2022
2410 Clouds 17 1022 78 10000 0.51 0 22:19 30.07.2022
2411 Clouds 17 1022 75 10000 2.06 70 21:49 30.07.2022
2412 Clouds 18 1021 69 10000 2.57 90 20:57 30.07.2022
2413 Clouds 18 1021 69 10000 2.57 90 20:57 30.07.2022
2414 Clouds 19 1021 69 10000 2.57 70 19:59 30.07.2022
2415 Clouds 21 1020 63 10000 5.14 70 18:53 30.07.2022
2416 Clouds 23 1019 56 10000 2.68 68 17:44 30.07.2022
2417 Clouds 23 1019 54 10000 2.06 0 15:54 30.07.2022
2418 Clouds 23 1019 57 10000 1.54 0 15:24 30.07.2022
2419 Clouds 22 1020 61 10000 1.54 0 13:18 30.07.2022
2420 Clouds 21 1020 65 10000 2.06 90 12:19 30.07.2022
2421 Rain 17 1020 90 10000 3.6 280 10:31 30.07.2022
2422 Rain 17 1020 90 10000 3.6 280 10:31 30.07.2022
2423 Rain 17 1020 90 10000 3.6 280 10:31 30.07.2022
2424 Rain 17 1020 88 10000 1.03 0 10:31 30.07.2022
2425 Rain 17 1020 86 10000 2.57 350 09:56 30.07.2022
2426 Clouds 16 1019 92 10000 2.06 250 07:55 30.07.2022
2427 Clouds 17 1018 95 10000 1.54 280 03:55 30.07.2022
2428 Rain 17 1018 93 10000 1.54 250 02:25 30.07.2022
2429 Rain 18 1019 92 10000 3.09 260 22:44 29.07.2022
2430 Rain 19 1018 89 10000 1.03 0 21:24 29.07.2022
2431 Rain 20 1017 84 10000 1.54 0 20:39 29.07.2022
2432 Thunderstorm 20 1017 84 7000 11.32 270 18:18 29.07.2022
2433 Rain 26 1015 47 10000 1.54 140 15:35 29.07.2022
2434 Clouds 26 1016 54 10000 1.34 180 13:37 29.07.2022
2435 Clouds 23 1018 61 10000 4.12 270 11:28 29.07.2022
2436 Clouds 19 1018 86 10000 1.54 0 08:50 29.07.2022
2437 Clouds 18 1018 89 10000 1.03 0 08:18 29.07.2022
2438 Rain 18 1019 93 10000 1.54 0 01:58 29.07.2022
2439 Clouds 19 1017 90 10000 3.6 90 22:53 28.07.2022
2440 Rain 19 1017 88 10000 4.12 100 21:29 28.07.2022
2441 Rain 19 1016 90 10000 3.09 120 20:34 28.07.2022
2442 Thunderstorm 23 1014 53 10000 9.26 290 19:44 28.07.2022
2443 Rain 23 1014 53 10000 9.26 290 19:24 28.07.2022
2444 Rain 27 1012 47 10000 6.69 60 17:44 28.07.2022
2445 Rain 28 1012 44 10000 5.66 70 16:59 28.07.2022
2446 Rain 28 1012 47 10000 5.66 70 16:36 28.07.2022
2447 Clouds 28 1013 49 10000 3.6 90 13:35 28.07.2022
2448 Clouds 22 1015 60 10000 1.54 0 11:42 28.07.2022
2449 Clouds 15 1016 89 10000 0.51 0 06:46 28.07.2022
2450 Clouds 15 1016 86 10000 1.54 250 05:33 28.07.2022
2451 Clouds 15 1017 84 10000 0.51 0 03:53 28.07.2022
2452 Clouds 20 1016 68 10000 1.54 240 22:56 27.07.2022
2453 Clouds 21 1016 60 10000 2.57 50 21:29 27.07.2022
2454 Clouds 23 1015 53 10000 4.63 60 19:45 27.07.2022
2455 Clouds 23 1014 53 10000 7.2 70 18:41 27.07.2022
2456 Clouds 25 1014 50 10000 5.66 80 16:31 27.07.2022
2457 Clouds 25 1014 50 10000 5.66 110 15:40 27.07.2022
2458 Clouds 25 1015 50 10000 3.09 80 14:41 27.07.2022
2459 Clouds 23 1014 65 10000 2.06 70 12:52 27.07.2022
2460 Clouds 19 1015 82 10000 1.03 0 09:27 27.07.2022
2461 Clouds 18 1015 87 10000 1.54 90 07:33 27.07.2022
2462 Clouds 18 1017 85 10000 1.03 0 02:52 27.07.2022
2463 Clouds 19 1017 82 10000 0.51 0 22:47 26.07.2022
2464 Clouds 20 1017 77 10000 1.03 0 21:25 26.07.2022
2465 Clouds 21 1017 68 10000 1.03 0 20:47 26.07.2022
2466 Clouds 23 1015 63 10000 4.12 90 18:46 26.07.2022
2467 Clouds 23 1015 62 10000 5.66 70 18:28 26.07.2022
2468 Clouds 24 1015 61 10000 3.6 80 16:54 26.07.2022
2469 Clouds 24 1014 70 10000 5.14 70 15:43 26.07.2022
2470 Clouds 24 1014 64 10000 1.03 0 14:00 26.07.2022
2471 Clouds 23 1016 78 10000 1.03 0 11:47 26.07.2022
2472 Rain 19 1016 94 10000 2.57 90 09:35 26.07.2022
2473 Rain 19 1016 96 10000 2.06 70 07:56 26.07.2022
2474 Rain 20 1017 89 10000 2.06 320 01:44 26.07.2022
2475 Rain 20 1016 85 10000 2.57 70 23:37 25.07.2022
2476 Rain 20 1017 86 10000 1.54 0 22:33 25.07.2022
2477 Rain 20 1017 86 10000 1.54 0 22:33 25.07.2022
2478 Rain 19 1015 88 10000 3.6 80 21:43 25.07.2022
2479 Rain 21 1016 78 10000 9.26 130 20:42 25.07.2022
2480 Rain 31 1010 35 10000 6.17 90 19:51 25.07.2022
2481 Clouds 34 1011 26 10000 5.14 90 18:23 25.07.2022
2482 Clouds 34 1011 27 10000 5.14 80 17:33 25.07.2022
2483 Clouds 35 1012 26 10000 1.03 0 15:37 25.07.2022
2484 Clouds 31 1014 47 10000 1.03 0 12:33 25.07.2022
2485 Clouds 26 1016 61 10000 3.09 290 10:38 25.07.2022
2486 Clear 20 1016 85 10000 1.54 130 06:52 25.07.2022
2487 Mist 22 1019 73 1600 1.54 130 23:57 24.07.2022
2488 Clouds 22 1019 73 10000 1.03 0 23:21 24.07.2022
2489 Clear 22 1018 73 10000 1.03 0 22:41 24.07.2022
2490 Clear 24 1018 69 10000 1.54 30 21:30 24.07.2022
2491 Clear 25 1017 65 10000 2.06 50 20:56 24.07.2022
2492 Clouds 27 1017 52 10000 3.6 60 20:29 24.07.2022
2493 Clouds 29 1017 43 10000 6.17 80 18:57 24.07.2022
2494 Clouds 31 1017 41 10000 4.63 80 16:51 24.07.2022
2495 Clouds 31 1017 45 10000 4.12 60 15:53 24.07.2022
2496 Clouds 30 1018 45 10000 3.6 80 14:40 24.07.2022
2497 Clouds 28 1019 51 10000 3.09 0 13:25 24.07.2022
2498 Clouds 27 1020 58 10000 2.24 180 12:19 24.07.2022
2499 Clouds 25 1021 66 10000 1.34 299 11:26 24.07.2022
2500 Clouds 22 1021 78 10000 1.54 270 09:33 24.07.2022
2501 Clouds 19 1022 91 10000 2.06 270 07:53 24.07.2022
2502 Clouds 19 1022 92 10000 2.06 330 06:38 24.07.2022
2503 Clouds 19 1023 95 10000 0.51 0 02:33 24.07.2022
2504 Clouds 21 1021 90 10000 1.03 0 22:31 23.07.2022
2505 Clouds 22 1020 86 10000 1.03 0 20:47 23.07.2022
2506 Thunderstorm 23 1019 82 10000 3.6 280 18:55 23.07.2022
2507 Rain 25 1020 65 10000 1.54 0 17:48 23.07.2022
2508 Clouds 25 1020 65 10000 3.6 60 17:24 23.07.2022
2509 Rain 25 1018 63 10000 1.03 0 15:55 23.07.2022
2510 Clouds 26 1018 60 10000 1.54 0 15:21 23.07.2022
2511 Clouds 26 1018 59 10000 1.34 320 14:47 23.07.2022
2512 Clouds 25 1019 61 10000 1.34 303 13:53 23.07.2022
2513 Clouds 22 1020 78 10000 3.09 270 11:47 23.07.2022
2514 Clouds 19 1022 88 10000 2.06 270 10:28 23.07.2022
2515 Clouds 18 1022 94 10000 4.12 280 09:26 23.07.2022
2516 Rain 19 1022 96 6000 1.03 0 05:58 23.07.2022
2517 Rain 19 1020 92 10000 1.54 210 02:54 23.07.2022
2518 Rain 20 1021 83 10000 3.6 120 23:59 22.07.2022
2519 Rain 21 1020 91 8000 5.14 70 21:28 22.07.2022
2520 Thunderstorm 25 1015 81 10000 4.12 270 19:58 22.07.2022
2521 Rain 31 1013 50 10000 3.58 90 18:41 22.07.2022
2522 Clouds 32 1015 39 10000 4.63 90 17:38 22.07.2022
2523 Clouds 32 1016 43 10000 4.63 90 15:35 22.07.2022
2524 Clouds 28 1019 50 10000 1.54 0 12:41 22.07.2022
2525 Clouds 21 1020 80 10000 1.03 0 09:52 22.07.2022
2526 Clouds 21 1020 81 10000 1.03 0 09:20 22.07.2022
2527 Clear 19 1021 88 10000 0.51 0 07:30 22.07.2022
2528 Clouds 18 1021 89 10000 0.51 0 04:19 22.07.2022
2529 Clouds 21 1022 80 10000 1.54 80 23:27 21.07.2022
2530 Clouds 22 1022 76 10000 3.09 70 21:39 21.07.2022
2531 Clouds 23 1020 70 10000 4.12 80 19:41 21.07.2022
2532 Clouds 23 1020 78 10000 1.34 90 18:29 21.07.2022
2533 Rain 23 1020 78 10000 3.13 90 17:21 21.07.2022
2534 Clouds 27 1019 56 10000 5.66 80 15:49 21.07.2022
2535 Clouds 27 1019 56 10000 6.17 80 14:46 21.07.2022
2536 Clouds 28 1019 57 10000 1.54 30 13:49 21.07.2022
2537 Clouds 26 1019 62 10000 2.24 345 11:48 21.07.2022
2538 Clouds 24 1019 72 10000 2.06 0 09:51 21.07.2022
2539 Clouds 22 1020 78 10000 2.06 280 08:53 21.07.2022
2540 Clouds 20 1020 83 10000 1.03 0 07:50 21.07.2022
2541 Clouds 18 1022 89 10000 1.03 0 06:27 21.07.2022
2542 Clouds 19 1022 84 10000 2.06 270 02:35 21.07.2022
2543 Clouds 22 1020 77 10000 5.14 270 22:46 20.07.2022
2544 Clouds 22 1020 74 10000 5.14 280 22:18 20.07.2022
2545 Clouds 22 1019 76 10000 6.17 290 20:46 20.07.2022
2546 Clouds 23 1018 68 10000 9.77 280 19:46 20.07.2022
2547 Thunderstorm 27 1018 47 10000 9.77 250 18:54 20.07.2022
2548 Rain 28 1018 47 10000 12.86 260 18:31 20.07.2022
2549 Clouds 33 1016 29 10000 4.12 50 17:25 20.07.2022
2550 Clouds 34 1017 27 10000 5.14 70 15:33 20.07.2022
2551 Clouds 36 1017 21 10000 3.6 80 14:36 20.07.2022
2552 Clouds 34 1017 32 10000 2.24 158 12:54 20.07.2022
2553 Clear 29 1018 49 10000 4.12 270 10:57 20.07.2022
2554 Clear 18 1021 77 10000 1.03 0 06:21 20.07.2022
2555 Clear 21 1021 68 10000 1.03 0 01:40 20.07.2022
2556 Clear 21 1020 63 10000 0.51 0 00:41 20.07.2022
2557 Clear 23 1019 60 10000 1.03 0 22:36 19.07.2022
2558 Clear 26 1019 47 10000 1.03 0 21:54 19.07.2022
2559 Clouds 27 1018 44 10000 1.54 40 20:50 19.07.2022
2560 Clouds 31 1017 32 10000 6.17 60 19:32 19.07.2022
2561 Clouds 32 1017 27 10000 6.69 80 18:42 19.07.2022
2562 Drizzle 33 1018 21 10000 5.66 80 17:54 19.07.2022
2563 Clouds 33 1018 26 10000 5.14 90 15:49 19.07.2022
2564 Clouds 31 1019 37 10000 4.63 80 13:37 19.07.2022
2565 Clear 26 1022 43 10000 1.03 0 11:34 19.07.2022
2566 Clear 21 1024 56 10000 1.03 0 09:53 19.07.2022
2567 Clear 20 1022 65 10000 1.54 270 08:48 19.07.2022
2568 Clear 17 1023 74 10000 3.6 270 07:57 19.07.2022
2569 Clear 18 1023 68 10000 1.03 0 07:18 19.07.2022
2570 Clear 16 1023 74 10000 1.03 260 05:20 19.07.2022
2571 Clear 15 1025 74 10000 0.51 0 04:40 19.07.2022
2572 Clouds 19 1024 59 10000 1.03 0 00:18 19.07.2022
2573 Clouds 20 1024 53 10000 2.24 0 23:20 18.07.2022
2574 Clear 20 1024 56 10000 0.51 0 22:42 18.07.2022
2575 Clear 25 1023 38 10000 1.54 80 21:26 18.07.2022
2576 Clear 26 1022 36 10000 3.6 100 20:45 18.07.2022
2577 Clouds 28 1022 31 10000 7.2 70 19:21 18.07.2022
2578 Clouds 31 1021 29 10000 4.63 90 16:45 18.07.2022
2579 Clouds 31 1022 27 10000 4.12 80 15:40 18.07.2022
2580 Clouds 29 1023 36 10000 4.63 90 13:40 18.07.2022
2581 Clear 27 1024 43 10000 2.57 70 12:21 18.07.2022
2582 Clear 23 1024 55 10000 1.03 0 10:24 18.07.2022
2583 Clear 19 1025 71 10000 1.54 270 08:20 18.07.2022
2584 Clear 15 1026 80 10000 0.51 0 06:39 18.07.2022
2585 Clear 19 1026 59 10000 0.51 0 23:30 17.07.2022
2586 Clear 21 1025 56 10000 1.03 0 22:32 17.07.2022
2587 Clear 22 1025 53 10000 1.03 0 21:43 17.07.2022
2588 Clear 25 1024 44 10000 4.12 80 20:46 17.07.2022
2589 Clear 26 1023 38 10000 5.66 90 20:18 17.07.2022
2590 Clouds 27 1022 36 10000 8.23 90 19:26 17.07.2022
2591 Clouds 29 1021 39 10000 6.17 90 18:26 17.07.2022
2592 Clouds 29 1021 37 10000 5.66 90 17:37 17.07.2022
2593 Clouds 29 1022 36 10000 5.66 80 16:50 17.07.2022
2594 Clouds 29 1022 36 10000 4.12 90 16:25 17.07.2022
2595 Clouds 27 1023 38 10000 4.63 70 14:20 17.07.2022
2596 Clouds 26 1024 43 10000 5.14 80 13:24 17.07.2022
2597 Clear 21 1024 52 10000 1.03 0 10:34 17.07.2022
2598 Clear 19 1025 60 10000 0.51 0 08:43 17.07.2022
2599 Clear 15 1026 77 10000 0.51 0 02:43 17.07.2022
2600 Clouds 17 1025 67 10000 0.51 0 01:47 17.07.2022
2601 Clouds 20 1024 56 10000 1.54 250 23:19 16.07.2022
2602 Clouds 23 1022 46 10000 4.63 80 21:21 16.07.2022
2603 Clouds 26 1020 41 10000 7.2 90 19:25 16.07.2022
2604 Clouds 27 1019 41 10000 8.23 70 17:53 16.07.2022
2605 Clouds 28 1018 41 10000 5.14 90 16:27 16.07.2022
2606 Clouds 26 1019 45 10000 4.63 80 13:47 16.07.2022
2607 Clouds 23 1020 61 10000 2.06 80 10:40 16.07.2022
2608 Clouds 20 1020 70 10000 2.06 80 09:30 16.07.2022
2609 Clouds 20 1020 75 10000 2.57 80 08:42 16.07.2022
2610 Clouds 18 1020 80 10000 2.57 60 07:51 16.07.2022
2611 Clouds 16 1020 80 10000 0.51 0 03:41 16.07.2022
2612 Clouds 17 1021 76 10000 1.03 0 02:35 16.07.2022
2613 Clouds 21 1020 64 10000 0.51 0 23:28 15.07.2022
2614 Clouds 21 1020 68 10000 1.03 0 22:38 15.07.2022
2615 Clouds 22 1019 60 10000 2.06 90 21:24 15.07.2022
2616 Clouds 24 1018 53 10000 6.17 90 19:59 15.07.2022
2617 Clouds 25 1018 48 10000 7.72 80 18:35 15.07.2022
2618 Clouds 26 1018 48 10000 6.69 90 17:34 15.07.2022
2619 Clouds 26 1016 52 10000 3.6 70 14:45 15.07.2022
2620 Clouds 24 1018 57 10000 3.6 110 12:48 15.07.2022
2621 Clouds 21 1019 70 10000 2.24 135 10:53 15.07.2022
2622 Clouds 19 1018 76 10000 4.63 70 08:42 15.07.2022
2623 Clouds 19 1018 68 10000 1.03 0 05:55 15.07.2022
2624 Clouds 20 1017 64 10000 1.03 0 00:52 15.07.2022
2625 Clouds 22 1017 49 10000 0.51 0 23:35 14.07.2022
2626 Clouds 22 1017 49 10000 0.51 0 22:42 14.07.2022
2627 Clouds 25 1016 41 10000 1.54 0 21:43 14.07.2022
2628 Clouds 27 1015 34 10000 1.54 50 21:24 14.07.2022
2629 Clouds 28 1015 36 10000 2.06 150 20:43 14.07.2022
2630 Clouds 30 1015 35 10000 1.54 90 20:19 14.07.2022
2631 Clouds 33 1015 21 10000 4.12 80 18:41 14.07.2022
2632 Clouds 33 1017 22 10000 1.54 0 16:21 14.07.2022
2633 Clouds 32 1018 22 10000 1.54 130 15:29 14.07.2022
2634 Clouds 31 1018 29 10000 1.54 0 13:53 14.07.2022
2635 Clear 29 1019 36 10000 1.54 170 12:48 14.07.2022
2636 Clear 23 1022 56 10000 2.57 280 11:41 14.07.2022
2637 Clear 24 1020 59 10000 3.09 280 11:22 14.07.2022
2638 Rain 22 1021 68 10000 1.03 0 09:49 14.07.2022
2639 Clouds 18 1023 76 10000 2.06 260 05:25 14.07.2022
2640 Clouds 20 1023 63 10000 0.51 0 01:22 14.07.2022
2641 Clouds 20 1023 62 10000 1.03 0 00:52 14.07.2022
2642 Clouds 22 1022 53 10000 0.51 0 22:32 13.07.2022
2643 Clouds 23 1022 56 10000 1.03 0 21:54 13.07.2022
2644 Clouds 24 1022 53 10000 1.03 40 20:45 13.07.2022
2645 Clouds 28 1021 42 10000 2.57 60 19:21 13.07.2022
2646 Clouds 29 1021 32 10000 4.63 60 17:42 13.07.2022
2647 Clouds 29 1021 28 10000 5.14 60 16:29 13.07.2022
2648 Clouds 29 1022 27 10000 4.63 90 15:24 13.07.2022
2649 Clouds 27 1023 41 10000 1.79 310 12:55 13.07.2022
2650 Clear 20 1025 52 10000 1.54 270 10:45 13.07.2022
2651 Clear 18 1026 63 10000 3.09 290 09:58 13.07.2022
2652 Clear 19 1026 64 10000 3.09 260 09:21 13.07.2022
2653 Clear 14 1026 82 10000 1.03 280 06:19 13.07.2022
2654 Clouds 15 1027 74 10000 0.51 0 01:28 13.07.2022
2655 Clouds 17 1026 67 10000 0 0 23:42 12.07.2022
2656 Clouds 21 1025 52 10000 3.6 140 21:57 12.07.2022
2657 Clouds 21 1024 52 10000 5.14 80 21:29 12.07.2022
2658 Clouds 22 1024 46 10000 1.54 60 20:41 12.07.2022
2659 Clouds 25 1023 36 10000 7.2 60 19:26 12.07.2022
2660 Clouds 26 1023 29 10000 7.2 40 17:50 12.07.2022
2661 Clouds 27 1022 31 10000 5.14 50 16:20 12.07.2022
2662 Clouds 26 1022 34 10000 5.66 70 14:31 12.07.2022
2663 Clouds 24 1023 51 10000 2.57 0 12:29 12.07.2022
2664 Clouds 23 1023 54 10000 1.54 0 11:22 12.07.2022
2665 Clouds 20 1024 64 10000 0.89 203 09:42 12.07.2022
2666 Clouds 17 1024 73 10000 0.89 248 08:23 12.07.2022
2667 Clouds 14 1024 86 10000 1.03 60 06:49 12.07.2022
2668 Clouds 13 1025 83 10000 0.51 0 05:42 12.07.2022
2669 Clouds 15 1024 78 10000 0.51 0 02:32 12.07.2022
2670 Clouds 16 1024 72 10000 0.51 0 23:30 11.07.2022
2671 Clouds 18 1023 63 10000 0.51 0 22:31 11.07.2022
2672 Clouds 20 1022 56 10000 4.12 80 20:41 11.07.2022
2673 Clouds 22 1021 49 10000 7.2 80 19:44 11.07.2022
2674 Clouds 23 1020 48 10000 7.72 70 18:32 11.07.2022
2675 Clouds 24 1020 50 10000 6.17 70 17:53 11.07.2022
2676 Clouds 24 1020 50 10000 5.66 70 16:21 11.07.2022
2677 Clouds 23 1020 54 10000 5.66 70 14:49 11.07.2022
2678 Clouds 21 1021 56 10000 2.57 0 12:18 11.07.2022
2679 Clouds 19 1022 59 10000 1.54 90 10:42 11.07.2022
2680 Clouds 18 1023 65 10000 1.34 324 09:54 11.07.2022
2681 Clouds 16 1023 70 10000 0.51 0 08:35 11.07.2022
2682 Clouds 14 1023 78 10000 0.51 0 07:24 11.07.2022
2683 Clouds 16 1022 78 10000 0.51 0 00:24 11.07.2022
2684 Clouds 16 1022 79 10000 1.03 0 23:48 10.07.2022
2685 Clouds 17 1022 76 10000 1.03 0 22:26 10.07.2022
2686 Clouds 18 1021 71 10000 0.51 0 20:55 10.07.2022
2687 Clouds 18 1021 69 10000 2.06 160 19:55 10.07.2022
2688 Clouds 18 1021 68 10000 1.54 140 19:20 10.07.2022
2689 Clouds 19 1021 64 10000 5.14 80 17:50 10.07.2022
2690 Clouds 19 1022 62 10000 2.57 50 16:59 10.07.2022
2691 Clouds 21 1021 63 10000 2.57 80 16:20 10.07.2022
2692 Clouds 21 1020 65 10000 5.14 90 14:43 10.07.2022
2693 Clouds 18 1020 81 10000 3.6 80 12:42 10.07.2022
2694 Clouds 17 1022 82 10000 1.03 0 11:36 10.07.2022
2695 Clouds 16 1021 90 10000 2.06 110 09:30 10.07.2022
2696 Clouds 16 1021 89 10000 2.06 100 08:42 10.07.2022
2697 Clouds 16 1021 88 10000 2.06 70 06:32 10.07.2022
2698 Clouds 17 1024 67 10000 0.51 0 23:44 09.07.2022
2699 Clouds 18 1024 68 10000 1.03 0 22:26 09.07.2022
2700 Clouds 19 1023 59 10000 0.51 0 21:40 09.07.2022
2701 Clouds 22 1023 46 10000 4.12 70 19:37 09.07.2022
2702 Clouds 24 1023 40 10000 2.57 80 18:26 09.07.2022
2703 Clouds 24 1024 39 10000 4.12 70 17:21 09.07.2022
2704 Clouds 24 1025 42 10000 5.14 70 15:58 09.07.2022
2705 Clouds 24 1025 42 10000 5.14 70 15:38 09.07.2022
2706 Clouds 23 1024 43 10000 3.6 60 14:21 09.07.2022
2707 Clouds 22 1026 46 10000 5.14 70 13:28 09.07.2022
2708 Clouds 21 1026 58 10000 2.68 68 11:45 09.07.2022
2709 Clouds 19 1027 65 10000 2.06 60 10:26 09.07.2022
2710 Clouds 16 1028 75 10000 0.51 0 09:38 09.07.2022
2711 Clouds 14 1028 82 10000 0.51 0 07:44 09.07.2022
2712 Clouds 11 1029 89 10000 2.06 270 04:41 09.07.2022
2713 Clouds 14 1030 77 10000 1.03 0 23:40 08.07.2022
2714 Clouds 16 1029 67 10000 0.51 0 22:33 08.07.2022
2715 Clouds 18 1028 55 10000 1.03 0 21:26 08.07.2022
2716 Clouds 19 1028 52 10000 5.14 100 20:35 08.07.2022
2717 Clouds 22 1027 47 10000 6.69 80 19:38 08.07.2022
2718 Clouds 22 1027 43 10000 7.2 60 17:45 08.07.2022
2719 Clouds 23 1027 43 10000 5.66 50 16:29 08.07.2022
2720 Clouds 21 1027 46 10000 4.63 90 14:50 08.07.2022
2721 Clouds 19 1028 61 10000 4.63 70 12:42 08.07.2022
2722 Clouds 16 1028 81 10000 3.09 70 10:47 08.07.2022
2723 Clouds 15 1028 87 10000 6.69 80 09:58 08.07.2022
2724 Clouds 15 1027 92 10000 2.06 70 07:53 08.07.2022
2725 Drizzle 15 1026 92 10000 1.54 90 05:37 08.07.2022
2726 Clouds 15 1025 93 10000 1.03 0 00:40 08.07.2022
2727 Rain 16 1024 91 10000 2.24 90 22:52 07.07.2022
2728 Rain 16 1023 88 10000 1.54 40 21:48 07.07.2022
2729 Clouds 18 1022 78 10000 3.6 60 19:34 07.07.2022
2730 Clouds 19 1021 78 10000 1.03 0 17:43 07.07.2022
2731 Clouds 18 1021 81 10000 3.09 80 16:21 07.07.2022
2732 Rain 19 1021 76 10000 5.14 70 14:21 07.07.2022
2733 Rain 20 1020 69 10000 4.63 50 12:43 07.07.2022
2734 Clouds 20 1021 67 10000 2.57 70 12:23 07.07.2022
2735 Rain 20 1020 67 10000 2.57 80 11:33 07.07.2022
2736 Clouds 19 1021 70 10000 1.34 310 10:45 07.07.2022
2737 Clouds 19 1021 70 10000 0.51 0 10:27 07.07.2022
2738 Clouds 18 1021 75 10000 1.54 280 09:22 07.07.2022
2739 Clouds 14 1022 85 10000 1.54 250 06:26 07.07.2022
2740 Clouds 15 1024 95 10000 0.61 271 00:28 07.07.2022
2741 Clouds 16 1024 95 10000 0.61 271 23:36 06.07.2022
2742 Clouds 19 1022 68 10000 0.51 0 23:18 06.07.2022
2743 Clouds 19 1022 68 10000 0.51 0 22:51 06.07.2022
2744 Clouds 19 1022 68 10000 0.51 0 22:33 06.07.2022
2745 Clouds 22 1021 49 10000 5.66 90 20:19 06.07.2022
2746 Clouds 23 1021 46 10000 6.69 60 19:18 06.07.2022
2747 Clouds 26 1019 45 10000 5.66 70 17:21 06.07.2022
2748 Clouds 26 1021 40 10000 4.63 60 15:50 06.07.2022
2749 Clouds 25 1021 47 10000 1.34 135 12:44 06.07.2022
2750 Clouds 24 1022 57 10000 1.54 0 11:52 06.07.2022
2751 Clouds 22 1022 65 10000 2.68 135 10:49 06.07.2022
2752 Clouds 19 1023 77 10000 1.54 290 09:21 06.07.2022
2753 Clouds 17 1023 88 10000 2.06 270 07:43 06.07.2022
2754 Clouds 16 1023 89 10000 2.06 260 06:43 06.07.2022
2755 Clouds 17 1023 84 10000 1.03 0 23:42 05.07.2022
2756 Clouds 18 1022 82 10000 1.03 0 22:42 05.07.2022
2757 Clouds 20 1021 68 10000 1.03 0 20:48 05.07.2022
2758 Clouds 22 1021 64 10000 3.09 50 19:55 05.07.2022
2759 Clouds 22 1020 66 10000 2.57 90 19:36 05.07.2022
2760 Clouds 23 1021 62 10000 3.6 70 17:50 05.07.2022
2761 Clouds 23 1021 62 10000 3.6 70 17:18 05.07.2022
2762 Clouds 22 1021 69 10000 3.09 80 15:48 05.07.2022
2763 Clouds 21 1021 81 10000 3.6 80 14:44 05.07.2022
2764 Clouds 20 1021 83 10000 5.14 290 12:53 05.07.2022
2765 Clouds 20 1021 86 10000 5.66 270 12:22 05.07.2022
2766 Clouds 20 1021 81 10000 1.54 290 10:45 05.07.2022
2767 Clouds 19 1020 86 10000 1.03 0 09:44 05.07.2022
2768 Clouds 18 1020 90 10000 0.51 0 08:20 05.07.2022
2769 Clouds 18 1020 94 10000 1.03 310 06:47 05.07.2022
2770 Clouds 18 1020 94 10000 1.03 270 04:28 05.07.2022
2771 Clouds 18 1020 93 10000 1.54 340 00:47 05.07.2022
2772 Clouds 18 1020 93 10000 1.54 30 23:37 04.07.2022
2773 Rain 18 1020 92 10000 1.54 0 22:54 04.07.2022
2774 Rain 19 1020 89 10000 3.09 280 21:56 04.07.2022
2775 Rain 20 1018 84 10000 9.77 250 20:55 04.07.2022
2776 Rain 21 1018 76 10000 9.77 250 20:35 04.07.2022
2777 Rain 23 1017 73 10000 2.57 50 19:56 04.07.2022
2778 Rain 23 1017 73 10000 2.57 50 19:36 04.07.2022
2779 Clouds 25 1017 57 10000 2.57 70 18:34 04.07.2022
2780 Clouds 25 1019 57 10000 1.03 0 16:42 04.07.2022
2781 Clouds 21 1021 78 10000 1.54 260 15:34 04.07.2022
2782 Rain 19 1021 90 10000 2.57 0 13:41 04.07.2022
2783 Rain 20 1021 83 10000 6.17 260 12:38 04.07.2022
2784 Clouds 21 1021 77 10000 4.63 270 10:39 04.07.2022
2785 Clouds 21 1021 77 10000 2.24 9 10:20 04.07.2022
2786 Rain 20 1021 83 10000 3.09 270 08:31 04.07.2022
2787 Clouds 17 1022 92 10000 2.57 270 05:36 04.07.2022
2788 Clouds 20 1019 69 10000 2.06 30 00:44 04.07.2022
2789 Clear 21 1019 68 10000 1.54 100 23:27 03.07.2022
2790 Clear 23 1018 60 10000 1.03 0 22:23 03.07.2022
2791 Clouds 27 1018 47 10000 3.09 90 20:42 03.07.2022
2792 Clouds 29 1018 39 10000 5.14 70 19:42 03.07.2022
2793 Clouds 30 1018 37 10000 5.14 80 19:23 03.07.2022
2794 Clouds 31 1018 31 10000 5.14 70 17:45 03.07.2022
2795 Clouds 31 1018 29 10000 3.09 100 16:59 03.07.2022
2796 Clouds 32 1018 29 10000 2.57 130 15:26 03.07.2022
2797 Clouds 31 1018 37 10000 3.13 135 14:37 03.07.2022
2798 Clouds 30 1019 41 10000 3.6 0 13:49 03.07.2022
2799 Clouds 28 1019 49 10000 3.09 80 12:42 03.07.2022
2800 Clouds 28 1020 57 10000 1.03 0 11:46 03.07.2022
2801 Clouds 25 1021 63 10000 1.03 0 10:40 03.07.2022
2802 Clouds 24 1021 64 10000 1.03 0 10:20 03.07.2022
2803 Clouds 19 1022 81 10000 1.54 290 07:37 03.07.2022
2804 Clouds 17 1022 86 10000 1.03 0 05:26 03.07.2022
2805 Clouds 19 1021 77 10000 0.51 0 00:25 03.07.2022
2806 Clouds 19 1020 82 10000 1.03 0 22:36 02.07.2022
2807 Clouds 22 1019 64 10000 2.57 80 21:43 02.07.2022
2808 Clear 26 1019 59 10000 2.57 50 20:20 02.07.2022
2809 Clear 27 1019 52 10000 2.68 68 19:49 02.07.2022
2810 Clouds 27 1019 51 10000 3.58 90 17:59 02.07.2022
2811 Clouds 27 1019 52 10000 3.58 68 17:37 02.07.2022
2812 Clouds 25 1021 52 10000 2.68 45 15:37 02.07.2022
2813 Clouds 19 1023 68 10000 2.06 0 12:49 02.07.2022
2814 Clouds 18 1025 68 10000 1.54 0 11:28 02.07.2022
2815 Clouds 17 1025 72 10000 1.54 0 10:48 02.07.2022
2816 Clouds 16 1026 77 10000 1.03 0 09:49 02.07.2022
2817 Clouds 15 1026 84 10000 1.54 60 08:37 02.07.2022
2818 Clouds 15 1025 88 10000 1.03 0 08:18 02.07.2022
2819 Clouds 14 1025 90 10000 0.51 0 02:53 02.07.2022
2820 Clouds 14 1025 91 10000 1.54 130 00:27 02.07.2022
2821 Clouds 15 1024 91 10000 0.51 0 22:59 01.07.2022
2822 Clouds 15 1024 91 10000 1.03 0 22:26 01.07.2022
2823 Clouds 15 1023 90 10000 1.54 70 21:37 01.07.2022
2824 Clouds 15 1023 88 10000 1.54 100 20:58 01.07.2022
2825 Clouds 15 1023 90 10000 2.06 140 20:19 01.07.2022
2826 Clouds 15 1022 88 10000 3.09 80 19:34 01.07.2022
2827 Rain 15 1021 91 10000 2.06 110 16:40 01.07.2022
2828 Rain 17 1017 79 10000 3.09 230 14:27 01.07.2022
2829 Rain 19 1016 79 10000 2.68 113 13:23 01.07.2022
2830 Clouds 21 1014 71 10000 2.57 110 10:53 01.07.2022
2831 Clouds 21 1014 76 10000 1.03 0 10:19 01.07.2022
2832 Clouds 21 1014 76 10000 1.03 0 10:19 01.07.2022
2833 Clouds 17 1017 92 10000 1.03 0 06:21 01.07.2022
2834 Clouds 17 1015 92 10000 2.06 270 02:19 01.07.2022
2835 Clouds 18 1015 86 10000 3.6 260 23:34 30.06.2022
2836 Clouds 19 1015 85 10000 1.03 0 22:50 30.06.2022
2837 Clouds 19 1015 82 10000 3.09 260 22:31 30.06.2022
2838 Clouds 19 1015 82 10000 1.54 180 21:53 30.06.2022
2839 Clouds 19 1015 78 10000 4.63 280 20:45 30.06.2022
2840 Rain 19 1014 79 10000 6.17 270 20:18 30.06.2022
2841 Rain 19 1014 77 10000 11.32 250 19:47 30.06.2022
2842 Thunderstorm 27 1010 45 10000 5.14 180 18:49 30.06.2022
2843 Rain 29 1008 44 10000 7.72 40 17:53 30.06.2022
2844 Clouds 30 1009 41 10000 7.2 70 17:18 30.06.2022
2845 Clouds 31 1009 45 10000 4.12 80 15:56 30.06.2022
2846 Clouds 28 1011 50 10000 3.13 68 13:58 30.06.2022
2847 Clouds 27 1011 52 10000 2.24 90 13:20 30.06.2022
2848 Clouds 26 1013 51 10000 1.03 0 12:33 30.06.2022
2849 Clouds 23 1014 61 10000 1.03 0 10:49 30.06.2022
2850 Clouds 19 1015 77 10000 1.03 0 09:47 30.06.2022
2851 Clouds 19 1015 80 10000 2.06 250 08:31 30.06.2022
2852 Clouds 18 1015 88 10000 0.51 0 07:41 30.06.2022
2853 Clouds 16 1015 91 10000 1.03 0 05:45 30.06.2022
2854 Clear 18 1016 88 10000 0.51 0 23:39 29.06.2022
2855 Clouds 18 1016 88 10000 1.03 0 22:42 29.06.2022
2856 Clouds 18 1016 94 10000 1.03 0 22:19 29.06.2022
2857 Clouds 21 1015 76 10000 0.51 0 20:35 29.06.2022
2858 Clouds 22 1014 77 10000 1.54 220 19:57 29.06.2022
2859 Clouds 23 1014 70 10000 2.57 70 18:46 29.06.2022
2860 Clouds 24 1014 63 10000 4.63 100 17:38 29.06.2022
2861 Clouds 25 1013 60 10000 4.63 70 16:24 29.06.2022
2862 Clouds 24 1014 63 10000 4.63 90 13:52 29.06.2022
2863 Clouds 22 1014 72 10000 3.6 80 12:38 29.06.2022
2864 Clouds 20 1015 79 10000 1.34 90 10:19 29.06.2022
2865 Clouds 19 1015 84 10000 1.03 0 09:31 29.06.2022
2866 Clouds 16 1015 95 10000 1.03 270 06:57 29.06.2022
2867 Clouds 17 1015 93 10000 1.03 0 04:46 29.06.2022
2868 Clouds 17 1017 93 10000 1.54 260 00:54 29.06.2022
2869 Clouds 17 1017 93 10000 1.54 270 00:35 29.06.2022
2870 Clouds 18 1018 92 10000 1.54 320 22:52 28.06.2022
2871 Clouds 18 1018 91 10000 2.06 290 22:18 28.06.2022
2872 Rain 18 1018 92 10000 1.03 0 21:49 28.06.2022
2873 Rain 18 1018 88 10000 2.57 80 21:29 28.06.2022
2874 Rain 19 1018 90 10000 2.06 110 19:56 28.06.2022
2875 Rain 18 1020 94 10000 1.54 350 19:31 28.06.2022
2876 Rain 17 1020 94 10000 1.03 0 18:40 28.06.2022
2877 Rain 18 1021 88 10000 2.06 0 17:36 28.06.2022
2878 Rain 20 1019 82 10000 6.69 290 15:55 28.06.2022
2879 Clouds 21 1018 81 10000 7.2 250 14:54 28.06.2022
2880 Rain 23 1018 67 10000 3.6 260 14:19 28.06.2022
2881 Thunderstorm 23 1018 69 10000 4.12 270 13:45 28.06.2022
2882 Rain 23 1017 71 10000 3.09 50 12:35 28.06.2022
2883 Clouds 22 1018 73 10000 1.34 352 10:40 28.06.2022
2884 Clouds 19 1019 82 10000 1.03 0 08:56 28.06.2022
2885 Clouds 20 1020 79 10000 1.03 0 08:37 28.06.2022
2886 Drizzle 19 1020 83 10000 1.54 190 07:20 28.06.2022
2887 Clouds 19 1019 83 10000 0.89 301 04:54 28.06.2022
2888 Clouds 25 1019 61 10000 3.09 160 23:53 27.06.2022
2889 Clouds 25 1019 61 10000 3.09 230 23:27 27.06.2022
2890 Clouds 25 1017 61 10000 2.06 80 22:25 27.06.2022
2891 Clouds 26 1016 57 10000 6.69 260 21:30 27.06.2022
2892 Clouds 27 1015 54 10000 6.69 250 20:34 27.06.2022
2893 Clouds 29 1013 48 10000 4.12 220 18:52 27.06.2022
2894 Clouds 31 1012 45 10000 7.2 260 17:44 27.06.2022
2895 Clouds 34 1012 26 10000 7.2 130 15:50 27.06.2022
2896 Clouds 34 1011 28 10000 7.2 0 14:26 27.06.2022
2897 Clouds 33 1012 32 10000 7.72 110 12:59 27.06.2022
2898 Clouds 32 1012 36 10000 7.72 110 12:36 27.06.2022
2899 Clouds 27 1014 52 10000 5.66 280 09:53 27.06.2022
2900 Clear 24 1014 58 10000 5.14 260 08:43 27.06.2022
2901 Clear 21 1016 66 10000 5.66 270 07:52 27.06.2022
2902 Clear 18 1016 76 10000 3.09 260 06:37 27.06.2022
2903 Clouds 24 1014 53 10000 2.57 0 01:26 27.06.2022
2904 Clouds 25 1014 53 10000 5.66 90 23:27 26.06.2022
2905 Clouds 26 1013 47 10000 7.72 60 21:40 26.06.2022
2906 Clouds 26 1013 53 10000 7.72 50 20:34 26.06.2022
2907 Clouds 30 1013 35 10000 5.66 70 18:38 26.06.2022
2908 Clouds 30 1013 35 10000 5.66 70 18:20 26.06.2022
2909 Clouds 31 1013 29 10000 4.63 70 15:37 26.06.2022
2910 Clouds 30 1014 32 10000 5.66 360 14:33 26.06.2022
2911 Clouds 29 1014 39 10000 5.66 80 13:27 26.06.2022
2912 Clouds 27 1014 46 10000 4.63 100 12:37 26.06.2022
2913 Clouds 25 1015 55 10000 1.34 90 10:53 26.06.2022
2914 Clouds 24 1016 58 10000 1.03 0 10:22 26.06.2022
2915 Clouds 20 1016 69 10000 0.51 0 08:45 26.06.2022
2916 Clouds 17 1016 79 10000 1.03 0 06:50 26.06.2022
2917 Clouds 18 1016 75 10000 1.54 140 00:45 26.06.2022
2918 Clouds 18 1015 77 10000 1.03 0 00:20 26.06.2022
2919 Clouds 19 1015 71 10000 0.89 0 23:31 25.06.2022
2920 Clouds 19 1014 72 10000 0.51 0 22:51 25.06.2022
2921 Clouds 20 1014 68 10000 1.03 0 22:25 25.06.2022
2922 Clouds 21 1013 64 10000 1.54 360 21:22 25.06.2022
2923 Clouds 22 1013 60 10000 2.57 40 20:54 25.06.2022
2924 Clouds 24 1013 49 10000 4.12 80 20:25 25.06.2022
2925 Clouds 27 1012 44 10000 6.17 90 18:26 25.06.2022
2926 Clouds 27 1012 40 10000 6.17 80 17:27 25.06.2022
2927 Clouds 26 1012 41 10000 5.66 60 16:29 25.06.2022
2928 Clouds 26 1013 39 10000 4.12 100 14:47 25.06.2022
2929 Clouds 23 1015 56 10000 3.6 110 12:51 25.06.2022
2930 Clouds 23 1015 59 10000 2.06 0 12:32 25.06.2022
2931 Clouds 23 1015 59 10000 2.06 0 12:32 25.06.2022
2932 Clouds 18 1017 75 10000 1.03 0 09:40 25.06.2022
2933 Clouds 16 1017 84 10000 1.34 270 08:55 25.06.2022
2934 Clouds 16 1017 87 10000 1.03 0 08:25 25.06.2022
2935 Clouds 14 1017 92 10000 1.03 0 06:36 25.06.2022
2936 Clouds 15 1015 93 10000 1.03 320 01:53 25.06.2022
2937 Clouds 14 1016 92 10000 1.54 190 00:20 25.06.2022
2938 Rain 16 1014 82 10000 5.66 240 22:29 24.06.2022
2939 Rain 17 1012 85 8000 7.72 260 21:28 24.06.2022
2940 Thunderstorm 19 1010 80 8000 5.14 250 20:24 24.06.2022
2941 Rain 21 1009 69 10000 7.72 250 19:39 24.06.2022
2942 Rain 22 1008 66 10000 4.12 260 19:18 24.06.2022
2943 Clouds 22 1007 65 10000 4.12 280 18:46 24.06.2022
2944 Clouds 23 1007 63 10000 5.14 270 18:28 24.06.2022
2945 Clouds 24 1007 64 10000 4.63 100 16:48 24.06.2022
2946 Clouds 24 1007 66 10000 7.2 70 14:58 24.06.2022
2947 Clouds 23 1008 72 10000 6.69 120 14:24 24.06.2022
2948 Rain 25 1007 56 10000 6.17 100 13:46 24.06.2022
2949 Clouds 22 1010 73 10000 2.06 0 11:42 24.06.2022
2950 Clouds 21 1011 80 10000 2.24 68 10:42 24.06.2022
2951 Clouds 20 1011 87 10000 3.6 70 09:42 24.06.2022
2952 Rain 20 1012 88 10000 2.06 90 08:54 24.06.2022
2953 Clouds 20 1012 90 10000 0.51 0 08:32 24.06.2022
2954 Clouds 20 1011 85 10000 1.03 0 06:44 24.06.2022
2955 Clouds 19 1013 87 10000 1.54 100 06:26 24.06.2022
2956 Clouds 18 1012 94 10000 1.54 130 04:50 24.06.2022
2957 Clouds 18 1012 94 10000 1.54 130 04:50 24.06.2022
2958 Rain 21 1011 78 10000 6.69 260 23:43 23.06.2022
2959 Rain 21 1011 78 10000 6.69 260 23:43 23.06.2022
2960 Clouds 24 1011 60 10000 3.6 290 22:43 23.06.2022
2961 Clouds 26 1009 50 10000 6.69 50 21:22 23.06.2022
2962 Clouds 26 1009 50 10000 6.69 50 20:37 23.06.2022
2963 Clouds 27 1009 50 10000 6.17 70 19:55 23.06.2022
2964 Clouds 28 1009 51 10000 6.17 70 18:38 23.06.2022
2965 Clouds 29 1009 39 10000 7.72 80 17:34 23.06.2022
2966 Clouds 30 1011 40 10000 6.69 80 16:29 23.06.2022
2967 Clouds 29 1011 40 10000 5.66 80 15:26 23.06.2022
2968 Clouds 28 1012 45 10000 4.63 100 14:36 23.06.2022
2969 Clouds 23 1015 64 10000 1.03 0 11:42 23.06.2022
2970 Clouds 20 1016 73 10000 2.06 280 10:41 23.06.2022
2971 Clouds 19 1017 86 10000 2.06 290 09:19 23.06.2022
2972 Clouds 16 1016 96 10000 1.03 0 04:48 23.06.2022
2973 Clouds 18 1014 93 10000 3.09 80 00:27 23.06.2022
2974 Rain 17 1015 95 10000 1.54 250 23:52 22.06.2022
2975 Rain 18 1015 93 10000 1.03 0 23:18 22.06.2022
2976 Clouds 18 1013 92 10000 1.03 0 21:36 22.06.2022
2977 Clouds 19 1012 89 10000 2.06 80 20:51 22.06.2022
2978 Clouds 19 1012 89 10000 2.06 90 20:18 22.06.2022
2979 Thunderstorm 20 1012 78 4000 9.26 300 19:27 22.06.2022
2980 Clouds 23 1012 73 10000 1.03 0 17:33 22.06.2022
2981 Clouds 22 1013 68 10000 1.03 0 16:41 22.06.2022
2982 Clouds 22 1013 68 10000 1.03 0 16:41 22.06.2022
2983 Clouds 22 1013 73 10000 2.57 280 15:28 22.06.2022
2984 Rain 22 1012 76 10000 3.09 290 14:41 22.06.2022
2985 Rain 21 1013 80 10000 3.6 260 13:46 22.06.2022
2986 Rain 20 1015 77 10000 5.14 250 13:24 22.06.2022
2987 Rain 20 1014 77 10000 4.12 270 11:50 22.06.2022
2988 Clouds 20 1014 77 10000 4.63 280 10:58 22.06.2022
2989 Clouds 20 1014 77 10000 4.63 280 10:36 22.06.2022
2990 Clouds 18 1015 88 10000 2.06 290 08:57 22.06.2022
2991 Clouds 18 1014 92 10000 1.03 0 06:39 22.06.2022
2992 Clouds 19 1015 90 10000 1.03 0 01:52 22.06.2022
2993 Rain 20 1014 89 10000 1.79 165 00:56 22.06.2022
2994 Thunderstorm 21 1015 89 10000 2.57 0 22:40 21.06.2022
2995 Thunderstorm 25 1012 55 10000 6.69 120 20:40 21.06.2022
2996 Clouds 26 1011 61 10000 4.63 80 19:20 21.06.2022
2997 Clouds 26 1012 61 10000 5.66 80 17:47 21.06.2022
2998 Clouds 28 1010 59 10000 5.66 90 16:36 21.06.2022
2999 Clouds 26 1014 50 10000 2.24 180 11:56 21.06.2022
3000 Clouds 24 1013 64 10000 1.54 100 10:33 21.06.2022
3001 Clouds 22 1013 73 10000 3.09 70 09:20 21.06.2022
3002 Clouds 19 1014 80 10000 2.57 80 07:40 21.06.2022
3003 Clouds 18 1015 81 10000 3.09 60 04:42 21.06.2022
3004 Clouds 20 1015 73 10000 1.54 280 00:21 21.06.2022
3005 Clouds 24 1014 57 10000 4.12 110 22:21 20.06.2022
3006 Clouds 25 1013 50 10000 4.12 100 21:36 20.06.2022
3007 Clouds 27 1012 50 10000 5.66 100 20:27 20.06.2022
3008 Clouds 28 1011 47 10000 3.09 110 19:35 20.06.2022
3009 Clouds 29 1011 42 10000 4.12 80 18:25 20.06.2022
3010 Clouds 30 1011 39 10000 4.12 90 17:45 20.06.2022
3011 Clouds 28 1011 44 10000 6.69 60 16:24 20.06.2022
3012 Clouds 29 1012 42 10000 5.14 90 14:41 20.06.2022
3013 Clouds 29 1011 45 10000 3.6 70 11:47 20.06.2022
3014 Clouds 27 1011 49 10000 1.03 0 09:55 20.06.2022
3015 Clouds 25 1010 61 10000 3.09 270 08:46 20.06.2022
3016 Clouds 20 1013 73 10000 2.57 280 07:36 20.06.2022
3017 Clouds 22 1013 60 10000 2.57 250 04:56 20.06.2022
3018 Clouds 27 1013 41 10000 3.6 0 01:32 20.06.2022
3019 Clouds 29 1013 37 10000 3.6 0 23:48 19.06.2022
3020 Clouds 29 1012 37 10000 3.09 0 22:20 19.06.2022
3021 Clouds 30 1011 32 10000 5.14 140 21:42 19.06.2022
3022 Clouds 31 1011 30 10000 5.66 130 20:52 19.06.2022
3023 Clouds 32 1010 29 10000 4.12 140 19:49 19.06.2022
3024 Clouds 32 1010 29 10000 4.12 140 19:49 19.06.2022
3025 Clouds 33 1010 27 10000 5.66 130 19:25 19.06.2022
3026 Clouds 34 1010 22 10000 6.17 120 18:32 19.06.2022
3027 Clouds 34 1010 24 10000 5.66 130 17:43 19.06.2022
3028 Clouds 34 1010 24 10000 6.69 130 17:20 19.06.2022
3029 Clouds 34 1011 24 10000 7.72 120 16:28 19.06.2022
3030 Clouds 35 1011 22 10000 7.72 110 15:35 19.06.2022
3031 Clouds 35 1012 22 10000 6.17 120 14:43 19.06.2022
3032 Clouds 35 1011 26 10000 7.2 120 13:52 19.06.2022
3033 Clouds 33 1012 35 10000 3.6 260 12:26 19.06.2022
3034 Clear 29 1013 44 10000 5.14 270 10:53 19.06.2022
3035 Clear 25 1014 52 10000 4.63 280 09:31 19.06.2022
3036 Clear 23 1015 58 10000 4.12 280 08:35 19.06.2022
3037 Clear 20 1015 63 10000 2.06 250 07:30 19.06.2022
3038 Clouds 16 1017 72 10000 1.03 0 04:33 19.06.2022
3039 Clear 20 1018 59 10000 1.54 40 01:28 19.06.2022
3040 Clear 21 1018 54 10000 3.09 110 00:23 19.06.2022
3041 Clear 22 1018 46 10000 3.09 140 23:35 18.06.2022
3042 Clear 24 1018 41 10000 2.06 130 22:36 18.06.2022
3043 Clear 27 1017 36 10000 2.06 70 20:55 18.06.2022
3044 Clear 28 1017 36 10000 2.57 60 20:26 18.06.2022
3045 Clouds 32 1018 26 10000 2.06 50 19:25 18.06.2022
3046 Clouds 32 1018 33 10000 2.06 20 18:44 18.06.2022
3047 Clouds 32 1018 26 10000 4.12 70 17:30 18.06.2022
3048 Clouds 32 1018 26 10000 4.12 70 17:30 18.06.2022
3049 Clouds 32 1019 26 10000 3.6 70 16:23 18.06.2022
3050 Clouds 32 1020 24 10000 2.24 113 15:18 18.06.2022
3051 Clouds 31 1020 24 10000 2.57 60 14:42 18.06.2022
3052 Clear 27 1022 38 10000 1.54 0 12:51 18.06.2022
3053 Clear 25 1024 41 10000 2.24 203 11:31 18.06.2022
3054 Clear 21 1025 52 10000 2.06 260 10:25 18.06.2022
3055 Clear 20 1024 63 10000 2.57 260 09:19 18.06.2022
3056 Clouds 18 1025 69 10000 1.54 270 08:18 18.06.2022
3057 Clouds 15 1025 77 10000 0.51 0 06:26 18.06.2022
3058 Clouds 15 1026 74 10000 1.54 270 02:54 18.06.2022
3059 Clouds 16 1026 68 10000 0.51 0 01:24 18.06.2022
3060 Clouds 17 1026 67 10000 0.51 0 00:41 18.06.2022
3061 Clouds 18 1026 63 10000 0.51 0 23:45 17.06.2022
3062 Clear 20 1025 56 10000 0.51 0 22:55 17.06.2022
3063 Clouds 25 1024 33 10000 2.57 0 20:40 17.06.2022
3064 Clouds 27 1023 31 10000 4.63 360 19:26 17.06.2022
3065 Clouds 28 1022 34 10000 6.69 40 18:25 17.06.2022
3066 Clouds 28 1022 32 10000 5.14 30 17:34 17.06.2022
3067 Clouds 28 1022 33 10000 6.69 40 16:38 17.06.2022
3068 Clouds 28 1022 34 10000 4.12 50 15:42 17.06.2022
3069 Clouds 28 1022 34 10000 3.09 0 14:46 17.06.2022
3070 Clouds 28 1022 36 10000 3.09 70 14:18 17.06.2022
3071 Clouds 27 1023 38 10000 2.24 351 13:41 17.06.2022
3072 Clouds 27 1023 41 10000 2.24 352 12:42 17.06.2022
3073 Clouds 26 1023 49 10000 2.24 49 11:56 17.06.2022
3074 Clouds 25 1023 53 10000 1.34 348 11:34 17.06.2022
3075 Clouds 21 1024 72 10000 1.03 0 09:49 17.06.2022
3076 Clouds 19 1024 83 10000 1.03 0 08:27 17.06.2022
3077 Clouds 17 1023 91 10000 1.03 0 06:57 17.06.2022
3078 Clouds 15 1024 93 10000 0.51 0 04:52 17.06.2022
3079 Clouds 17 1023 91 10000 1.54 290 02:41 17.06.2022
3080 Clouds 17 1023 88 10000 2.06 100 00:26 17.06.2022
3081 Clouds 19 1023 84 10000 1.54 100 22:43 16.06.2022
3082 Clouds 20 1022 80 10000 4.12 100 21:26 16.06.2022
3083 Clouds 20 1022 80 10000 3.09 80 20:58 16.06.2022
3084 Rain 20 1022 78 10000 3.09 80 20:36 16.06.2022
3085 Rain 22 1021 69 10000 5.14 70 19:53 16.06.2022
3086 Clouds 23 1021 68 10000 3.6 50 18:27 16.06.2022
3087 Clouds 23 1020 72 10000 4.12 100 17:43 16.06.2022
3088 Clouds 24 1020 66 10000 2.24 359 16:39 16.06.2022
3089 Clouds 23 1020 66 10000 1.54 60 15:24 16.06.2022
3090 Clouds 21 1022 73 10000 1.03 0 14:46 16.06.2022
3091 Rain 18 1023 88 10000 1.03 0 13:32 16.06.2022
3092 Rain 18 1022 88 10000 2.57 110 12:36 16.06.2022
3093 Rain 18 1023 82 10000 4.12 280 11:52 16.06.2022
3094 Rain 22 1020 64 10000 2.57 330 10:56 16.06.2022
3095 Rain 21 1019 63 10000 7.2 250 10:27 16.06.2022
3096 Clouds 22 1018 59 10000 2.24 293 09:21 16.06.2022
3097 Clouds 21 1019 65 10000 1.03 0 08:30 16.06.2022
3098 Clouds 18 1019 72 10000 2.06 280 07:26 16.06.2022
3099 Clouds 16 1019 78 10000 0.51 0 04:50 16.06.2022
3100 Clouds 17 1020 71 10000 1.54 170 02:50 16.06.2022
3101 Clouds 19 1019 64 10000 3.09 50 01:42 16.06.2022
3102 Clouds 19 1019 63 10000 3.09 90 01:21 16.06.2022
3103 Clouds 19 1019 63 10000 3.09 90 01:21 16.06.2022
3104 Clouds 20 1019 64 10000 1.03 0 23:47 15.06.2022
3105 Clouds 20 1019 64 10000 1.03 0 23:47 15.06.2022
3106 Clouds 21 1018 64 10000 1.03 0 22:42 15.06.2022
3107 Clouds 23 1017 56 10000 2.06 330 21:23 15.06.2022
3108 Clouds 25 1017 47 10000 1.54 0 20:45 15.06.2022
3109 Clouds 27 1016 44 10000 2.06 140 20:27 15.06.2022
3110 Clouds 29 1016 34 10000 3.6 70 19:30 15.06.2022
3111 Clouds 30 1016 32 10000 5.14 90 17:56 15.06.2022
3112 Clouds 30 1016 32 10000 5.14 90 17:32 15.06.2022
3113 Clouds 31 1016 25 10000 4.63 260 15:46 15.06.2022
3114 Clouds 29 1017 34 10000 2.06 70 14:26 15.06.2022
3115 Clouds 28 1017 43 10000 1.03 0 12:54 15.06.2022
3116 Clouds 26 1017 48 10000 1.03 0 12:28 15.06.2022
3117 Clouds 22 1018 64 10000 2.57 260 10:27 15.06.2022
3118 Clouds 19 1020 63 10000 1.03 0 09:45 15.06.2022
3119 Clouds 16 1020 72 10000 1.03 0 08:50 15.06.2022
3120 Clouds 15 1020 81 10000 1.54 270 06:42 15.06.2022
3121 Clouds 14 1019 83 10000 0.51 0 04:47 15.06.2022
3122 Clouds 15 1021 75 10000 0.51 0 01:55 15.06.2022
3123 Clouds 16 1021 73 10000 1.54 160 00:51 15.06.2022
3124 Clouds 16 1020 72 10000 1.03 0 23:40 14.06.2022
3125 Clear 17 1020 67 10000 1.03 0 23:21 14.06.2022
3126 Clear 19 1019 63 10000 0.51 0 22:23 14.06.2022
3127 Clear 20 1019 60 10000 1.03 0 21:40 14.06.2022
3128 Clear 21 1019 56 10000 2.57 70 20:57 14.06.2022
3129 Clouds 23 1018 49 10000 4.63 70 20:32 14.06.2022
3130 Clouds 26 1017 45 10000 6.17 90 19:22 14.06.2022
3131 Clouds 26 1017 41 10000 7.2 80 18:25 14.06.2022
3132 Clouds 27 1018 37 10000 6.17 90 16:49 14.06.2022
3133 Clouds 27 1018 35 10000 5.14 100 15:50 14.06.2022
3134 Clouds 26 1018 37 10000 4.12 50 15:31 14.06.2022
3135 Clouds 27 1019 32 10000 3.6 90 14:40 14.06.2022
3136 Clouds 25 1019 38 10000 3.6 90 13:46 14.06.2022
3137 Clouds 23 1020 47 10000 3.6 70 12:48 14.06.2022
3138 Clouds 22 1020 53 10000 2.68 135 11:46 14.06.2022
3139 Clouds 20 1021 56 10000 0.89 315 10:49 14.06.2022
3140 Clouds 19 1021 60 10000 1.03 0 10:25 14.06.2022
3141 Clouds 15 1022 74 10000 0.89 23 08:49 14.06.2022
3142 Clouds 14 1022 79 10000 1.03 280 07:50 14.06.2022
3143 Clouds 12 1022 89 10000 0.51 0 05:56 14.06.2022
3144 Clouds 13 1022 84 10000 0.51 0 03:20 14.06.2022
3145 Clouds 14 1023 78 10000 0.51 0 01:31 14.06.2022
3146 Clouds 15 1022 77 10000 0.51 0 23:51 13.06.2022
3147 Clouds 16 1021 72 10000 1.54 290 22:27 13.06.2022
3148 Clouds 16 1021 72 10000 1.54 330 21:59 13.06.2022
3149 Clouds 18 1020 68 10000 2.06 340 20:43 13.06.2022
3150 Clouds 22 1020 46 10000 4.12 100 19:39 13.06.2022
3151 Clouds 22 1020 57 10000 2.68 68 18:36 13.06.2022
3152 Clouds 22 1019 58 10000 6.17 90 17:48 13.06.2022
3153 Clouds 23 1019 61 10000 4.63 90 17:18 13.06.2022
3154 Clouds 23 1018 68 10000 2.57 120 15:53 13.06.2022
3155 Clouds 21 1019 81 10000 3.6 80 14:47 13.06.2022
3156 Rain 20 1019 85 10000 3.09 330 13:59 13.06.2022
3157 Rain 20 1019 80 10000 1.03 0 12:59 13.06.2022
3158 Clouds 19 1019 83 10000 2.57 280 11:45 13.06.2022
3159 Clouds 19 1020 86 10000 2.06 290 10:34 13.06.2022
3160 Rain 18 1020 90 10000 0.51 0 09:42 13.06.2022
3161 Rain 17 1020 92 8000 2.57 90 08:30 13.06.2022
3162 Clouds 17 1019 87 10000 1.03 0 06:34 13.06.2022
3163 Rain 17 1021 84 10000 4.12 280 04:23 13.06.2022
3164 Clouds 16 1019 70 10000 0.51 0 01:44 13.06.2022
3165 Clouds 16 1019 69 10000 1.03 150 01:18 13.06.2022
3166 Clear 17 1020 72 10000 1.03 0 23:37 12.06.2022
3167 Clouds 19 1020 63 10000 0.51 0 22:34 12.06.2022
3168 Clouds 21 1019 56 10000 1.03 0 21:45 12.06.2022
3169 Clouds 24 1019 41 10000 4.12 60 20:49 12.06.2022
3170 Clouds 27 1019 32 10000 4.63 80 19:43 12.06.2022
3171 Clouds 29 1018 24 10000 6.17 90 18:53 12.06.2022
3172 Clouds 30 1018 30 10000 4.12 70 17:20 12.06.2022
3173 Clouds 30 1020 25 10000 3.09 0 15:44 12.06.2022
3174 Clouds 29 1020 24 10000 2.57 70 14:50 12.06.2022
3175 Clouds 29 1020 28 10000 3.09 120 14:18 12.06.2022
3176 Clouds 28 1021 28 10000 2.57 100 13:44 12.06.2022
3177 Clear 26 1022 44 10000 1.54 0 12:22 12.06.2022
3178 Clouds 21 1025 51 10000 1.54 260 10:46 12.06.2022
3179 Clear 18 1025 63 10000 2.06 260 09:37 12.06.2022
3180 Clear 16 1026 72 10000 2.57 270 08:50 12.06.2022
3181 Clear 16 1025 78 10000 1.54 280 07:52 12.06.2022
3182 Clear 13 1025 87 10000 1.54 250 06:27 12.06.2022
3183 Clear 12 1026 85 10000 1.03 270 03:54 12.06.2022
3184 Clear 14 1026 77 10000 0.51 0 02:25 12.06.2022
3185 Clear 14 1026 79 10000 0.51 0 01:35 12.06.2022
3186 Clear 15 1026 77 10000 1.03 0 00:44 12.06.2022
3187 Clear 16 1025 73 10000 1.03 0 00:18 12.06.2022
3188 Clouds 17 1025 67 10000 1.03 0 23:18 11.06.2022
3189 Clouds 17 1025 72 10000 2.06 270 22:35 11.06.2022
3190 Clouds 22 1023 49 10000 4.63 100 21:18 11.06.2022
3191 Clouds 22 1023 50 10000 2.57 40 20:26 11.06.2022
3192 Clouds 24 1022 41 10000 5.14 90 19:36 11.06.2022
3193 Clouds 25 1022 38 10000 4.63 80 18:45 11.06.2022
3194 Clouds 26 1022 39 10000 4.12 80 18:26 11.06.2022
3195 Clouds 26 1022 37 10000 4.12 70 17:47 11.06.2022
3196 Clouds 27 1022 35 10000 3.6 80 17:26 11.06.2022
3197 Clouds 26 1022 36 10000 3.6 60 16:43 11.06.2022
3198 Clouds 26 1022 34 10000 3.6 70 16:18 11.06.2022
3199 Clouds 25 1023 37 10000 3.09 60 14:44 11.06.2022
3200 Clouds 25 1024 39 10000 3.6 100 13:52 11.06.2022
3201 Clouds 22 1025 52 10000 1.79 304 11:55 11.06.2022
3202 Clouds 18 1025 65 10000 1.54 270 10:31 11.06.2022
3203 Clouds 16 1025 74 10000 2.57 270 09:41 11.06.2022
3204 Clouds 14 1025 83 10000 1.54 280 08:38 11.06.2022
3205 Clouds 11 1026 90 10000 1.54 280 06:33 11.06.2022
3206 Clouds 12 1026 89 10000 1.03 240 05:33 11.06.2022
3207 Clouds 13 1025 89 10000 1.54 270 03:18 11.06.2022
3208 Clouds 13 1025 88 10000 0.51 0 01:51 11.06.2022
3209 Clouds 13 1025 88 10000 0.51 0 01:25 11.06.2022
3210 Clouds 14 1026 82 10000 1.54 50 23:26 10.06.2022
3211 Clouds 15 1025 82 10000 1.54 50 22:20 10.06.2022
3212 Clouds 16 1025 76 10000 3.09 70 21:27 10.06.2022
3213 Clouds 16 1024 77 10000 2.57 50 20:38 10.06.2022
3214 Clouds 18 1024 70 10000 2.57 80 20:19 10.06.2022
3215 Clouds 19 1024 60 10000 2.06 70 19:19 10.06.2022
3216 Clouds 19 1024 61 10000 2.06 70 19:19 10.06.2022
3217 Clouds 19 1024 61 10000 2.06 80 18:32 10.06.2022
3218 Clouds 19 1025 63 10000 2.06 60 17:50 10.06.2022
3219 Clouds 18 1025 63 10000 2.57 90 17:21 10.06.2022
3220 Clouds 18 1025 68 10000 4.12 70 16:26 10.06.2022
3221 Clouds 18 1025 70 10000 3.09 100 15:38 10.06.2022
3222 Clouds 16 1026 76 10000 4.12 80 13:58 10.06.2022
3223 Clouds 16 1026 74 10000 2.57 80 12:51 10.06.2022
3224 Clouds 15 1026 82 10000 2.06 60 11:59 10.06.2022
3225 Clouds 15 1026 85 10000 1.54 90 10:45 10.06.2022
3226 Clouds 14 1026 88 10000 0.51 0 09:55 10.06.2022
3227 Drizzle 13 1025 92 10000 0.51 0 08:44 10.06.2022
3228 Clouds 12 1025 97 10000 1.03 0 07:30 10.06.2022
3229 Drizzle 12 1025 94 10000 1.03 310 06:45 10.06.2022
3230 Clouds 11 1024 93 10000 1.03 320 06:26 10.06.2022
3231 Clouds 11 1024 93 10000 1.03 0 04:37 10.06.2022
3232 Clouds 11 1023 93 10000 1.03 70 01:42 10.06.2022
3233 Clouds 12 1023 94 10000 1.54 250 00:40 10.06.2022
3234 Clouds 12 1023 92 10000 0.51 0 23:49 09.06.2022
3235 Clouds 13 1022 92 10000 2.57 320 22:18 09.06.2022
3236 Clouds 13 1021 91 10000 1.03 0 21:37 09.06.2022
3237 Rain 13 1020 88 10000 1.03 0 20:58 09.06.2022
3238 Clouds 14 1019 88 10000 1.54 20 20:26 09.06.2022
3239 Rain 15 1019 82 10000 2.06 360 19:31 09.06.2022
3240 Clouds 15 1018 71 10000 5.66 70 18:34 09.06.2022
3241 Clouds 16 1018 72 10000 2.57 70 17:18 09.06.2022
3242 Clouds 16 1017 78 10000 4.63 70 15:54 09.06.2022
3243 Rain 15 1016 77 10000 4.12 70 14:38 09.06.2022
3244 Drizzle 15 1016 77 10000 3.6 80 13:55 09.06.2022
3245 Rain 16 1015 63 10000 3.09 250 13:29 09.06.2022
3246 Rain 15 1015 67 10000 4.63 250 12:21 09.06.2022
3247 Drizzle 14 1014 79 10000 5.14 260 11:19 09.06.2022
3248 Rain 14 1013 90 10000 2.68 349 09:50 09.06.2022
3249 Rain 14 1013 93 10000 3.09 80 09:31 09.06.2022
3250 Drizzle 13 1013 93 9000 3.09 90 08:21 09.06.2022
3251 Drizzle 13 1012 94 10000 1.54 330 06:55 09.06.2022
3252 Rain 12 1013 93 10000 1.54 310 03:22 09.06.2022
3253 Rain 14 1013 91 9000 1.54 300 23:49 08.06.2022
3254 Rain 15 1013 89 10000 7.72 250 22:58 08.06.2022
3255 Rain 15 1012 88 6000 9.26 250 22:27 08.06.2022
3256 Rain 15 1011 88 8000 6.69 250 21:57 08.06.2022
3257 Rain 17 1010 85 10000 5.14 290 21:23 08.06.2022
3258 Rain 17 1008 82 10000 4.12 280 20:22 08.06.2022
3259 Rain 19 1007 72 10000 3.6 0 19:39 08.06.2022
3260 Clouds 23 1007 46 10000 2.57 60 18:48 08.06.2022
3261 Clouds 24 1007 47 10000 2.57 60 17:30 08.06.2022
3262 Clouds 24 1008 48 10000 1.79 327 15:52 08.06.2022
3263 Clouds 22 1009 51 10000 4.12 110 13:58 08.06.2022
3264 Clouds 20 1011 62 10000 2.24 68 12:29 08.06.2022
3265 Clouds 20 1012 62 10000 2.06 270 11:34 08.06.2022
3266 Clouds 18 1013 73 10000 1.03 0 10:30 08.06.2022
3267 Clouds 17 1014 79 10000 0.89 180 09:22 08.06.2022
3268 Clouds 16 1014 84 10000 1.03 0 08:43 08.06.2022
3269 Clouds 13 1015 94 10000 1.03 0 06:36 08.06.2022
3270 Clouds 13 1016 94 10000 1.54 250 04:22 08.06.2022
3271 Clouds 14 1016 93 10000 0.51 0 00:49 08.06.2022
3272 Clouds 14 1017 93 10000 1.03 0 23:30 07.06.2022
3273 Clouds 14 1017 93 10000 1.03 0 22:48 07.06.2022
3274 Clouds 14 1017 93 10000 1.54 20 22:30 07.06.2022
3275 Rain 14 1017 90 10000 2.24 270 21:35 07.06.2022
3276 Rain 16 1016 93 10000 1.54 210 20:59 07.06.2022
3277 Clouds 16 1015 93 10000 1.54 210 20:33 07.06.2022
3278 Clouds 16 1015 91 10000 2.57 110 19:45 07.06.2022
3279 Rain 16 1015 93 10000 3.09 90 18:24 07.06.2022
3280 Rain 17 1015 90 10000 4.12 70 17:27 07.06.2022
3281 Rain 17 1015 90 10000 3.09 80 16:43 07.06.2022
3282 Rain 17 1015 89 10000 3.09 90 15:56 07.06.2022
3283 Rain 18 1016 86 10000 2.06 70 15:26 07.06.2022
3284 Rain 18 1016 85 10000 2.06 50 14:52 07.06.2022
3285 Rain 18 1016 85 10000 2.06 50 14:32 07.06.2022
3286 Rain 18 1016 85 10000 2.57 80 13:32 07.06.2022
3287 Rain 17 1016 85 10000 2.57 90 12:52 07.06.2022
3288 Rain 16 1016 90 10000 2.24 90 11:47 07.06.2022
3289 Clouds 17 1016 88 10000 2.06 80 10:27 07.06.2022
3290 Clouds 16 1016 94 10000 2.57 130 08:50 07.06.2022
3291 Rain 16 1016 97 10000 3.6 100 07:34 07.06.2022
3292 Rain 16 1016 94 10000 1.54 150 06:22 07.06.2022
3293 Clouds 17 1017 93 10000 2.06 260 03:32 07.06.2022
3294 Rain 18 1017 90 10000 4.12 280 00:45 07.06.2022
3295 Clouds 18 1017 92 10000 2.57 310 23:41 06.06.2022
3296 Rain 18 1016 91 10000 0.51 0 22:53 06.06.2022
3297 Clouds 19 1016 91 10000 1.03 0 21:57 06.06.2022
3298 Clouds 19 1016 86 10000 1.54 50 20:42 06.06.2022
3299 Rain 21 1016 81 10000 2.06 310 19:24 06.06.2022
3300 Rain 21 1016 81 10000 2.06 310 19:24 06.06.2022
3301 Rain 23 1015 65 10000 4.12 350 18:48 06.06.2022
3302 Rain 25 1014 51 10000 5.66 80 17:57 06.06.2022
3303 Clouds 26 1015 48 10000 6.69 70 16:57 06.06.2022
3304 Clouds 27 1015 41 10000 4.12 80 15:52 06.06.2022
3305 Clouds 26 1015 45 10000 3.6 80 14:59 06.06.2022
3306 Clouds 26 1016 42 10000 3.6 100 14:18 06.06.2022
3307 Clouds 24 1017 53 10000 3.6 70 13:20 06.06.2022
3308 Clouds 23 1018 52 10000 3.6 90 12:34 06.06.2022
3309 Clouds 22 1018 62 10000 2.24 113 11:47 06.06.2022
3310 Clouds 19 1020 67 10000 1.54 30 09:53 06.06.2022
3311 Clouds 18 1019 76 10000 1.54 100 09:18 06.06.2022
3312 Clouds 17 1020 82 10000 2.06 70 08:31 06.06.2022
3313 Clouds 15 1020 87 10000 1.03 0 07:20 06.06.2022
3314 Clouds 14 1019 92 10000 1.03 0 04:39 06.06.2022
3315 Clouds 14 1021 94 10000 1.54 260 01:57 06.06.2022
3316 Clouds 15 1021 94 10000 1.54 310 00:57 06.06.2022
3317 Clouds 16 1021 92 10000 1.54 310 00:34 06.06.2022
3318 Clouds 16 1021 89 10000 1.54 300 23:20 05.06.2022
3319 Clouds 15 1020 92 10000 1.54 70 22:26 05.06.2022
3320 Rain 17 1017 86 10000 2.06 120 20:29 05.06.2022
3321 Rain 17 1019 72 10000 1.54 0 19:26 05.06.2022
3322 Thunderstorm 21 1016 49 10000 13.38 250 18:20 05.06.2022
3323 Rain 24 1014 39 10000 17.49 270 17:39 05.06.2022
3324 Clouds 27 1012 43 10000 7.15 248 17:21 05.06.2022
3325 Clouds 27 1011 53 10000 5.14 30 16:47 05.06.2022
3326 Clouds 29 1009 48 10000 10.8 70 15:41 05.06.2022
3327 Clouds 29 1010 46 10000 9.77 70 14:21 05.06.2022
3328 Clouds 29 1010 46 10000 9.77 70 14:21 05.06.2022
3329 Clouds 30 1012 45 10000 3.58 113 12:23 05.06.2022
3330 Clouds 28 1013 50 10000 4.12 280 11:30 05.06.2022
3331 Clouds 26 1013 57 10000 5.14 280 10:24 05.06.2022
3332 Clouds 24 1014 65 10000 4.63 270 09:58 05.06.2022
3333 Clouds 20 1015 78 10000 3.09 280 08:25 05.06.2022
3334 Clouds 20 1015 79 10000 3.09 280 08:25 05.06.2022
3335 Clouds 18 1016 84 10000 1.54 100 06:48 05.06.2022
3336 Clouds 16 1019 86 10000 0.51 0 05:20 05.06.2022
3337 Clouds 18 1019 78 10000 1.03 60 02:58 05.06.2022
3338 Clouds 20 1020 68 10000 3.09 100 01:30 05.06.2022
3339 Clouds 21 1020 68 10000 2.06 90 23:49 04.06.2022
3340 Clouds 24 1019 53 10000 2.06 110 21:39 04.06.2022
3341 Clouds 27 1017 50 10000 7.72 70 19:49 04.06.2022
3342 Clouds 30 1016 37 10000 5.14 70 17:50 04.06.2022
3343 Clouds 30 1014 42 10000 2.06 70 16:22 04.06.2022
3344 Clouds 30 1015 40 10000 2.57 120 15:54 04.06.2022
3345 Clouds 29 1016 41 10000 3.13 68 14:36 04.06.2022
3346 Clouds 24 1019 50 10000 1.54 0 11:48 04.06.2022
3347 Clouds 23 1019 62 10000 2.06 280 10:57 04.06.2022
3348 Clouds 20 1020 68 10000 4.63 270 10:20 04.06.2022
3349 Clouds 19 1020 77 10000 4.63 270 09:41 04.06.2022
3350 Clouds 17 1020 82 10000 3.6 270 08:40 04.06.2022
3351 Clouds 15 1020 90 10000 2.06 300 07:27 04.06.2022
3352 Clouds 15 1020 91 10000 0.89 181 04:33 04.06.2022
3353 Clouds 15 1020 94 10000 1.03 0 04:33 04.06.2022
3354 Clouds 15 1020 91 10000 0.89 181 04:33 04.06.2022
3355 Clouds 15 1020 91 10000 0.89 181 04:33 04.06.2022
3356 Clouds 15 1020 91 10000 0.89 181 04:33 04.06.2022
3357 Clouds 16 1020 91 10000 1.03 0 00:48 04.06.2022
3358 Clouds 18 1019 90 10000 3.09 280 23:31 03.06.2022
3359 Clouds 18 1019 88 10000 3.09 290 22:28 03.06.2022
3360 Rain 18 1019 86 10000 4.63 280 20:52 03.06.2022
3361 Rain 19 1018 81 10000 5.14 280 20:27 03.06.2022
3362 Rain 21 1017 73 10000 4.63 300 17:39 03.06.2022
3363 Rain 26 1016 47 10000 6.17 0 16:37 03.06.2022
3364 Rain 28 1015 45 10000 7.72 120 14:53 03.06.2022
3365 Clouds 28 1016 48 10000 1.79 83 12:52 03.06.2022
3366 Clouds 23 1018 64 10000 1.54 0 10:54 03.06.2022
3367 Clouds 19 1019 77 10000 1.03 0 09:37 03.06.2022
3368 Clouds 18 1020 79 10000 0.51 0 08:32 03.06.2022
3369 Clouds 16 1020 90 10000 1.03 0 07:26 03.06.2022
3370 Clouds 14 1020 95 10000 0.51 0 06:31 03.06.2022
3371 Clouds 14 1020 94 10000 0.51 0 04:40 03.06.2022
3372 Clouds 16 1020 89 10000 0.51 0 00:25 03.06.2022
3373 Clouds 16 1021 87 10000 2.06 30 22:35 02.06.2022
3374 Clouds 18 1020 85 10000 1.03 0 21:34 02.06.2022
3375 Clouds 20 1019 80 10000 2.57 50 20:22 02.06.2022
3376 Clouds 21 1019 69 10000 3.09 70 19:43 02.06.2022
3377 Clouds 21 1019 60 10000 3.09 90 19:23 02.06.2022
3378 Clouds 21 1019 68 10000 4.63 90 16:47 02.06.2022
3379 Clouds 22 1019 69 10000 3.09 80 16:27 02.06.2022
3380 Clouds 20 1020 62 10000 1.54 0 13:56 02.06.2022
3381 Clouds 21 1019 68 10000 2.68 135 13:29 02.06.2022
3382 Clouds 16 1020 82 10000 1.54 320 11:22 02.06.2022
3383 Clouds 18 1020 78 10000 1.54 120 10:20 02.06.2022
3384 Clouds 17 1020 86 10000 1.03 0 09:27 02.06.2022
3385 Clouds 15 1020 92 10000 1.54 90 08:26 02.06.2022
3386 Clouds 15 1020 95 10000 0.51 0 06:59 02.06.2022
3387 Clouds 14 1019 95 10000 1.03 0 04:40 02.06.2022
3388 Clouds 13 1020 97 10000 1.03 0 02:37 02.06.2022
3389 Rain 14 1020 93 10000 2.06 110 23:43 01.06.2022
3390 Rain 14 1020 93 10000 2.06 110 23:43 01.06.2022
3391 Rain 14 1020 93 10000 2.06 110 23:43 01.06.2022
3392 Rain 14 1020 93 10000 2.06 110 23:43 01.06.2022
3393 Rain 14 1020 93 10000 2.06 110 23:43 01.06.2022
3394 Clouds 14 1019 88 10000 3.09 100 22:23 01.06.2022
3395 Clouds 15 1019 88 10000 1.54 80 21:32 01.06.2022
3396 Rain 16 1017 89 10000 1.54 110 20:40 01.06.2022
3397 Rain 17 1017 84 6000 3.09 240 19:53 01.06.2022
3398 Rain 18 1016 69 10000 4.63 80 19:19 01.06.2022
3399 Clouds 19 1016 73 10000 3.09 330 17:44 01.06.2022
3400 Rain 21 1015 67 10000 1.54 0 16:33 01.06.2022
3401 Clouds 23 1014 54 10000 3.09 50 14:52 01.06.2022
3402 Clouds 22 1014 59 10000 2.24 308 13:45 01.06.2022
3403 Clouds 20 1016 64 10000 1.34 319 12:26 01.06.2022
3404 Clouds 16 1019 76 10000 1.03 0 09:40 01.06.2022
3405 Clouds 14 1018 89 10000 2.06 60 08:38 01.06.2022
3406 Clouds 13 1018 92 10000 1.54 100 07:22 01.06.2022
3407 Clouds 12 1018 94 10000 0.51 0 05:23 01.06.2022
3408 Rain 13 1018 93 10000 2.57 100 00:22 01.06.2022
3409 Rain 13 1018 92 10000 2.06 120 23:26 31.05.2022
3410 Clouds 14 1017 92 10000 2.24 68 22:36 31.05.2022
3411 Clouds 15 1016 91 9000 1.54 180 21:45 31.05.2022
3412 Clouds 15 1014 88 8000 2.57 230 20:45 31.05.2022
3413 Rain 15 1015 85 8000 2.57 230 20:45 31.05.2022
3414 Rain 17 1013 67 10000 5.14 70 19:57 31.05.2022
3415 Clouds 20 1012 56 10000 3.09 60 18:50 31.05.2022
3416 Clouds 19 1012 59 10000 4.12 290 17:50 31.05.2022
3417 Rain 19 1013 61 10000 9.77 240 16:53 31.05.2022
3418 Clouds 24 1010 31 10000 4.63 100 15:40 31.05.2022
3419 Clouds 24 1012 35 10000 4.12 40 13:52 31.05.2022
3420 Clouds 21 1013 47 10000 1.03 0 12:20 31.05.2022
3421 Clouds 17 1014 63 10000 3.6 270 10:53 31.05.2022
3422 Clouds 14 1015 75 10000 1.54 0 09:29 31.05.2022
3423 Clouds 9 1016 90 10000 0.51 0 07:24 31.05.2022
3424 Clouds 8 1016 92 10000 1.03 290 05:19 31.05.2022
3425 Clouds 9 1016 89 10000 1.03 0 00:36 31.05.2022
3426 Clouds 10 1016 88 10000 2.06 60 23:26 30.05.2022
3427 Clouds 10 1016 86 10000 2.06 110 22:56 30.05.2022
3428 Clouds 10 1016 86 10000 1.03 0 21:52 30.05.2022
3429 Clouds 11 1015 85 10000 1.03 0 21:32 30.05.2022
3430 Clouds 12 1014 82 10000 1.03 0 20:20 30.05.2022
3431 Rain 14 1014 72 10000 2.06 70 18:40 30.05.2022
3432 Rain 12 1014 82 10000 1.54 100 17:35 30.05.2022
3433 Rain 12 1013 76 10000 1.54 90 16:41 30.05.2022
3434 Clouds 14 1012 74 10000 3.09 170 14:35 30.05.2022
3435 Rain 14 1010 69 10000 2.57 70 12:24 30.05.2022
3436 Clouds 14 1010 66 10000 1.34 300 10:41 30.05.2022
3437 Clouds 12 1011 76 10000 2.06 50 09:21 30.05.2022
3438 Clouds 8 1011 86 10000 1.54 90 07:18 30.05.2022
3439 Rain 8 1012 82 10000 1.03 0 05:48 30.05.2022
3440 Clouds 8 1012 91 10000 1.03 0 01:42 30.05.2022
3441 Clouds 9 1012 89 10000 1.03 0 23:19 29.05.2022
3442 Clouds 9 1012 87 10000 1.03 0 22:37 29.05.2022
3443 Clouds 10 1012 87 10000 3.09 260 20:55 29.05.2022
3444 Clouds 12 1011 72 10000 2.57 70 19:33 29.05.2022
3445 Clouds 12 1011 71 10000 3.09 110 18:53 29.05.2022
3446 Clouds 13 1011 60 10000 4.12 70 17:31 29.05.2022
3447 Clouds 11 1011 66 10000 2.06 70 15:48 29.05.2022
3448 Rain 11 1011 81 10000 3.09 80 14:58 29.05.2022
3449 Clouds 10 1012 82 10000 2.57 50 13:59 29.05.2022
3450 Rain 10 1012 85 10000 1.03 0 11:42 29.05.2022
3451 Rain 10 1012 90 10000 0.51 0 10:39 29.05.2022
3452 Rain 9 1012 90 10000 1.54 290 09:18 29.05.2022
3453 Rain 10 1011 81 10000 3.09 70 06:24 29.05.2022
3454 Clouds 10 1012 74 10000 2.57 90 04:45 29.05.2022
3455 Clouds 10 1013 77 10000 1.54 100 03:53 29.05.2022
3456 Clouds 13 1016 58 10000 1.03 0 23:50 28.05.2022
3457 Clouds 13 1016 58 10000 2.06 40 23:26 28.05.2022
3458 Clouds 13 1016 67 10000 0.51 0 22:39 28.05.2022
3459 Clouds 13 1016 67 10000 0.51 0 21:38 28.05.2022
3460 Clouds 14 1016 54 10000 3.6 80 19:51 28.05.2022
3461 Clouds 14 1016 58 10000 6.69 70 18:54 28.05.2022
3462 Clouds 15 1016 55 10000 5.14 90 17:38 28.05.2022
3463 Clouds 15 1016 55 10000 4.63 80 16:50 28.05.2022
3464 Clouds 15 1017 55 10000 4.12 80 15:43 28.05.2022
3465 Clouds 15 1018 63 10000 4.12 110 14:28 28.05.2022
3466 Clouds 15 1016 76 10000 4.63 90 13:21 28.05.2022
3467 Clouds 15 1016 76 10000 2.57 0 12:39 28.05.2022
3468 Clouds 15 1018 63 10000 2.57 120 11:23 28.05.2022
3469 Clouds 15 1016 73 10000 1.54 140 10:21 28.05.2022
3470 Clouds 13 1017 85 10000 1.03 0 09:22 28.05.2022
3471 Clouds 13 1018 83 10000 1.54 250 07:23 28.05.2022
3472 Clouds 13 1018 83 10000 1.03 0 06:26 28.05.2022
3473 Drizzle 15 1017 78 10000 3.09 110 03:48 28.05.2022
3474 Clouds 18 1019 59 10000 4.63 100 00:33 28.05.2022
3475 Clouds 19 1018 55 10000 4.63 90 23:34 27.05.2022
3476 Clouds 22 1017 40 10000 3.6 160 21:50 27.05.2022
3477 Clouds 22 1017 40 10000 3.6 160 21:50 27.05.2022
3478 Clouds 24 1016 31 10000 4.63 280 20:56 27.05.2022
3479 Clouds 24 1016 31 10000 4.63 280 20:26 27.05.2022
3480 Clouds 26 1016 31 10000 2.57 0 19:51 27.05.2022
3481 Clouds 27 1016 32 10000 3.09 0 19:32 27.05.2022
3482 Clouds 26 1016 38 10000 7.72 90 18:24 27.05.2022
3483 Clouds 26 1016 38 10000 4.63 70 16:40 27.05.2022
3484 Clouds 27 1017 38 10000 4.12 80 15:34 27.05.2022
3485 Clouds 26 1017 42 10000 3.6 70 14:44 27.05.2022
3486 Clouds 24 1018 51 10000 3.09 90 13:23 27.05.2022
3487 Clouds 22 1020 59 10000 2.24 135 11:34 27.05.2022
3488 Clouds 21 1021 62 10000 1.34 293 10:57 27.05.2022
3489 Clouds 19 1021 66 10000 1.54 300 10:31 27.05.2022
3490 Clouds 18 1021 70 10000 1.03 0 09:37 27.05.2022
3491 Clouds 16 1023 78 10000 1.03 0 08:19 27.05.2022
3492 Clouds 12 1024 87 10000 1.03 0 05:47 27.05.2022
3493 Clouds 13 1024 85 10000 1.03 0 02:47 27.05.2022
3494 Clouds 14 1024 82 10000 1.03 0 00:37 27.05.2022
3495 Clouds 16 1024 72 10000 0.51 0 22:47 26.05.2022
3496 Clouds 18 1023 63 10000 1.03 0 21:42 26.05.2022
3497 Clouds 20 1022 56 10000 3.6 100 20:59 26.05.2022
3498 Clouds 21 1022 52 10000 5.14 100 19:24 26.05.2022
3499 Clouds 22 1022 49 10000 6.17 90 18:18 26.05.2022
3500 Clouds 23 1021 50 10000 5.66 90 16:56 26.05.2022
3501 Clouds 23 1022 46 10000 4.12 90 15:46 26.05.2022
3502 Clouds 23 1022 49 10000 2.24 349 14:46 26.05.2022
3503 Clouds 20 1024 58 10000 1.54 0 12:50 26.05.2022
3504 Clouds 18 1024 68 10000 2.24 326 11:36 26.05.2022
3505 Clouds 16 1025 76 10000 1.03 0 10:19 26.05.2022
3506 Clouds 15 1025 79 10000 1.03 0 09:33 26.05.2022
3507 Clouds 13 1024 87 10000 0 0 08:37 26.05.2022
3508 Clouds 11 1023 95 10000 0.51 0 05:22 26.05.2022
3509 Clouds 13 1023 90 10000 1.03 0 00:57 26.05.2022
3510 Clouds 13 1023 86 10000 0.51 0 23:40 25.05.2022
3511 Clouds 14 1022 82 10000 1.03 0 22:29 25.05.2022
3512 Clouds 15 1020 77 10000 1.54 40 21:33 25.05.2022
3513 Clouds 15 1020 82 10000 1.54 40 20:38 25.05.2022
3514 Clouds 17 1019 73 10000 1.03 0 19:31 25.05.2022
3515 Clouds 17 1019 73 10000 1.54 30 17:46 25.05.2022
3516 Clouds 16 1018 72 10000 3.09 30 16:40 25.05.2022
3517 Clouds 18 1018 59 10000 4.12 80 15:57 25.05.2022
3518 Clouds 17 1018 67 10000 3.09 90 14:55 25.05.2022
3519 Clouds 17 1018 67 10000 3.09 90 14:33 25.05.2022
3520 Clouds 16 1018 72 10000 4.12 80 13:58 25.05.2022
3521 Clouds 14 1018 82 10000 4.12 90 12:48 25.05.2022
3522 Clouds 14 1018 88 10000 3.09 60 10:58 25.05.2022
3523 Clouds 13 1017 88 10000 2.57 310 10:20 25.05.2022
3524 Rain 11 1018 98 6662 1.01 222 08:41 25.05.2022
3525 Rain 11 1017 97 4688 0.75 262 07:23 25.05.2022
3526 Drizzle 13 1013 97 10000 1.03 0 05:18 25.05.2022
3527 Drizzle 13 1013 94 10000 1.54 80 00:31 25.05.2022
3528 Rain 13 1013 95 10000 2.57 100 23:47 24.05.2022
3529 Rain 13 1013 94 10000 1.54 80 22:52 24.05.2022
3530 Rain 13 1012 94 10000 1.54 130 21:46 24.05.2022
3531 Rain 14 1012 94 10000 2.06 170 21:21 24.05.2022
3532 Rain 14 1011 94 10000 3.09 110 20:38 24.05.2022
3533 Rain 15 1011 90 10000 3.6 100 18:57 24.05.2022
3534 Rain 16 1009 78 10000 3.6 70 16:58 24.05.2022
3535 Clouds 17 1009 75 10000 2.06 0 16:28 24.05.2022
3536 Rain 18 1007 73 10000 3.58 333 15:20 24.05.2022
3537 Clouds 18 1009 63 10000 4.63 60 14:34 24.05.2022
3538 Clouds 21 1007 64 10000 1.54 0 13:27 24.05.2022
3539 Clouds 20 1008 64 10000 1.54 90 11:53 24.05.2022
3540 Clouds 18 1007 82 10000 2.57 80 09:49 24.05.2022
3541 Clouds 17 1007 86 10000 2.06 80 08:51 24.05.2022
3542 Clouds 16 1006 91 10000 2.57 80 07:30 24.05.2022
3543 Clouds 16 1007 94 10000 1.03 0 05:59 24.05.2022
3544 Clouds 16 1007 93 10000 1.03 130 02:54 24.05.2022
3545 Clouds 16 1008 92 10000 1.54 140 01:44 24.05.2022
3546 Clouds 16 1008 92 10000 1.54 140 23:44 23.05.2022
3547 Clouds 17 1007 88 10000 3.13 135 22:22 23.05.2022
3548 Rain 17 1010 80 10000 3.6 0 21:41 23.05.2022
3549 Rain 18 1007 76 10000 2.06 0 20:45 23.05.2022
3550 Clouds 20 1003 68 10000 4.12 70 19:44 23.05.2022
3551 Clouds 21 1002 62 10000 6.69 80 19:18 23.05.2022
3552 Clouds 22 1003 59 10000 5.66 100 18:37 23.05.2022
3553 Clouds 25 1002 50 10000 5.66 100 17:55 23.05.2022
3554 Clouds 27 1003 48 10000 2.68 113 15:53 23.05.2022
3555 Clouds 27 1004 44 10000 7.2 80 13:44 23.05.2022
3556 Clouds 23 1008 55 10000 1.54 90 11:40 23.05.2022
3557 Clouds 20 1009 68 10000 2.06 300 10:44 23.05.2022
3558 Rain 18 1010 77 10000 4.12 270 09:45 23.05.2022
3559 Clouds 18 1008 82 10000 3.6 290 08:44 23.05.2022
3560 Clouds 16 1010 87 10000 1.54 250 06:49 23.05.2022
3561 Clouds 16 1010 87 10000 1.03 0 06:31 23.05.2022
3562 Clouds 16 1011 87 10000 2.06 320 02:55 23.05.2022
3563 Clouds 16 1012 87 10000 1.54 250 01:50 23.05.2022
3564 Clouds 17 1012 86 10000 1.54 360 01:23 23.05.2022
3565 Clouds 18 1013 82 10000 2.24 193 22:49 22.05.2022
3566 Clouds 19 1013 76 10000 2.06 0 22:22 22.05.2022
3567 Rain 19 1012 77 10000 2.57 70 21:51 22.05.2022
3568 Clouds 18 1012 90 10000 2.57 250 20:43 22.05.2022
3569 Clouds 20 1012 79 10000 2.68 270 20:20 22.05.2022
3570 Rain 23 1011 64 10000 2.24 68 18:58 22.05.2022
3571 Rain 24 1010 62 10000 1.03 0 18:37 22.05.2022
3572 Rain 25 1010 55 10000 3.09 190 18:19 22.05.2022
3573 Clouds 27 1010 46 10000 4.12 60 16:51 22.05.2022
3574 Clouds 27 1011 44 10000 3.09 80 15:25 22.05.2022
3575 Clouds 26 1012 46 10000 2.68 135 14:44 22.05.2022
3576 Clouds 24 1014 45 10000 2.57 110 12:54 22.05.2022
3577 Clouds 23 1015 46 10000 1.54 0 12:31 22.05.2022
3578 Clouds 20 1016 54 10000 1.34 90 10:45 22.05.2022
3579 Clouds 18 1017 66 10000 1.54 100 09:31 22.05.2022
3580 Clouds 16 1017 74 10000 0.89 90 07:49 22.05.2022
3581 Clouds 15 1017 81 10000 0.51 0 07:20 22.05.2022
3582 Clouds 15 1018 82 10000 1.03 0 04:19 22.05.2022
3583 Clouds 15 1019 78 10000 0.51 0 01:19 22.05.2022
3584 Clouds 17 1019 77 10000 1.03 0 23:57 21.05.2022
3585 Clouds 17 1019 77 10000 0.51 0 23:29 21.05.2022
3586 Clouds 19 1019 68 10000 1.03 0 21:59 21.05.2022
3587 Clouds 19 1019 68 10000 1.03 0 21:39 21.05.2022
3588 Clouds 21 1018 60 10000 1.54 40 20:48 21.05.2022
3589 Clouds 24 1018 50 10000 4.12 50 19:59 21.05.2022
3590 Clouds 24 1018 50 10000 4.63 80 19:21 21.05.2022
3591 Clouds 25 1019 47 10000 5.14 60 17:29 21.05.2022
3592 Clouds 25 1019 54 10000 3.13 135 15:37 21.05.2022
3593 Clouds 24 1020 60 10000 1.54 0 14:24 21.05.2022
3594 Clouds 24 1020 63 10000 1.34 158 13:36 21.05.2022
3595 Clouds 22 1023 64 10000 2.06 110 12:40 21.05.2022
3596 Clouds 20 1023 75 10000 2.06 110 11:52 21.05.2022
3597 Clouds 18 1022 90 10000 2.06 70 10:22 21.05.2022
3598 Clouds 18 1022 91 10000 2.06 100 09:20 21.05.2022
3599 Clouds 17 1022 92 10000 2.57 100 08:47 21.05.2022
3600 Clouds 18 1020 89 10000 0.92 305 06:22 21.05.2022
3601 Clouds 18 1021 78 10000 1.03 0 02:24 21.05.2022
3602 Clouds 20 1021 64 10000 3.6 30 23:44 20.05.2022
3603 Rain 21 1021 60 10000 6.69 300 22:41 20.05.2022
3604 Rain 25 1020 47 10000 7.2 240 22:18 20.05.2022
3605 Clouds 29 1017 32 10000 3.09 100 21:27 20.05.2022
3606 Clouds 29 1017 30 10000 5.14 140 20:51 20.05.2022
3607 Clouds 30 1017 28 10000 5.66 140 19:55 20.05.2022
3608 Clouds 32 1017 23 10000 1.54 0 18:58 20.05.2022
3609 Clouds 32 1018 23 10000 2.06 350 18:27 20.05.2022
3610 Clouds 31 1019 29 10000 2.57 60 16:49 20.05.2022
3611 Clouds 30 1020 32 10000 1.54 0 15:55 20.05.2022
3612 Clouds 30 1020 32 10000 1.54 0 15:32 20.05.2022
3613 Clouds 28 1021 43 10000 1.54 0 14:28 20.05.2022
3614 Clouds 26 1021 53 10000 1.54 300 13:31 20.05.2022
3615 Clouds 20 1026 68 10000 2.57 260 10:48 20.05.2022
3616 Clouds 18 1027 77 10000 2.06 290 09:50 20.05.2022
3617 Clouds 17 1028 84 10000 1.54 260 08:38 20.05.2022
3618 Clouds 15 1026 95 10000 1.54 200 06:45 20.05.2022
3619 Clouds 15 1026 93 10000 2.06 270 05:53 20.05.2022
3620 Clouds 16 1026 92 10000 1.54 310 02:53 20.05.2022
3621 Rain 16 1027 91 10000 2.06 50 23:47 19.05.2022
3622 Rain 17 1026 90 10000 2.06 130 22:39 19.05.2022
3623 Thunderstorm 17 1027 81 6000 9.77 320 21:52 19.05.2022
3624 Thunderstorm 22 1024 60 10000 5.14 150 21:24 19.05.2022
3625 Thunderstorm 24 1023 50 10000 3.09 150 20:53 19.05.2022
3626 Clouds 25 1022 44 10000 3.6 190 20:20 19.05.2022
3627 Clouds 27 1021 41 10000 3.09 60 19:25 19.05.2022
3628 Clouds 29 1021 34 10000 1.54 0 17:47 19.05.2022
3629 Clouds 30 1021 28 10000 5.14 60 16:22 19.05.2022
3630 Clouds 31 1020 30 10000 2.06 0 14:50 19.05.2022
3631 Clouds 31 1021 26 10000 2.06 90 14:21 19.05.2022
3632 Clouds 31 1021 26 10000 2.06 90 14:21 19.05.2022
3633 Clouds 27 1022 37 10000 2.57 270 12:19 19.05.2022
3634 Clouds 25 1023 45 10000 5.14 270 10:35 19.05.2022
3635 Clouds 20 1024 61 10000 4.12 290 08:51 19.05.2022
3636 Clear 16 1024 72 10000 2.06 270 07:33 19.05.2022
3637 Clear 13 1024 80 10000 1.03 250 04:38 19.05.2022
3638 Clouds 15 1025 67 10000 1.03 0 01:38 19.05.2022
3639 Clouds 16 1024 72 10000 1.03 0 23:49 18.05.2022
3640 Clear 18 1024 59 10000 1.03 0 22:45 18.05.2022
3641 Clear 20 1023 52 10000 1.03 0 21:45 18.05.2022
3642 Clear 21 1022 49 10000 3.6 80 21:24 18.05.2022
3643 Clouds 22 1022 46 10000 5.14 60 20:23 18.05.2022
3644 Clouds 25 1021 35 10000 7.2 80 19:32 18.05.2022
3645 Clouds 27 1021 29 10000 2.57 70 18:20 18.05.2022
3646 Clouds 26 1021 27 10000 3.09 80 17:41 18.05.2022
3647 Clouds 26 1021 27 10000 3.09 80 17:22 18.05.2022
3648 Clouds 26 1021 35 10000 3.09 70 15:58 18.05.2022
3649 Clouds 25 1022 36 10000 3.09 70 15:37 18.05.2022
3650 Clouds 25 1022 34 10000 3.09 40 14:30 18.05.2022
3651 Clouds 25 1022 34 10000 3.09 40 14:30 18.05.2022
3652 Clouds 25 1023 35 10000 2.68 68 12:59 18.05.2022
3653 Clouds 25 1023 36 10000 2.57 90 12:39 18.05.2022
3654 Clouds 24 1023 46 10000 2.06 0 11:33 18.05.2022
3655 Clouds 22 1024 56 10000 1.03 0 10:49 18.05.2022
3656 Clouds 17 1025 73 10000 2.57 70 08:27 18.05.2022
3657 Clouds 16 1024 78 10000 1.54 60 07:28 18.05.2022
3658 Clouds 15 1023 73 10000 3.6 110 04:33 18.05.2022
3659 Clouds 18 1022 72 10000 0.51 0 00:52 18.05.2022
3660 Clouds 18 1022 63 10000 1.03 0 00:18 18.05.2022
3661 Clouds 20 1021 56 10000 3.09 80 21:24 17.05.2022
3662 Clouds 21 1020 49 10000 3.6 80 20:57 17.05.2022
3663 Clouds 22 1020 46 10000 6.17 70 19:45 17.05.2022
3664 Clouds 22 1019 49 10000 5.66 60 19:25 17.05.2022
3665 Clouds 24 1019 41 10000 5.66 80 17:49 17.05.2022
3666 Clouds 24 1019 41 10000 5.66 80 16:58 17.05.2022
3667 Clouds 24 1020 41 10000 5.14 70 16:24 17.05.2022
3668 Clouds 24 1021 41 10000 2.06 0 14:56 17.05.2022
3669 Clouds 24 1021 43 10000 3.09 0 14:29 17.05.2022
3670 Clouds 24 1021 48 10000 2.57 100 13:30 17.05.2022
3671 Clouds 19 1023 66 10000 1.03 0 10:43 17.05.2022
3672 Clouds 16 1023 91 10000 1.03 270 08:53 17.05.2022
3673 Clouds 15 1023 95 10000 1.54 260 07:57 17.05.2022
3674 Clouds 14 1022 93 10000 1.03 0 06:27 17.05.2022
3675 Clouds 15 1023 93 10000 1.03 270 01:59 17.05.2022
3676 Clouds 15 1024 93 10000 0.51 0 23:59 16.05.2022
3677 Clouds 15 1024 93 10000 1.54 100 22:40 16.05.2022
3678 Rain 16 1022 89 10000 2.06 60 21:31 16.05.2022
3679 Clouds 17 1021 88 10000 3.09 350 20:44 16.05.2022
3680 Rain 18 1021 77 10000 6.17 270 19:19 16.05.2022
3681 Clouds 22 1019 56 10000 3.09 120 17:34 16.05.2022
3682 Clouds 20 1021 73 10000 3.09 80 15:36 16.05.2022
3683 Clouds 17 1022 82 10000 4.12 250 13:48 16.05.2022
3684 Rain 17 1021 88 10000 4.12 310 12:46 16.05.2022
3685 Clouds 21 1018 68 10000 2.68 283 10:47 16.05.2022
3686 Clouds 19 1019 85 10000 0.51 0 08:37 16.05.2022
3687 Clouds 16 1020 88 10000 1.03 0 06:32 16.05.2022
3688 Clouds 17 1019 72 10000 1.03 0 01:44 16.05.2022
3689 Clouds 20 1018 60 10000 0.51 0 22:52 15.05.2022
3690 Clouds 21 1017 56 10000 1.03 0 22:25 15.05.2022
3691 Clouds 21 1017 56 10000 1.54 50 21:38 15.05.2022
3692 Clouds 23 1016 49 10000 5.14 70 20:53 15.05.2022
3693 Clouds 26 1015 41 10000 6.17 50 18:53 15.05.2022
3694 Clouds 27 1015 35 10000 7.2 70 17:45 15.05.2022
3695 Clouds 29 1015 30 10000 2.68 90 15:26 15.05.2022
3696 Clouds 26 1016 41 10000 2.68 113 13:47 15.05.2022
3697 Clouds 24 1018 52 10000 2.57 100 12:22 15.05.2022
3698 Clouds 23 1018 53 10000 1.03 0 11:38 15.05.2022
3699 Clouds 20 1019 62 10000 1.54 250 10:20 15.05.2022
3700 Clouds 14 1020 80 10000 1.03 0 07:36 15.05.2022
3701 Clouds 12 1020 87 10000 2.06 270 06:57 15.05.2022
3702 Clouds 12 1021 86 10000 0.51 0 04:26 15.05.2022
3703 Clear 15 1021 72 10000 1.03 150 00:47 15.05.2022
3704 Clouds 15 1021 77 10000 0.51 0 23:38 14.05.2022
3705 Clouds 17 1021 67 10000 0.51 0 22:44 14.05.2022
3706 Clouds 20 1020 56 10000 2.57 100 21:27 14.05.2022
3707 Clouds 21 1019 52 10000 5.66 100 20:32 14.05.2022
3708 Clouds 22 1018 49 10000 5.14 60 19:21 14.05.2022
3709 Clouds 22 1018 49 10000 6.17 70 18:59 14.05.2022
3710 Clouds 23 1018 49 10000 6.17 70 17:54 14.05.2022
3711 Clouds 24 1018 46 10000 7.2 60 16:32 14.05.2022
3712 Clouds 24 1018 46 10000 2.24 293 14:56 14.05.2022
3713 Rain 24 1019 47 10000 3.6 100 14:30 14.05.2022
3714 Clouds 21 1020 59 10000 2.68 158 12:18 14.05.2022
3715 Clouds 20 1020 70 10000 1.03 0 10:53 14.05.2022
3716 Clouds 18 1021 75 10000 1.03 0 10:20 14.05.2022
3717 Clouds 18 1021 73 10000 2.24 135 09:51 14.05.2022
3718 Clouds 15 1021 86 10000 2.06 80 08:22 14.05.2022
3719 Clouds 14 1022 88 10000 0 0 05:26 14.05.2022
3720 Clouds 15 1021 87 10000 1.54 170 01:57 14.05.2022
3721 Clouds 16 1022 81 10000 1.03 0 23:31 13.05.2022
3722 Clouds 16 1022 77 10000 1.54 40 22:57 13.05.2022
3723 Clouds 17 1022 77 10000 1.54 50 22:23 13.05.2022
3724 Clouds 17 1021 77 10000 1.54 80 21:35 13.05.2022
3725 Clouds 18 1021 77 10000 1.54 310 20:44 13.05.2022
3726 Clouds 19 1021 67 10000 1.54 40 20:23 13.05.2022
3727 Clouds 20 1019 67 10000 3.09 90 19:21 13.05.2022
3728 Clouds 20 1020 60 10000 6.69 70 17:50 13.05.2022
3729 Clouds 21 1020 57 10000 6.17 80 17:26 13.05.2022
3730 Clouds 22 1020 60 10000 1.03 0 15:53 13.05.2022
3731 Clouds 22 1019 65 10000 1.54 0 14:51 13.05.2022
3732 Clouds 21 1019 68 10000 1.34 308 13:27 13.05.2022
3733 Clouds 21 1020 70 10000 1.03 0 12:25 13.05.2022
3734 Clouds 19 1021 83 10000 1.03 0 10:42 13.05.2022
3735 Clouds 17 1020 87 10000 1.34 337 09:31 13.05.2022
3736 Clouds 17 1022 86 10000 1.03 0 08:23 13.05.2022
3737 Clouds 17 1021 88 10000 1.03 0 07:42 13.05.2022
3738 Clouds 16 1021 88 10000 0.51 0 05:59 13.05.2022
3739 Clouds 17 1021 82 10000 1.03 0 02:43 13.05.2022
3740 Clouds 19 1020 68 10000 1.54 0 23:46 12.05.2022
3741 Rain 22 1019 49 10000 1.03 0 22:44 12.05.2022
3742 Clouds 21 1019 52 10000 2.06 210 21:54 12.05.2022
3743 Clouds 24 1018 41 10000 4.63 50 20:25 12.05.2022
3744 Clouds 26 1017 36 10000 5.14 60 18:41 12.05.2022
3745 Clouds 29 1017 23 10000 4.63 270 16:58 12.05.2022
3746 Clouds 29 1017 21 10000 5.14 250 15:50 12.05.2022
3747 Clouds 28 1017 30 10000 1.54 0 14:20 12.05.2022
3748 Clouds 28 1017 36 10000 1.54 0 13:24 12.05.2022
3749 Clouds 23 1020 47 10000 3.09 280 10:40 12.05.2022
3750 Clouds 20 1020 57 10000 1.03 0 09:19 12.05.2022
3751 Clouds 19 1020 62 10000 2.06 290 08:41 12.05.2022
3752 Clear 16 1020 73 10000 2.06 250 07:37 12.05.2022
3753 Clouds 13 1021 79 10000 1.03 0 05:32 12.05.2022
3754 Clear 15 1020 66 10000 1.03 0 02:24 12.05.2022
3755 Clear 17 1019 59 10000 2.06 240 00:32 12.05.2022
3756 Clouds 23 1017 40 10000 3.09 140 22:33 11.05.2022
3757 Clouds 24 1016 35 10000 3.6 0 21:33 11.05.2022
3758 Clouds 25 1015 33 10000 5.14 140 20:53 11.05.2022
3759 Clouds 28 1014 26 10000 3.6 80 18:24 11.05.2022
3760 Clouds 29 1015 26 10000 1.54 20 16:50 11.05.2022
3761 Clouds 28 1017 22 10000 1.03 0 14:51 11.05.2022
3762 Clear 27 1017 23 10000 0.89 90 14:26 11.05.2022
3763 Clear 27 1018 27 10000 1.34 135 13:51 11.05.2022
3764 Clear 23 1019 44 10000 1.03 0 11:51 11.05.2022
3765 Clouds 19 1020 53 10000 3.09 260 10:27 11.05.2022
3766 Clear 14 1021 74 10000 2.06 260 08:33 11.05.2022
3767 Clouds 11 1022 84 10000 2.06 280 05:18 11.05.2022
3768 Clouds 14 1021 72 10000 2.06 240 00:42 11.05.2022
3769 Clouds 20 1020 49 10000 1.03 0 22:30 10.05.2022
3770 Clouds 20 1020 49 10000 2.06 320 21:55 10.05.2022
3771 Clouds 22 1019 40 10000 4.12 80 20:54 10.05.2022
3772 Clouds 22 1018 37 10000 5.14 60 19:26 10.05.2022
3773 Clouds 25 1018 31 10000 2.57 40 17:49 10.05.2022
3774 Clouds 25 1019 25 10000 2.57 0 16:49 10.05.2022
3775 Clouds 24 1020 35 10000 1.54 150 14:33 10.05.2022
3776 Clouds 22 1022 43 10000 2.24 323 12:37 10.05.2022
3777 Clouds 20 1023 51 10000 1.34 330 11:49 10.05.2022
3778 Clouds 19 1023 55 10000 2.68 270 11:18 10.05.2022
3779 Clouds 15 1024 67 10000 2.57 270 09:59 10.05.2022
3780 Clear 14 1024 75 10000 3.09 270 09:25 10.05.2022
3781 Clear 9 1024 90 10000 1.54 300 06:44 10.05.2022
3782 Clear 10 1024 89 10000 0.51 0 02:59 10.05.2022
3783 Clouds 12 1025 83 10000 1.03 0 00:33 10.05.2022
3784 Clouds 13 1025 79 10000 1.03 0 22:44 09.05.2022
3785 Clouds 15 1025 67 10000 2.06 70 21:48 09.05.2022
3786 Clouds 17 1024 63 10000 1.54 340 20:25 09.05.2022
3787 Rain 19 1022 48 10000 3.6 240 18:43 09.05.2022
3788 Rain 19 1022 48 10000 3.6 240 18:43 09.05.2022
3789 Rain 20 1021 49 10000 1.54 40 17:40 09.05.2022
3790 Clouds 21 1021 43 10000 4.63 50 16:29 09.05.2022
3791 Rain 23 1022 40 10000 2.57 0 15:49 09.05.2022
3792 Clouds 22 1022 46 10000 3.09 0 14:47 09.05.2022
3793 Clouds 21 1023 46 10000 1.54 0 14:22 09.05.2022
3794 Clouds 20 1023 49 10000 1.79 326 13:36 09.05.2022
3795 Clouds 18 1025 62 10000 2.24 270 11:56 09.05.2022
3796 Clouds 17 1025 70 10000 1.03 0 10:51 09.05.2022
3797 Clouds 16 1025 76 10000 1.54 0 10:31 09.05.2022
3798 Clouds 13 1025 91 10000 0.51 0 08:23 09.05.2022
3799 Clouds 13 1025 91 10000 0.51 0 07:43 09.05.2022
3800 Clouds 13 1024 92 10000 1.54 230 02:44 09.05.2022
3801 Clouds 14 1024 90 10000 0.51 0 23:29 08.05.2022
3802 Clouds 14 1024 90 10000 0.51 0 23:29 08.05.2022
3803 Clouds 14 1024 90 10000 1.03 290 22:51 08.05.2022
3804 Clouds 14 1023 88 10000 1.54 220 21:48 08.05.2022
3805 Clouds 14 1023 85 10000 2.68 90 20:33 08.05.2022
3806 Clouds 16 1021 75 10000 3.6 0 19:37 08.05.2022
3807 Clouds 17 1020 72 10000 2.57 130 18:49 08.05.2022
3808 Clouds 17 1020 63 10000 4.12 80 17:52 08.05.2022
3809 Clouds 19 1021 59 10000 4.12 70 16:30 08.05.2022
3810 Clouds 19 1020 62 10000 2.57 90 15:25 08.05.2022
3811 Clouds 18 1021 66 10000 3.13 90 14:27 08.05.2022
3812 Clouds 15 1022 84 10000 2.57 70 11:53 08.05.2022
3813 Clouds 14 1022 88 10000 2.57 50 10:27 08.05.2022
3814 Clouds 14 1022 91 10000 2.06 70 09:55 08.05.2022
3815 Clouds 13 1022 95 10000 2.06 100 08:37 08.05.2022
3816 Clouds 12 1021 95 6000 2.06 80 06:31 08.05.2022
3817 Drizzle 12 1021 97 10000 0.51 0 03:23 08.05.2022
3818 Clouds 12 1022 97 6000 1.03 0 01:25 08.05.2022
3819 Drizzle 13 1022 94 5000 0.51 0 00:20 08.05.2022
3820 Clouds 13 1022 94 5000 1.03 100 23:41 07.05.2022
3821 Clouds 13 1022 94 10000 0.51 0 22:46 07.05.2022
3822 Clouds 13 1021 94 10000 0.89 317 21:57 07.05.2022
3823 Clouds 13 1021 94 10000 0.51 0 21:32 07.05.2022
3824 Clouds 13 1021 93 10000 1.34 295 20:27 07.05.2022
3825 Clouds 13 1021 92 10000 2.06 150 18:59 07.05.2022
3826 Clouds 14 1020 85 10000 2.06 110 17:31 07.05.2022
3827 Clouds 14 1021 86 10000 3.09 90 15:18 07.05.2022
3828 Clouds 14 1021 86 10000 1.03 0 12:23 07.05.2022
3829 Clouds 13 1021 92 10000 2.06 80 10:18 07.05.2022
3830 Clouds 12 1021 94 7000 0.51 0 08:37 07.05.2022
3831 Clouds 12 1021 94 5000 0.51 0 07:37 07.05.2022
3832 Clouds 12 1021 94 5000 0.51 0 06:42 07.05.2022
3833 Clouds 12 1021 94 10000 1.03 150 04:21 07.05.2022
3834 Clouds 12 1022 94 10000 1.03 0 00:49 07.05.2022
3835 Clouds 13 1022 91 10000 0.51 0 22:55 06.05.2022
3836 Clouds 13 1022 90 10000 1.03 0 22:21 06.05.2022
3837 Clouds 13 1022 86 10000 1.54 0 21:36 06.05.2022
3838 Clouds 14 1021 82 10000 1.54 360 20:18 06.05.2022
3839 Clouds 15 1020 81 10000 1.34 113 19:28 06.05.2022
3840 Clouds 15 1020 80 10000 2.24 90 18:49 06.05.2022
3841 Clouds 15 1020 76 10000 1.34 347 17:38 06.05.2022
3842 Clouds 17 1019 67 10000 1.54 0 15:55 06.05.2022
3843 Clouds 16 1020 67 10000 2.68 68 15:32 06.05.2022
3844 Clouds 16 1020 71 10000 1.03 0 14:22 06.05.2022
3845 Clouds 15 1020 74 10000 2.24 135 12:52 06.05.2022
3846 Clouds 15 1020 74 10000 2.24 68 12:20 06.05.2022
3847 Clouds 14 1020 78 10000 1.03 0 11:31 06.05.2022
3848 Clouds 13 1020 86 10000 0.89 90 09:48 06.05.2022
3849 Clouds 13 1020 86 10000 0.51 0 09:18 06.05.2022
3850 Drizzle 12 1020 89 10000 0.51 0 07:55 06.05.2022
3851 Clouds 11 1021 87 10000 0.51 0 06:27 06.05.2022
3852 Clouds 12 1020 83 10000 0.51 0 03:44 06.05.2022
3853 Clouds 12 1020 82 10000 2.06 50 02:38 06.05.2022
3854 Clouds 14 1020 64 10000 2.06 90 23:25 05.05.2022
3855 Clouds 16 1018 48 10000 3.09 140 21:51 05.05.2022
3856 Clouds 16 1018 48 10000 5.66 130 20:37 05.05.2022
3857 Clouds 18 1017 48 10000 5.66 70 19:20 05.05.2022
3858 Clouds 19 1017 42 10000 5.14 70 16:49 05.05.2022
3859 Clouds 19 1017 45 10000 5.14 50 15:46 05.05.2022
3860 Clouds 20 1018 41 10000 4.63 80 13:41 05.05.2022
3861 Clouds 19 1018 44 10000 3.6 70 13:18 05.05.2022
3862 Clouds 18 1019 52 10000 1.03 0 11:46 05.05.2022
3863 Clouds 16 1019 66 10000 2.06 260 09:47 05.05.2022
3864 Clouds 15 1018 72 10000 1.03 0 09:26 05.05.2022
3865 Clouds 9 1020 89 10000 1.54 230 06:33 05.05.2022
3866 Clouds 10 1019 87 10000 2.57 290 02:28 05.05.2022
3867 Clouds 11 1019 82 10000 1.54 260 01:45 05.05.2022
3868 Clouds 11 1019 82 10000 2.06 250 00:57 05.05.2022
3869 Clouds 12 1018 82 10000 1.03 0 23:22 04.05.2022
3870 Clouds 12 1018 87 10000 1.03 0 22:18 04.05.2022
3871 Clouds 12 1017 87 10000 1.54 340 21:45 04.05.2022
3872 Clouds 13 1017 82 10000 1.03 0 21:18 04.05.2022
3873 Clouds 14 1016 77 10000 2.57 310 20:20 04.05.2022
3874 Clouds 15 1016 67 10000 3.6 260 19:35 04.05.2022
3875 Clouds 15 1016 63 10000 3.09 300 18:43 04.05.2022
3876 Clouds 17 1016 57 10000 3.09 280 18:20 04.05.2022
3877 Clouds 18 1016 47 10000 3.13 293 17:22 04.05.2022
3878 Clouds 18 1015 39 10000 9.77 120 15:34 04.05.2022
3879 Clouds 18 1014 54 10000 3.13 104 14:45 04.05.2022
3880 Clouds 18 1015 51 10000 2.24 238 14:19 04.05.2022
3881 Clouds 18 1016 59 10000 2.06 290 12:50 04.05.2022
3882 Clouds 16 1017 65 10000 4.12 270 11:59 04.05.2022
3883 Clouds 15 1017 67 10000 5.66 260 10:28 04.05.2022
3884 Clouds 13 1017 77 10000 4.12 270 09:22 04.05.2022
3885 Clouds 10 1018 87 10000 1.54 280 07:59 04.05.2022
3886 Clouds 10 1017 89 10000 2.57 250 05:34 04.05.2022
3887 Clouds 11 1017 82 10000 6.17 280 02:37 04.05.2022
3888 Rain 13 1016 71 10000 5.66 260 23:23 03.05.2022
3889 Rain 15 1015 58 10000 1.54 50 21:55 03.05.2022
3890 Clouds 17 1014 48 10000 2.57 70 21:31 03.05.2022
3891 Clouds 17 1014 45 10000 4.12 80 20:52 03.05.2022
3892 Clouds 19 1012 39 10000 4.63 70 19:33 03.05.2022
3893 Clouds 19 1012 39 10000 5.66 80 18:47 03.05.2022
3894 Clouds 20 1012 32 10000 3.09 70 17:22 03.05.2022
3895 Clouds 21 1012 32 10000 3.09 30 16:19 03.05.2022
3896 Clouds 19 1014 38 10000 1.54 110 14:25 03.05.2022
3897 Clouds 18 1014 50 10000 1.34 293 12:42 03.05.2022
3898 Clouds 17 1015 57 10000 1.54 280 11:49 03.05.2022
3899 Clouds 15 1016 67 10000 2.24 293 10:49 03.05.2022
3900 Clouds 10 1016 84 10000 1.03 0 08:29 03.05.2022
3901 Fog 8 1016 90 10000 0.51 0 06:45 03.05.2022
3902 Clouds 9 1016 87 10000 2.57 260 02:48 03.05.2022
3903 Clouds 12 1017 70 10000 6.17 260 23:32 02.05.2022
3904 Clouds 13 1015 62 10000 7.72 250 22:31 02.05.2022
3905 Clouds 14 1015 58 10000 5.66 250 21:48 02.05.2022
3906 Clouds 14 1015 58 10000 5.66 250 21:48 02.05.2022
3907 Clouds 15 1013 55 10000 1.54 310 19:59 02.05.2022
3908 Clouds 18 1013 52 10000 2.06 40 18:27 02.05.2022
3909 Clouds 18 1014 46 10000 3.6 50 17:42 02.05.2022
3910 Clouds 18 1014 48 10000 3.6 70 16:43 02.05.2022
3911 Clouds 18 1014 48 10000 3.09 70 15:52 02.05.2022
3912 Clouds 17 1015 50 10000 3.6 100 14:54 02.05.2022
3913 Clouds 16 1015 56 10000 3.6 90 13:45 02.05.2022
3914 Clouds 14 1016 63 10000 1.03 0 11:41 02.05.2022
3915 Clouds 12 1017 77 10000 0.51 0 09:59 02.05.2022
3916 Clouds 10 1017 84 10000 1.03 0 08:43 02.05.2022
3917 Clouds 9 1018 90 10000 0.51 0 07:23 02.05.2022
3918 Clouds 9 1019 90 10000 1.03 260 00:48 02.05.2022
3919 Clouds 9 1019 90 10000 0.51 0 00:22 02.05.2022
3920 Clouds 10 1019 87 10000 0.51 0 23:40 01.05.2022
3921 Clouds 11 1020 87 10000 0.51 0 21:46 01.05.2022
3922 Clouds 11 1019 92 10000 0.51 0 20:50 01.05.2022
3923 Clouds 12 1019 85 10000 1.54 300 19:40 01.05.2022
3924 Clouds 12 1018 81 10000 2.06 130 18:53 01.05.2022
3925 Rain 13 1018 77 10000 4.63 60 17:51 01.05.2022
3926 Clouds 13 1019 67 10000 4.12 60 16:42 01.05.2022
3927 Clouds 14 1018 70 10000 5.66 70 16:18 01.05.2022
3928 Clouds 15 1019 59 10000 2.68 68 14:58 01.05.2022
3929 Clouds 14 1019 71 10000 1.54 0 13:23 01.05.2022
3930 Clouds 11 1021 87 10000 1.03 0 10:45 01.05.2022
3931 Rain 9 1021 95 6000 1.03 0 08:50 01.05.2022
3932 Clouds 8 1020 95 6000 1.54 80 06:53 01.05.2022
3933 Drizzle 9 1021 94 8000 1.03 190 02:51 01.05.2022
3934 Clouds 9 1021 93 10000 0.51 0 22:52 30.04.2022
3935 Clouds 8 1022 88 10000 1.03 0 21:34 30.04.2022
3936 Rain 10 1021 88 10000 2.57 100 20:24 30.04.2022
3937 Rain 10 1021 90 10000 3.09 90 19:33 30.04.2022
3938 Rain 11 1020 90 10000 4.12 70 17:38 30.04.2022
3939 Rain 11 1021 82 10000 3.6 90 16:30 30.04.2022
3940 Rain 11 1021 84 10000 1.03 0 15:19 30.04.2022
3941 Rain 11 1022 87 10000 4.12 240 14:31 30.04.2022
3942 Rain 11 1021 84 10000 5.66 260 12:36 30.04.2022
3943 Rain 11 1020 81 10000 6.69 270 11:32 30.04.2022
3944 Rain 12 1020 72 10000 6.17 260 10:31 30.04.2022
3945 Clouds 10 1020 76 10000 3.09 270 08:34 30.04.2022
3946 Clouds 8 1021 77 10000 0.51 0 05:19 30.04.2022
3947 Clouds 10 1022 67 10000 1.03 0 00:35 30.04.2022
3948 Clouds 11 1022 62 10000 0.51 0 23:36 29.04.2022
3949 Clear 13 1022 54 10000 0.51 0 22:30 29.04.2022
3950 Clear 15 1021 47 10000 1.03 0 21:27 29.04.2022
3951 Clear 16 1021 41 10000 2.57 70 20:38 29.04.2022
3952 Clear 18 1020 34 10000 5.66 80 19:36 29.04.2022
3953 Clear 21 1021 26 10000 5.66 80 17:48 29.04.2022
3954 Clear 21 1021 27 10000 4.63 70 16:56 29.04.2022
3955 Clouds 21 1022 26 10000 3.09 70 14:50 29.04.2022
3956 Clouds 19 1023 28 10000 2.57 90 14:20 29.04.2022
3957 Clouds 17 1024 46 10000 2.57 80 12:43 29.04.2022
3958 Clear 14 1026 55 10000 0.89 68 10:58 29.04.2022
3959 Clear 8 1028 77 10000 0.51 0 08:18 29.04.2022
3960 Clear 6 1028 83 10000 0.51 0 07:27 29.04.2022
3961 Clear 5 1028 85 10000 0.51 0 06:35 29.04.2022
3962 Clear 6 1028 80 10000 1.03 0 03:34 29.04.2022
3963 Clear 9 1028 66 10000 1.03 0 00:18 29.04.2022
3964 Clear 10 1028 62 10000 1.03 0 23:26 28.04.2022
3965 Clear 11 1027 58 10000 0.51 0 22:40 28.04.2022
3966 Clear 12 1026 54 10000 1.54 340 21:46 28.04.2022
3967 Clouds 14 1025 44 10000 5.14 50 20:51 28.04.2022
3968 Clouds 15 1025 41 10000 5.14 60 20:22 28.04.2022
3969 Clouds 17 1024 36 10000 5.66 90 19:40 28.04.2022
3970 Clouds 17 1024 36 10000 6.17 90 19:21 28.04.2022
3971 Clouds 19 1024 36 10000 5.66 80 18:23 28.04.2022
3972 Clouds 20 1024 37 10000 5.66 60 16:59 28.04.2022
3973 Drizzle 19 1025 37 10000 4.63 50 16:22 28.04.2022
3974 Clouds 19 1025 37 10000 5.14 70 15:57 28.04.2022
3975 Clouds 19 1025 37 10000 4.12 70 15:27 28.04.2022
3976 Clouds 17 1025 45 10000 3.09 0 13:44 28.04.2022
3977 Clouds 15 1026 53 10000 2.68 326 12:38 28.04.2022
3978 Clouds 14 1026 59 10000 2.24 288 11:53 28.04.2022
3979 Clouds 12 1027 62 10000 1.03 0 10:37 28.04.2022
3980 Clouds 8 1027 76 10000 0.51 0 09:52 28.04.2022
3981 Clouds 7 1026 85 10000 0.51 0 08:30 28.04.2022
3982 Clouds 5 1026 90 10000 1.03 270 06:58 28.04.2022
3983 Clouds 5 1025 92 10000 1.03 250 05:55 28.04.2022
3984 Clouds 5 1026 88 10000 0.51 0 04:50 28.04.2022
3985 Clouds 4 1026 91 10000 0.51 0 04:31 28.04.2022
3986 Clear 7 1025 81 10000 0.51 0 23:59 27.04.2022
3987 Clouds 8 1024 76 10000 1.03 0 22:34 27.04.2022
3988 Clouds 9 1024 71 10000 0.51 0 21:51 27.04.2022
3989 Clouds 11 1023 62 10000 3.09 80 20:56 27.04.2022
3990 Clouds 11 1023 62 10000 3.13 90 20:35 27.04.2022
3991 Clouds 13 1022 54 10000 5.66 70 19:37 27.04.2022
3992 Clouds 14 1022 52 10000 7.72 70 18:52 27.04.2022
3993 Clouds 16 1022 46 10000 5.66 90 18:22 27.04.2022
3994 Clouds 16 1022 41 10000 3.09 80 16:27 27.04.2022
3995 Clouds 15 1022 50 10000 3.09 60 14:26 27.04.2022
3996 Clouds 12 1023 68 10000 1.54 0 11:45 27.04.2022
3997 Clouds 11 1023 73 10000 2.68 158 11:20 27.04.2022
3998 Clouds 8 1022 91 8000 0.51 0 08:58 27.04.2022
3999 Clouds 6 1021 93 8000 1.03 0 07:18 27.04.2022
4000 Clouds 5 1020 100 10000 1.03 0 04:21 27.04.2022
4001 Clouds 6 1020 92 10000 0.51 0 01:31 27.04.2022
4002 Clouds 6 1020 92 10000 0.51 0 00:36 27.04.2022
4003 Clouds 6 1020 92 10000 0.51 0 00:36 27.04.2022
4004 Clouds 7 1019 90 10000 0.51 0 23:25 26.04.2022
4005 Clouds 7 1019 90 10000 1.03 0 22:58 26.04.2022
4006 Clouds 7 1019 90 10000 1.03 0 22:39 26.04.2022
4007 Clouds 7 1018 89 10000 2.06 70 21:26 26.04.2022
4008 Clouds 7 1018 89 10000 2.06 70 21:26 26.04.2022
4009 Clouds 7 1018 89 10000 2.06 70 21:26 26.04.2022
4010 Clouds 8 1018 86 10000 2.24 68 20:41 26.04.2022
4011 Clouds 8 1018 82 10000 4.12 60 19:53 26.04.2022
4012 Clouds 9 1018 80 10000 5.14 70 19:32 26.04.2022
4013 Clouds 9 1017 79 10000 3.6 60 18:44 26.04.2022
4014 Clouds 9 1016 76 10000 2.06 110 17:54 26.04.2022
4015 Rain 8 1017 88 10000 6.69 240 16:28 26.04.2022
4016 Rain 12 1012 82 10000 1.54 20 13:59 26.04.2022
4017 Rain 12 1012 82 10000 1.54 20 13:32 26.04.2022
4018 Clouds 13 1012 67 10000 3.09 90 11:49 26.04.2022
4019 Clouds 12 1013 76 10000 3.09 80 10:34 26.04.2022
4020 Clouds 10 1013 89 10000 2.06 80 08:54 26.04.2022
4021 Clouds 9 1013 90 10000 1.54 170 06:57 26.04.2022
4022 Clouds 9 1013 90 10000 0.51 0 04:23 26.04.2022
4023 Clouds 10 1013 88 10000 1.54 100 01:22 26.04.2022
4024 Clouds 10 1013 90 10000 2.06 80 00:26 26.04.2022
4025 Clouds 11 1013 87 10000 1.03 0 22:33 25.04.2022
4026 Clouds 11 1012 87 10000 2.06 110 21:39 25.04.2022
4027 Clouds 12 1012 75 10000 3.6 60 20:39 25.04.2022
4028 Clouds 15 1010 63 10000 3.58 68 18:54 25.04.2022
4029 Clouds 16 1008 48 10000 2.06 20 17:52 25.04.2022
4030 Clouds 16 1008 51 10000 1.54 40 16:55 25.04.2022
4031 Clouds 17 1009 48 10000 3.6 120 15:29 25.04.2022
4032 Clouds 16 1008 55 10000 3.6 20 14:38 25.04.2022
4033 Clouds 16 1008 51 10000 2.57 180 13:32 25.04.2022
4034 Clouds 12 1009 71 10000 2.06 280 11:37 25.04.2022
4035 Clouds 11 1009 76 10000 1.03 0 10:23 25.04.2022
4036 Rain 9 1008 92 10000 0.51 0 08:35 25.04.2022
4037 Rain 8 1008 93 10000 0.51 0 06:38 25.04.2022
4038 Drizzle 9 1006 92 10000 1.03 240 03:47 25.04.2022
4039 Clouds 9 1006 91 10000 1.03 300 00:43 25.04.2022
4040 Clouds 9 1006 91 10000 2.57 260 23:51 24.04.2022
4041 Clouds 9 1005 90 10000 2.57 260 22:41 24.04.2022
4042 Rain 9 1005 90 10000 2.06 250 22:18 24.04.2022
4043 Rain 9 1004 86 10000 1.03 0 21:24 24.04.2022
4044 Rain 10 1004 83 10000 3.09 280 20:48 24.04.2022
4045 Rain 10 1004 80 10000 4.12 260 20:22 24.04.2022
4046 Rain 10 1002 80 10000 4.63 270 19:45 24.04.2022
4047 Clouds 14 1000 41 10000 8.23 120 18:20 24.04.2022
4048 Clouds 15 1000 38 10000 8.23 130 17:27 24.04.2022
4049 Clouds 15 1000 38 10000 6.69 140 16:58 24.04.2022
4050 Clouds 15 999 38 10000 4.63 160 16:32 24.04.2022
4051 Clouds 16 1000 38 10000 4.63 350 15:54 24.04.2022
4052 Clouds 15 1000 39 10000 6.69 130 14:57 24.04.2022
4053 Clouds 15 1000 38 10000 7.2 120 13:51 24.04.2022
4054 Clouds 16 1000 36 10000 6.69 130 13:24 24.04.2022
4055 Clouds 14 1000 41 10000 7.2 120 11:56 24.04.2022
4056 Clouds 13 1000 41 10000 6.69 130 11:27 24.04.2022
4057 Clouds 13 999 44 10000 4.63 120 09:55 24.04.2022
4058 Clouds 12 999 40 10000 3.6 0 08:51 24.04.2022
4059 Clouds 11 999 40 10000 5.66 100 06:18 24.04.2022
4060 Clouds 13 999 54 10000 6.17 60 03:37 24.04.2022
4061 Clouds 12 999 62 10000 6.17 70 03:37 24.04.2022
4062 Clouds 14 998 47 10000 6.17 110 01:37 24.04.2022
4063 Clouds 14 1000 51 10000 7.72 120 23:57 23.04.2022
4064 Drizzle 15 1000 47 10000 6.69 140 23:25 23.04.2022
4065 Clouds 15 1000 47 10000 8.23 120 22:46 23.04.2022
4066 Clouds 15 1001 44 10000 7.2 0 21:49 23.04.2022
4067 Clouds 15 1001 44 10000 5.14 0 21:31 23.04.2022
4068 Clouds 16 1001 41 10000 6.69 0 20:33 23.04.2022
4069 Clouds 16 1001 41 10000 10.29 100 19:41 23.04.2022
4070 Clouds 16 1000 41 10000 8.23 120 19:18 23.04.2022
4071 Clouds 17 1001 39 10000 8.23 110 18:46 23.04.2022
4072 Clouds 17 1000 39 10000 9.77 120 17:48 23.04.2022
4073 Clouds 17 1001 36 10000 7.72 0 16:47 23.04.2022
4074 Clouds 18 1001 39 10000 5.66 0 15:54 23.04.2022
4075 Clouds 18 1001 47 10000 7.2 0 14:27 23.04.2022
4076 Clouds 16 1002 55 10000 3.09 280 11:59 23.04.2022
4077 Clouds 14 1003 59 10000 2.57 260 10:40 23.04.2022
4078 Clouds 8 1004 84 10000 2.06 260 08:30 23.04.2022
4079 Clouds 7 1004 87 10000 1.03 0 05:27 23.04.2022
4080 Clouds 8 1004 84 10000 1.54 240 03:54 23.04.2022
4081 Clouds 10 1003 77 10000 1.54 140 00:18 23.04.2022
4082 Clouds 11 1003 72 10000 2.57 80 23:25 22.04.2022
4083 Clouds 12 1002 66 10000 2.06 70 21:59 22.04.2022
4084 Clouds 12 1002 66 10000 2.06 70 21:40 22.04.2022
4085 Clouds 14 1001 63 10000 2.57 100 20:37 22.04.2022
4086 Clouds 14 1000 62 10000 4.63 70 19:39 22.04.2022
4087 Clouds 15 1000 59 10000 3.13 90 19:18 22.04.2022
4088 Clouds 16 1000 54 10000 5.66 80 18:28 22.04.2022
4089 Clouds 16 999 53 10000 5.14 90 17:34 22.04.2022
4090 Clouds 17 999 49 10000 5.14 80 16:29 22.04.2022
4091 Clouds 17 999 46 10000 3.58 113 15:31 22.04.2022
4092 Clouds 16 999 48 10000 1.54 0 14:38 22.04.2022
4093 Clouds 16 999 48 10000 1.54 0 14:38 22.04.2022
4094 Clouds 15 999 50 10000 1.03 0 13:42 22.04.2022
4095 Clouds 12 999 58 10000 1.03 0 12:48 22.04.2022
4096 Clouds 11 1000 64 10000 1.03 0 11:24 22.04.2022
4097 Clouds 9 1000 66 10000 1.54 300 10:58 22.04.2022
4098 Clouds 9 1000 66 10000 1.54 300 10:39 22.04.2022
4099 Clouds 9 1000 73 10000 0.51 0 10:20 22.04.2022
4100 Clouds 9 1001 71 10000 1.03 0 09:30 22.04.2022
4101 Clouds 8 1001 77 10000 1.54 260 08:49 22.04.2022
4102 Clouds 6 1001 80 10000 1.03 0 06:54 22.04.2022
4103 Clouds 7 1005 70 10000 1.03 0 01:34 22.04.2022
4104 Clouds 10 1005 62 10000 2.57 90 23:35 21.04.2022
4105 Clear 12 1005 54 10000 5.66 70 22:48 21.04.2022
4106 Clouds 13 1005 50 10000 3.6 100 21:43 21.04.2022
4107 Clouds 14 1004 47 10000 5.14 70 20:32 21.04.2022
4108 Clouds 17 1004 39 10000 6.69 80 19:24 21.04.2022
4109 Clouds 18 1003 36 10000 6.17 80 18:32 21.04.2022
4110 Clouds 18 1003 34 10000 6.17 90 17:46 21.04.2022
4111 Clouds 19 1004 32 10000 5.14 70 16:21 21.04.2022
4112 Clouds 19 1005 33 10000 5.14 70 15:19 21.04.2022
4113 Clouds 18 1005 37 10000 4.12 90 14:29 21.04.2022
4114 Clouds 16 1006 43 10000 3.13 135 13:22 21.04.2022
4115 Clouds 15 1007 49 10000 2.68 90 12:29 21.04.2022
4116 Clouds 10 1009 63 10000 0.51 0 09:58 21.04.2022
4117 Clouds 5 1009 75 10000 1.54 270 08:49 21.04.2022
4118 Clouds 4 1010 84 10000 0.51 0 06:46 21.04.2022
4119 Clouds 5 1010 79 10000 0.51 0 04:21 21.04.2022
4120 Clouds 6 1011 75 10000 0.51 0 03:23 21.04.2022
4121 Clouds 6 1011 74 10000 0.51 0 02:45 21.04.2022
4122 Clouds 6 1011 74 10000 0.51 0 02:45 21.04.2022
4123 Clouds 8 1011 67 10000 0.89 68 00:35 21.04.2022
4124 Clouds 8 1011 61 10000 1.03 0 23:46 20.04.2022
4125 Clouds 8 1011 61 10000 1.03 0 23:21 20.04.2022
4126 Clouds 9 1011 57 10000 1.03 0 22:41 20.04.2022
4127 Clouds 11 1010 50 10000 2.06 90 21:57 20.04.2022
4128 Clouds 12 1009 47 10000 3.6 90 20:50 20.04.2022
4129 Clouds 14 1009 41 10000 5.14 90 20:21 20.04.2022
4130 Clouds 14 1008 44 10000 5.66 70 19:47 20.04.2022
4131 Clouds 16 1008 39 10000 8.23 70 18:52 20.04.2022
4132 Clouds 17 1008 36 10000 7.2 80 17:52 20.04.2022
4133 Clouds 18 1008 37 10000 6.69 70 16:39 20.04.2022
4134 Clouds 18 1008 37 10000 5.66 80 15:33 20.04.2022
4135 Clouds 14 1010 51 10000 4.12 90 12:46 20.04.2022
4136 Clouds 12 1011 61 10000 3.09 80 11:42 20.04.2022
4137 Clouds 10 1012 63 10000 2.24 135 10:51 20.04.2022
4138 Clouds 8 1012 71 10000 1.03 0 09:34 20.04.2022
4139 Clouds 7 1013 76 10000 1.03 0 08:51 20.04.2022
4140 Clouds 6 1013 77 10000 1.03 260 08:19 20.04.2022
4141 Clouds 4 1013 83 10000 0.51 0 06:26 20.04.2022
4142 Clouds 7 1013 71 10000 1.54 100 02:58 20.04.2022
4143 Clouds 7 1013 79 10000 2.24 90 00:22 20.04.2022
4144 Clouds 8 1013 81 10000 3.58 90 23:19 19.04.2022
4145 Clouds 9 1012 78 10000 3.13 68 22:24 19.04.2022
4146 Clouds 10 1012 71 10000 4.12 100 21:55 19.04.2022
4147 Clouds 11 1011 59 10000 4.02 68 20:59 19.04.2022
4148 Clouds 12 1010 50 10000 2.57 0 20:37 19.04.2022
4149 Clouds 14 1008 38 10000 7.2 350 19:43 19.04.2022
4150 Clouds 14 1008 38 10000 7.72 330 18:37 19.04.2022
4151 Clouds 15 1008 33 10000 5.66 340 17:24 19.04.2022
4152 Clouds 16 1007 29 10000 5.66 360 16:42 19.04.2022
4153 Clouds 16 1007 29 10000 5.66 360 16:42 19.04.2022
4154 Clouds 16 1007 29 10000 6.17 350 16:20 19.04.2022
4155 Clouds 16 1008 31 10000 3.6 0 14:46 19.04.2022
4156 Clouds 15 1010 39 10000 3.6 100 13:22 19.04.2022
4157 Clouds 15 1010 41 10000 3.09 110 12:49 19.04.2022
4158 Clouds 13 1011 45 10000 2.24 90 11:38 19.04.2022
4159 Clouds 9 1013 59 10000 1.34 293 09:52 19.04.2022
4160 Clouds 5 1014 72 10000 1.03 0 08:22 19.04.2022
4161 Clouds 4 1014 72 10000 1.03 0 04:26 19.04.2022
4162 Clouds 3 1015 72 10000 0.51 0 02:41 19.04.2022
4163 Clouds 5 1015 60 10000 0.51 0 00:23 19.04.2022
4164 Clear 8 1015 49 10000 0.51 0 22:58 18.04.2022
4165 Clouds 11 1014 37 10000 4.63 90 21:29 18.04.2022
4166 Clouds 12 1013 35 10000 6.17 90 20:46 18.04.2022
4167 Clouds 12 1013 35 10000 8.23 70 20:25 18.04.2022
4168 Clouds 13 1013 33 10000 7.72 80 19:41 18.04.2022
4169 Clouds 15 1012 31 10000 7.72 90 18:52 18.04.2022
4170 Clouds 16 1013 30 10000 6.17 90 17:49 18.04.2022
4171 Clouds 17 1013 29 10000 5.14 80 17:28 18.04.2022
4172 Clouds 17 1013 27 10000 4.63 60 16:40 18.04.2022
4173 Clouds 17 1014 29 10000 4.63 80 15:43 18.04.2022
4174 Clouds 17 1014 27 10000 3.09 90 14:42 18.04.2022
4175 Clouds 17 1014 27 10000 3.09 90 14:42 18.04.2022
4176 Clouds 14 1016 37 10000 3.58 68 13:31 18.04.2022
4177 Clear 13 1017 46 10000 2.68 135 12:28 18.04.2022
4178 Clear 10 1018 51 10000 1.79 327 11:20 18.04.2022
4179 Clear 9 1018 56 10000 1.03 0 10:28 18.04.2022
4180 Clear 6 1019 67 10000 1.03 0 09:30 18.04.2022
4181 Clear 3 1019 78 10000 2.06 260 07:34 18.04.2022
4182 Clear 2 1020 75 10000 0.51 0 03:57 18.04.2022
4183 Clear 6 1021 56 10000 1.03 0 23:41 17.04.2022
4184 Clouds 7 1021 49 10000 0.51 0 22:40 17.04.2022
4185 Clouds 8 1021 46 10000 2.06 260 21:42 17.04.2022
4186 Clouds 8 1021 49 10000 2.57 70 21:21 17.04.2022
4187 Clouds 10 1020 43 10000 3.6 80 20:32 17.04.2022
4188 Clouds 11 1020 41 10000 7.2 80 19:21 17.04.2022
4189 Clouds 14 1020 28 10000 7.72 60 17:38 17.04.2022
4190 Clouds 15 1021 26 10000 5.14 70 15:38 17.04.2022
4191 Clouds 14 1022 31 10000 4.02 113 14:53 17.04.2022
4192 Clouds 13 1023 37 10000 3.6 70 13:45 17.04.2022
4193 Clouds 12 1024 47 10000 3.13 113 12:56 17.04.2022
4194 Clouds 9 1025 56 10000 2.68 11 11:24 17.04.2022
4195 Clouds 8 1026 67 10000 1.54 0 10:40 17.04.2022
4196 Clouds 7 1026 68 10000 3.13 68 10:19 17.04.2022
4197 Clouds 5 1027 77 10000 2.06 90 09:23 17.04.2022
4198 Clouds 4 1027 79 10000 2.06 80 08:41 17.04.2022
4199 Clouds 2 1027 88 10000 0.51 0 06:53 17.04.2022
4200 Clouds 4 1028 85 10000 1.03 0 03:53 17.04.2022
4201 Clouds 6 1028 79 10000 2.68 90 00:55 17.04.2022
4202 Clouds 7 1028 77 10000 1.34 23 23:50 16.04.2022
4203 Clouds 8 1028 74 10000 2.06 120 22:27 16.04.2022
4204 Clouds 8 1028 66 10000 2.06 90 21:29 16.04.2022
4205 Clouds 9 1027 65 10000 6.69 50 19:57 16.04.2022
4206 Drizzle 10 1026 64 10000 7.72 70 18:54 16.04.2022
4207 Clouds 12 1026 55 10000 7.72 60 17:40 16.04.2022
4208 Clouds 13 1024 50 10000 8.75 60 16:32 16.04.2022
4209 Clouds 14 1025 45 10000 8.23 70 15:40 16.04.2022
4210 Clouds 14 1024 44 10000 8.23 80 14:51 16.04.2022
4211 Clouds 14 1025 49 10000 7.72 70 13:57 16.04.2022
4212 Clouds 14 1025 51 10000 8.23 70 13:26 16.04.2022
4213 Clouds 13 1024 55 10000 5.14 70 12:18 16.04.2022
4214 Clouds 12 1024 70 10000 3.09 80 10:42 16.04.2022
4215 Clouds 11 1024 74 10000 3.13 90 09:41 16.04.2022
4216 Clouds 10 1024 79 10000 3.09 70 08:57 16.04.2022
4217 Clouds 9 1024 82 10000 1.54 70 07:32 16.04.2022
4218 Clouds 9 1023 83 10000 1.34 68 06:46 16.04.2022
4219 Clouds 11 1024 82 10000 0.51 0 01:59 16.04.2022
4220 Clouds 12 1023 76 10000 1.54 300 00:21 16.04.2022
4221 Clouds 13 1023 71 10000 0.51 0 22:54 15.04.2022
4222 Clouds 12 1023 76 10000 1.03 0 22:31 15.04.2022
4223 Clouds 13 1023 71 10000 1.03 0 21:44 15.04.2022
4224 Clouds 15 1023 63 10000 1.03 0 20:56 15.04.2022
4225 Clouds 16 1022 63 10000 4.12 100 19:59 15.04.2022
4226 Clouds 16 1022 63 10000 4.12 100 19:38 15.04.2022
4227 Clouds 17 1021 59 10000 4.12 80 18:46 15.04.2022
4228 Clouds 17 1021 59 10000 5.66 60 18:24 15.04.2022
4229 Clouds 19 1021 52 10000 1.03 0 17:30 15.04.2022
4230 Clouds 18 1021 62 10000 2.57 100 16:26 15.04.2022
4231 Clouds 19 1021 59 10000 3.6 80 15:59 15.04.2022
4232 Clouds 17 1021 70 10000 5.66 60 14:30 15.04.2022
4233 Clouds 16 1023 67 10000 2.57 100 13:23 15.04.2022
4234 Clouds 15 1022 81 10000 2.57 110 12:40 15.04.2022
4235 Clouds 14 1022 89 10000 1.03 0 11:54 15.04.2022
4236 Clouds 13 1022 89 10000 1.03 0 10:49 15.04.2022
4237 Clouds 12 1022 92 10000 0.51 0 10:22 15.04.2022
4238 Clouds 13 1022 88 10000 1.03 0 09:38 15.04.2022
4239 Clouds 12 1022 92 10000 0.51 0 09:18 15.04.2022
4240 Clouds 12 1021 87 10000 1.54 240 06:56 15.04.2022
4241 Clouds 11 1021 90 10000 0.51 0 05:57 15.04.2022
4242 Clouds 14 1021 77 10000 2.57 0 01:49 15.04.2022
4243 Rain 17 1020 55 10000 1.54 150 23:30 14.04.2022
4244 Clouds 17 1020 55 10000 1.54 0 22:47 14.04.2022
4245 Clouds 18 1020 52 10000 1.03 0 22:28 14.04.2022
4246 Clouds 19 1019 45 10000 1.54 230 21:54 14.04.2022
4247 Clouds 20 1018 40 10000 1.03 0 20:35 14.04.2022
4248 Clouds 22 1017 35 10000 1.54 50 19:22 14.04.2022
4249 Clouds 24 1016 31 10000 6.17 70 18:18 14.04.2022
4250 Clouds 25 1016 22 10000 2.57 110 17:28 14.04.2022
4251 Clouds 25 1016 31 10000 2.57 70 16:33 14.04.2022
4252 Clouds 23 1017 27 10000 2.57 120 14:27 14.04.2022
4253 Clouds 23 1016 31 10000 1.54 0 13:39 14.04.2022
4254 Clouds 22 1017 34 10000 1.54 0 12:51 14.04.2022
4255 Clouds 21 1017 34 10000 1.54 290 12:30 14.04.2022
4256 Clear 19 1018 44 10000 3.09 270 11:23 14.04.2022
4257 Clear 18 1018 47 10000 4.63 270 10:36 14.04.2022
4258 Clear 16 1018 53 10000 3.09 270 09:57 14.04.2022
4259 Clear 13 1018 61 10000 0.51 0 08:44 14.04.2022
4260 Clear 8 1019 71 10000 1.03 0 06:51 14.04.2022
4261 Clouds 10 1018 62 10000 2.06 290 02:53 14.04.2022
4262 Clouds 13 1017 62 10000 2.06 60 23:25 13.04.2022
4263 Clouds 17 1016 48 10000 1.54 80 22:19 13.04.2022
4264 Clouds 17 1016 48 10000 2.06 80 21:34 13.04.2022
4265 Clouds 21 1014 37 10000 2.57 90 20:22 13.04.2022
4266 Clouds 22 1014 35 10000 4.63 70 19:32 13.04.2022
4267 Clouds 23 1013 27 10000 5.14 70 18:20 13.04.2022
4268 Clouds 24 1013 22 10000 4.63 80 17:24 13.04.2022
4269 Clouds 24 1013 25 10000 5.14 80 16:34 13.04.2022
4270 Clouds 24 1014 23 10000 5.14 90 15:40 13.04.2022
4271 Clouds 23 1014 27 10000 4.12 90 14:51 13.04.2022
4272 Clear 22 1014 28 10000 3.09 100 14:26 13.04.2022
4273 Clear 21 1014 38 10000 1.79 295 13:28 13.04.2022
4274 Clear 19 1015 41 10000 1.03 0 12:27 13.04.2022
4275 Clear 16 1016 48 10000 3.09 270 10:54 13.04.2022
4276 Clear 14 1016 53 10000 2.57 260 09:44 13.04.2022
4277 Clear 10 1016 67 10000 2.06 250 08:43 13.04.2022
4278 Clear 6 1017 75 10000 1.54 250 06:52 13.04.2022
4279 Clear 6 1017 75 10000 2.06 270 06:26 13.04.2022
4280 Clouds 7 1017 76 10000 1.54 230 05:36 13.04.2022
4281 Clear 13 1016 54 10000 2.06 90 00:23 13.04.2022
4282 Clear 13 1015 58 10000 1.54 90 23:46 12.04.2022
4283 Clear 14 1015 54 10000 3.09 30 22:19 12.04.2022
4284 Clear 17 1014 42 10000 2.57 70 21:29 12.04.2022
4285 Clear 18 1013 36 10000 2.57 60 20:41 12.04.2022
4286 Clear 19 1012 37 10000 3.6 40 19:50 12.04.2022
4287 Clear 22 1012 24 10000 2.57 80 19:31 12.04.2022
4288 Clear 23 1011 27 10000 3.6 70 18:31 12.04.2022
4289 Clear 24 1011 19 10000 2.06 70 17:28 12.04.2022
4290 Clear 24 1011 19 10000 2.06 70 17:28 12.04.2022
4291 Clear 23 1012 27 10000 3.09 100 16:22 12.04.2022
4292 Clear 22 1012 24 10000 2.06 100 15:33 12.04.2022
4293 Clear 19 1013 27 10000 1.03 0 14:29 12.04.2022
4294 Clear 19 1013 36 10000 1.34 319 13:37 12.04.2022
4295 Clear 18 1014 36 10000 1.03 0 12:52 12.04.2022
4296 Clear 15 1015 41 10000 3.09 260 11:47 12.04.2022
4297 Clear 13 1016 47 10000 2.57 260 10:47 12.04.2022
4298 Clear 7 1018 61 10000 3.09 260 09:21 12.04.2022
4299 Clear 6 1017 66 10000 2.57 250 07:56 12.04.2022
4300 Clear 3 1017 75 10000 1.03 0 06:24 12.04.2022
4301 Clouds 4 1017 70 10000 2.57 240 05:34 12.04.2022
4302 Clouds 7 1017 61 10000 1.03 0 00:46 12.04.2022
4303 Clouds 9 1016 53 10000 1.54 80 22:47 11.04.2022
4304 Clear 12 1016 40 10000 3.09 90 21:41 11.04.2022
4305 Clear 13 1015 38 10000 3.09 70 20:57 11.04.2022
4306 Clear 14 1014 35 10000 4.63 60 20:29 11.04.2022
4307 Clear 15 1014 31 10000 5.66 70 19:54 11.04.2022
4308 Clear 16 1014 31 10000 4.63 70 19:18 11.04.2022
4309 Clear 18 1013 27 10000 3.09 80 18:47 11.04.2022
4310 Clear 19 1013 22 10000 3.6 0 17:57 11.04.2022
4311 Clear 18 1014 25 10000 3.09 60 16:54 11.04.2022
4312 Clear 18 1015 29 10000 3.09 60 15:56 11.04.2022
4313 Clear 15 1016 31 10000 3.09 80 14:24 11.04.2022
4314 Clear 12 1018 40 10000 1.54 120 12:52 11.04.2022
4315 Clear 11 1018 42 10000 1.03 0 12:32 11.04.2022
4316 Clear 7 1020 53 10000 1.54 0 11:31 11.04.2022
4317 Clear 6 1020 60 10000 2.06 240 10:24 11.04.2022
4318 Clear 3 1021 71 10000 2.06 260 09:20 11.04.2022
4319 Clear 0 1022 77 10000 2.06 260 06:24 11.04.2022
4320 Clouds 1 1022 74 10000 1.03 0 01:53 11.04.2022
4321 Clear 3 1022 65 10000 1.03 0 22:37 10.04.2022
4322 Clouds 4 1021 56 10000 2.57 60 21:55 10.04.2022
4323 Clouds 5 1021 52 10000 3.6 70 21:28 10.04.2022
4324 Clouds 7 1020 42 10000 4.63 80 20:30 10.04.2022
4325 Clouds 8 1019 39 10000 4.12 90 19:43 10.04.2022
4326 Clouds 9 1019 31 10000 2.06 120 19:18 10.04.2022
4327 Clouds 9 1019 37 10000 2.06 120 18:41 10.04.2022
4328 Clouds 9 1019 37 10000 4.12 70 17:52 10.04.2022
4329 Clouds 9 1019 37 10000 4.12 70 17:32 10.04.2022
4330 Clouds 9 1020 37 10000 2.06 0 15:56 10.04.2022
4331 Clouds 8 1020 45 10000 3.09 100 14:51 10.04.2022
4332 Clouds 6 1020 60 10000 6.17 30 13:54 10.04.2022
4333 Clouds 7 1020 61 10000 3.09 20 12:33 10.04.2022
4334 Clouds 5 1021 71 10000 2.57 70 11:46 10.04.2022
4335 Clouds 4 1021 70 10000 1.54 0 11:28 10.04.2022
4336 Clouds 5 1020 73 10000 1.54 0 10:41 10.04.2022
4337 Clouds 4 1020 75 10000 2.57 60 09:49 10.04.2022
4338 Clouds 3 1020 82 10000 2.06 60 08:55 10.04.2022
4339 Clouds 1 1019 86 10000 1.54 60 08:20 10.04.2022
4340 Clouds 1 1019 86 10000 2.06 80 06:59 10.04.2022
4341 Clouds 2 1018 69 10000 5.14 250 04:36 10.04.2022
4342 Clouds 2 1018 80 10000 0.51 0 02:19 10.04.2022
4343 Clouds 3 1016 70 10000 3.09 70 23:54 09.04.2022
4344 Clouds 3 1016 65 10000 2.06 90 23:25 09.04.2022
4345 Clouds 3 1016 65 10000 1.54 50 22:39 09.04.2022
4346 Clouds 4 1015 60 10000 2.06 170 21:28 09.04.2022
4347 Clouds 5 1014 56 10000 3.09 110 20:31 09.04.2022
4348 Clouds 5 1013 56 10000 1.03 0 19:57 09.04.2022
4349 Clouds 5 1013 56 10000 1.03 0 19:39 09.04.2022
4350 Clouds 7 1012 45 10000 3.09 0 18:24 09.04.2022
4351 Clouds 7 1011 36 10000 3.6 0 17:50 09.04.2022
4352 Clouds 8 1011 42 10000 3.6 0 16:59 09.04.2022
4353 Clouds 8 1010 46 10000 3.6 0 16:40 09.04.2022
4354 Clouds 7 1010 53 10000 10.8 260 15:51 09.04.2022
4355 Clouds 8 1009 38 10000 3.13 36 15:26 09.04.2022
4356 Clouds 8 1010 51 10000 5.66 110 14:26 09.04.2022
4357 Clouds 8 1010 49 10000 4.63 80 13:34 09.04.2022
4358 Clouds 8 1009 54 10000 2.06 0 12:56 09.04.2022
4359 Clouds 7 1009 60 10000 4.63 110 11:51 09.04.2022
4360 Clouds 6 1009 62 10000 6.69 70 10:52 09.04.2022
4361 Clouds 6 1008 58 10000 7.2 70 10:18 09.04.2022
4362 Clouds 6 1007 42 10000 8.75 360 09:23 09.04.2022
4363 Clouds 7 1005 49 10000 2.57 0 08:26 09.04.2022
4364 Rain 6 996 93 10000 2.06 180 04:38 09.04.2022
4365 Clouds 9 995 90 10000 1.54 260 00:35 09.04.2022
4366 Clouds 10 996 86 10000 2.57 170 23:24 08.04.2022
4367 Clouds 10 998 87 10000 1.03 0 21:53 08.04.2022
4368 Clouds 12 998 76 10000 1.54 180 20:44 08.04.2022
4369 Clouds 13 997 71 10000 2.57 140 19:50 08.04.2022
4370 Rain 14 996 58 10000 3.6 70 18:56 08.04.2022
4371 Clouds 14 996 58 10000 4.12 70 18:22 08.04.2022
4372 Clouds 16 995 58 10000 2.57 70 17:29 08.04.2022
4373 Clouds 17 995 56 10000 1.54 70 16:58 08.04.2022
4374 Clouds 16 995 58 10000 3.6 70 16:27 08.04.2022
4375 Clouds 17 996 55 10000 2.57 70 15:36 08.04.2022
4376 Clouds 16 997 55 10000 1.54 50 14:52 08.04.2022
4377 Clouds 16 998 59 10000 2.57 100 14:20 08.04.2022
4378 Clouds 14 999 64 10000 2.06 60 13:31 08.04.2022
4379 Clouds 14 1000 62 10000 2.57 50 12:55 08.04.2022
4380 Clouds 13 1001 67 10000 3.6 80 11:35 08.04.2022
4381 Clouds 11 1002 74 10000 4.12 90 10:20 08.04.2022
4382 Clouds 10 1003 77 10000 4.63 70 09:20 08.04.2022
4383 Clouds 10 1002 77 10000 3.6 40 07:44 08.04.2022
4384 Clouds 9 1002 81 10000 2.57 90 06:45 08.04.2022
4385 Clouds 11 1000 77 10000 1.03 0 02:55 08.04.2022
4386 Clouds 10 1000 76 10000 3.6 310 00:31 08.04.2022
4387 Clouds 9 1000 81 10000 3.6 310 23:52 07.04.2022
4388 Clouds 11 1000 71 10000 5.66 250 22:55 07.04.2022
4389 Clouds 11 1000 71 10000 5.66 250 22:36 07.04.2022
4390 Clouds 11 1001 71 10000 6.17 230 22:18 07.04.2022
4391 Rain 11 1000 71 10000 8.23 250 21:30 07.04.2022
4392 Rain 12 1000 62 10000 7.72 250 20:55 07.04.2022
4393 Clouds 13 999 58 10000 7.2 250 20:21 07.04.2022
4394 Rain 15 999 47 10000 5.14 250 17:43 07.04.2022
4395 Rain 16 999 49 10000 2.06 0 17:23 07.04.2022
4396 Rain 16 998 41 10000 6.69 280 16:35 07.04.2022
4397 Rain 17 997 36 10000 4.12 320 15:56 07.04.2022
4398 Clouds 16 999 41 10000 3.6 280 13:59 07.04.2022
4399 Clouds 16 999 41 10000 3.6 270 13:26 07.04.2022
4400 Clouds 14 1001 58 10000 2.57 290 11:54 07.04.2022
4401 Clouds 13 1001 71 10000 1.54 230 10:55 07.04.2022
4402 Clouds 9 1003 87 10000 1.03 0 09:28 07.04.2022
4403 Clouds 8 1003 93 10000 1.03 0 07:38 07.04.2022
4404 Clouds 8 1003 93 10000 0.51 0 05:32 07.04.2022
4405 Clouds 10 1003 93 10000 1.03 140 02:38 07.04.2022
4406 Rain 10 1004 93 10000 1.54 90 00:47 07.04.2022
4407 Rain 9 1005 93 10000 2.06 80 23:39 06.04.2022
4408 Rain 10 1005 87 10000 1.03 0 22:45 06.04.2022
4409 Clouds 10 1004 87 10000 1.54 50 22:21 06.04.2022
4410 Clouds 12 1003 71 10000 3.6 320 20:54 06.04.2022
4411 Thunderstorm 16 1002 48 10000 5.14 240 20:26 06.04.2022
4412 Clouds 16 1001 44 10000 3.09 250 19:48 06.04.2022
4413 Clouds 17 1001 45 10000 2.06 220 18:48 06.04.2022
4414 Clouds 18 1001 45 10000 4.63 270 17:38 06.04.2022
4415 Clouds 19 1001 34 10000 1.54 0 17:20 06.04.2022
4416 Clouds 19 1002 37 10000 2.06 120 16:34 06.04.2022
4417 Clouds 18 1003 42 10000 2.06 80 15:45 06.04.2022
4418 Clouds 15 1006 55 10000 1.54 0 13:57 06.04.2022
4419 Clouds 13 1008 69 10000 1.54 0 12:37 06.04.2022
4420 Clouds 11 1009 76 10000 1.03 0 11:48 06.04.2022
4421 Clouds 10 1010 79 10000 1.03 0 10:42 06.04.2022
4422 Clouds 10 1010 81 10000 0.89 294 10:18 06.04.2022
4423 Clouds 8 1010 91 10000 1.03 0 09:26 06.04.2022
4424 Clouds 6 1010 92 10000 0.51 0 08:26 06.04.2022
4425 Clouds 6 1010 88 10000 0.51 0 07:37 06.04.2022
4426 Clouds 7 1012 87 10000 0.51 0 02:19 06.04.2022
4427 Clouds 9 1012 90 10000 1.54 160 23:50 05.04.2022
4428 Clouds 9 1012 81 10000 3.09 50 22:20 05.04.2022
4429 Clouds 10 1011 76 10000 2.57 70 21:18 05.04.2022
4430 Clouds 10 1011 76 10000 2.57 70 21:18 05.04.2022
4431 Clouds 10 1011 76 10000 2.57 70 21:18 05.04.2022
4432 Clouds 10 1011 76 10000 2.57 70 21:18 05.04.2022
4433 Clouds 11 1010 71 10000 2.57 70 20:25 05.04.2022
4434 Clouds 12 1010 66 10000 5.14 70 18:53 05.04.2022
4435 Clouds 13 1009 62 10000 4.12 70 17:31 05.04.2022
4436 Clouds 14 1009 54 10000 4.12 70 16:47 05.04.2022
4437 Clouds 16 1009 44 10000 2.57 20 15:52 05.04.2022
4438 Clouds 16 1009 44 10000 2.57 20 15:33 05.04.2022
4439 Clouds 15 1010 41 10000 2.57 0 14:18 05.04.2022
4440 Clouds 13 1011 47 10000 1.54 0 12:56 05.04.2022
4441 Clouds 12 1011 47 10000 1.03 0 11:49 05.04.2022
4442 Clouds 10 1012 50 10000 0.51 0 11:31 05.04.2022
4443 Clouds 8 1012 59 10000 1.03 0 09:49 05.04.2022
4444 Rain 7 1012 65 10000 0.51 0 08:52 05.04.2022
4445 Clouds 4 1011 70 10000 1.54 260 06:43 05.04.2022
4446 Clouds 4 1012 70 10000 1.54 260 00:39 05.04.2022
4447 Clouds 6 1012 65 10000 3.09 80 22:41 04.04.2022
4448 Clear 7 1012 53 10000 2.06 0 21:57 04.04.2022
4449 Clear 7 1012 61 10000 1.03 0 21:21 04.04.2022
4450 Clouds 7 1011 57 10000 2.57 280 20:49 04.04.2022
4451 Clear 10 1011 37 10000 5.14 160 19:40 04.04.2022
4452 Clouds 11 1010 37 10000 4.63 160 18:59 04.04.2022
4453 Clouds 11 1010 37 10000 4.12 160 17:55 04.04.2022
4454 Clouds 12 1011 32 10000 2.57 200 16:36 04.04.2022
4455 Clouds 12 1011 32 10000 2.57 200 16:36 04.04.2022
4456 Clouds 11 1012 37 10000 1.54 0 15:43 04.04.2022
4457 Clouds 11 1013 35 10000 2.06 0 15:25 04.04.2022
4458 Clouds 10 1014 46 10000 1.03 0 14:45 04.04.2022
4459 Clouds 8 1016 57 10000 1.54 0 13:22 04.04.2022
4460 Clouds 6 1018 60 10000 2.06 150 11:49 04.04.2022
4461 Clouds 5 1018 64 10000 1.54 0 11:28 04.04.2022
4462 Clouds 0 1018 74 10000 1.03 0 08:29 04.04.2022
4463 Clouds 0 1019 80 10000 2.57 60 03:52 04.04.2022
4464 Clouds 1 1019 80 10000 1.54 270 00:26 04.04.2022
4465 Clouds 1 1019 69 10000 2.57 100 22:33 03.04.2022
4466 Clouds 2 1018 64 10000 3.09 90 21:38 03.04.2022
4467 Clouds 2 1018 64 10000 3.6 80 20:53 03.04.2022
4468 Clouds 3 1017 60 10000 4.63 80 19:45 03.04.2022
4469 Clouds 4 1017 68 10000 3.6 60 18:31 03.04.2022
4470 Clouds 4 1017 61 10000 3.09 80 17:46 03.04.2022
4471 Clouds 4 1016 62 10000 3.09 70 16:50 03.04.2022
4472 Clouds 4 1017 62 10000 3.09 70 16:31 03.04.2022
4473 Clouds 4 1017 64 10000 2.57 120 14:38 03.04.2022
4474 Clouds 4 1017 64 10000 3.09 110 13:47 03.04.2022
4475 Clouds 3 1017 65 10000 3.09 60 12:38 03.04.2022
4476 Clouds 1 1017 77 10000 1.03 0 10:58 03.04.2022
4477 Clouds 0 1017 86 10000 2.06 70 09:36 03.04.2022
4478 Clouds -1 1016 88 10000 3.09 70 08:27 03.04.2022
4479 Clouds -1 1014 86 10000 0.51 0 04:37 03.04.2022
4480 Clouds 0 1013 86 10000 2.06 230 00:41 03.04.2022
4481 Clouds 1 1011 94 7000 1.54 0 22:57 02.04.2022
4482 Clouds 1 1011 98 5000 2.06 270 21:58 02.04.2022
4483 Clouds 1 1011 97 5000 2.06 270 21:36 02.04.2022
4484 Clouds 1 1010 98 5000 1.34 304 21:18 02.04.2022
4485 Clouds 2 1008 90 5000 0.89 318 19:32 02.04.2022
4486 Clouds 2 1008 90 5000 0.89 318 19:32 02.04.2022
4487 Snow 2 1006 89 6000 2.57 190 18:21 02.04.2022
4488 Clouds 2 1006 93 10000 1.54 260 17:53 02.04.2022
4489 Clouds 3 1005 89 10000 1.79 335 16:25 02.04.2022
4490 Clouds 4 1004 86 10000 2.06 210 15:21 02.04.2022
4491 Clouds 4 1003 81 10000 1.79 316 14:49 02.04.2022
4492 Clouds 4 1003 81 10000 1.79 316 14:49 02.04.2022
4493 Clouds 4 1003 81 10000 2.06 50 13:35 02.04.2022
4494 Clouds 4 1002 84 10000 2.57 40 12:38 02.04.2022
4495 Clouds 3 1002 90 8000 1.79 328 11:23 02.04.2022
4496 Clouds 2 1001 91 10000 1.03 300 08:50 02.04.2022
4497 Clouds 2 1000 94 8000 1.34 339 06:51 02.04.2022
4498 Drizzle 2 999 93 10000 0.51 0 03:52 02.04.2022
4499 Clouds 3 999 87 10000 1.54 260 23:57 01.04.2022
4500 Clouds 3 999 93 10000 1.54 250 23:30 01.04.2022
4501 Clouds 4 998 90 10000 1.54 220 21:42 01.04.2022
4502 Clouds 4 998 87 10000 1.03 0 20:51 01.04.2022
4503 Clouds 4 997 86 10000 2.57 80 20:28 01.04.2022
4504 Clouds 5 997 88 10000 3.6 70 19:34 01.04.2022
4505 Clouds 5 996 87 10000 5.14 70 18:49 01.04.2022
4506 Clouds 6 995 89 10000 4.12 60 17:54 01.04.2022
4507 Rain 6 995 89 10000 4.12 60 17:34 01.04.2022
4508 Clouds 6 995 82 10000 3.6 210 15:42 01.04.2022
4509 Clouds 7 994 78 10000 4.12 230 14:26 01.04.2022
4510 Clouds 7 994 82 10000 5.14 260 13:34 01.04.2022
4511 Clouds 7 994 82 10000 5.14 260 13:34 01.04.2022
4512 Clouds 6 994 85 10000 3.09 60 12:33 01.04.2022
4513 Clouds 7 994 85 10000 2.57 70 11:44 01.04.2022
4514 Clouds 6 994 92 10000 0.51 0 10:19 01.04.2022
4515 Clouds 6 993 93 10000 2.06 150 09:19 01.04.2022
4516 Clouds 7 992 92 10000 1.03 0 06:54 01.04.2022
4517 Drizzle 7 992 91 10000 1.03 0 04:53 01.04.2022
4518 Drizzle 7 992 91 10000 1.03 0 04:34 01.04.2022
4519 Clouds 8 993 93 10000 1.03 0 01:58 01.04.2022
4520 Clouds 8 993 94 7000 1.03 280 00:44 01.04.2022
4521 Clouds 8 993 90 10000 2.06 80 21:54 31.03.2022
4522 Clouds 8 993 90 10000 2.57 80 21:32 31.03.2022
4523 Clouds 8 992 90 10000 1.03 0 20:30 31.03.2022
4524 Clouds 9 992 90 10000 3.09 70 19:50 31.03.2022
4525 Clouds 9 992 90 10000 1.03 160 18:51 31.03.2022
4526 Clouds 9 992 87 10000 1.03 0 17:50 31.03.2022
4527 Clouds 10 992 83 10000 1.54 90 16:39 31.03.2022
4528 Clouds 10 992 79 10000 1.03 0 15:46 31.03.2022
4529 Clouds 10 992 82 10000 1.03 0 15:20 31.03.2022
4530 Clouds 10 993 76 10000 1.03 0 14:40 31.03.2022
4531 Clouds 9 994 81 9000 3.6 70 12:30 31.03.2022
4532 Clouds 10 994 85 9000 3.6 70 12:30 31.03.2022
4533 Drizzle 9 994 83 9000 2.06 80 11:26 31.03.2022
4534 Drizzle 8 994 85 9000 0 0 09:47 31.03.2022
4535 Drizzle 8 995 81 9000 0.51 0 08:23 31.03.2022
4536 Clouds 7 995 83 10000 1.54 150 05:42 31.03.2022
4537 Clouds 10 998 57 10000 1.54 90 00:32 31.03.2022
4538 Clouds 10 998 57 10000 1.03 0 22:44 30.03.2022
4539 Clouds 12 999 47 10000 3.09 170 21:39 30.03.2022
4540 Clouds 12 998 47 10000 6.17 150 20:54 30.03.2022
4541 Clouds 12 998 47 10000 4.63 140 20:20 30.03.2022
4542 Clouds 13 998 44 10000 4.12 150 19:35 30.03.2022
4543 Clouds 13 998 47 10000 2.57 300 18:28 30.03.2022
4544 Clouds 14 998 44 10000 2.57 280 17:47 30.03.2022
4545 Clouds 14 999 44 10000 3.09 260 16:57 30.03.2022
4546 Clouds 14 999 44 10000 3.09 260 16:33 30.03.2022
4547 Clouds 15 999 48 10000 4.63 280 15:24 30.03.2022
4548 Clouds 14 1000 49 10000 2.06 0 13:44 30.03.2022
4549 Clouds 13 1001 49 10000 2.57 270 12:57 30.03.2022
4550 Clouds 12 1002 53 10000 1.54 250 11:34 30.03.2022
4551 Clouds 7 1003 65 10000 1.54 240 10:28 30.03.2022
4552 Clouds 6 1004 70 10000 1.54 270 09:24 30.03.2022
4553 Clouds 4 1004 75 10000 1.03 0 07:33 30.03.2022
4554 Clouds 5 1005 70 10000 1.03 0 05:41 30.03.2022
4555 Clouds 5 1006 70 10000 1.03 0 03:52 30.03.2022
4556 Clouds 8 1007 57 10000 1.03 0 00:41 30.03.2022
4557 Clouds 12 1007 47 10000 1.03 0 22:25 29.03.2022
4558 Clouds 12 1007 47 10000 0.51 0 21:45 29.03.2022
4559 Clouds 14 1006 38 10000 1.54 80 20:53 29.03.2022
4560 Clouds 15 1006 36 10000 4.12 60 20:18 29.03.2022
4561 Clouds 17 1006 25 10000 3.09 60 18:55 29.03.2022
4562 Clouds 18 1006 22 10000 2.57 70 18:19 29.03.2022
4563 Clouds 19 1007 20 10000 2.06 50 17:22 29.03.2022
4564 Clouds 19 1007 22 10000 1.54 0 16:56 29.03.2022
4565 Clear 18 1008 24 10000 1.03 0 15:57 29.03.2022
4566 Clear 18 1009 25 10000 1.54 210 14:50 29.03.2022
4567 Clear 17 1010 26 10000 2.57 280 13:56 29.03.2022
4568 Clear 15 1011 33 10000 3.6 270 12:51 29.03.2022
4569 Clear 13 1013 42 10000 3.6 260 11:43 29.03.2022
4570 Clear 11 1014 50 10000 3.6 280 10:28 29.03.2022
4571 Clear 9 1014 53 10000 2.57 250 09:33 29.03.2022
4572 Clear 4 1016 65 10000 2.06 250 06:58 29.03.2022
4573 Clouds 7 1016 62 10000 1.54 250 03:54 29.03.2022
4574 Clear 7 1018 61 10000 0.51 0 00:33 29.03.2022
4575 Clear 9 1019 49 10000 0.51 0 23:22 28.03.2022
4576 Clear 9 1018 49 10000 0.51 0 22:51 28.03.2022
4577 Clear 10 1018 46 10000 0.51 0 22:23 28.03.2022
4578 Clear 13 1018 35 10000 1.03 0 20:54 28.03.2022
4579 Clear 14 1017 35 10000 1.54 0 20:20 28.03.2022
4580 Clear 17 1017 27 10000 2.06 230 19:41 28.03.2022
4581 Clear 21 1017 14 10000 0.51 0 18:55 28.03.2022
4582 Clouds 22 1017 17 10000 1.03 0 18:20 28.03.2022
4583 Clear 21 1018 14 10000 2.06 0 17:32 28.03.2022
4584 Clear 21 1019 17 10000 1.54 0 16:19 28.03.2022
4585 Clear 19 1022 22 10000 3.6 280 14:27 28.03.2022
4586 Clear 19 1022 23 10000 3.6 270 13:47 28.03.2022
4587 Clear 15 1024 35 10000 3.6 270 11:58 28.03.2022
4588 Clear 12 1025 44 10000 3.09 280 10:50 28.03.2022
4589 Clear 9 1026 53 10000 1.54 260 09:41 28.03.2022
4590 Clear 7 1026 60 10000 1.54 260 09:19 28.03.2022
4591 Clear 5 1027 66 10000 1.54 260 08:22 28.03.2022
4592 Clear 2 1027 75 10000 0.51 0 07:27 28.03.2022
4593 Clear 4 1028 70 10000 2.06 270 03:27 28.03.2022
4594 Clear 8 1028 53 10000 0.51 0 23:24 27.03.2022
4595 Clear 10 1027 46 10000 0.51 0 22:23 27.03.2022
4596 Clear 10 1027 46 10000 0.51 0 21:41 27.03.2022
4597 Clear 13 1026 38 10000 0.51 0 20:53 27.03.2022
4598 Clear 17 1025 25 10000 4.63 60 19:46 27.03.2022
4599 Clear 20 1024 21 10000 3.09 60 18:54 27.03.2022
4600 Clear 21 1024 21 10000 2.06 90 18:26 27.03.2022
4601 Clear 21 1024 21 10000 2.06 90 18:26 27.03.2022
4602 Clear 22 1024 16 10000 1.54 90 17:38 27.03.2022
4603 Clear 20 1025 19 10000 1.03 0 15:59 27.03.2022
4604 Clear 19 1026 24 10000 1.54 0 14:26 27.03.2022
4605 Clear 18 1027 28 10000 2.57 260 13:54 27.03.2022
4606 Clear 18 1027 28 10000 2.57 260 13:54 27.03.2022
4607 Clear 14 1029 36 10000 5.14 270 11:52 27.03.2022
4608 Clear 9 1030 54 10000 3.09 260 10:28 27.03.2022
4609 Clear 4 1030 68 10000 0.51 0 08:21 27.03.2022
4610 Clear 4 1030 70 10000 2.06 250 05:44 27.03.2022
4611 Clear 6 1030 63 10000 1.54 230 00:47 27.03.2022
4612 Clear 8 1029 57 10000 1.54 110 23:30 26.03.2022
4613 Clear 9 1029 54 10000 0.51 0 22:29 26.03.2022
4614 Clear 9 1027 53 10000 1.03 0 21:32 26.03.2022
4615 Clear 13 1026 38 10000 2.06 130 19:46 26.03.2022
4616 Clear 16 1025 29 10000 5.14 50 18:59 26.03.2022
4617 Clear 19 1024 18 10000 3.09 80 17:46 26.03.2022
4618 Clouds 19 1024 16 10000 3.09 90 17:28 26.03.2022
4619 Clouds 20 1024 19 10000 2.57 80 16:24 26.03.2022
4620 Clouds 19 1025 22 10000 4.12 100 14:50 26.03.2022
4621 Clear 19 1026 26 10000 2.57 100 13:52 26.03.2022
4622 Clear 17 1027 35 10000 1.03 0 12:41 26.03.2022
4623 Clear 14 1028 43 10000 2.06 270 11:28 26.03.2022
4624 Clear 9 1029 58 10000 2.06 250 09:23 26.03.2022
4625 Clear 7 1029 65 10000 1.54 250 08:27 26.03.2022
4626 Clear 3 1028 75 10000 1.03 0 05:54 26.03.2022
4627 Clear 3 1028 71 10000 1.03 0 03:58 26.03.2022
4628 Clear 7 1027 60 10000 1.03 170 23:21 25.03.2022
4629 Clear 9 1025 49 10000 1.54 250 21:28 25.03.2022
4630 Clear 10 1025 46 10000 2.06 240 20:45 25.03.2022
4631 Clouds 15 1024 31 10000 4.12 40 19:27 25.03.2022
4632 Clouds 16 1023 29 10000 6.17 50 18:46 25.03.2022
4633 Clouds 17 1023 27 10000 4.12 60 17:35 25.03.2022
4634 Clouds 19 1022 20 10000 4.63 80 16:41 25.03.2022
4635 Clouds 19 1023 22 10000 4.12 80 15:50 25.03.2022
4636 Clear 17 1024 27 10000 4.12 90 13:51 25.03.2022
4637 Clear 17 1025 34 10000 1.34 325 12:20 25.03.2022
4638 Clear 11 1027 47 10000 2.57 260 09:47 25.03.2022
4639 Clear 9 1027 53 10000 3.09 250 09:19 25.03.2022
4640 Clear 6 1028 68 10000 1.54 250 07:48 25.03.2022
4641 Clear 4 1028 72 10000 1.03 280 07:21 25.03.2022
4642 Clear 3 1027 73 10000 1.03 260 04:35 25.03.2022
4643 Clear 6 1027 59 10000 1.03 0 23:55 24.03.2022
4644 Clear 8 1027 52 10000 1.03 0 22:29 24.03.2022
4645 Clear 9 1026 49 10000 1.03 0 21:33 24.03.2022
4646 Clear 14 1025 30 10000 2.57 0 19:50 24.03.2022
4647 Clear 17 1024 23 10000 4.63 60 18:49 24.03.2022
4648 Clear 19 1023 16 10000 5.66 70 17:38 24.03.2022
4649 Clear 20 1023 17 10000 3.09 80 16:44 24.03.2022
4650 Clear 20 1024 18 10000 3.09 60 14:59 24.03.2022
4651 Clear 20 1024 18 10000 3.09 60 14:40 24.03.2022
4652 Clear 19 1026 18 10000 1.54 0 13:41 24.03.2022
4653 Clear 17 1027 26 10000 1.79 296 12:39 24.03.2022
4654 Clear 14 1028 31 10000 1.03 0 11:31 24.03.2022
4655 Clear 11 1028 42 10000 2.57 260 09:34 24.03.2022
4656 Clear 7 1029 55 10000 1.54 250 08:39 24.03.2022
4657 Clear 0 1030 75 10000 1.03 280 06:18 24.03.2022
4658 Clear 4 1030 62 10000 1.54 250 01:28 24.03.2022
4659 Clear 7 1030 47 10000 1.03 0 22:26 23.03.2022
4660 Clear 9 1028 40 10000 0.51 0 21:25 23.03.2022
4661 Clear 9 1028 40 10000 1.03 300 20:47 23.03.2022
4662 Clear 14 1027 24 10000 2.57 220 19:40 23.03.2022
4663 Clear 17 1026 20 10000 4.12 50 18:22 23.03.2022
4664 Clear 20 1026 13 10000 4.12 70 17:31 23.03.2022
4665 Clear 20 1026 14 10000 2.57 100 16:18 23.03.2022
4666 Clear 20 1026 14 10000 2.57 100 16:18 23.03.2022
4667 Clear 20 1027 15 10000 1.54 0 14:49 23.03.2022
4668 Clear 17 1028 17 10000 1.54 0 13:34 23.03.2022
4669 Clear 14 1030 26 10000 6.17 270 11:38 23.03.2022
4670 Clear 9 1032 39 10000 3.6 270 09:21 23.03.2022
4671 Clear 0 1033 67 10000 0.51 0 06:29 23.03.2022
4672 Clear 2 1032 61 10000 0.51 0 03:57 23.03.2022
4673 Clear 4 1032 53 10000 1.03 0 00:29 23.03.2022
4674 Clear 4 1032 53 10000 1.03 0 00:29 23.03.2022
4675 Clear 10 1031 27 10000 1.54 0 22:25 22.03.2022
4676 Clear 11 1030 25 10000 3.09 30 21:29 22.03.2022
4677 Clear 12 1030 24 10000 2.57 80 20:34 22.03.2022
4678 Clear 14 1029 18 10000 3.09 70 19:31 22.03.2022
4679 Clear 15 1028 17 10000 3.6 80 18:54 22.03.2022
4680 Clear 18 1028 13 10000 3.09 130 17:44 22.03.2022
4681 Clear 18 1028 12 10000 4.63 120 17:23 22.03.2022
4682 Clear 19 1028 11 10000 4.63 130 15:52 22.03.2022
4683 Clear 19 1028 12 10000 4.63 140 15:21 22.03.2022
4684 Clear 19 1028 9 10000 5.66 110 14:46 22.03.2022
4685 Clear 18 1028 9 10000 6.69 120 14:24 22.03.2022
4686 Clear 15 1031 23 10000 2.06 250 12:41 22.03.2022
4687 Clear 13 1031 31 10000 3.6 260 11:26 22.03.2022
4688 Clear 9 1032 39 10000 3.09 240 09:55 22.03.2022
4689 Clear 4 1033 60 10000 1.03 0 07:48 22.03.2022
4690 Clear 1 1033 72 10000 1.03 280 05:19 22.03.2022
4691 Clear 2 1033 69 10000 1.54 240 03:38 22.03.2022
4692 Clear 4 1032 57 10000 1.03 0 23:41 21.03.2022
4693 Clear 7 1032 49 10000 2.06 100 21:51 21.03.2022
4694 Clear 7 1032 49 10000 2.06 100 21:51 21.03.2022
4695 Clear 10 1030 32 10000 2.06 0 20:45 21.03.2022
4696 Clear 10 1030 34 10000 2.57 90 20:26 21.03.2022
4697 Clear 12 1030 26 10000 3.6 110 19:53 21.03.2022
4698 Clear 12 1029 28 10000 3.09 70 19:23 21.03.2022
4699 Clear 15 1028 15 10000 4.12 130 17:45 21.03.2022
4700 Clear 16 1028 16 10000 2.57 150 17:18 21.03.2022
4701 Clear 17 1028 20 10000 2.06 0 16:37 21.03.2022
4702 Clear 16 1029 21 10000 2.57 360 15:46 21.03.2022
4703 Clear 16 1029 21 10000 2.06 0 14:48 21.03.2022
4704 Clear 15 1030 26 10000 0.51 0 13:35 21.03.2022
4705 Clear 14 1032 33 10000 1.54 270 12:33 21.03.2022
4706 Clear 13 1032 38 10000 2.57 270 11:43 21.03.2022
4707 Clear 10 1033 42 10000 3.09 260 10:20 21.03.2022
4708 Clear 4 1034 63 10000 3.09 260 08:26 21.03.2022
4709 Clear 2 1033 67 10000 1.54 260 06:31 21.03.2022
4710 Clear 4 1032 60 10000 2.57 0 02:33 21.03.2022
4711 Clear 9 1031 37 10000 3.09 0 23:40 20.03.2022
4712 Clear 10 1030 34 10000 3.6 120 22:43 20.03.2022
4713 Clear 11 1030 32 10000 4.12 140 21:49 20.03.2022
4714 Clear 11 1030 32 10000 5.66 130 21:20 20.03.2022
4715 Clouds 10 1029 34 10000 3.09 120 20:42 20.03.2022
4716 Clouds 11 1029 32 10000 3.6 0 19:57 20.03.2022
4717 Clouds 12 1028 28 10000 5.66 130 19:26 20.03.2022
4718 Clouds 14 1028 26 10000 4.12 150 17:51 20.03.2022
4719 Clouds 15 1028 23 10000 4.63 150 17:29 20.03.2022
4720 Clouds 15 1028 25 10000 4.63 150 16:52 20.03.2022
4721 Clouds 15 1028 23 10000 3.6 160 15:27 20.03.2022
4722 Clouds 14 1029 24 10000 4.12 140 13:49 20.03.2022
4723 Clear 12 1030 28 10000 4.12 140 12:22 20.03.2022
4724 Clear 11 1031 37 10000 3.13 270 10:42 20.03.2022
4725 Clear 3 1032 75 10000 3.6 270 08:37 20.03.2022
4726 Clear 0 1031 80 10000 4.63 270 06:55 20.03.2022
4727 Clear 1 1030 80 10000 5.14 280 04:23 20.03.2022
4728 Clouds 6 1030 57 10000 2.57 0 01:29 20.03.2022
4729 Clouds 7 1029 54 10000 5.66 0 00:36 20.03.2022
4730 Clouds 5 1029 65 10000 6.17 80 22:56 19.03.2022
4731 Clouds 6 1029 62 10000 4.12 100 21:27 19.03.2022
4732 Clouds 7 1029 62 10000 3.13 45 20:28 19.03.2022
4733 Clouds 9 1027 49 10000 7.2 90 18:44 19.03.2022
4734 Clouds 10 1027 46 10000 7.2 90 18:23 19.03.2022
4735 Clouds 10 1026 46 10000 6.69 80 17:35 19.03.2022
4736 Clouds 12 1026 40 10000 6.69 80 15:43 19.03.2022
4737 Clouds 13 1028 35 10000 4.63 80 14:30 19.03.2022
4738 Clouds 12 1030 51 10000 3.13 113 12:58 19.03.2022
4739 Clouds 12 1031 54 10000 3.09 80 12:38 19.03.2022
4740 Clouds 10 1032 61 10000 2.68 68 11:51 19.03.2022
4741 Clouds 9 1033 68 10000 2.24 135 10:44 19.03.2022
4742 Clouds 3 1036 84 10000 0.51 0 06:27 19.03.2022
4743 Clouds 4 1037 79 10000 1.54 90 03:21 19.03.2022
4744 Clouds 5 1037 75 10000 0.51 0 01:33 19.03.2022
4745 Clouds 6 1036 70 10000 1.03 0 23:26 18.03.2022
4746 Clouds 8 1036 74 10000 1.03 0 22:26 18.03.2022
4747 Clouds 8 1036 72 10000 1.54 0 21:19 18.03.2022
4748 Clouds 9 1035 61 10000 4.63 70 19:50 18.03.2022
4749 Clouds 9 1034 61 10000 4.63 70 19:21 18.03.2022
4750 Clouds 12 1033 54 10000 7.72 50 17:42 18.03.2022
4751 Clouds 14 1032 41 10000 5.14 80 16:47 18.03.2022
4752 Clouds 14 1032 41 10000 3.6 90 14:51 18.03.2022
4753 Clouds 13 1032 44 10000 5.66 80 14:21 18.03.2022
4754 Clouds 13 1033 50 10000 2.57 70 12:26 18.03.2022
4755 Clouds 11 1033 70 10000 2.68 90 10:47 18.03.2022
4756 Clouds 9 1033 80 9000 2.24 90 09:28 18.03.2022
4757 Clouds 8 1032 84 9000 1.54 90 07:59 18.03.2022
4758 Clouds 8 1032 84 7000 2.24 68 06:34 18.03.2022
4759 Clouds 9 1030 85 10000 2.24 68 02:51 18.03.2022
4760 Clouds 9 1030 83 10000 1.34 90 00:22 18.03.2022
4761 Clouds 9 1030 83 10000 1.34 90 00:22 18.03.2022
4762 Clouds 10 1030 84 10000 3.09 70 23:22 17.03.2022
4763 Clouds 10 1029 83 10000 2.24 68 22:24 17.03.2022
4764 Clouds 10 1029 82 10000 2.06 70 21:48 17.03.2022
4765 Clouds 10 1029 80 10000 2.24 68 21:21 17.03.2022
4766 Clouds 11 1028 80 10000 2.68 68 20:42 17.03.2022
4767 Clouds 11 1028 76 10000 2.06 90 19:46 17.03.2022
4768 Clouds 11 1027 74 10000 1.03 0 18:57 17.03.2022
4769 Clouds 12 1027 73 10000 1.03 0 18:37 17.03.2022
4770 Clear 13 1026 67 10000 2.06 100 16:48 17.03.2022
4771 Clear 13 1025 65 10000 3.6 70 15:44 17.03.2022
4772 Clear 13 1025 65 10000 3.6 70 15:24 17.03.2022
4773 Clouds 13 1025 62 10000 2.57 50 14:28 17.03.2022
4774 Clouds 14 1025 61 10000 1.34 68 12:51 17.03.2022
4775 Clouds 13 1025 65 10000 2.68 68 12:22 17.03.2022
4776 Clouds 12 1025 70 10000 1.03 0 11:27 17.03.2022
4777 Clouds 9 1025 84 10000 0.51 0 09:57 17.03.2022
4778 Clouds 5 1025 87 10000 0.51 0 08:34 17.03.2022
4779 Clouds 7 1025 86 10000 0.51 0 08:34 17.03.2022
4780 Clouds 6 1024 88 10000 1.03 0 07:33 17.03.2022
4781 Clouds 4 1025 91 10000 1.03 0 05:47 17.03.2022
4782 Clouds 6 1024 89 10000 1.03 360 01:23 17.03.2022
4783 Clear 7 1024 86 10000 1.54 270 23:45 16.03.2022
4784 Clouds 7 1024 86 10000 0.51 0 22:45 16.03.2022
4785 Clouds 7 1025 86 10000 0.51 0 22:21 16.03.2022
4786 Clouds 8 1024 84 10000 1.54 160 21:37 16.03.2022
4787 Clouds 9 1024 78 10000 2.06 60 19:40 16.03.2022
4788 Clouds 10 1023 80 10000 2.57 70 19:19 16.03.2022
4789 Clouds 10 1024 73 10000 2.57 80 18:35 16.03.2022
4790 Clouds 12 1023 72 10000 3.6 70 17:41 16.03.2022
4791 Clouds 12 1023 70 10000 4.12 80 16:56 16.03.2022
4792 Clouds 13 1023 70 10000 5.14 70 15:55 16.03.2022
4793 Clouds 14 1023 66 10000 4.12 80 14:25 16.03.2022
4794 Clouds 14 1024 66 10000 5.66 70 13:24 16.03.2022
4795 Clouds 13 1025 69 10000 3.13 68 11:54 16.03.2022
4796 Clouds 12 1025 69 10000 3.09 90 11:20 16.03.2022
4797 Clouds 10 1025 71 10000 1.54 110 10:22 16.03.2022
4798 Clouds 9 1025 75 10000 1.03 140 08:51 16.03.2022
4799 Clouds 7 1024 76 10000 1.03 0 04:45 16.03.2022
4800 Rain 7 1024 76 10000 2.57 260 00:48 16.03.2022
4801 Clouds 9 1024 61 10000 3.6 260 22:38 15.03.2022
4802 Clouds 10 1024 53 10000 3.6 240 21:52 15.03.2022
4803 Clouds 10 1024 53 10000 1.03 0 19:53 15.03.2022
4804 Clouds 12 1024 43 10000 0.51 0 18:54 15.03.2022
4805 Clouds 13 1025 41 10000 5.66 160 16:55 15.03.2022
4806 Clouds 14 1025 43 10000 4.12 170 16:20 15.03.2022
4807 Clouds 14 1025 42 10000 5.66 160 14:57 15.03.2022
4808 Clouds 14 1025 42 10000 5.66 160 14:34 15.03.2022
4809 Clouds 13 1026 48 10000 2.57 260 13:27 15.03.2022
4810 Clouds 13 1027 46 10000 3.09 250 12:21 15.03.2022
4811 Clouds 10 1028 46 10000 4.63 270 11:28 15.03.2022
4812 Clouds 9 1028 49 10000 5.14 280 09:39 15.03.2022
4813 Clouds 7 1029 56 10000 4.63 270 08:33 15.03.2022
4814 Rain 6 1028 57 10000 4.63 270 07:50 15.03.2022
4815 Clouds 5 1029 61 10000 2.57 260 06:54 15.03.2022
4816 Clouds 5 1030 62 10000 3.09 260 02:59 15.03.2022
4817 Clouds 5 1031 59 10000 2.06 280 23:39 14.03.2022
4818 Clear 5 1031 58 10000 1.54 230 23:21 14.03.2022
4819 Clear 6 1031 55 10000 2.57 260 22:19 14.03.2022
4820 Clear 8 1031 51 10000 1.03 0 21:26 14.03.2022
4821 Clear 8 1030 51 10000 0.51 0 20:35 14.03.2022
4822 Clear 9 1029 46 10000 1.54 0 19:59 14.03.2022
4823 Clear 12 1028 35 10000 1.03 0 18:37 14.03.2022
4824 Clear 16 1026 27 10000 3.09 50 17:44 14.03.2022
4825 Clear 18 1026 22 10000 1.54 0 16:57 14.03.2022
4826 Clear 18 1026 19 10000 1.54 180 15:34 14.03.2022
4827 Clear 16 1026 23 10000 1.54 0 14:33 14.03.2022
4828 Clear 12 1028 30 10000 1.03 0 11:53 14.03.2022
4829 Clear 10 1028 32 10000 1.54 250 10:50 14.03.2022
4830 Clear 8 1028 39 10000 1.54 230 09:39 14.03.2022
4831 Clear 6 1027 49 10000 2.57 260 09:20 14.03.2022
4832 Clouds 6 1028 49 10000 3.6 240 08:49 14.03.2022
4833 Clouds 2 1025 64 10000 4.12 260 07:21 14.03.2022
4834 Clouds 2 1024 60 10000 4.12 260 05:22 14.03.2022
4835 Clouds 6 1021 39 10000 2.06 0 01:52 14.03.2022
4836 Clear 4 1021 48 10000 1.03 0 00:40 14.03.2022
4837 Clear 10 1020 22 10000 4.63 0 22:42 13.03.2022
4838 Clear 11 1019 19 10000 6.69 150 21:28 13.03.2022
4839 Clear 11 1018 19 10000 8.75 150 20:55 13.03.2022
4840 Clear 11 1018 19 10000 6.17 150 20:29 13.03.2022
4841 Clear 11 1017 19 10000 9.26 140 19:48 13.03.2022
4842 Clear 11 1017 19 10000 5.66 140 19:25 13.03.2022
4843 Clear 12 1017 17 10000 7.72 150 18:50 13.03.2022
4844 Clear 12 1016 17 10000 7.2 150 18:30 13.03.2022
4845 Clear 13 1016 16 10000 8.75 130 17:40 13.03.2022
4846 Clear 13 1016 16 10000 8.75 130 17:40 13.03.2022
4847 Clear 14 1016 17 10000 8.75 140 16:49 13.03.2022
4848 Clear 14 1016 15 10000 8.75 130 16:27 13.03.2022
4849 Clear 14 1016 15 10000 8.23 140 15:44 13.03.2022
4850 Clear 15 1016 14 10000 7.72 130 14:51 13.03.2022
4851 Clear 14 1016 17 10000 7.72 150 13:33 13.03.2022
4852 Clear 12 1018 28 10000 4.63 280 12:37 13.03.2022
4853 Clear 11 1018 30 10000 4.12 270 11:51 13.03.2022
4854 Clear 10 1019 32 10000 5.14 260 11:31 13.03.2022
4855 Clear 9 1019 37 10000 5.66 260 10:46 13.03.2022
4856 Clear 8 1020 44 10000 4.63 290 09:59 13.03.2022
4857 Clear 8 1020 46 10000 4.63 290 09:40 13.03.2022
4858 Clear 6 1020 53 10000 3.13 270 08:45 13.03.2022
4859 Clear 2 1020 67 10000 4.47 248 07:40 13.03.2022
4860 Clear -1 1020 80 10000 4.63 260 05:40 13.03.2022
4861 Clear 1 1020 69 10000 2.06 230 02:27 13.03.2022
4862 Clouds 4 1020 56 10000 3.6 260 23:31 12.03.2022
4863 Clear 9 1020 37 10000 6.69 150 21:53 12.03.2022
4864 Clear 9 1019 40 10000 7.72 140 20:29 12.03.2022
4865 Clear 10 1019 37 10000 9.26 150 19:47 12.03.2022
4866 Clear 10 1018 37 10000 9.26 150 18:55 12.03.2022
4867 Clear 11 1018 32 10000 8.23 140 18:21 12.03.2022
4868 Clear 12 1018 30 10000 8.23 130 17:23 12.03.2022
4869 Clear 12 1018 30 10000 9.26 130 16:23 12.03.2022
4870 Clear 13 1018 28 10000 9.77 150 15:22 12.03.2022
4871 Clear 12 1019 30 10000 6.17 140 13:55 12.03.2022
4872 Clear 12 1020 30 10000 6.69 150 12:35 12.03.2022
4873 Clear 11 1021 32 10000 6.17 140 11:56 12.03.2022
4874 Clear 11 1021 37 10000 6.17 140 11:34 12.03.2022
4875 Clear 10 1021 43 10000 3.6 260 10:44 12.03.2022
4876 Clear 7 1021 52 10000 5.66 270 09:44 12.03.2022
4877 Clear 4 1022 60 10000 4.12 270 08:41 12.03.2022
4878 Clear 1 1021 69 10000 5.14 260 06:44 12.03.2022
4879 Clouds 2 1021 60 10000 2.06 0 01:44 12.03.2022
4880 Clouds 8 1020 42 10000 5.66 160 23:51 11.03.2022
4881 Clear 8 1020 39 10000 7.2 160 22:45 11.03.2022
4882 Clear 9 1019 32 10000 5.66 30 21:26 11.03.2022
4883 Clear 9 1019 37 10000 2.57 0 20:51 11.03.2022
4884 Clear 10 1018 32 10000 5.66 10 20:28 11.03.2022
4885 Clear 11 1017 30 10000 5.66 0 19:36 11.03.2022
4886 Clear 11 1017 32 10000 6.69 140 18:43 11.03.2022
4887 Clear 13 1016 26 10000 6.17 140 17:26 11.03.2022
4888 Clear 14 1017 23 10000 7.2 150 16:27 11.03.2022
4889 Clear 14 1017 23 10000 7.72 150 15:52 11.03.2022
4890 Clear 14 1017 23 10000 7.72 150 14:18 11.03.2022
4891 Clear 13 1019 24 10000 4.12 0 12:43 11.03.2022
4892 Clear 12 1019 26 10000 3.6 240 12:20 11.03.2022
4893 Clear 9 1020 31 10000 4.12 280 11:28 11.03.2022
4894 Clear 5 1022 51 10000 5.66 270 09:37 11.03.2022
4895 Clear 0 1021 64 10000 3.09 280 08:29 11.03.2022
4896 Clear -1 1022 64 10000 2.06 270 07:48 11.03.2022
4897 Clear -3 1021 74 10000 1.54 260 06:55 11.03.2022
4898 Clear -3 1021 74 10000 0.51 0 04:44 11.03.2022
4899 Clear 1 1023 61 10000 1.03 0 01:51 11.03.2022
4900 Clear 2 1023 63 10000 1.54 250 22:33 10.03.2022
4901 Clear 3 1023 56 10000 1.03 0 21:58 10.03.2022
4902 Clear 4 1023 50 10000 1.03 0 21:26 10.03.2022
4903 Clear 6 1022 46 10000 2.06 100 20:37 10.03.2022
4904 Clear 8 1021 34 10000 2.06 110 19:22 10.03.2022
4905 Clear 11 1021 30 10000 4.12 60 18:18 10.03.2022
4906 Clear 13 1021 21 10000 3.6 70 16:53 10.03.2022
4907 Clear 13 1021 26 10000 3.6 70 15:34 10.03.2022
4908 Clear 12 1024 28 10000 2.68 90 13:51 10.03.2022
4909 Clear 10 1025 34 10000 1.03 0 12:43 10.03.2022
4910 Clear 8 1026 38 10000 1.03 0 11:33 10.03.2022
4911 Clear 4 1027 57 10000 2.06 270 09:54 10.03.2022
4912 Clear 1 1027 65 10000 2.06 260 08:39 10.03.2022
4913 Clear -3 1026 74 10000 1.03 0 05:33 10.03.2022
4914 Clear -2 1026 74 10000 1.54 260 02:39 10.03.2022
4915 Clear -1 1026 69 10000 0.51 0 00:22 10.03.2022
4916 Clear 1 1025 55 10000 1.03 0 22:32 09.03.2022
4917 Clear 1 1024 60 10000 1.03 0 21:47 09.03.2022
4918 Clear 2 1024 48 10000 1.03 0 20:50 09.03.2022
4919 Clear 8 1022 34 10000 2.06 40 18:58 09.03.2022
4920 Clear 11 1021 22 10000 4.12 80 17:28 09.03.2022
4921 Clear 12 1021 22 10000 4.12 60 16:45 09.03.2022
4922 Clear 12 1021 24 10000 3.6 120 15:37 09.03.2022
4923 Clear 11 1022 20 10000 2.57 120 14:23 09.03.2022
4924 Clear 11 1023 29 10000 2.06 150 13:38 09.03.2022
4925 Clear 8 1024 35 10000 1.03 0 12:20 09.03.2022
4926 Clear 7 1024 37 10000 1.03 0 11:46 09.03.2022
4927 Clear 5 1025 43 10000 2.57 270 10:54 09.03.2022
4928 Clear 1 1025 58 10000 3.09 250 09:25 09.03.2022
4929 Clear -2 1025 69 10000 2.06 250 08:43 09.03.2022
4930 Clouds -4 1025 76 10000 1.54 280 05:36 09.03.2022
4931 Clouds -2 1024 68 10000 0.51 0 00:56 09.03.2022
4932 Clear -2 1024 65 10000 1.03 0 23:46 08.03.2022
4933 Clear -1 1023 60 10000 1.03 0 22:45 08.03.2022
4934 Clear -1 1023 57 10000 0.51 0 21:46 08.03.2022
4935 Clear -1 1022 56 10000 0.51 0 21:19 08.03.2022
4936 Clear 0 1021 47 10000 0.51 0 20:18 08.03.2022
4937 Clear 3 1020 38 10000 0.51 0 18:55 08.03.2022
4938 Clear 7 1019 26 10000 4.12 90 17:58 08.03.2022
4939 Clear 8 1020 26 10000 3.6 90 16:37 08.03.2022
4940 Clear 7 1021 36 10000 3.09 110 14:24 08.03.2022
4941 Clear 6 1021 45 10000 2.24 0 13:23 08.03.2022
4942 Clear 4 1021 51 10000 1.79 287 12:20 08.03.2022
4943 Clear 3 1022 55 10000 2.57 0 11:41 08.03.2022
4944 Clear 0 1023 63 10000 1.34 293 10:27 08.03.2022
4945 Clear -3 1023 75 10000 1.03 0 08:30 08.03.2022
4946 Clear -5 1022 80 10000 0.51 0 05:48 08.03.2022
4947 Clear -4 1022 68 10000 1.54 140 01:49 08.03.2022
4948 Clouds -3 1022 64 10000 1.03 0 22:41 07.03.2022
4949 Clouds -2 1022 59 10000 3.09 60 21:36 07.03.2022
4950 Clouds -1 1021 59 10000 1.03 0 20:55 07.03.2022
4951 Clouds 0 1021 55 10000 2.57 80 20:26 07.03.2022
4952 Clouds 0 1020 59 10000 2.57 90 19:48 07.03.2022
4953 Clouds 2 1019 51 10000 3.09 90 18:48 07.03.2022
4954 Clouds 2 1019 48 10000 4.63 100 18:25 07.03.2022
4955 Clouds 4 1019 45 10000 6.17 70 16:56 07.03.2022
4956 Clouds 5 1019 44 10000 6.17 70 16:34 07.03.2022
4957 Clouds 6 1019 44 10000 4.63 70 14:41 07.03.2022
4958 Clouds 4 1020 49 10000 2.24 135 12:34 07.03.2022
4959 Clouds 3 1021 56 10000 2.06 120 10:48 07.03.2022
4960 Clouds 2 1020 62 10000 2.06 110 10:25 07.03.2022
4961 Clouds -2 1019 64 10000 2.06 40 07:42 07.03.2022
4962 Clouds 1 1019 55 10000 2.57 90 00:37 07.03.2022
4963 Clouds 1 1019 55 10000 3.09 100 00:19 07.03.2022
4964 Clouds 1 1019 60 10000 1.54 130 23:19 06.03.2022
4965 Clouds 2 1018 51 10000 1.54 150 22:25 06.03.2022
4966 Clouds 2 1018 51 10000 1.54 110 21:22 06.03.2022
4967 Clouds 2 1017 51 10000 1.03 0 20:29 06.03.2022
4968 Clouds 3 1017 52 10000 5.14 80 19:35 06.03.2022
4969 Clouds 3 1016 52 10000 6.17 80 18:40 06.03.2022
4970 Clouds 3 1016 48 10000 6.17 60 17:36 06.03.2022
4971 Clouds 4 1017 49 10000 6.69 60 17:18 06.03.2022
4972 Clouds 5 1016 43 10000 6.17 60 16:24 06.03.2022
4973 Clouds 6 1016 39 10000 3.6 110 15:23 06.03.2022
4974 Clouds 6 1017 40 10000 3.6 110 14:41 06.03.2022
4975 Clouds 5 1017 46 10000 4.12 80 13:47 06.03.2022
4976 Clouds 4 1018 51 10000 2.57 110 12:36 06.03.2022
4977 Clouds 2 1019 57 10000 1.03 0 11:30 06.03.2022
4978 Clouds 1 1019 62 10000 1.03 0 10:30 06.03.2022
4979 Clear -2 1020 72 10000 0.51 0 08:51 06.03.2022
4980 Clear -3 1020 76 10000 0.51 0 08:27 06.03.2022
4981 Clear -5 1019 78 10000 0.51 0 07:18 06.03.2022
4982 Clouds -3 1017 69 10000 2.57 70 01:37 06.03.2022
4983 Clouds -3 1017 69 10000 1.54 140 00:34 06.03.2022
4984 Clear -3 1018 69 10000 1.54 330 23:46 05.03.2022
4985 Clear -2 1018 64 10000 1.03 0 23:18 05.03.2022
4986 Clear -1 1017 64 10000 1.03 0 22:31 05.03.2022
4987 Clear -1 1017 64 10000 1.03 0 22:31 05.03.2022
4988 Clear 0 1017 55 10000 0.51 0 21:25 05.03.2022
4989 Clear 2 1016 51 10000 2.06 100 19:59 05.03.2022
4990 Clouds 4 1015 41 10000 4.63 70 18:58 05.03.2022
4991 Clouds 4 1015 41 10000 4.63 70 18:36 05.03.2022
4992 Clouds 5 1014 36 10000 5.14 80 16:58 05.03.2022
4993 Clouds 6 1014 31 10000 4.63 80 16:18 05.03.2022
4994 Clouds 6 1015 29 10000 3.6 90 14:53 05.03.2022
4995 Clouds 6 1015 29 10000 3.6 90 14:35 05.03.2022
4996 Clouds 5 1015 42 10000 2.57 0 13:37 05.03.2022
4997 Clouds 5 1018 43 10000 2.06 100 12:33 05.03.2022
4998 Clear 3 1019 54 10000 0.89 270 11:20 05.03.2022
4999 Clear 2 1019 55 10000 1.03 0 10:48 05.03.2022
5000 Clear 0 1020 64 10000 1.03 0 09:30 05.03.2022
5001 Clear -2 1020 72 10000 0.51 0 08:24 05.03.2022
5002 Clear -4 1019 76 10000 1.03 240 06:29 05.03.2022
5003 Clouds -5 1018 74 10000 0.51 0 04:54 05.03.2022
5004 Clouds -1 1018 59 10000 1.03 0 23:59 04.03.2022
5005 Clear -1 1018 59 10000 1.03 0 22:45 04.03.2022
5006 Clear -1 1018 59 10000 1.03 0 22:24 04.03.2022
5007 Clouds 1 1018 47 10000 1.03 0 21:42 04.03.2022
5008 Clouds 2 1017 44 10000 2.06 140 20:36 04.03.2022
5009 Clouds 3 1017 41 10000 3.09 40 19:36 04.03.2022
5010 Clouds 4 1016 38 10000 5.66 50 18:47 04.03.2022
5011 Clouds 5 1015 36 10000 3.6 40 18:27 04.03.2022
5012 Clouds 5 1015 36 10000 5.14 50 17:29 04.03.2022
5013 Clouds 8 1014 25 10000 3.09 110 15:48 04.03.2022
5014 Clouds 7 1014 29 10000 3.6 110 14:40 04.03.2022
5015 Clouds 7 1015 31 10000 3.09 120 13:34 04.03.2022
5016 Clouds 6 1017 46 10000 2.57 120 11:57 04.03.2022
5017 Clouds 5 1017 49 10000 2.06 90 11:28 04.03.2022
5018 Clouds 3 1018 58 10000 3.09 90 10:23 04.03.2022
5019 Clear 2 1018 65 10000 2.57 120 09:27 04.03.2022
5020 Clear -1 1017 74 10000 0.51 0 07:47 04.03.2022
5021 Clouds -2 1016 70 10000 0.51 0 05:44 04.03.2022
5022 Clouds 1 1015 61 10000 1.03 0 00:43 04.03.2022
5023 Clouds 3 1015 45 10000 1.54 0 23:31 03.03.2022
5024 Clouds 4 1014 45 10000 4.12 110 22:18 03.03.2022
5025 Clouds 6 1014 45 10000 4.12 70 21:36 03.03.2022
5026 Clouds 9 1013 37 10000 2.57 60 20:32 03.03.2022
5027 Clouds 9 1012 34 10000 6.17 90 19:22 03.03.2022
5028 Clouds 11 1011 30 10000 5.66 30 18:25 03.03.2022
5029 Clouds 12 1011 26 10000 7.2 70 17:31 03.03.2022
5030 Clouds 13 1011 28 10000 6.17 80 16:38 03.03.2022
5031 Clouds 13 1011 24 10000 2.57 100 15:43 03.03.2022
5032 Clouds 12 1012 26 10000 1.03 0 14:44 03.03.2022
5033 Clouds 12 1013 28 10000 1.54 0 14:25 03.03.2022
5034 Clear 9 1016 34 10000 1.03 0 12:32 03.03.2022
5035 Clear 7 1017 44 10000 2.06 250 11:23 03.03.2022
5036 Clear 5 1019 53 10000 1.54 240 10:21 03.03.2022
5037 Clear 1 1020 68 10000 1.54 250 08:42 03.03.2022
5038 Clear -2 1020 79 10000 0.51 0 06:55 03.03.2022
5039 Clouds -2 1020 75 10000 1.03 220 05:22 03.03.2022
5040 Clouds 2 1020 60 10000 1.03 0 23:57 02.03.2022
5041 Clouds 3 1021 51 10000 1.54 170 23:00 02.03.2022
5042 Clouds 3 1021 50 10000 1.54 170 22:40 02.03.2022
5043 Clouds 3 1020 52 10000 1.54 0 21:22 02.03.2022
5044 Clouds 4 1020 45 10000 1.54 150 20:26 02.03.2022
5045 Clouds 5 1020 45 10000 1.03 0 19:41 02.03.2022
5046 Clouds 5 1020 33 10000 1.54 90 19:23 02.03.2022
5047 Clouds 6 1019 33 10000 1.54 120 18:37 02.03.2022
5048 Clouds 8 1019 29 10000 1.54 90 17:45 02.03.2022
5049 Clouds 8 1019 25 10000 3.09 100 16:54 02.03.2022
5050 Clouds 9 1020 30 10000 3.6 70 16:18 02.03.2022
5051 Clear 9 1019 23 10000 1.54 0 14:32 02.03.2022
5052 Clear 9 1021 27 10000 1.03 0 13:18 02.03.2022
5053 Clear 7 1022 28 10000 1.03 0 12:39 02.03.2022
5054 Clear 4 1024 35 10000 3.09 250 11:28 02.03.2022
5055 Clear 3 1024 40 10000 2.06 280 10:58 02.03.2022
5056 Clear 1 1025 49 10000 2.06 270 09:40 02.03.2022
5057 Clear -1 1025 59 10000 2.06 230 08:50 02.03.2022
5058 Clear -5 1025 74 10000 1.03 0 07:25 02.03.2022
5059 Clouds -4 1025 74 10000 3.09 260 05:43 02.03.2022
5060 Clouds -2 1027 64 10000 1.54 250 00:51 02.03.2022
5061 Clouds -2 1027 64 10000 1.03 120 23:40 01.03.2022
5062 Clear -2 1027 64 10000 1.03 0 22:42 01.03.2022
5063 Clear -2 1027 59 10000 1.03 0 21:56 01.03.2022
5064 Clear 1 1026 41 10000 2.57 110 20:56 01.03.2022
5065 Clear 0 1026 44 10000 1.54 110 20:24 01.03.2022
5066 Clear 3 1026 38 10000 1.54 320 19:21 01.03.2022
5067 Clear 4 1026 35 10000 1.54 120 18:32 01.03.2022
5068 Clear 8 1025 25 10000 3.09 80 17:55 01.03.2022
5069 Clear 8 1024 25 10000 2.06 120 16:50 01.03.2022
5070 Clear 9 1024 23 10000 1.03 0 15:51 01.03.2022
5071 Clear 8 1025 27 10000 1.03 0 14:55 01.03.2022
5072 Clear 7 1026 27 10000 1.03 0 14:34 01.03.2022
5073 Clear 6 1027 34 10000 1.54 240 13:27 01.03.2022
5074 Clear 5 1028 40 10000 1.54 280 12:38 01.03.2022
5075 Clear 4 1029 42 10000 1.03 0 11:58 01.03.2022
5076 Clear 1 1031 51 10000 1.03 0 10:26 01.03.2022
5077 Clear -2 1031 63 10000 0.89 135 08:36 01.03.2022
5078 Clear -6 1029 74 10000 4.12 270 07:35 01.03.2022
5079 Clouds -4 1029 59 10000 1.54 80 03:29 01.03.2022
5080 Clouds -3 1029 64 10000 0.51 0 00:59 01.03.2022
5081 Clouds -2 1029 59 10000 1.54 280 23:48 28.02.2022
5082 Clouds -1 1029 64 10000 1.03 0 22:52 28.02.2022
5083 Clouds 0 1029 55 10000 1.03 0 21:48 28.02.2022
5084 Clouds 0 1029 55 10000 1.03 0 21:48 28.02.2022
5085 Clouds 1 1028 55 10000 1.03 0 20:56 28.02.2022
5086 Clouds 3 1028 44 10000 1.54 0 19:52 28.02.2022
5087 Clouds 4 1027 41 10000 3.09 90 19:22 28.02.2022
5088 Clouds 5 1027 38 10000 3.6 70 18:36 28.02.2022
5089 Clouds 5 1027 37 10000 3.13 90 17:23 28.02.2022
5090 Clouds 7 1026 31 10000 1.03 0 16:32 28.02.2022
5091 Clouds 6 1028 38 10000 2.24 90 15:23 28.02.2022
5092 Clouds 5 1028 39 10000 3.6 110 14:30 28.02.2022
5093 Clouds 5 1029 43 10000 2.57 110 13:34 28.02.2022
5094 Clear 4 1030 48 10000 2.24 135 12:37 28.02.2022
5095 Clear 3 1030 50 10000 1.34 322 11:40 28.02.2022
5096 Clear 1 1031 55 10000 1.54 0 10:44 28.02.2022
5097 Clear 1 1031 58 10000 2.06 240 10:19 28.02.2022
5098 Clear -1 1031 69 10000 1.54 270 09:30 28.02.2022
5099 Clear -4 1031 80 10000 1.03 0 08:29 28.02.2022
5100 Clear -6 1031 80 10000 1.03 0 07:19 28.02.2022
5101 Clouds -5 1030 80 10000 0.51 0 04:31 28.02.2022
5102 Clouds -4 1030 80 10000 1.03 0 03:30 28.02.2022
5103 Clear -1 1030 55 10000 1.54 110 23:27 27.02.2022
5104 Clear -2 1030 69 10000 0.51 0 22:33 27.02.2022
5105 Clear -1 1030 69 10000 0.51 0 21:49 27.02.2022
5106 Clear -1 1029 69 10000 1.03 0 20:55 27.02.2022
5107 Clear 0 1029 64 10000 1.03 0 20:27 27.02.2022
5108 Clear 1 1029 60 10000 1.03 0 19:57 27.02.2022
5109 Clear 1 1028 60 10000 1.03 0 19:26 27.02.2022
5110 Clear 3 1028 52 10000 1.54 80 18:40 27.02.2022
5111 Clear 5 1027 42 10000 4.63 100 17:54 27.02.2022
5112 Clear 6 1027 39 10000 4.63 90 16:38 27.02.2022
5113 Clouds 6 1027 36 10000 4.63 90 15:59 27.02.2022
5114 Clouds 5 1029 48 10000 4.12 110 13:21 27.02.2022
5115 Clouds 3 1030 55 10000 3.09 100 12:32 27.02.2022
5116 Clouds 1 1031 64 10000 2.06 110 10:56 27.02.2022
5117 Clouds 1 1030 55 10000 1.54 60 10:18 27.02.2022
5118 Clouds 0 1030 59 10000 1.54 70 09:44 27.02.2022
5119 Clouds 0 1031 59 10000 1.03 0 09:19 27.02.2022
5120 Clouds -4 1030 59 10000 2.57 110 07:34 27.02.2022
5121 Clouds -1 1030 74 10000 2.57 70 05:38 27.02.2022
5122 Clouds -1 1030 80 10000 0.51 0 00:53 27.02.2022
5123 Clouds 1 1031 69 10000 1.54 120 22:58 26.02.2022
5124 Clouds 1 1031 69 10000 3.09 80 21:49 26.02.2022
5125 Clouds 2 1030 64 10000 2.57 70 20:58 26.02.2022
5126 Clouds 2 1030 64 10000 2.57 60 20:20 26.02.2022
5127 Clouds 2 1030 64 10000 3.09 90 19:46 26.02.2022
5128 Clouds 2 1030 64 10000 2.57 80 19:22 26.02.2022
5129 Clouds 4 1029 52 10000 4.12 90 17:46 26.02.2022
5130 Clouds 4 1029 52 10000 3.6 50 16:52 26.02.2022
5131 Clouds 3 1030 57 10000 3.6 90 15:57 26.02.2022
5132 Clouds 4 1031 56 10000 4.63 90 15:23 26.02.2022
5133 Clouds 4 1031 61 10000 3.6 100 14:55 26.02.2022
5134 Clouds 4 1031 62 10000 3.6 100 14:36 26.02.2022
5135 Clouds 3 1032 68 10000 4.12 70 13:24 26.02.2022
5136 Clouds 2 1032 71 10000 0.51 0 12:31 26.02.2022
5137 Clouds 1 1032 84 10000 1.54 280 11:29 26.02.2022
5138 Snow 1 1032 87 10000 1.54 80 10:51 26.02.2022
5139 Clouds 1 1031 89 6000 2.57 80 08:59 26.02.2022
5140 Mist 1 1030 93 4000 1.54 60 07:43 26.02.2022
5141 Clouds 1 1028 80 4800 1.54 50 01:53 26.02.2022
5142 Clouds 2 1026 48 10000 1.54 150 22:57 25.02.2022
5143 Clouds 2 1026 48 10000 5.14 290 21:48 25.02.2022
5144 Clouds 2 1026 48 10000 2.57 160 21:29 25.02.2022
5145 Clouds 3 1026 41 10000 3.6 330 20:33 25.02.2022
5146 Clouds 4 1025 35 10000 4.12 300 19:39 25.02.2022
5147 Clouds 6 1024 22 10000 5.14 270 17:33 25.02.2022
5148 Clouds 5 1023 24 10000 7.72 260 16:45 25.02.2022
5149 Clouds 7 1022 18 10000 8.75 250 15:48 25.02.2022
5150 Clouds 7 1023 29 10000 2.57 0 15:23 25.02.2022
5151 Clouds 4 1025 46 10000 1.34 90 14:45 25.02.2022
5152 Clouds 5 1024 44 10000 2.57 150 14:18 25.02.2022
5153 Clouds 5 1023 49 10000 3.09 0 13:20 25.02.2022
5154 Clouds 4 1024 49 10000 3.09 0 13:20 25.02.2022
5155 Clouds 3 1025 65 10000 3.09 60 11:39 25.02.2022
5156 Clouds 3 1025 70 10000 2.24 45 11:18 25.02.2022
5157 Clouds 2 1024 72 10000 2.68 68 10:23 25.02.2022
5158 Clouds 2 1023 74 10000 1.34 304 09:35 25.02.2022
5159 Clouds 2 1022 83 10000 3.09 70 07:47 25.02.2022
5160 Clouds 1 1022 79 10000 3.6 100 06:45 25.02.2022
5161 Snow 0 1024 97 126 1.4 2 05:37 25.02.2022
5162 Clouds 3 1017 70 10000 1.03 0 00:31 25.02.2022
5163 Clear 4 1016 60 10000 1.54 300 22:29 24.02.2022
5164 Clear 5 1016 56 10000 0.51 0 21:43 24.02.2022
5165 Clear 5 1016 56 10000 0.51 0 21:43 24.02.2022
5166 Clear 6 1016 49 10000 0.51 0 21:21 24.02.2022
5167 Clear 7 1015 46 10000 3.09 250 20:42 24.02.2022
5168 Clear 10 1014 32 10000 3.6 150 19:29 24.02.2022
5169 Clear 11 1014 28 10000 6.17 150 18:20 24.02.2022
5170 Clear 12 1014 28 10000 6.69 140 17:51 24.02.2022
5171 Clear 12 1014 28 10000 5.66 140 17:18 24.02.2022
5172 Clouds 11 1017 92 10000 0.7 222 16:25 24.02.2022
5173 Clouds 12 1017 92 10000 0.7 222 15:41 24.02.2022
5174 Clouds 12 1016 84 10000 1.16 209 14:44 24.02.2022
5175 Clouds 11 1017 82 10000 1.47 195 13:51 24.02.2022
5176 Clear 13 1017 35 10000 3.6 230 13:30 24.02.2022
5177 Clear 8 1019 52 10000 6.69 270 11:32 24.02.2022
5178 Clear 4 1020 65 10000 4.63 270 10:31 24.02.2022
5179 Clear 3 1022 69 10000 2.06 0 08:43 24.02.2022
5180 Clear -1 1022 82 10000 3.09 290 06:28 24.02.2022
5181 Clouds -1 1023 81 10000 4.63 280 05:37 24.02.2022
5182 Clouds -1 1024 87 10000 1.54 0 00:30 24.02.2022
5183 Clear 1 1025 86 10000 1.03 0 22:19 23.02.2022
5184 Clear 3 1025 81 10000 1.03 0 20:44 23.02.2022
5185 Clear 3 1025 81 10000 1.03 0 20:23 23.02.2022
5186 Clear 5 1026 75 10000 1.03 0 19:34 23.02.2022
5187 Clear 8 1026 66 10000 2.06 100 18:22 23.02.2022
5188 Clouds 10 1026 58 10000 3.6 80 16:27 23.02.2022
5189 Clouds 9 1027 62 10000 4.63 110 13:45 23.02.2022
5190 Clouds 8 1028 71 10000 3.6 100 12:31 23.02.2022
5191 Clouds 5 1029 88 10000 2.57 70 10:56 23.02.2022
5192 Clouds 5 1028 89 10000 2.57 90 09:49 23.02.2022
5193 Clouds 2 1028 90 10000 1.03 0 08:54 23.02.2022
5194 Clouds 2 1026 87 10000 0.51 0 07:53 23.02.2022
5195 Clouds 3 1023 81 10000 1.03 0 02:31 23.02.2022
5196 Clouds 4 1023 75 10000 2.57 120 00:18 23.02.2022
5197 Clouds 4 1023 75 10000 2.06 60 23:33 22.02.2022
5198 Rain 5 1023 70 10000 1.54 110 22:28 22.02.2022
5199 Clouds 5 1022 70 10000 1.03 0 21:44 22.02.2022
5200 Clouds 5 1022 70 10000 1.54 70 21:21 22.02.2022
5201 Clouds 5 1022 70 10000 2.57 90 20:41 22.02.2022
5202 Clouds 5 1022 70 10000 1.54 100 20:22 22.02.2022
5203 Clouds 6 1022 65 10000 2.06 80 19:34 22.02.2022
5204 Clouds 6 1022 65 10000 3.6 100 18:35 22.02.2022
5205 Clouds 6 1023 51 10000 5.66 290 17:34 22.02.2022
5206 Clouds 9 1022 34 10000 6.17 280 16:56 22.02.2022
5207 Clouds 7 1022 49 10000 8.23 280 16:21 22.02.2022
5208 Clouds 7 1022 47 10000 7.72 280 15:30 22.02.2022
5209 Clouds 7 1023 50 10000 6.69 290 14:28 22.02.2022
5210 Clouds 5 1022 62 10000 12.35 260 11:39 22.02.2022
5211 Rain 3 1021 71 10000 8.23 290 09:45 22.02.2022
5212 Clouds 3 1018 79 10000 7.72 250 07:30 22.02.2022
5213 Clouds 2 1017 77 10000 3.09 250 06:54 22.02.2022
5214 Clouds 2 1014 93 10000 3.09 80 02:51 22.02.2022
5215 Clouds 4 1012 70 10000 2.06 0 23:18 21.02.2022
5216 Clouds 3 1012 78 10000 6.69 250 22:37 21.02.2022
5217 Clouds 4 1010 56 10000 5.66 270 21:21 21.02.2022
5218 Clouds 5 1008 49 10000 9.77 280 18:56 21.02.2022
5219 Clouds 5 1008 49 10000 9.77 280 18:37 21.02.2022
5220 Clouds 8 1007 40 10000 11.32 280 16:30 21.02.2022
5221 Clouds 6 1009 56 10000 2.29 303 14:23 21.02.2022
5222 Clouds 7 1008 49 10000 11.32 280 13:31 21.02.2022
5223 Clouds 6 1009 59 10000 10.29 290 12:46 21.02.2022
5224 Clouds 5 1010 68 10000 8.75 280 12:21 21.02.2022
5225 Rain 2 1010 86 10000 5.14 220 10:29 21.02.2022
5226 Clear 2 1004 72 10000 1.03 0 07:48 21.02.2022
5227 Clouds 2 1012 72 10000 2.57 260 00:35 21.02.2022
5228 Clouds 2 1014 72 10000 1.03 0 22:32 20.02.2022
5229 Clouds 4 1014 70 10000 1.03 0 21:44 20.02.2022
5230 Clouds 4 1014 70 10000 0.51 0 21:24 20.02.2022
5231 Clouds 5 1014 65 10000 0.51 0 20:43 20.02.2022
5232 Clouds 6 1015 56 10000 1.54 70 19:51 20.02.2022
5233 Clouds 8 1015 46 10000 1.54 310 18:56 20.02.2022
5234 Clouds 8 1015 46 10000 1.54 310 18:36 20.02.2022
5235 Clouds 12 1015 37 10000 4.12 220 17:55 20.02.2022
5236 Clouds 12 1015 35 10000 3.6 230 17:23 20.02.2022
5237 Clouds 12 1016 38 10000 1.54 0 15:27 20.02.2022
5238 Clouds 11 1018 37 10000 1.54 0 13:59 20.02.2022
5239 Clouds 8 1019 50 10000 1.03 0 12:45 20.02.2022
5240 Clouds 6 1021 58 10000 1.54 0 11:50 20.02.2022
5241 Clouds 4 1021 69 10000 2.06 110 10:21 20.02.2022
5242 Clouds 2 1021 77 10000 1.03 0 09:24 20.02.2022
5243 Clouds -1 1020 86 10000 1.54 70 06:28 20.02.2022
5244 Clouds -2 1020 85 10000 2.24 293 00:32 20.02.2022
5245 Clear 0 1020 80 10000 0.51 0 23:32 19.02.2022
5246 Clear 0 1020 80 10000 0.51 0 22:24 19.02.2022
5247 Clear 0 1019 80 10000 0.51 0 21:45 19.02.2022
5248 Clouds 3 1019 65 10000 0.51 0 20:26 19.02.2022
5249 Clouds 3 1019 65 10000 0.51 0 19:34 19.02.2022
5250 Clouds 5 1018 56 10000 1.54 110 18:39 19.02.2022
5251 Clouds 6 1018 49 10000 3.09 90 17:54 19.02.2022
5252 Clouds 7 1018 49 10000 4.63 80 16:47 19.02.2022
5253 Clouds 7 1018 49 10000 4.63 80 15:59 19.02.2022
5254 Clouds 8 1017 46 10000 4.63 80 14:53 19.02.2022
5255 Clouds 6 1020 88 10000 1.24 29 13:55 19.02.2022
5256 Clouds 7 1018 57 10000 3.6 80 11:42 19.02.2022
5257 Clouds 6 1018 80 10000 1.54 0 10:48 19.02.2022
5258 Clouds 4 1017 93 10000 1.03 0 08:56 19.02.2022
5259 Clouds 4 1016 89 10000 2.06 100 06:45 19.02.2022
5260 Clouds 5 1008 75 10000 4.63 280 00:23 19.02.2022
5261 Clouds 3 1008 76 10000 4.63 270 22:24 18.02.2022
5262 Clouds 6 1007 70 10000 4.63 240 21:18 18.02.2022
5263 Clouds 6 1007 65 10000 2.57 0 19:56 18.02.2022
5264 Clouds 6 1007 68 10000 1.03 0 18:51 18.02.2022
5265 Clouds 6 1007 62 10000 1.54 270 18:25 18.02.2022
5266 Clouds 8 1007 53 10000 2.57 260 17:56 18.02.2022
5267 Clouds 11 1008 50 10000 4.63 270 15:57 18.02.2022
5268 Clouds 9 1010 56 10000 3.09 270 13:56 18.02.2022
5269 Rain 10 1011 57 10000 2.06 270 13:32 18.02.2022
5270 Clouds 10 1012 60 10000 2.06 280 12:48 18.02.2022
5271 Clouds 8 1013 67 10000 2.57 260 11:56 18.02.2022
5272 Rain 6 1014 71 10000 1.54 70 10:42 18.02.2022
5273 Clouds 1 1016 93 10000 1.03 0 06:58 18.02.2022
5274 Clouds 3 1016 87 10000 0.51 0 05:42 18.02.2022
5275 Clouds 6 1016 87 10000 0.51 0 23:53 17.02.2022
5276 Rain 8 1015 66 10000 10.29 280 21:56 17.02.2022
5277 Clouds 10 1014 54 10000 12.86 270 21:27 17.02.2022
5278 Clouds 10 1013 54 10000 10.8 280 20:40 17.02.2022
5279 Clouds 12 1011 35 10000 10.29 280 19:54 17.02.2022
5280 Clouds 14 1010 35 10000 11.32 280 18:57 17.02.2022
5281 Clouds 14 1009 38 10000 9.26 280 17:59 17.02.2022
5282 Clouds 14 1009 41 10000 15.95 280 16:43 17.02.2022
5283 Clouds 17 1008 29 10000 14.92 280 15:40 17.02.2022
5284 Clouds 16 1007 29 10000 13.38 280 14:28 17.02.2022
5285 Clouds 16 1006 36 10000 12.86 290 12:51 17.02.2022
5286 Clouds 10 1007 66 10000 1.54 140 11:30 17.02.2022
5287 Clouds 6 1008 83 10000 1.54 0 09:30 17.02.2022
5288 Clouds 4 1008 86 10000 2.57 260 04:41 17.02.2022
5289 Clouds 3 1012 84 10000 1.79 158 23:21 16.02.2022
5290 Clouds 4 1013 82 10000 2.24 147 21:45 16.02.2022
5291 Clouds 3 1012 85 10000 2.57 270 20:19 16.02.2022
5292 Clouds 4 1013 78 10000 3.6 290 18:43 16.02.2022
5293 Clouds 5 1013 75 10000 3.6 260 17:53 16.02.2022
5294 Clouds 6 1013 71 10000 4.12 260 15:55 16.02.2022
5295 Clouds 5 1013 69 10000 4.12 270 15:19 16.02.2022
5296 Rain 5 1014 67 10000 5.14 270 13:31 16.02.2022
5297 Clouds 4 1014 73 10000 5.14 260 12:20 16.02.2022
5298 Clouds 4 1015 79 10000 4.12 260 11:31 16.02.2022
5299 Clouds 2 1016 88 10000 3.09 290 10:34 16.02.2022
5300 Clouds -1 1016 100 10000 2.06 250 08:24 16.02.2022
5301 Clouds 0 1017 93 10000 0.51 0 06:43 16.02.2022
5302 Mist 1 1018 100 4600 0.51 0 23:45 15.02.2022
5303 Clouds 0 1019 98 4500 1.54 240 22:34 15.02.2022
5304 Clouds 0 1019 98 3200 1.03 0 21:49 15.02.2022
5305 Clouds 0 1019 98 3000 0.51 0 21:29 15.02.2022
5306 Clouds 0 1018 98 5000 0.51 0 20:56 15.02.2022
5307 Clouds 2 1018 95 6000 1.03 50 19:59 15.02.2022
5308 Clouds 3 1017 94 5000 1.54 100 19:26 15.02.2022
5309 Clouds 3 1016 94 5000 1.03 60 18:24 15.02.2022
5310 Clouds 3 1016 94 5000 1.03 0 17:52 15.02.2022
5311 Clouds 3 1016 93 7000 1.03 150 17:21 15.02.2022
5312 Clouds 3 1015 93 6000 0.51 0 15:34 15.02.2022
5313 Snow 2 1015 93 2000 0.51 0 13:29 15.02.2022
5314 Mist 2 1015 93 3000 0.51 0 12:59 15.02.2022
5315 Mist 2 1015 93 3000 0.51 0 11:40 15.02.2022
5316 Snow 1 1015 92 3000 0.51 0 09:52 15.02.2022
5317 Clouds 0 1014 85 7000 5.14 270 07:00 15.02.2022
5318 Clouds 0 1013 73 10000 3.6 260 06:19 15.02.2022
5319 Clouds 1 1010 60 10000 3.6 260 23:34 14.02.2022
5320 Clouds 2 1010 56 10000 3.09 250 21:55 14.02.2022
5321 Clouds 2 1010 56 10000 4.12 240 20:51 14.02.2022
5322 Clouds 2 1010 55 10000 2.57 270 19:45 14.02.2022
5323 Clouds 4 1010 45 10000 1.54 250 19:26 14.02.2022
5324 Clouds 8 1009 31 10000 3.6 70 18:23 14.02.2022
5325 Clouds 9 1008 29 10000 4.12 0 17:27 14.02.2022
5326 Clouds 9 1009 25 10000 2.06 230 16:26 14.02.2022
5327 Clouds 9 1010 25 10000 5.14 270 14:43 14.02.2022
5328 Clouds 8 1011 25 10000 5.14 280 13:34 14.02.2022
5329 Clouds 6 1014 33 10000 5.14 270 12:56 14.02.2022
5330 Clouds 4 1015 38 10000 6.17 270 11:55 14.02.2022
5331 Clouds 3 1015 40 10000 5.66 270 11:18 14.02.2022
5332 Clouds -2 1017 60 10000 2.06 250 09:25 14.02.2022
5333 Clear -5 1016 74 10000 4.12 260 07:33 14.02.2022
5334 Clear -5 1016 74 10000 4.12 270 06:54 14.02.2022
5335 Clear -3 1017 64 10000 3.6 290 22:44 13.02.2022
5336 Clear -3 1017 59 10000 4.12 260 22:26 13.02.2022
5337 Clear -3 1017 59 10000 4.63 260 21:48 13.02.2022
5338 Clear -1 1017 59 10000 2.57 270 20:42 13.02.2022
5339 Clear -1 1017 51 10000 2.06 260 19:57 13.02.2022
5340 Clear 0 1017 51 10000 1.54 0 18:57 13.02.2022
5341 Clear 0 1017 51 10000 1.54 0 18:38 13.02.2022
5342 Clear 4 1017 26 10000 2.06 260 16:40 13.02.2022
5343 Clear 6 1019 27 10000 2.57 270 15:50 13.02.2022
5344 Clear 7 1020 28 10000 3.09 280 14:38 13.02.2022
5345 Clear 5 1021 32 10000 3.6 270 13:26 13.02.2022
5346 Clear 3 1024 38 10000 3.6 270 12:40 13.02.2022
5347 Clear 1 1025 50 10000 3.09 270 10:40 13.02.2022
5348 Clear -1 1026 59 10000 1.54 250 09:49 13.02.2022
5349 Clear -6 1028 73 10000 1.03 270 08:33 13.02.2022
5350 Clouds -5 1027 80 10000 0.51 0 01:26 13.02.2022
5351 Clouds -4 1027 74 10000 0.51 0 00:21 13.02.2022
5352 Clouds -4 1027 68 10000 0.51 0 22:34 12.02.2022
5353 Clouds -4 1027 68 10000 1.03 0 22:00 12.02.2022
5354 Clear -2 1027 69 10000 1.54 280 20:55 12.02.2022
5355 Clear -1 1027 59 10000 1.03 0 19:56 12.02.2022
5356 Clear 0 1026 59 10000 1.03 0 18:54 12.02.2022
5357 Clear 0 1026 59 10000 1.03 0 18:36 12.02.2022
5358 Clear 3 1026 38 10000 4.63 270 17:39 12.02.2022
5359 Clear 3 1026 36 10000 4.63 270 16:46 12.02.2022
5360 Clear 4 1027 35 10000 5.66 260 15:53 12.02.2022
5361 Clear 4 1027 34 10000 5.14 260 15:20 12.02.2022
5362 Clear 5 1029 38 10000 5.66 260 14:25 12.02.2022
5363 Clear 2 1031 52 10000 4.12 270 11:33 12.02.2022
5364 Clear -1 1033 64 10000 3.6 270 10:32 12.02.2022
5365 Clear -3 1034 74 10000 2.06 260 09:37 12.02.2022
5366 Clear -6 1034 82 10000 0.51 0 08:47 12.02.2022
5367 Clouds -6 1033 86 10000 1.03 0 07:45 12.02.2022
5368 Clouds -4 1033 93 10000 1.03 0 04:50 12.02.2022
5369 Clouds -3 1033 86 10000 0.51 0 02:19 12.02.2022
5370 Clouds -1 1034 74 10000 1.03 0 23:34 11.02.2022
5371 Clouds -1 1033 80 10000 1.54 80 22:23 11.02.2022
5372 Clouds -1 1033 80 10000 1.03 0 21:35 11.02.2022
5373 Clouds 0 1032 80 10000 1.54 0 20:29 11.02.2022
5374 Clouds 1 1031 80 10000 1.54 140 19:29 11.02.2022
5375 Clouds 1 1030 80 10000 2.57 190 18:44 11.02.2022
5376 Clouds 4 1029 65 10000 1.03 0 17:27 11.02.2022
5377 Clouds 4 1028 65 10000 2.57 170 16:47 11.02.2022
5378 Clouds 4 1029 76 10000 2.68 68 15:22 11.02.2022
5379 Clouds 4 1028 82 10000 1.03 0 14:38 11.02.2022
5380 Clouds 4 1028 83 10000 1.03 0 14:19 11.02.2022
5381 Clouds 3 1028 88 10000 1.54 160 13:47 11.02.2022
5382 Clouds 3 1028 90 10000 0.89 310 13:28 11.02.2022
5383 Snow 2 1028 91 6000 1.03 0 11:23 11.02.2022
5384 Snow 1 1026 89 2000 1.03 0 09:37 11.02.2022
5385 Clouds -1 1024 87 10000 1.54 280 08:35 11.02.2022
5386 Clouds 0 1021 86 10000 2.57 120 07:46 11.02.2022
5387 Clouds 0 1021 86 10000 2.57 120 07:46 11.02.2022
5388 Clouds 0 1021 86 10000 1.54 140 06:24 11.02.2022
5389 Clouds -1 1023 86 10000 1.54 160 02:22 11.02.2022
5390 Clouds -2 1024 93 10000 0.51 0 23:48 10.02.2022
5391 Clear -1 1024 86 10000 1.03 0 22:33 10.02.2022
5392 Clear 0 1023 80 10000 0.51 0 21:42 10.02.2022
5393 Clear -1 1024 83 10000 1.03 0 20:50 10.02.2022
5394 Clear 0 1023 80 10000 1.03 0 19:56 10.02.2022
5395 Clear 2 1023 69 10000 1.03 0 19:22 10.02.2022
5396 Clear 2 1023 75 10000 0.51 0 18:33 10.02.2022
5397 Clear 5 1023 64 10000 2.06 140 17:23 10.02.2022
5398 Clear 6 1023 57 10000 1.54 160 16:43 10.02.2022
5399 Clear 7 1023 52 10000 1.54 160 15:41 10.02.2022
5400 Clear 8 1023 51 10000 1.54 260 15:21 10.02.2022
5401 Clouds 7 1023 52 10000 1.03 0 14:35 10.02.2022
5402 Clear 7 1024 54 10000 1.03 0 13:56 10.02.2022
5403 Clear 6 1025 56 10000 1.03 0 13:19 10.02.2022
5404 Clear 5 1026 63 10000 1.03 0 11:53 10.02.2022
5405 Clear 3 1027 72 10000 1.03 0 11:32 10.02.2022
5406 Clear 5 1026 64 10000 1.03 0 11:32 10.02.2022
5407 Clear 0 1027 86 10000 1.03 0 10:25 10.02.2022
5408 Clear -1 1027 93 10000 1.03 0 09:46 10.02.2022
5409 Clouds -4 1027 93 10000 1.03 0 08:42 10.02.2022
5410 Clear -5 1027 94 10000 1.03 0 06:33 10.02.2022
5411 Clouds -5 1028 98 10000 0.51 0 03:21 10.02.2022
5412 Clouds -4 1028 98 10000 0.51 0 00:56 10.02.2022
5413 Clouds -4 1028 98 10000 0.51 0 00:38 10.02.2022
5414 Clouds -4 1028 94 10000 1.03 0 00:20 10.02.2022
5415 Clear -1 1028 93 10000 1.03 180 22:56 09.02.2022
5416 Clear -3 1029 93 10000 1.03 180 22:33 09.02.2022
5417 Clear -2 1029 93 10000 1.03 0 21:47 09.02.2022
5418 Clear -2 1029 93 10000 2.06 280 21:27 09.02.2022
5419 Clear -1 1029 89 10000 0.51 0 20:44 09.02.2022
5420 Clear -1 1029 89 10000 0.51 0 20:44 09.02.2022
5421 Clear -1 1030 90 10000 0.51 0 20:22 09.02.2022
5422 Clear 0 1030 90 10000 0.51 0 19:42 09.02.2022
5423 Clear 0 1029 84 10000 1.54 280 18:38 09.02.2022
5424 Clear 5 1029 69 10000 2.57 90 16:57 09.02.2022
5425 Clear 5 1029 68 10000 3.6 70 16:20 09.02.2022
5426 Clear 8 1029 60 10000 1.54 180 15:24 09.02.2022
5427 Clear 7 1030 62 10000 2.06 280 12:53 09.02.2022
5428 Clear 6 1031 70 10000 1.03 0 11:36 09.02.2022
5429 Clear 1 1032 86 10000 1.03 0 10:35 09.02.2022
5430 Clear -1 1032 93 10000 0.51 0 09:53 09.02.2022
5431 Clear -3 1033 100 10000 0.51 0 09:22 09.02.2022
5432 Clouds -4 1033 93 10000 0.51 0 08:46 09.02.2022
5433 Fog -4 1033 94 6000 0.51 0 06:52 09.02.2022
5434 Clouds -4 1034 94 10000 0.51 0 04:30 09.02.2022
5435 Clouds -4 1034 94 10000 0.51 0 03:48 09.02.2022
5436 Clouds -4 1034 94 10000 0.51 0 23:45 08.02.2022
5437 Clear -2 1035 91 10000 1.03 0 23:19 08.02.2022
5438 Clear -2 1035 91 10000 1.03 0 23:19 08.02.2022
5439 Clear -3 1034 94 10000 0.51 0 22:38 08.02.2022
5440 Clear -3 1034 94 10000 0.51 0 22:19 08.02.2022
5441 Clear -3 1034 93 10000 1.03 0 21:22 08.02.2022
5442 Clear -2 1034 93 10000 1.03 0 20:58 08.02.2022
5443 Clear 0 1034 91 10000 1.03 0 20:37 08.02.2022
5444 Clear 0 1034 91 10000 1.03 0 20:37 08.02.2022
5445 Clear -1 1033 89 10000 1.03 0 19:27 08.02.2022
5446 Clear 1 1033 85 10000 1.03 0 18:19 08.02.2022
5447 Clouds 3 1033 77 10000 1.54 170 17:30 08.02.2022
5448 Clouds 5 1033 67 10000 1.03 0 15:47 08.02.2022
5449 Clouds 4 1033 64 10000 1.03 0 14:58 08.02.2022
5450 Clouds 3 1034 68 10000 0.89 293 13:50 08.02.2022
5451 Clouds 3 1035 76 10000 0.51 0 12:24 08.02.2022
5452 Clouds 0 1036 80 10000 0.89 158 10:49 08.02.2022
5453 Clouds -2 1036 89 10000 1.54 300 09:48 08.02.2022
5454 Clouds -3 1035 93 10000 0.51 0 08:39 08.02.2022
5455 Clouds -4 1034 93 10000 0.51 0 06:38 08.02.2022
5456 Clouds -3 1033 93 10000 1.54 70 04:40 08.02.2022
5457 Clouds -4 1033 100 10000 0.51 0 04:22 08.02.2022
5458 Clouds -4 1033 93 10000 0.51 0 03:36 08.02.2022
5459 Clouds -4 1033 93 10000 0.51 0 03:18 08.02.2022
5460 Clouds -4 1032 93 10000 0.51 0 02:59 08.02.2022
5461 Clouds -4 1032 93 10000 0.51 0 02:36 08.02.2022
5462 Clouds -4 1032 93 10000 0.51 0 02:18 08.02.2022
5463 Clouds -3 1032 93 10000 0.51 0 01:44 08.02.2022
5464 Clouds -4 1032 93 10000 0.51 0 01:25 08.02.2022
5465 Clouds -3 1032 93 10000 0.51 0 01:25 08.02.2022
5466 Clouds -4 1031 93 10000 0.51 0 00:55 08.02.2022
5467 Clouds -2 1031 93 10000 0.51 0 00:21 08.02.2022
5468 Clouds -2 1030 93 10000 0.51 0 23:44 07.02.2022
5469 Clouds -2 1030 93 10000 1.03 0 23:18 07.02.2022
5470 Clouds -1 1030 93 10000 1.03 0 22:59 07.02.2022
5471 Clouds 0 1030 86 10000 0.51 0 22:19 07.02.2022
5472 Clouds 0 1029 86 10000 0.51 0 21:50 07.02.2022
5473 Clouds 0 1029 86 10000 2.06 80 21:27 07.02.2022
5474 Clouds 0 1028 93 10000 2.06 0 20:45 07.02.2022
5475 Clouds 0 1028 93 10000 3.6 90 20:27 07.02.2022
5476 Clouds 0 1027 93 10000 2.57 0 19:47 07.02.2022
5477 Clouds 2 1026 64 10000 4.63 230 18:35 07.02.2022
5478 Clouds 2 1025 77 10000 5.14 250 17:18 07.02.2022
5479 Clouds 1 1026 82 10000 10.8 270 16:46 07.02.2022
5480 Clouds 1 1025 80 10000 11.83 270 15:48 07.02.2022
5481 Snow 1 1023 85 4000 11.83 270 13:51 07.02.2022
5482 Clouds 1 1021 83 4000 13.38 270 13:26 07.02.2022
5483 Snow 0 1021 85 6000 7.72 250 11:58 07.02.2022
5484 Clouds 0 1020 85 6000 7.72 250 11:38 07.02.2022
5485 Clouds 0 1019 85 8000 13.38 260 10:59 07.02.2022
5486 Snow 0 1019 85 8000 13.38 260 10:41 07.02.2022
5487 Clouds 0 1019 88 8000 7.72 250 10:22 07.02.2022
5488 Clouds 1 1017 90 8000 9.26 240 09:47 07.02.2022
5489 Clouds 1 1016 87 5000 9.26 240 09:18 07.02.2022
5490 Clouds 1 1014 90 8000 8.75 250 07:35 07.02.2022
5491 Snow 1 1012 93 3500 9.26 250 06:34 07.02.2022
5492 Rain 2 1009 89 2300 9.26 30 04:22 07.02.2022
5493 Rain 4 1006 91 9000 1.03 0 01:37 07.02.2022
5494 Rain 4 1007 78 10000 1.54 310 23:51 06.02.2022
5495 Rain 4 1008 69 10000 4.63 250 23:19 06.02.2022
5496 Rain 5 1007 65 10000 5.14 250 22:39 06.02.2022
5497 Clouds 2 1010 69 10000 1.03 0 21:37 06.02.2022
5498 Rain 3 1010 69 10000 2.57 280 21:18 06.02.2022
5499 Rain 2 1011 63 10000 2.06 100 20:37 06.02.2022
5500 Clouds 2 1012 67 10000 2.06 80 19:50 06.02.2022
5501 Clouds 1 1012 59 10000 3.6 90 18:54 06.02.2022
5502 Clouds 3 1011 56 10000 3.09 80 18:27 06.02.2022
5503 Clouds 2 1011 59 10000 2.57 80 17:29 06.02.2022
5504 Clouds 2 1012 61 10000 1.54 70 16:50 06.02.2022
5505 Clouds 4 1013 49 10000 1.03 0 15:51 06.02.2022
5506 Clouds 4 1013 50 10000 1.03 0 15:28 06.02.2022
5507 Clouds 4 1014 50 10000 0.51 0 14:59 06.02.2022
5508 Clear 5 1015 50 10000 1.03 0 13:57 06.02.2022
5509 Clear 5 1016 52 10000 1.03 0 13:20 06.02.2022
5510 Clear 4 1018 57 10000 1.03 0 11:45 06.02.2022
5511 Clear 2 1020 68 10000 1.03 0 10:33 06.02.2022
5512 Clear -2 1022 82 10000 0.51 0 09:29 06.02.2022
5513 Clear -3 1023 84 10000 0.51 0 08:41 06.02.2022
5514 Clear -6 1022 93 10000 0.51 0 06:27 06.02.2022
5515 Clouds -4 1022 86 10000 1.03 0 05:27 06.02.2022
5516 Clouds -3 1024 86 10000 1.03 0 02:25 06.02.2022
5517 Clouds -3 1024 86 10000 0.51 0 00:30 06.02.2022
5518 Clear -3 1025 86 10000 0.51 0 23:27 05.02.2022
5519 Clear -2 1025 80 10000 1.03 0 21:43 05.02.2022
5520 Clear -1 1025 86 10000 1.03 0 20:26 05.02.2022
5521 Clear 0 1024 80 10000 0.51 0 19:51 05.02.2022
5522 Clear -1 1024 80 10000 1.03 0 19:33 05.02.2022
5523 Clear 1 1023 75 10000 1.03 0 18:26 05.02.2022
5524 Clear 3 1023 70 10000 1.03 0 17:34 05.02.2022
5525 Clear 5 1023 56 10000 4.12 60 15:43 05.02.2022
5526 Clear 6 1022 52 10000 3.6 60 15:25 05.02.2022
5527 Clouds 4 1023 63 10000 3.6 70 13:24 05.02.2022
5528 Clouds 5 1024 73 10000 3.6 90 12:42 05.02.2022
5529 Clouds 4 1023 85 10000 3.09 70 11:18 05.02.2022
5530 Clouds 3 1024 91 10000 2.06 100 10:43 05.02.2022
5531 Clouds 2 1023 94 10000 2.06 100 09:49 05.02.2022
5532 Clouds 1 1021 93 10000 2.57 260 08:21 05.02.2022
5533 Clouds 1 1020 100 5000 1.54 270 06:58 05.02.2022
5534 Clouds 1 1019 93 10000 1.54 110 05:38 05.02.2022
5535 Clouds 0 1017 93 10000 1.03 150 01:47 05.02.2022
5536 Clouds 0 1017 93 10000 0.51 0 01:18 05.02.2022
5537 Clouds 0 1017 100 10000 1.03 0 00:36 05.02.2022
5538 Clouds 0 1017 93 10000 2.06 70 23:33 04.02.2022
5539 Clear -2 1017 94 10000 0.51 0 22:28 04.02.2022
5540 Clear -2 1016 98 10000 1.03 0 21:36 04.02.2022
5541 Clear -1 1016 94 10000 0.51 0 21:18 04.02.2022
5542 Clear -1 1016 94 10000 1.03 0 20:21 04.02.2022
5543 Clear 0 1015 93 10000 1.03 0 18:27 04.02.2022
5544 Clear 4 1015 81 10000 1.03 0 15:57 04.02.2022
5545 Clouds 5 1015 83 10000 2.57 80 14:56 04.02.2022
5546 Clouds 4 1015 86 10000 2.06 120 14:24 04.02.2022
5547 Mist 3 1017 89 5000 2.06 90 12:43 04.02.2022
5548 Fog 4 1017 87 2500 2.57 80 11:43 04.02.2022
5549 Fog 4 1017 86 800 2.06 70 10:48 04.02.2022
5550 Fog -2 1018 99 400 0.51 0 08:50 04.02.2022
5551 Fog -2 1017 100 500 1.03 0 06:58 04.02.2022
5552 Mist 0 1017 100 2300 1.03 0 02:54 04.02.2022
5553 Fog 0 1017 100 500 2.06 250 02:20 04.02.2022
5554 Clouds 1 1017 93 10000 1.03 0 23:32 03.02.2022
5555 Clouds 0 1018 98 10000 1.03 0 22:48 03.02.2022
5556 Clouds 1 1019 98 10000 1.03 0 21:50 03.02.2022
5557 Clear 1 1019 93 10000 0.51 0 20:43 03.02.2022
5558 Clear 2 1019 97 10000 1.03 0 20:20 03.02.2022
5559 Clear 2 1018 93 10000 1.03 0 19:34 03.02.2022
5560 Clear 3 1019 93 10000 0.51 0 18:48 03.02.2022
5561 Clouds 3 1018 92 10000 0.51 0 17:47 03.02.2022
5562 Clouds 6 1019 85 10000 2.57 270 16:39 03.02.2022
5563 Clouds 6 1020 85 10000 3.09 260 14:54 03.02.2022
5564 Clouds 5 1021 86 10000 4.63 260 13:18 03.02.2022
5565 Clouds 5 1023 91 10000 2.06 260 11:43 03.02.2022
5566 Mist 1 1025 94 3000 1.03 330 08:40 03.02.2022
5567 Drizzle 2 1024 93 3000 0.51 0 07:20 03.02.2022
5568 Clouds 3 1024 93 6000 1.54 160 00:33 03.02.2022
5569 Clouds 2 1025 94 6000 1.54 0 23:45 02.02.2022
5570 Clouds 2 1024 94 10000 1.54 360 22:35 02.02.2022
5571 Clouds 2 1024 93 8000 1.03 0 21:37 02.02.2022
5572 Clouds 2 1024 93 8000 1.03 0 21:37 02.02.2022
5573 Clouds 3 1023 92 8000 1.54 80 20:56 02.02.2022
5574 Clouds 1 1022 94 10000 1.54 90 19:59 02.02.2022
5575 Clouds 2 1022 93 10000 1.54 90 19:41 02.02.2022
5576 Clouds 3 1021 92 10000 1.03 0 18:53 02.02.2022
5577 Clouds 3 1021 92 10000 2.57 50 18:22 02.02.2022
5578 Clouds 3 1020 90 10000 4.63 80 17:20 02.02.2022
5579 Clouds 3 1020 88 10000 3.09 0 16:46 02.02.2022
5580 Clouds 3 1017 93 10000 1.54 0 13:57 02.02.2022
5581 Drizzle 3 1017 94 10000 2.06 0 12:25 02.02.2022
5582 Clouds 2 1016 96 10000 2.06 100 11:37 02.02.2022
5583 Rain 2 1016 94 10000 1.54 0 10:38 02.02.2022
5584 Rain 0 1014 98 7000 1.54 30 07:40 02.02.2022
5585 Snow 0 1015 98 2600 0.51 0 22:53 01.02.2022
5586 Clouds 1 1015 96 2100 0.51 0 21:55 01.02.2022
5587 Snow 1 1016 93 4000 1.54 60 20:47 01.02.2022
5588 Snow 1 1018 90 10000 2.06 110 17:59 01.02.2022
5589 Clouds 2 1018 86 10000 1.54 100 16:42 01.02.2022
5590 Clouds 1 1020 93 10000 3.6 80 14:56 01.02.2022
5591 Clouds 2 1021 89 10000 1.54 0 12:48 01.02.2022
5592 Clouds 1 1021 92 10000 3.09 0 11:48 01.02.2022
5593 Snow 1 1016 93 2000 6.69 240 06:57 01.02.2022
5594 Snow 1 1013 87 10000 8.23 250 23:53 31.01.2022
5595 Snow 1 1013 89 10000 6.17 240 23:34 31.01.2022
5596 Snow 1 1013 87 10000 8.23 250 23:34 31.01.2022
5597 Snow 1 1012 89 10000 7.2 230 22:26 31.01.2022
5598 Snow 1 1012 88 9000 7.72 230 21:33 31.01.2022
5599 Snow 2 1011 89 5000 7.2 240 20:33 31.01.2022
5600 Snow 2 1011 89 3300 7.2 240 19:46 31.01.2022
5601 Snow 1 1011 82 8000 4.12 240 18:29 31.01.2022
5602 Clouds 2 1009 75 10000 5.14 260 17:46 31.01.2022
5603 Clouds 1 1009 93 10000 2.06 110 16:58 31.01.2022
5604 Clouds 1 1010 93 3500 2.06 100 15:44 31.01.2022
5605 Snow 1 1010 92 800 2.06 70 14:25 31.01.2022
5606 Snow 2 1010 75 4000 1.54 130 12:51 31.01.2022
5607 Clouds 2 1010 61 10000 1.03 0 11:59 31.01.2022
5608 Clouds 1 1010 68 10000 1.03 0 10:54 31.01.2022
5609 Clouds 1 1010 72 10000 1.03 0 10:36 31.01.2022
5610 Clouds -1 1012 75 10000 2.06 80 09:34 31.01.2022
5611 Clouds -1 1011 76 10000 0.51 0 08:52 31.01.2022
5612 Clouds -3 1012 82 10000 1.03 0 08:20 31.01.2022
5613 Clouds -2 1014 74 10000 1.54 190 06:36 31.01.2022
5614 Clouds -2 1015 74 10000 1.03 0 05:24 31.01.2022
5615 Clear -2 1024 72 10000 1.03 0 23:30 30.01.2022
5616 Clear 1 1024 67 10000 0.51 0 22:30 30.01.2022
5617 Clear 1 1024 64 10000 1.03 0 21:44 30.01.2022
5618 Clear 0 1025 62 10000 1.03 0 21:21 30.01.2022
5619 Clear 2 1025 58 10000 0.51 0 20:50 30.01.2022
5620 Clear 2 1025 54 10000 1.03 0 20:30 30.01.2022
5621 Clear 3 1025 51 10000 2.06 0 19:54 30.01.2022
5622 Clear 4 1025 42 10000 1.54 0 18:45 30.01.2022
5623 Clear 5 1024 38 10000 1.03 0 18:21 30.01.2022
5624 Clear 8 1023 29 10000 1.54 0 17:29 30.01.2022
5625 Clear 12 1023 20 10000 3.09 340 16:41 30.01.2022
5626 Clouds 12 1023 22 10000 4.12 280 16:22 30.01.2022
5627 Clouds 12 1023 22 10000 6.17 270 15:53 30.01.2022
5628 Clouds 12 1023 22 10000 6.17 270 15:32 30.01.2022
5629 Clouds 12 1022 21 10000 10.8 270 14:46 30.01.2022
5630 Clouds 10 1022 26 10000 11.32 270 13:36 30.01.2022
5631 Clouds 10 1023 28 10000 11.83 270 12:40 30.01.2022
5632 Clouds 9 1023 35 10000 9.77 270 10:38 30.01.2022
5633 Clouds 4 1025 66 712 0.45 23 09:56 30.01.2022
5634 Clouds 6 1024 56 10000 12.86 280 09:21 30.01.2022
5635 Clouds 3 1023 75 10000 2.57 0 07:56 30.01.2022
5636 Clouds 1 1024 77 10000 2.06 110 02:43 30.01.2022
5637 Clouds 0 1024 76 10000 3.6 90 01:50 30.01.2022
5638 Clouds 0 1025 78 10000 2.06 0 23:30 29.01.2022
5639 Clouds 0 1025 80 10000 1.03 0 22:34 29.01.2022
5640 Clouds -1 1026 80 10000 1.54 0 21:27 29.01.2022
5641 Clouds -1 1026 74 10000 1.03 0 20:48 29.01.2022
5642 Clouds 1 1026 69 10000 1.03 0 19:47 29.01.2022
5643 Clouds 0 1027 69 10000 1.03 0 19:25 29.01.2022
5644 Clouds 0 1027 69 10000 1.03 0 18:32 29.01.2022
5645 Clear 1 1027 66 10000 1.03 0 17:41 29.01.2022
5646 Clear 4 1026 50 10000 1.54 160 16:42 29.01.2022
5647 Clouds 4 1027 52 10000 2.06 100 14:52 29.01.2022
5648 Clouds 5 1029 53 10000 0.51 0 13:46 29.01.2022
5649 Clouds 4 1030 59 10000 1.03 0 13:25 29.01.2022
5650 Clouds 4 1031 62 10000 1.54 110 12:40 29.01.2022
5651 Clouds 4 1030 59 10000 1.03 0 11:38 29.01.2022
5652 Clouds 1 1032 73 10000 0.51 0 10:21 29.01.2022
5653 Clouds -2 1032 82 10000 0.51 0 07:24 29.01.2022
5654 Clouds 0 1034 74 10000 1.54 170 01:35 29.01.2022
5655 Clouds 0 1034 75 10000 1.54 90 00:31 29.01.2022
5656 Clouds 1 1034 75 10000 2.06 110 22:53 28.01.2022
5657 Clouds 1 1034 64 10000 1.54 100 22:29 28.01.2022
5658 Clouds 1 1034 60 10000 2.06 70 21:53 28.01.2022
5659 Clouds 4 1033 38 10000 5.14 270 20:31 28.01.2022
5660 Clouds 4 1033 38 10000 6.69 280 19:44 28.01.2022
5661 Clouds 5 1032 38 10000 6.69 300 18:48 28.01.2022
5662 Clouds 5 1032 38 10000 7.2 260 17:43 28.01.2022
5663 Clouds 2 1031 70 10000 6.17 90 15:45 28.01.2022
5664 Clouds 4 1030 52 10000 7.2 0 14:18 28.01.2022
5665 Clouds 1 1032 72 10000 4.02 68 12:33 28.01.2022
5666 Clouds 1 1033 70 10000 2.24 90 11:38 28.01.2022
5667 Clouds 4 1030 48 10000 9.26 270 10:21 28.01.2022
5668 Clouds 2 1030 75 10000 3.6 120 09:44 28.01.2022
5669 Clouds 0 1029 93 10000 2.06 0 07:39 28.01.2022
5670 Clouds 1 1028 83 10000 1.54 0 05:23 28.01.2022
5671 Rain 0 1027 79 10000 1.03 0 03:47 28.01.2022
5672 Clouds -1 1026 78 10000 4.12 110 02:23 28.01.2022
5673 Clouds -1 1026 78 10000 4.12 90 01:34 28.01.2022
5674 Clouds -2 1025 79 10000 1.03 0 23:33 27.01.2022
5675 Clouds -2 1025 77 10000 1.54 250 21:50 27.01.2022
5676 Clouds -2 1025 79 10000 1.03 0 21:30 27.01.2022
5677 Clouds -2 1025 79 10000 1.03 0 21:30 27.01.2022
5678 Clouds -2 1025 79 10000 0.51 0 20:44 27.01.2022
5679 Clear -1 1025 71 10000 1.03 0 19:30 27.01.2022
5680 Clear 0 1025 65 10000 1.03 0 17:56 27.01.2022
5681 Clear 5 1024 45 10000 1.54 180 15:30 27.01.2022
5682 Clear 4 1025 51 10000 1.03 0 13:37 27.01.2022
5683 Clear 5 1027 53 10000 1.03 0 12:46 27.01.2022
5684 Clear -1 1028 80 10000 0.51 0 10:46 27.01.2022
5685 Clear -5 1029 92 10000 1.03 0 09:19 27.01.2022
5686 Clear -5 1029 92 10000 1.03 0 08:37 27.01.2022
5687 Clouds -6 1030 92 10000 0.51 0 05:59 27.01.2022
5688 Clouds -5 1030 91 10000 1.03 120 02:57 27.01.2022
5689 Clouds -3 1030 86 10000 1.03 0 23:33 26.01.2022
5690 Clear -3 1030 86 10000 1.54 270 22:25 26.01.2022
5691 Clear -3 1030 85 10000 0.51 0 21:36 26.01.2022
5692 Clear -2 1030 82 10000 1.03 0 20:41 26.01.2022
5693 Clear -2 1030 85 10000 0.51 0 20:22 26.01.2022
5694 Clear -2 1030 80 10000 0.51 0 19:20 26.01.2022
5695 Clear -1 1029 76 10000 1.03 0 18:45 26.01.2022
5696 Clear 0 1029 74 10000 2.06 140 17:50 26.01.2022
5697 Clear 1 1028 69 10000 0.51 0 17:23 26.01.2022
5698 Clear 3 1028 63 10000 1.03 160 16:31 26.01.2022
5699 Clear 6 1027 53 10000 1.54 170 15:49 26.01.2022
5700 Clear 6 1029 59 10000 1.54 160 13:58 26.01.2022
5701 Clear 3 1030 67 10000 1.03 0 11:52 26.01.2022
5702 Clear 0 1031 77 10000 1.03 170 10:28 26.01.2022
5703 Clear -2 1031 86 10000 0.51 0 09:46 26.01.2022
5704 Clear -6 1031 93 10000 0.51 0 07:44 26.01.2022
5705 Clouds -4 1032 92 10000 1.03 0 03:31 26.01.2022
5706 Clouds -4 1032 92 10000 1.03 0 23:57 25.01.2022
5707 Clear -4 1032 91 10000 1.03 0 23:19 25.01.2022
5708 Clear -3 1032 91 10000 1.03 0 22:21 25.01.2022
5709 Clear -3 1032 91 10000 0.51 0 21:58 25.01.2022
5710 Clear -3 1032 90 10000 0.51 0 20:47 25.01.2022
5711 Clear -2 1032 86 10000 1.03 0 20:28 25.01.2022
5712 Clear -2 1032 86 10000 1.03 0 20:28 25.01.2022
5713 Clear -2 1032 86 10000 1.03 0 20:28 25.01.2022
5714 Clear -2 1031 85 10000 0.51 0 19:52 25.01.2022
5715 Clear -1 1031 83 10000 0.51 0 18:37 25.01.2022
5716 Clear 1 1031 77 10000 1.03 150 17:44 25.01.2022
5717 Clear 3 1030 70 10000 1.03 170 16:35 25.01.2022
5718 Clear 6 1029 61 10000 1.54 170 15:49 25.01.2022
5719 Clear 6 1030 54 10000 1.54 160 15:31 25.01.2022
5720 Clear 6 1030 56 10000 1.54 160 14:57 25.01.2022
5721 Clear 6 1032 57 10000 1.03 0 13:42 25.01.2022
5722 Clear -1 1033 80 10000 0.51 0 10:51 25.01.2022
5723 Clear -3 1033 88 10000 1.03 270 08:37 25.01.2022
5724 Clear -6 1033 93 10000 1.03 0 07:29 25.01.2022
5725 Clear -6 1033 93 10000 1.54 260 06:49 25.01.2022
5726 Clouds -5 1034 93 10000 0.51 0 05:22 25.01.2022
5727 Clouds -4 1034 92 10000 1.03 0 23:37 24.01.2022
5728 Clouds -4 1033 93 10000 0.51 0 23:18 24.01.2022
5729 Clouds -4 1033 93 10000 1.03 0 22:59 24.01.2022
5730 Clouds -3 1033 93 10000 1.03 0 22:41 24.01.2022
5731 Clear -4 1034 92 10000 1.03 0 21:53 24.01.2022
5732 Clear -4 1034 92 10000 1.03 0 21:53 24.01.2022
5733 Clear -3 1033 88 10000 0.51 0 21:28 24.01.2022
5734 Clear -3 1033 92 10000 0.51 0 20:30 24.01.2022
5735 Clear -3 1033 91 10000 1.03 0 19:44 24.01.2022
5736 Clear -2 1033 87 10000 0.51 0 19:24 24.01.2022
5737 Clear 0 1032 86 10000 1.03 0 17:59 24.01.2022
5738 Clear 0 1032 79 10000 2.06 170 17:23 24.01.2022
5739 Clear 1 1032 74 10000 1.54 160 16:41 24.01.2022
5740 Clear 3 1032 70 10000 1.54 170 16:18 24.01.2022
5741 Clear 5 1032 65 10000 1.54 140 14:35 24.01.2022
5742 Clouds 3 1033 68 10000 1.54 240 12:58 24.01.2022
5743 Clouds 2 1033 70 10000 1.03 0 12:23 24.01.2022
5744 Clouds 0 1034 85 10000 0.51 0 10:27 24.01.2022
5745 Clouds -1 1034 87 10000 0.51 0 09:48 24.01.2022
5746 Clouds -4 1034 92 10000 0.51 0 08:30 24.01.2022
5747 Clouds -2 1033 93 10000 1.03 0 06:19 24.01.2022
5748 Clouds -1 1034 93 10000 0.51 0 01:30 24.01.2022
5749 Clouds -1 1034 93 10000 1.03 0 00:35 24.01.2022
5750 Clouds 0 1034 93 10000 1.03 0 23:49 23.01.2022
5751 Clouds 0 1033 86 10000 1.54 100 22:28 23.01.2022
5752 Clouds 0 1033 100 10000 1.54 130 21:49 23.01.2022
5753 Clouds 0 1033 93 10000 1.54 160 21:25 23.01.2022
5754 Clouds -1 1033 86 10000 0.51 0 20:44 23.01.2022
5755 Clouds 1 1033 93 10000 1.54 160 19:44 23.01.2022
5756 Clouds 2 1033 87 10000 1.54 130 18:51 23.01.2022
5757 Clouds 2 1033 87 10000 1.54 100 17:44 23.01.2022
5758 Clouds 2 1033 83 10000 2.06 150 16:47 23.01.2022
5759 Clouds 4 1033 83 10000 2.57 170 14:59 23.01.2022
5760 Clouds 4 1033 81 10000 1.03 0 14:25 23.01.2022
5761 Clouds 3 1034 87 10000 1.03 0 12:59 23.01.2022
5762 Clouds 2 1035 89 10000 0.51 0 12:22 23.01.2022
5763 Snow 2 1035 91 7000 0.51 0 11:59 23.01.2022
5764 Snow 1 1035 94 7000 1.03 0 11:19 23.01.2022
5765 Clouds 1 1035 94 6000 2.06 260 10:27 23.01.2022
5766 Clouds 1 1035 94 6000 2.57 270 09:51 23.01.2022
5767 Mist -1 1034 98 4000 3.09 260 08:54 23.01.2022
5768 Mist 0 1032 100 5000 2.57 260 05:57 23.01.2022
5769 Mist 0 1032 100 4100 1.54 280 01:52 23.01.2022
5770 Mist 0 1032 100 4800 0.51 0 01:27 23.01.2022
5771 Mist 0 1033 94 4300 0.51 0 00:23 23.01.2022
5772 Mist 0 1033 94 5000 1.54 110 23:56 22.01.2022
5773 Mist 1 1034 94 3000 1.03 70 22:46 22.01.2022
5774 Mist 1 1034 97 3000 1.03 0 21:36 22.01.2022
5775 Snow 0 1033 97 3000 0.51 0 20:21 22.01.2022
5776 Mist 0 1033 96 3000 1.03 0 18:56 22.01.2022
5777 Mist 0 1032 96 3000 0.51 0 18:24 22.01.2022
5778 Snow 0 1032 96 2200 0.51 0 17:40 22.01.2022
5779 Mist 0 1032 94 2000 0.51 0 16:56 22.01.2022
5780 Snow 0 1032 93 2500 0.51 0 15:53 22.01.2022
5781 Snow 0 1031 93 3000 1.03 0 15:26 22.01.2022
5782 Snow 0 1031 92 1800 2.06 100 13:51 22.01.2022
5783 Clouds 0 1031 91 1800 2.57 70 12:53 22.01.2022
5784 Clouds 0 1032 90 1700 1.03 0 12:29 22.01.2022
5785 Snow 0 1032 86 2000 0.51 0 11:44 22.01.2022
5786 Clouds -1 1031 74 10000 0.51 0 10:29 22.01.2022
5787 Clouds -1 1031 73 10000 0.51 0 09:59 22.01.2022
5788 Clouds 0 1030 69 10000 2.06 60 08:53 22.01.2022
5789 Clouds 0 1030 59 10000 1.54 110 07:56 22.01.2022
5790 Clouds -1 1030 64 10000 2.06 70 04:53 22.01.2022
5791 Clouds -1 1031 69 10000 1.03 0 01:49 22.01.2022
5792 Clouds 0 1031 59 10000 1.54 80 23:46 21.01.2022
5793 Clouds 0 1032 55 10000 2.57 60 22:36 21.01.2022
5794 Clouds -11 1042 95 10000 1.79 212 20:32 21.01.2022
5795 Clouds 1 1031 44 10000 3.6 240 18:40 21.01.2022
5796 Clouds 1 1030 40 10000 3.09 300 17:44 21.01.2022
5797 Clouds 1 1029 38 10000 5.66 340 15:47 21.01.2022
5798 Clouds 1 1029 49 10000 5.66 350 13:55 21.01.2022
5799 Clouds 0 1032 77 10000 1.48 303 12:39 21.01.2022
5800 Clouds -3 1034 86 10000 1.49 304 11:28 21.01.2022
5801 Clouds -1 1030 80 10000 0.51 0 10:22 21.01.2022
5802 Clouds -1 1028 80 10000 2.57 90 08:25 21.01.2022
5803 Clouds -1 1028 80 10000 2.57 90 08:25 21.01.2022
5804 Clouds -2 1028 86 10000 1.54 60 07:19 21.01.2022
5805 Clouds 0 1026 69 10000 2.06 110 00:59 21.01.2022
5806 Clouds 0 1024 80 10000 4.63 100 22:45 20.01.2022
5807 Snow -1 1032 97 1611 1.06 235 21:48 20.01.2022
5808 Snow 0 1033 98 6201 0.89 248 20:56 20.01.2022
5809 Clouds 3 1023 45 10000 6.69 330 19:21 20.01.2022
5810 Clouds 2 1023 75 10000 1.54 0 18:51 20.01.2022
5811 Clouds 3 1023 70 10000 1.54 100 17:32 20.01.2022
5812 Clouds 3 1023 80 10000 2.06 60 15:46 20.01.2022
5813 Clouds 3 1023 79 10000 4.12 70 15:25 20.01.2022
5814 Clouds 1 1023 76 10000 2.57 70 13:53 20.01.2022
5815 Clouds 2 1023 69 10000 1.54 100 12:43 20.01.2022
5816 Clouds 2 1023 70 10000 1.03 0 12:21 20.01.2022
5817 Clouds 1 1024 75 10000 1.03 0 10:55 20.01.2022
5818 Clouds 0 1023 79 10000 1.54 60 09:43 20.01.2022
5819 Clouds -1 1024 80 10000 0.51 0 08:36 20.01.2022
5820 Clouds -3 1023 84 10000 1.54 260 06:18 20.01.2022
5821 Clouds -4 1024 85 10000 1.54 0 23:52 19.01.2022
5822 Clear -4 1023 81 10000 0.51 0 22:37 19.01.2022
5823 Clear -3 1023 80 10000 0.51 0 21:26 19.01.2022
5824 Clear -3 1023 80 10000 0.51 0 20:55 19.01.2022
5825 Clear -3 1023 79 10000 0.51 0 20:24 19.01.2022
5826 Clear 0 1023 69 10000 0.51 0 18:49 19.01.2022
5827 Clear 0 1023 69 10000 0.51 0 18:49 19.01.2022
5828 Clear 0 1023 64 10000 0.51 0 17:50 19.01.2022
5829 Clear 1 1023 60 10000 1.03 0 17:18 19.01.2022
5830 Clear 7 1024 48 10000 1.03 0 14:55 19.01.2022
5831 Clear 5 1026 52 10000 1.03 0 13:20 19.01.2022
5832 Clear 4 1028 63 10000 1.03 0 11:54 19.01.2022
5833 Clear -1 1029 80 10000 0.51 0 10:52 19.01.2022
5834 Clear -3 1030 93 10000 0.51 0 09:35 19.01.2022
5835 Clear -6 1030 93 10000 1.03 330 08:20 19.01.2022
5836 Clouds -5 1031 93 10000 0.51 0 05:19 19.01.2022
5837 Clouds -3 1035 93 10000 1.03 260 23:53 18.01.2022
5838 Clouds -3 1035 93 10000 0.51 0 23:18 18.01.2022
5839 Clouds -2 1035 86 10000 1.03 0 21:43 18.01.2022
5840 Clear 0 1035 86 10000 1.54 170 20:21 18.01.2022
5841 Clear 1 1035 80 10000 1.03 0 19:39 18.01.2022
5842 Clear 1 1035 80 10000 1.03 0 19:21 18.01.2022
5843 Clear 1 1035 80 10000 1.54 90 18:18 18.01.2022
5844 Clear 3 1034 70 10000 1.54 120 17:29 18.01.2022
5845 Clear 5 1034 56 10000 2.06 170 16:18 18.01.2022
5846 Clouds 6 1035 60 10000 1.03 0 15:24 18.01.2022
5847 Clouds 7 1034 59 10000 2.06 120 14:18 18.01.2022
5848 Clear 2 1037 71 10000 1.03 0 11:20 18.01.2022
5849 Clear -1 1037 88 10000 0.51 0 09:59 18.01.2022
5850 Clouds -1 1036 86 10000 1.03 0 08:29 18.01.2022
5851 Clouds 0 1036 86 10000 1.03 340 07:42 18.01.2022
5852 Clouds 2 1033 75 10000 1.03 0 00:38 18.01.2022
5853 Clouds 3 1033 70 10000 2.06 70 22:39 17.01.2022
5854 Clouds 1 1033 75 10000 0.51 0 21:41 17.01.2022
5855 Clouds 2 1033 73 10000 1.54 0 20:39 17.01.2022
5856 Clouds 2 1032 71 10000 1.03 0 18:46 17.01.2022
5857 Clouds 4 1030 70 10000 2.06 120 18:24 17.01.2022
5858 Clouds 5 1029 61 10000 2.57 100 17:19 17.01.2022
5859 Clouds 6 1033 94 10000 1 329 15:47 17.01.2022
5860 Clouds 7 1029 53 10000 1.54 200 14:58 17.01.2022
5861 Clouds 8 1029 46 10000 1.54 140 14:22 17.01.2022
5862 Clouds 6 1030 57 10000 1.54 100 13:18 17.01.2022
5863 Clouds 3 1032 76 10000 0.51 0 11:51 17.01.2022
5864 Clouds 2 1033 83 10000 1.03 0 10:47 17.01.2022
5865 Clouds 1 1031 86 10000 1.54 250 09:35 17.01.2022
5866 Clouds 0 1031 87 10000 1.03 0 08:43 17.01.2022
5867 Clouds 0 1031 86 10000 1.03 0 07:20 17.01.2022
5868 Clouds -1 1031 86 10000 1.03 0 00:58 17.01.2022
5869 Clouds -1 1030 86 10000 1.03 0 23:27 16.01.2022
5870 Clouds -1 1028 80 10000 1.03 0 20:50 16.01.2022
5871 Clouds 0 1028 79 10000 3.6 260 19:55 16.01.2022
5872 Clouds 1 1026 75 10000 1.54 130 18:45 16.01.2022
5873 Clouds 0 1026 74 10000 1.54 180 17:47 16.01.2022
5874 Clear 3 1025 61 10000 1.54 180 16:52 16.01.2022
5875 Clear 4 1024 57 10000 3.6 90 15:39 16.01.2022
5876 Clear 7 1024 56 10000 1.03 0 14:29 16.01.2022
5877 Clear 7 1024 56 10000 1.03 0 14:29 16.01.2022
5878 Clear 5 1024 63 10000 1.03 0 12:57 16.01.2022
5879 Clear 4 1024 66 10000 1.03 0 11:56 16.01.2022
5880 Clear 0 1025 80 10000 1.03 0 11:27 16.01.2022
5881 Clear -2 1025 93 10000 1.03 0 10:27 16.01.2022
5882 Clear -3 1025 93 10000 0.51 0 09:57 16.01.2022
5883 Clear -6 1025 93 10000 1.03 0 09:23 16.01.2022
5884 Clear -6 1025 93 10000 0.51 0 08:52 16.01.2022
5885 Clouds -6 1025 93 10000 0.51 0 05:35 16.01.2022
5886 Clouds -4 1025 92 10000 0.51 0 00:18 16.01.2022
5887 Clouds -3 1025 92 10000 1.03 250 22:37 15.01.2022
5888 Clear -3 1026 92 10000 0.51 0 21:21 15.01.2022
5889 Clear -3 1026 87 10000 0.51 0 20:43 15.01.2022
5890 Clear 0 1026 84 10000 0.51 0 19:58 15.01.2022
5891 Clear 0 1026 83 10000 1.03 0 19:23 15.01.2022
5892 Clear 2 1025 77 10000 0.51 0 17:49 15.01.2022
5893 Clear 2 1025 70 10000 0.51 0 16:38 15.01.2022
5894 Clear 7 1026 63 10000 1.03 0 13:57 15.01.2022
5895 Clear 6 1027 69 10000 1.03 0 12:23 15.01.2022
5896 Clear 4 1029 75 10000 1.03 0 11:18 15.01.2022
5897 Clear -5 1030 93 10000 0.51 0 08:36 15.01.2022
5898 Clear -4 1031 86 10000 0.51 0 00:52 15.01.2022
5899 Clear 1 1033 82 10000 1.03 0 21:57 14.01.2022
5900 Clear 2 1033 80 10000 0.51 0 20:42 14.01.2022
5901 Clear 1 1034 80 10000 0.51 0 20:23 14.01.2022
5902 Clear -2 1033 81 10000 1.03 0 19:48 14.01.2022
5903 Clear -1 1033 80 10000 1.03 0 18:28 14.01.2022
5904 Clear 2 1033 64 10000 0.51 0 16:50 14.01.2022
5905 Clear 6 1033 52 10000 1.03 0 15:48 14.01.2022
5906 Clear 7 1034 52 10000 1.03 0 14:46 14.01.2022
5907 Clear 6 1034 57 10000 1.03 0 13:47 14.01.2022
5908 Clear 6 1035 62 10000 1.03 0 12:31 14.01.2022
5909 Clear 4 1036 67 10000 0.51 0 11:27 14.01.2022
5910 Clear -4 1036 86 10000 0.51 0 09:50 14.01.2022
5911 Clear -6 1037 86 10000 0.51 0 08:51 14.01.2022
5912 Clear -5 1037 86 10000 1.03 230 06:57 14.01.2022
5913 Clear -1 1040 76 10000 1.03 240 01:37 14.01.2022
5914 Clear -4 1040 76 10000 2.06 240 23:32 13.01.2022
5915 Clear -2 1041 75 10000 1.54 240 21:40 13.01.2022
5916 Clear -2 1042 77 10000 2.06 250 21:22 13.01.2022
5917 Clear -2 1041 72 10000 1.03 0 19:40 13.01.2022
5918 Clear -2 1041 71 10000 1.03 0 19:22 13.01.2022
5919 Clear -1 1041 65 10000 0.51 0 17:54 13.01.2022
5920 Clear 1 1039 55 10000 1.03 0 16:21 13.01.2022
5921 Clear 1 1039 55 10000 1.03 0 16:21 13.01.2022
5922 Clear 2 1040 55 10000 2.57 260 15:37 13.01.2022
5923 Clear 1 1039 55 10000 2.06 220 14:47 13.01.2022
5924 Clear 0 1041 55 10000 1.03 0 12:45 13.01.2022
5925 Clear -4 1041 74 10000 0.51 0 10:25 13.01.2022
5926 Clear -4 1042 79 10000 0.51 0 09:20 13.01.2022
5927 Clear -6 1042 80 10000 1.03 0 08:27 13.01.2022
5928 Clear -9 1041 90 10000 1.03 0 07:24 13.01.2022
5929 Clear -7 1041 82 10000 2.06 260 05:59 13.01.2022
5930 Clear -7 1042 84 10000 1.03 260 05:19 13.01.2022
5931 Clear -6 1042 81 10000 0.51 0 02:33 13.01.2022
5932 Clear -6 1041 82 10000 1.03 0 00:55 13.01.2022
5933 Clear -5 1041 81 10000 0.51 0 23:49 12.01.2022
5934 Clear -5 1041 81 10000 0.51 0 23:49 12.01.2022
5935 Clouds -5 1041 81 10000 1.54 260 23:20 12.01.2022
5936 Clouds -5 1041 81 10000 0.51 0 21:57 12.01.2022
5937 Clouds -4 1040 81 10000 1.03 0 21:23 12.01.2022
5938 Clouds -4 1040 81 10000 1.03 0 20:56 12.01.2022
5939 Clear -4 1040 78 10000 0.51 0 19:45 12.01.2022
5940 Clear -3 1039 75 10000 1.03 0 18:43 12.01.2022
5941 Clear -3 1037 70 10000 1.03 0 17:38 12.01.2022
5942 Clear -2 1037 64 10000 1.03 0 16:33 12.01.2022
5943 Clear 1 1037 62 10000 1.03 0 14:48 12.01.2022
5944 Clear 1 1037 64 10000 1.03 0 13:24 12.01.2022
5945 Clouds -1 1039 69 10000 1.54 240 11:59 12.01.2022
5946 Clouds -3 1038 75 10000 1.54 110 08:43 12.01.2022
5947 Clouds -5 1036 68 10000 2.06 130 07:50 12.01.2022
5948 Clouds -5 1035 68 10000 1.54 110 07:31 12.01.2022
5949 Clouds -3 1033 74 10000 1.03 0 23:53 11.01.2022
5950 Clouds -2 1033 74 10000 1.54 110 22:57 11.01.2022
5951 Clouds -1 1033 74 10000 2.06 80 22:23 11.01.2022
5952 Clouds -1 1032 74 10000 1.54 140 21:25 11.01.2022
5953 Clouds -1 1033 83 10000 1.54 110 20:21 11.01.2022
5954 Clouds -1 1032 80 10000 2.57 80 18:43 11.01.2022
5955 Clouds 0 1031 76 10000 1.54 80 17:35 11.01.2022
5956 Clouds 0 1031 74 10000 1.03 0 16:38 11.01.2022
5957 Clouds 1 1031 77 10000 1.03 0 15:56 11.01.2022
5958 Clouds 2 1031 77 10000 0.51 0 14:43 11.01.2022
5959 Clouds 2 1031 80 10000 1.03 0 13:56 11.01.2022
5960 Clouds 2 1031 77 10000 2.06 120 13:36 11.01.2022
5961 Clouds 1 1031 79 10000 2.57 120 12:51 11.01.2022
5962 Clouds 1 1031 81 10000 2.06 90 12:20 11.01.2022
5963 Clouds 0 1031 89 10000 1.54 60 09:58 11.01.2022
5964 Clouds 0 1028 93 10000 1.03 0 07:35 11.01.2022
5965 Snow 0 1026 93 9000 2.06 90 00:43 11.01.2022
5966 Clouds 0 1026 93 10000 1.03 0 00:21 11.01.2022
5967 Clouds 0 1025 93 10000 0.51 0 23:28 10.01.2022
5968 Clouds 0 1025 93 10000 1.03 0 22:19 10.01.2022
5969 Clouds 0 1025 93 10000 1.03 70 21:54 10.01.2022
5970 Clouds 0 1024 93 10000 0.51 0 21:31 10.01.2022
5971 Clouds 0 1024 93 10000 1.03 270 20:58 10.01.2022
5972 Clouds 1 1024 86 10000 0.51 0 20:29 10.01.2022
5973 Clouds 1 1024 86 10000 1.54 120 19:45 10.01.2022
5974 Clouds 1 1023 86 10000 2.06 90 19:22 10.01.2022
5975 Clouds 1 1023 80 10000 2.06 60 18:50 10.01.2022
5976 Clouds 1 1022 80 10000 1.54 70 18:31 10.01.2022
5977 Clouds 1 1020 80 10000 1.54 310 16:42 10.01.2022
5978 Clouds 2 1021 84 10000 3.09 280 15:55 10.01.2022
5979 Clouds 2 1019 81 10000 0.51 0 14:39 10.01.2022
5980 Clouds 0 1019 78 10000 1.03 0 12:31 10.01.2022
5981 Clouds 0 1018 79 10000 3.6 260 11:25 10.01.2022
5982 Clouds -1 1017 85 10000 1.54 270 10:21 10.01.2022
5983 Clouds -2 1015 81 10000 2.57 280 08:57 10.01.2022
5984 Clouds -2 1012 86 10000 2.06 270 05:50 10.01.2022
5985 Clouds -2 1010 93 10000 2.06 260 01:33 10.01.2022
5986 Clouds -2 1010 93 10000 2.06 270 01:33 10.01.2022
5987 Clouds -2 1009 93 10000 1.54 260 00:33 10.01.2022
5988 Clouds -1 1009 93 10000 2.06 260 23:54 09.01.2022
5989 Clouds -1 1008 93 10000 2.06 240 22:43 09.01.2022
5990 Clouds -2 1009 94 10000 1.03 0 21:47 09.01.2022
5991 Clouds -2 1008 93 10000 0.51 0 21:25 09.01.2022
5992 Clouds -1 1007 93 10000 1.03 0 20:55 09.01.2022
5993 Clouds -2 1008 94 10000 1.03 0 20:37 09.01.2022
5994 Clouds -2 1008 93 10000 0.51 0 20:18 09.01.2022
5995 Clouds 0 1007 86 10000 0.51 0 19:37 09.01.2022
5996 Clouds 0 1007 86 10000 0.51 0 19:18 09.01.2022
5997 Clouds 0 1006 86 10000 0.51 0 18:37 09.01.2022
5998 Clouds 1 1006 86 10000 1.03 0 17:48 09.01.2022
5999 Clouds 1 1005 86 10000 1.54 80 17:29 09.01.2022
6000 Clouds 0 1006 85 10000 3.6 110 16:40 09.01.2022
6001 Clouds 1 1006 81 10000 2.57 90 15:40 09.01.2022
6002 Clouds 3 1005 77 10000 1.03 0 14:50 09.01.2022
6003 Clouds 2 1005 81 10000 2.06 90 14:23 09.01.2022
6004 Clouds 2 1005 83 10000 2.57 70 13:48 09.01.2022
6005 Clouds 1 1005 85 10000 2.57 110 11:56 09.01.2022
6006 Clouds -1 1005 92 10000 1.03 0 11:26 09.01.2022
6007 Clouds 1 1004 70 10000 3.09 260 09:55 09.01.2022
6008 Clouds -2 1003 77 10000 3.09 270 08:59 09.01.2022
6009 Clouds -3 1002 82 10000 4.12 270 06:56 09.01.2022
6010 Clouds -3 1004 87 10000 5.14 280 01:29 09.01.2022
6011 Clouds -3 1006 88 10000 3.6 280 00:37 09.01.2022
6012 Clouds -3 1008 87 10000 3.6 290 23:31 08.01.2022
6013 Clouds -3 1008 87 10000 2.57 270 22:48 08.01.2022
6014 Clouds -3 1010 85 10000 1.03 0 21:28 08.01.2022
6015 Clouds -3 1011 84 10000 2.06 170 20:43 08.01.2022
6016 Clouds -3 1012 88 10000 1.03 0 20:22 08.01.2022
6017 Clouds -3 1012 88 10000 1.54 80 19:22 08.01.2022
6018 Clouds -2 1013 86 10000 1.03 0 17:38 08.01.2022
6019 Clouds -1 1013 80 10000 1.03 0 16:45 08.01.2022
6020 Clouds 2 1013 75 10000 3.09 110 15:33 08.01.2022
6021 Clouds 2 1015 75 10000 1.03 0 14:25 08.01.2022
6022 Clouds 0 1016 82 10000 1.03 0 11:43 08.01.2022
6023 Clouds -1 1016 78 10000 2.06 110 10:40 08.01.2022
6024 Clouds -2 1016 81 10000 1.03 0 10:22 08.01.2022
6025 Clouds -3 1015 83 10000 3.09 260 09:34 08.01.2022
6026 Clear -4 1015 89 10000 0.51 0 06:22 08.01.2022
6027 Clouds -4 1016 83 10000 0.51 0 01:46 08.01.2022
6028 Clouds -2 1017 82 10000 1.03 0 00:22 08.01.2022
6029 Clouds 0 1018 80 10000 2.06 70 22:21 07.01.2022
6030 Clouds -1 1018 78 10000 0.51 0 20:35 07.01.2022
6031 Clouds -1 1018 78 10000 0.51 0 20:35 07.01.2022
6032 Clouds -1 1018 75 10000 1.03 0 19:27 07.01.2022
6033 Clouds -1 1018 73 10000 1.03 0 18:49 07.01.2022
6034 Clouds 0 1018 73 10000 1.03 160 18:24 07.01.2022
6035 Clouds 0 1018 70 10000 0.51 0 17:24 07.01.2022
6036 Clear 1 1018 62 10000 1.03 0 15:55 07.01.2022
6037 Clouds 1 1019 61 10000 1.03 0 13:52 07.01.2022
6038 Clouds 1 1019 61 10000 1.03 0 12:57 07.01.2022
6039 Clouds 0 1020 64 10000 2.06 250 11:58 07.01.2022
6040 Clouds -6 1021 84 10000 0.51 0 06:47 07.01.2022
6041 Clouds -4 1021 69 10000 2.57 110 02:54 07.01.2022
6042 Clouds -3 1021 86 10000 2.06 100 01:52 07.01.2022
6043 Clouds -3 1021 86 10000 3.09 100 01:27 07.01.2022
6044 Clouds -2 1021 80 10000 2.57 70 00:55 07.01.2022
6045 Clouds -2 1021 86 10000 1.03 0 22:42 06.01.2022
6046 Clouds -2 1021 86 10000 2.06 120 21:22 06.01.2022
6047 Clouds -2 1022 88 10000 1.54 90 20:19 06.01.2022
6048 Clouds -1 1021 86 10000 2.06 100 19:40 06.01.2022
6049 Clouds -1 1021 86 10000 1.54 70 17:53 06.01.2022
6050 Clouds 0 1019 86 10000 2.06 60 17:31 06.01.2022
6051 Clouds 1 1019 86 10000 2.06 100 16:40 06.01.2022
6052 Clouds 2 1019 82 10000 3.6 70 15:45 06.01.2022
6053 Clouds 1 1019 85 10000 2.06 60 15:23 06.01.2022
6054 Clouds 1 1019 81 10000 2.06 100 14:21 06.01.2022
6055 Clouds 1 1019 81 10000 2.57 70 13:46 06.01.2022
6056 Clouds 2 1018 76 10000 1.03 0 12:41 06.01.2022
6057 Snow 0 1018 83 10000 1.03 0 11:41 06.01.2022
6058 Clouds 0 1018 84 10000 1.03 0 11:20 06.01.2022
6059 Snow -1 1017 93 10000 1.03 0 08:31 06.01.2022
6060 Clouds 0 1013 86 10000 0.51 0 00:42 06.01.2022
6061 Clouds 0 1013 80 10000 1.03 0 23:36 05.01.2022
6062 Clouds 0 1012 86 10000 1.03 0 22:51 05.01.2022
6063 Clouds -1 1012 93 10000 0.51 0 22:30 05.01.2022
6064 Clouds 0 1012 86 10000 1.03 0 21:46 05.01.2022
6065 Snow -1 1013 81 10000 1.03 0 20:49 05.01.2022
6066 Clouds -1 1016 98 5801 0.27 322 19:59 05.01.2022
6067 Clouds 0 1012 92 10000 1.54 180 18:38 05.01.2022
6068 Snow 1 1010 83 10000 1.54 60 17:23 05.01.2022
6069 Rain 1 1010 85 10000 2.06 0 16:38 05.01.2022
6070 Clouds 2 1007 92 10000 1.03 0 15:20 05.01.2022
6071 Clouds 2 1007 92 10000 0.51 0 13:51 05.01.2022
6072 Clouds 3 1005 94 10000 1.54 70 12:51 05.01.2022
6073 Rain 3 1003 93 10000 2.06 100 09:30 05.01.2022
6074 Rain 4 1003 93 10000 6.17 60 07:42 05.01.2022
6075 Clouds 5 1000 84 10000 2.06 250 04:58 05.01.2022
6076 Clouds 4 1000 80 10000 3.09 270 00:44 05.01.2022
6077 Clouds 5 1000 75 10000 1.54 0 23:27 04.01.2022
6078 Clouds 5 1000 75 10000 1.54 0 22:42 04.01.2022
6079 Clouds 8 1000 47 10000 7.2 160 21:18 04.01.2022
6080 Clear 9 1000 47 10000 7.72 150 19:20 04.01.2022
6081 Clouds 11 1001 47 10000 8.23 150 17:44 04.01.2022
6082 Clouds 12 1001 44 10000 9.26 150 16:42 04.01.2022
6083 Clouds 10 1000 44 10000 8.23 140 16:23 04.01.2022
6084 Clouds 11 1000 44 10000 8.75 150 14:53 04.01.2022
6085 Clouds 11 1000 44 10000 8.75 150 14:34 04.01.2022
6086 Clouds 11 1002 41 10000 8.75 150 13:27 04.01.2022
6087 Clouds 4 1005 78 10000 5.14 260 10:41 04.01.2022
6088 Rain 3 1006 84 10000 3.6 260 09:20 04.01.2022
6089 Clouds 2 1006 88 10000 4.12 260 08:28 04.01.2022
6090 Clouds 1 1012 91 10000 1.03 0 02:28 04.01.2022
6091 Clouds 2 1013 91 10000 0.51 0 00:40 04.01.2022
6092 Clouds 4 1013 80 10000 1.03 0 23:19 03.01.2022
6093 Clouds 4 1014 80 10000 1.03 0 21:52 03.01.2022
6094 Clouds 3 1015 87 10000 0.51 0 21:32 03.01.2022
6095 Clouds 4 1015 87 10000 1.03 0 19:56 03.01.2022
6096 Clouds 4 1017 83 10000 1.54 150 18:48 03.01.2022
6097 Clouds 5 1016 87 10000 0.51 0 18:27 03.01.2022
6098 Clouds 6 1017 76 10000 2.06 130 16:58 03.01.2022
6099 Clouds 7 1018 70 10000 3.09 90 14:56 03.01.2022
6100 Clouds 7 1018 70 10000 2.57 100 14:30 03.01.2022
6101 Clouds 8 1019 70 10000 2.06 0 12:39 03.01.2022
6102 Clouds 7 1019 81 10000 2.06 100 11:35 03.01.2022
6103 Clouds 3 1020 87 10000 1.54 190 10:27 03.01.2022
6104 Clouds 1 1020 93 10000 1.54 0 08:47 03.01.2022
6105 Clouds 1 1019 100 10000 1.03 0 07:34 03.01.2022
6106 Clouds 1 1019 100 10000 1.03 0 07:34 03.01.2022
6107 Clouds 1 1021 91 10000 1.54 0 23:55 02.01.2022
6108 Clouds 1 1021 90 10000 1.54 220 23:21 02.01.2022
6109 Clouds 2 1021 90 10000 1.54 0 22:53 02.01.2022
6110 Clouds 2 1022 87 10000 2.06 330 21:42 02.01.2022
6111 Clouds 2 1022 86 10000 2.06 0 20:33 02.01.2022
6112 Clouds 2 1022 86 10000 0.51 0 19:55 02.01.2022
6113 Clouds 3 1022 86 10000 0.51 0 19:30 02.01.2022
6114 Clouds 4 1023 81 10000 0.51 0 18:44 02.01.2022
6115 Clouds 4 1023 80 10000 0.51 0 17:54 02.01.2022
6116 Clouds 4 1023 80 10000 0.51 0 17:36 02.01.2022
6117 Clouds 4 1022 79 10000 1.03 0 17:18 02.01.2022
6118 Clouds 5 1022 71 10000 1.03 0 16:25 02.01.2022
6119 Clear 6 1022 69 10000 1.03 0 14:22 02.01.2022
6120 Clear 5 1023 70 10000 1.03 0 12:49 02.01.2022
6121 Clear 2 1024 80 10000 1.03 0 11:57 02.01.2022
6122 Clear 2 1024 80 10000 1.03 160 11:26 02.01.2022
6123 Clear 2 1024 87 10000 1.03 0 10:45 02.01.2022
6124 Clear 2 1025 81 10000 0.51 0 08:46 02.01.2022
6125 Clouds -2 1027 100 10000 1.03 0 03:49 02.01.2022
6126 Clouds 4 1028 78 10000 1.03 0 01:41 02.01.2022
6127 Clouds -1 1029 97 10000 1.03 0 23:39 01.01.2022
6128 Clouds -1 1030 94 10000 1.54 240 22:57 01.01.2022
6129 Clouds -2 1030 97 10000 1.03 0 22:21 01.01.2022
6130 Clouds -1 1030 93 10000 2.06 230 21:43 01.01.2022
6131 Clear -1 1030 93 10000 1.03 0 20:53 01.01.2022
6132 Clear -1 1030 97 10000 0.51 0 19:57 01.01.2022
6133 Clear 0 1030 93 10000 2.06 270 18:58 01.01.2022
6134 Clear 1 1029 93 10000 0.51 0 17:58 01.01.2022
6135 Clear 4 1030 87 10000 1.03 0 16:37 01.01.2022
6136 Clear 4 1029 87 10000 1.03 0 16:19 01.01.2022
6137 Clear 6 1029 81 10000 1.03 0 15:26 01.01.2022
6138 Clear 10 1029 73 10000 1.54 140 13:46 01.01.2022
6139 Clear 10 1029 73 10000 1.54 140 13:46 01.01.2022
6140 Clear 2 1030 100 10000 1.03 0 12:49 01.01.2022
6141 Clouds 0 1031 100 10000 1.03 0 11:56 01.01.2022
6142 Clouds 11 1030 64 10000 0.45 177 11:22 01.01.2022
6143 Fog -2 1031 100 300 0.51 0 10:27 01.01.2022
6144 Fog -2 1032 100 200 1.03 0 09:45 01.01.2022
6145 Fog -3 1032 99 300 1.03 0 08:25 01.01.2022
6146 Fog -3 1032 99 300 1.54 250 07:44 01.01.2022
6147 Fog 2 1030 87 200 0.51 0 06:47 01.01.2022
6148 Fog -2 1030 100 200 0.51 0 05:27 01.01.2022
6149 Fog -2 1030 100 200 1.03 0 04:38 01.01.2022
6150 Fog -2 1030 99 150 0.51 0 01:59 01.01.2022
6151 Fog -1 1029 98 350 0.51 0 23:36 31.12.2021
6152 Fog 0 1027 98 600 0.51 0 21:53 31.12.2021
6153 Fog 1 1027 98 800 0.51 0 20:38 31.12.2021
6154 Fog 3 1026 88 700 2.06 260 19:30 31.12.2021
6155 Clouds 2 1026 100 6000 1.54 260 18:37 31.12.2021
6156 Clear 2 1026 97 10000 1.03 0 17:40 31.12.2021
6157 Clear 3 1026 93 10000 1.54 250 17:18 31.12.2021
6158 Clear 5 1026 91 10000 1.03 180 16:25 31.12.2021
6159 Clear 6 1026 88 10000 1.54 170 15:57 31.12.2021
6160 Clear 7 1026 85 10000 1.03 0 15:28 31.12.2021
6161 Clear 8 1025 81 10000 0.51 0 14:56 31.12.2021
6162 Clear 7 1025 87 10000 1.03 0 14:30 31.12.2021
6163 Clear 5 1026 93 10000 1.03 0 13:36 31.12.2021
6164 Mist 3 1027 100 2500 1.03 0 12:45 31.12.2021
6165 Fog 2 1027 100 500 2.06 250 11:47 31.12.2021
6166 Fog 1 1028 100 500 2.06 270 11:29 31.12.2021
6167 Fog 1 1028 100 350 2.06 260 10:35 31.12.2021
6168 Fog 1 1028 100 400 2.06 260 09:55 31.12.2021
6169 Fog 2 1028 96 400 2.06 260 09:32 31.12.2021
6170 Fog 3 1028 96 400 2.57 260 08:39 31.12.2021
6171 Fog 3 1028 96 800 2.57 250 07:31 31.12.2021
6172 Fog 3 1027 98 450 1.03 0 23:32 30.12.2021
6173 Fog 5 1027 96 350 1.54 280 22:33 30.12.2021
6174 Fog 5 1027 96 400 1.03 0 21:56 30.12.2021
6175 Fog 5 1027 96 400 1.03 0 21:37 30.12.2021
6176 Fog 5 1026 96 350 2.57 270 20:47 30.12.2021
6177 Fog 5 1026 96 400 1.03 250 20:27 30.12.2021
6178 Fog 5 1026 96 500 1.54 240 19:47 30.12.2021
6179 Fog 5 1026 96 750 1.03 0 18:48 30.12.2021
6180 Fog 6 1026 96 3000 0.51 0 18:19 30.12.2021
6181 Clouds 7 1025 93 10000 1.54 200 16:20 30.12.2021
6182 Clouds 7 1025 90 10000 0.51 0 15:52 30.12.2021
6183 Clouds 7 1024 90 10000 1.03 0 14:40 30.12.2021
6184 Clouds 6 1024 94 10000 0.51 0 13:55 30.12.2021
6185 Clouds 6 1024 94 10000 0.51 0 13:55 30.12.2021
6186 Clouds 5 1025 93 10000 0.51 0 12:44 30.12.2021
6187 Drizzle 6 1025 94 10000 0.51 0 10:59 30.12.2021
6188 Rain 5 1025 96 10000 1.03 0 09:59 30.12.2021
6189 Rain 5 1025 96 7000 1.54 110 09:21 30.12.2021
6190 Clouds 2 1022 94 6000 0.51 0 06:54 30.12.2021
6191 Clouds 4 1020 97 7000 1.54 180 04:20 30.12.2021
6192 Clouds 4 1019 97 6000 1.03 0 03:38 30.12.2021
6193 Drizzle 3 1018 94 9000 2.57 250 23:57 29.12.2021
6194 Rain 3 1017 97 10000 1.54 0 23:23 29.12.2021
6195 Rain 4 1017 94 10000 1.54 310 22:24 29.12.2021
6196 Rain 4 1017 93 10000 1.03 0 21:45 29.12.2021
6197 Rain 4 1016 93 10000 1.03 0 20:40 29.12.2021
6198 Rain 5 1016 94 10000 0.51 0 19:51 29.12.2021
6199 Rain 5 1016 94 10000 1.03 0 19:24 29.12.2021
6200 Rain 5 1015 90 10000 0.51 0 18:19 29.12.2021
6201 Rain 5 1015 89 10000 2.57 110 17:28 29.12.2021
6202 Rain 5 1014 89 10000 2.06 70 16:49 29.12.2021
6203 Smoke 6 1014 86 10000 2.06 80 16:19 29.12.2021
6204 Clouds 7 1012 81 10000 0.51 0 14:40 29.12.2021
6205 Clouds 7 1012 78 10000 1.03 0 12:49 29.12.2021
6206 Clouds 8 1011 71 10000 1.54 140 12:27 29.12.2021
6207 Clouds 4 1012 88 10000 1.03 0 10:36 29.12.2021
6208 Clouds 2 1011 94 10000 1.03 0 08:24 29.12.2021
6209 Rain 2 1010 94 10000 0.51 0 06:45 29.12.2021
6210 Clouds 3 1009 94 10000 1.54 110 06:24 29.12.2021
6211 Clouds 3 1009 94 10000 1.03 0 05:43 29.12.2021
6212 Drizzle 3 1008 93 10000 0.51 0 03:20 29.12.2021
6213 Clouds 2 1006 92 10000 1.54 300 00:25 29.12.2021
6214 Clouds 2 1006 92 10000 1.03 0 23:49 28.12.2021
6215 Clouds 3 1006 91 10000 2.06 0 22:50 28.12.2021
6216 Clouds 4 1005 92 10000 2.06 260 22:24 28.12.2021
6217 Clouds 4 1005 91 10000 0.51 0 21:53 28.12.2021
6218 Clouds 3 1005 91 10000 1.03 0 20:49 28.12.2021
6219 Rain 4 1005 86 10000 2.06 320 19:50 28.12.2021
6220 Rain 5 1004 84 10000 3.6 280 18:50 28.12.2021
6221 Clouds 5 1004 83 10000 3.09 260 18:23 28.12.2021
6222 Rain 6 1003 81 10000 2.57 280 16:35 28.12.2021
6223 Clouds 7 1003 70 10000 4.63 270 15:52 28.12.2021
6224 Clouds 7 1002 70 10000 1.54 230 15:27 28.12.2021
6225 Rain 7 1003 76 10000 4.63 280 14:53 28.12.2021
6226 Clouds 7 1004 76 10000 6.17 270 14:21 28.12.2021
6227 Rain 7 1004 70 10000 4.12 320 13:54 28.12.2021
6228 Rain 7 1004 70 10000 4.12 320 13:33 28.12.2021
6229 Rain 6 1005 66 10000 4.63 290 12:55 28.12.2021
6230 Clouds 5 1005 70 10000 3.09 260 12:18 28.12.2021
6231 Clouds 2 1005 84 10000 2.06 240 09:30 28.12.2021
6232 Snow -1 1005 93 10000 1.03 0 07:33 28.12.2021
6233 Clouds 1 1006 86 10000 1.03 0 03:28 28.12.2021
6234 Rain 4 1007 75 10000 2.57 180 23:37 27.12.2021
6235 Clouds 3 1006 75 10000 3.6 300 22:20 27.12.2021
6236 Rain 3 1006 75 10000 4.63 270 21:30 27.12.2021
6237 Clouds 2 1006 76 10000 5.14 270 20:27 27.12.2021
6238 Clouds 3 1005 75 10000 4.63 270 19:47 27.12.2021
6239 Clouds 2 1005 76 10000 4.63 260 18:57 27.12.2021
6240 Clouds 2 1005 76 10000 3.09 250 17:51 27.12.2021
6241 Clouds 3 1005 74 10000 4.12 260 17:28 27.12.2021
6242 Clouds 6 1004 61 10000 2.06 0 15:54 27.12.2021
6243 Clouds 5 1004 68 10000 2.06 260 14:56 27.12.2021
6244 Clouds 5 1005 67 10000 3.09 260 14:21 27.12.2021
6245 Clouds 4 1006 76 10000 1.03 0 12:49 27.12.2021
6246 Clouds 2 1008 84 10000 1.03 0 10:40 27.12.2021
6247 Clouds 3 1007 86 10000 2.06 260 10:22 27.12.2021
6248 Clouds -2 1008 94 9000 1.54 250 08:43 27.12.2021
6249 Clouds -2 1009 93 10000 0.51 0 07:34 27.12.2021
6250 Clouds -2 1008 93 10000 0.51 0 06:27 27.12.2021
6251 Clouds 1 1008 93 10000 1.54 230 01:51 27.12.2021
6252 Clouds 0 1008 93 10000 1.03 0 23:49 26.12.2021
6253 Clouds 1 1008 93 10000 1.03 0 23:19 26.12.2021
6254 Clear 0 1008 93 10000 0.51 0 21:33 26.12.2021
6255 Clouds 2 1008 87 10000 1.54 240 19:55 26.12.2021
6256 Clouds 2 1008 87 10000 1.54 120 18:45 26.12.2021
6257 Clouds 2 1008 87 10000 1.54 100 18:21 26.12.2021
6258 Clouds 5 1007 70 10000 0.51 0 15:38 26.12.2021
6259 Clouds 5 1008 75 10000 1.03 0 13:49 26.12.2021
6260 Clouds 5 1008 78 10000 2.06 70 13:31 26.12.2021
6261 Clouds 4 1008 79 10000 2.06 90 12:36 26.12.2021
6262 Clouds 3 1008 83 10000 0.51 0 11:20 26.12.2021
6263 Clouds 1 1008 88 10000 1.54 150 09:35 26.12.2021
6264 Clouds -1 1008 92 10000 2.06 240 08:50 26.12.2021
6265 Clouds 0 1008 92 10000 2.57 260 08:27 26.12.2021
6266 Clouds 0 1008 92 10000 0.51 0 02:19 26.12.2021
6267 Clouds 0 1007 87 10000 0.51 0 00:40 26.12.2021
6268 Clouds 0 1008 91 10000 1.54 260 23:48 25.12.2021
6269 Clouds 0 1007 87 10000 1.03 0 22:39 25.12.2021
6270 Clouds 0 1007 87 10000 0.51 0 22:20 25.12.2021
6271 Clouds 1 1007 86 10000 1.03 0 20:27 25.12.2021
6272 Clouds 1 1007 83 10000 1.03 0 19:19 25.12.2021
6273 Clouds 2 1007 85 10000 1.03 0 18:39 25.12.2021
6274 Clouds 3 1006 75 10000 0.51 0 16:50 25.12.2021
6275 Clouds 5 1006 65 10000 2.06 160 15:38 25.12.2021
6276 Clouds 7 1006 62 10000 3.09 260 14:24 25.12.2021
6277 Clouds 3 1006 77 10000 0.51 0 12:42 25.12.2021
6278 Clouds 1 1007 86 10000 2.57 230 11:21 25.12.2021
6279 Clouds -2 1007 100 10000 1.54 0 09:49 25.12.2021
6280 Clouds -1 1008 92 10000 2.06 240 07:39 25.12.2021
6281 Clouds 0 1008 86 10000 0.51 0 01:45 25.12.2021
6282 Clouds 0 1008 86 10000 1.03 0 00:23 25.12.2021
6283 Snow 1 1009 85 10000 1.54 0 22:26 24.12.2021
6284 Clouds 2 1009 79 10000 1.03 0 19:29 24.12.2021
6285 Clouds 2 1009 79 10000 1.03 0 18:57 24.12.2021
6286 Clouds 3 1009 71 10000 0.51 0 16:49 24.12.2021
6287 Clouds 3 1009 66 10000 0.51 0 15:53 24.12.2021
6288 Clouds 4 1009 66 10000 0.51 0 15:34 24.12.2021
6289 Rain 4 1009 65 10000 1.54 130 14:36 24.12.2021
6290 Clouds 4 1009 62 10000 1.54 70 14:36 24.12.2021
6291 Clouds 3 1009 66 10000 1.54 130 14:18 24.12.2021
6292 Clouds 3 1009 65 10000 1.03 0 13:33 24.12.2021
6293 Clouds 2 1010 70 10000 1.03 0 12:47 24.12.2021
6294 Clouds 1 1010 76 10000 1.54 240 11:47 24.12.2021
6295 Clouds 1 1010 76 10000 2.06 270 11:24 24.12.2021
6296 Clouds 5 1010 65 10000 1.03 0 10:45 24.12.2021
6297 Clouds -2 1011 80 10000 2.06 240 09:25 24.12.2021
6298 Clouds -2 1012 83 10000 1.54 250 08:23 24.12.2021
6299 Clouds -2 1012 83 10000 2.06 260 07:46 24.12.2021
6300 Clouds -1 1014 75 10000 2.06 270 01:30 24.12.2021
6301 Clouds -1 1015 73 10000 1.03 0 23:55 23.12.2021
6302 Clouds 0 1015 72 10000 1.54 200 22:56 23.12.2021
6303 Clouds -1 1015 73 10000 1.54 200 22:37 23.12.2021
6304 Clouds 0 1015 72 10000 1.03 0 22:18 23.12.2021
6305 Clouds 0 1016 68 10000 1.03 0 20:56 23.12.2021
6306 Clouds 0 1015 69 10000 1.03 0 19:39 23.12.2021
6307 Clouds 0 1015 65 10000 2.06 250 18:34 23.12.2021
6308 Clouds 0 1016 62 10000 1.03 0 17:55 23.12.2021
6309 Clouds 1 1015 60 10000 0.51 0 16:43 23.12.2021
6310 Clouds 1 1016 55 10000 1.03 0 16:23 23.12.2021
6311 Clouds 2 1016 46 10000 1.03 0 15:31 23.12.2021
6312 Clouds 2 1016 46 10000 1.03 0 15:31 23.12.2021
6313 Clouds 2 1016 50 10000 1.03 0 14:43 23.12.2021
6314 Clouds 5 1017 48 10000 1.03 0 14:19 23.12.2021
6315 Clear 3 1018 52 10000 1.03 0 12:53 23.12.2021
6316 Clear -4 1020 74 10000 1.03 0 10:43 23.12.2021
6317 Clear -6 1020 77 10000 0.51 0 09:35 23.12.2021
6318 Clear -8 1020 86 10000 1.03 0 08:59 23.12.2021
6319 Clear -9 1021 86 10000 0.51 0 06:51 23.12.2021
6320 Clouds -8 1022 86 10000 0.51 0 04:30 23.12.2021
6321 Clear -7 1023 85 10000 1.54 240 22:57 22.12.2021
6322 Clear -8 1023 85 10000 1.54 240 22:39 22.12.2021
6323 Clear -7 1024 84 10000 1.54 270 21:54 22.12.2021
6324 Clear -8 1024 84 10000 0.51 0 21:29 22.12.2021
6325 Clear -6 1024 79 10000 1.03 0 20:44 22.12.2021
6326 Clear -6 1024 79 10000 1.03 260 20:25 22.12.2021
6327 Clear -6 1024 74 10000 1.54 210 19:19 22.12.2021
6328 Clear -4 1024 68 10000 1.03 0 17:42 22.12.2021
6329 Clear -3 1024 65 10000 1.54 260 16:38 22.12.2021
6330 Clear -2 1024 62 10000 2.06 250 15:39 22.12.2021
6331 Clear 1 1025 63 10000 1.54 240 13:32 22.12.2021
6332 Clear 0 1026 70 10000 2.06 260 12:39 22.12.2021
6333 Clouds -6 1027 84 10000 2.06 260 09:54 22.12.2021
6334 Clouds -6 1027 84 10000 2.06 260 09:35 22.12.2021
6335 Clouds -9 1026 86 7000 0.51 0 07:25 22.12.2021
6336 Clouds -9 1025 93 10000 0.51 0 05:42 22.12.2021
6337 Clouds -9 1025 86 10000 1.03 170 05:24 22.12.2021
6338 Clouds -9 1025 93 10000 0.51 0 04:47 22.12.2021
6339 Clouds -9 1025 93 10000 1.03 260 04:24 22.12.2021
6340 Clouds -9 1025 93 10000 0.51 0 03:32 22.12.2021
6341 Clouds -6 1024 86 10000 1.54 250 00:33 22.12.2021
6342 Clouds -6 1023 86 10000 0.51 0 22:52 21.12.2021
6343 Clouds -6 1023 86 10000 0.51 0 22:27 21.12.2021
6344 Clear -5 1023 80 10000 0.51 0 21:43 21.12.2021
6345 Clear -5 1022 86 10000 0.51 0 20:54 21.12.2021
6346 Clear -5 1022 86 10000 0.51 0 20:20 21.12.2021
6347 Clear -5 1022 80 10000 0.51 0 19:41 21.12.2021
6348 Clear -5 1021 80 10000 1.03 0 18:43 21.12.2021
6349 Clear -4 1021 74 10000 0.51 0 18:21 21.12.2021
6350 Clear -4 1021 80 10000 1.03 0 17:40 21.12.2021
6351 Clear 0 1020 64 10000 1.54 180 15:55 21.12.2021
6352 Clear 0 1021 65 10000 1.54 170 15:20 21.12.2021
6353 Clear 1 1022 66 10000 1.54 230 13:50 21.12.2021
6354 Clear 0 1022 70 10000 1.54 250 13:29 21.12.2021
6355 Clouds -1 1023 75 10000 1.03 0 10:56 21.12.2021
6356 Clouds -4 1024 88 10000 0.51 0 09:59 21.12.2021
6357 Clouds -6 1024 89 10000 0.51 0 09:18 21.12.2021
6358 Clouds -7 1023 80 10000 1.03 0 07:54 21.12.2021
6359 Clouds -7 1023 93 10000 0.51 0 07:25 21.12.2021
6360 Clouds -5 1023 74 10000 1.54 110 04:56 21.12.2021
6361 Clouds -5 1024 93 10000 0.51 0 02:40 21.12.2021
6362 Clouds -3 1024 80 10000 1.54 110 23:58 20.12.2021
6363 Clouds -3 1024 80 10000 2.57 100 23:24 20.12.2021
6364 Clouds -2 1024 86 10000 1.03 0 22:28 20.12.2021
6365 Clouds -1 1024 86 10000 1.03 70 21:43 20.12.2021
6366 Clouds -1 1024 80 10000 1.03 0 21:23 20.12.2021
6367 Clouds -2 1024 86 10000 2.06 270 20:42 20.12.2021
6368 Clouds -2 1024 86 10000 1.03 130 19:50 20.12.2021
6369 Clouds -1 1025 82 10000 0.51 0 19:30 20.12.2021
6370 Clouds -1 1024 80 10000 0.51 0 18:53 20.12.2021
6371 Clouds -1 1024 80 10000 1.03 0 17:52 20.12.2021
6372 Clouds 0 1024 80 10000 1.03 0 17:23 20.12.2021
6373 Clouds 0 1024 80 10000 0.51 0 16:37 20.12.2021
6374 Clouds 1 1023 75 10000 1.54 180 15:48 20.12.2021
6375 Clouds 2 1024 76 10000 1.54 260 14:42 20.12.2021
6376 Clouds 1 1024 83 10000 1.54 280 12:51 20.12.2021
6377 Clouds 1 1025 86 10000 2.06 230 11:19 20.12.2021
6378 Clouds 0 1024 80 10000 2.06 290 09:47 20.12.2021
6379 Clouds -1 1024 93 10000 2.06 300 08:58 20.12.2021
6380 Clouds -1 1024 93 10000 2.06 300 08:40 20.12.2021
6381 Clouds -1 1023 93 10000 3.6 280 07:49 20.12.2021
6382 Clouds -1 1023 93 10000 4.12 270 06:47 20.12.2021
6383 Clouds -2 1023 93 10000 2.57 250 03:42 20.12.2021
6384 Clear -4 1023 93 10000 1.54 120 23:51 19.12.2021
6385 Clear -5 1023 91 10000 1.03 0 22:45 19.12.2021
6386 Clear -4 1024 90 10000 1.03 0 21:49 19.12.2021
6387 Clear -4 1024 90 10000 1.03 0 21:26 19.12.2021
6388 Clear -3 1024 89 10000 1.03 0 20:30 19.12.2021
6389 Clear -2 1025 85 10000 0.51 0 19:46 19.12.2021
6390 Clear -2 1025 84 10000 1.03 0 18:57 19.12.2021
6391 Clear -2 1025 83 10000 1.03 0 18:24 19.12.2021
6392 Clear -1 1025 78 10000 1.54 250 17:46 19.12.2021
6393 Clear 1 1025 73 10000 1.54 230 16:55 19.12.2021
6394 Clear 2 1025 68 10000 2.06 260 16:24 19.12.2021
6395 Clear 3 1026 62 10000 3.09 260 15:26 19.12.2021
6396 Clear 3 1026 62 10000 3.09 260 14:50 19.12.2021
6397 Clear 5 1028 63 10000 1.54 250 13:46 19.12.2021
6398 Clear 2 1028 69 10000 1.54 250 13:21 19.12.2021
6399 Clear 6 1029 66 10000 0.51 0 12:33 19.12.2021
6400 Clear 4 1030 69 10000 1.03 0 11:40 19.12.2021
6401 Clear -2 1031 86 10000 1.54 260 10:52 19.12.2021
6402 Clear -3 1031 86 10000 2.06 260 10:23 19.12.2021
6403 Clear -3 1032 89 10000 1.54 300 09:20 19.12.2021
6404 Clear -7 1032 93 10000 0.51 0 07:47 19.12.2021
6405 Clouds -6 1033 93 10000 1.03 0 02:35 19.12.2021
6406 Clouds -5 1034 92 10000 1.03 220 00:55 19.12.2021
6407 Clear -4 1034 92 10000 1.54 250 23:31 18.12.2021
6408 Clear -4 1034 92 10000 1.03 0 22:31 18.12.2021
6409 Clear -4 1035 88 10000 0.51 0 21:54 18.12.2021
6410 Clear -4 1035 88 10000 1.03 0 21:33 18.12.2021
6411 Clear -4 1035 88 10000 0.51 0 20:43 18.12.2021
6412 Clear -4 1035 88 10000 0.51 0 19:50 18.12.2021
6413 Clear -3 1035 87 10000 1.03 0 19:19 18.12.2021
6414 Clear -2 1035 82 10000 2.57 250 18:18 18.12.2021
6415 Clear -3 1035 86 10000 1.03 0 17:46 18.12.2021
6416 Clear 0 1035 77 10000 0.51 0 16:23 18.12.2021
6417 Clear 4 1035 66 10000 1.03 0 15:25 18.12.2021
6418 Clear 3 1035 62 10000 2.06 250 14:19 18.12.2021
6419 Clear 0 1036 74 10000 2.57 250 12:38 18.12.2021
6420 Clouds -3 1038 86 10000 1.54 240 10:52 18.12.2021
6421 Clouds -5 1039 97 6000 1.03 0 09:33 18.12.2021
6422 Clouds -3 1039 93 6000 1.03 0 08:41 18.12.2021
6423 Clouds -4 1038 93 6000 1.54 220 08:18 18.12.2021
6424 Clouds -3 1037 93 10000 1.03 0 01:48 18.12.2021
6425 Clouds -4 1038 93 10000 1.54 260 00:27 18.12.2021
6426 Clouds -3 1038 93 10000 1.03 0 23:37 17.12.2021
6427 Clouds -4 1038 93 10000 2.06 260 21:55 17.12.2021
6428 Clouds -3 1038 100 10000 1.03 0 20:51 17.12.2021
6429 Clear -3 1038 93 10000 0.51 0 20:28 17.12.2021
6430 Clear -3 1038 92 10000 0.51 0 18:54 17.12.2021
6431 Clear -2 1038 88 10000 1.03 0 18:21 17.12.2021
6432 Clear -1 1037 84 10000 0.51 0 17:25 17.12.2021
6433 Clear 1 1038 83 10000 1.03 0 16:29 17.12.2021
6434 Clouds 2 1037 76 10000 1.54 210 15:51 17.12.2021
6435 Clouds 3 1037 78 10000 1.03 0 15:19 17.12.2021
6436 Clouds 3 1038 77 10000 1.03 0 14:34 17.12.2021
6437 Clouds 2 1038 84 10000 1.54 230 12:45 17.12.2021
6438 Clouds 1 1039 83 10000 2.06 310 11:22 17.12.2021
6439 Clouds 0 1040 88 10000 1.54 220 09:55 17.12.2021
6440 Clouds 0 1040 88 10000 4.12 270 08:58 17.12.2021
6441 Clouds 1 1039 86 10000 2.57 260 08:20 17.12.2021
6442 Clouds 1 1038 80 10000 1.03 0 05:25 17.12.2021
6443 Clouds 0 1038 86 10000 1.54 290 02:52 17.12.2021
6444 Clouds 1 1038 93 10000 1.03 260 22:52 16.12.2021
6445 Clouds 1 1038 93 10000 1.03 280 22:23 16.12.2021
6446 Clouds 1 1039 93 10000 1.03 280 21:45 16.12.2021
6447 Clouds 1 1038 93 10000 1.03 0 20:57 16.12.2021
6448 Clouds 2 1038 94 10000 1.54 280 20:27 16.12.2021
6449 Clouds 1 1039 94 10000 2.06 270 19:35 16.12.2021
6450 Clouds 1 1038 94 10000 2.06 260 18:37 16.12.2021
6451 Clouds 1 1038 94 10000 3.09 270 17:49 16.12.2021
6452 Clouds 1 1038 94 10000 0 0 16:55 16.12.2021
6453 Clouds 1 1037 93 10000 1.54 0 16:20 16.12.2021
6454 Mist 2 1036 94 5000 0.51 0 14:50 16.12.2021
6455 Mist 0 1037 97 4000 1.03 0 12:48 16.12.2021
6456 Mist -1 1037 96 4000 0.51 0 11:19 16.12.2021
6457 Mist -1 1037 96 4000 1.03 330 10:46 16.12.2021
6458 Mist 0 1036 96 2500 1.03 0 09:52 16.12.2021
6459 Fog -3 1035 98 1500 1.03 0 07:19 16.12.2021
6460 Fog -3 1035 98 400 0.51 0 06:19 16.12.2021
6461 Fog -2 1035 99 750 1.54 230 00:44 16.12.2021
6462 Fog -2 1035 98 900 0.51 0 23:21 15.12.2021
6463 Fog 0 1034 95 500 1.54 70 22:26 15.12.2021
6464 Fog 0 1034 94 500 1.03 0 21:49 15.12.2021
6465 Fog 0 1034 93 500 1.03 0 21:26 15.12.2021
6466 Fog -1 1033 98 500 0.51 0 19:55 15.12.2021
6467 Fog -1 1033 98 500 0.51 0 19:22 15.12.2021
6468 Fog -1 1033 98 700 1.54 120 18:26 15.12.2021
6469 Fog -1 1033 98 800 2.06 70 17:49 15.12.2021
6470 Fog -1 1033 94 2000 2.06 90 17:27 15.12.2021
6471 Clouds 2 1032 87 10000 1.54 100 16:25 15.12.2021
6472 Clouds 1 1032 88 10000 2.57 90 15:42 15.12.2021
6473 Clouds 4 1031 75 10000 1.54 140 15:24 15.12.2021
6474 Clear 4 1031 75 10000 1.03 0 13:58 15.12.2021
6475 Clear 5 1032 81 10000 1.03 0 11:52 15.12.2021
6476 Clouds 0 1032 93 10000 0.51 0 10:23 15.12.2021
6477 Fog -3 1033 98 10000 0.51 0 08:34 15.12.2021
6478 Mist -2 1031 98 5000 1.54 260 05:59 15.12.2021
6479 Clouds 0 1031 94 10000 1.03 0 00:45 15.12.2021
6480 Clouds 0 1031 93 10000 2.06 250 23:32 14.12.2021
6481 Clouds 2 1031 90 10000 1.03 0 22:45 14.12.2021
6482 Clouds 1 1031 93 10000 1.03 0 21:47 14.12.2021
6483 Clouds 2 1030 91 10000 2.57 270 20:23 14.12.2021
6484 Clouds 1 1030 91 10000 1.03 0 19:39 14.12.2021
6485 Clouds 2 1030 89 10000 1.03 0 18:42 14.12.2021
6486 Clouds 2 1030 89 10000 0.51 0 17:57 14.12.2021
6487 Clouds 3 1029 88 10000 1.03 0 16:49 14.12.2021
6488 Clouds 4 1029 86 10000 1.03 0 16:30 14.12.2021
6489 Clear 5 1028 82 10000 1.03 0 14:39 14.12.2021
6490 Clear 7 1028 83 10000 1.03 0 13:22 14.12.2021
6491 Clouds 4 1030 89 10000 1.03 0 11:56 14.12.2021
6492 Clouds 3 1030 91 10000 1.03 0 11:22 14.12.2021
6493 Fog -2 1030 100 350 1.03 0 09:55 14.12.2021
6494 Fog 1 1030 95 300 1.03 0 09:22 14.12.2021
6495 Fog -4 1031 99 350 1.03 0 08:23 14.12.2021
6496 Fog -3 1031 99 500 1.03 0 07:42 14.12.2021
6497 Fog -2 1031 98 550 2.06 280 00:35 14.12.2021
6498 Fog -1 1031 98 4000 1.03 0 22:33 13.12.2021
6499 Fog 1 1031 96 6000 1.54 260 21:49 13.12.2021
6500 Fog 1 1031 96 8000 2.06 260 20:58 13.12.2021
6501 Fog 1 1031 93 8000 1.03 0 20:29 13.12.2021
6502 Clouds 1 1031 93 8000 0.51 0 19:51 13.12.2021
6503 Clouds 2 1030 94 10000 0.51 0 17:55 13.12.2021
6504 Clouds 2 1030 91 10000 1.54 240 17:19 13.12.2021
6505 Clouds 4 1030 89 10000 1.03 160 15:49 13.12.2021
6506 Clouds 4 1030 87 10000 0.51 0 15:18 13.12.2021
6507 Clouds 4 1030 84 10000 0.51 0 13:38 13.12.2021
6508 Clouds 3 1030 86 10000 2.57 260 12:42 13.12.2021
6509 Clouds 4 1031 87 10000 2.57 250 11:54 13.12.2021
6510 Clouds 4 1031 86 10000 2.57 250 11:35 13.12.2021
6511 Clouds 3 1030 92 10000 2.06 270 10:41 13.12.2021
6512 Drizzle 2 1030 96 7000 0.51 0 08:52 13.12.2021
6513 Clouds 2 1030 95 6000 0.51 0 06:56 13.12.2021
6514 Drizzle 2 1029 95 6000 0.51 0 05:23 13.12.2021
6515 Drizzle 0 1031 88 4600 1.54 240 00:42 13.12.2021
6516 Clouds 1 1031 83 10000 1.03 0 21:59 12.12.2021
6517 Clouds 1 1031 83 10000 0.51 0 21:30 12.12.2021
6518 Clouds 1 1030 83 10000 1.54 240 19:38 12.12.2021
6519 Clouds 1 1030 83 10000 1.03 0 18:24 12.12.2021
6520 Clouds 1 1030 79 10000 0.51 0 16:54 12.12.2021
6521 Clouds 1 1029 79 10000 1.03 0 16:26 12.12.2021
6522 Clouds 2 1029 75 10000 1.54 250 15:28 12.12.2021
6523 Snow 1 1029 78 10000 1.54 270 14:54 12.12.2021
6524 Snow 1 1029 80 10000 1.54 270 14:22 12.12.2021
6525 Rain 0 1030 81 10000 2.06 260 12:51 12.12.2021
6526 Clouds -3 1030 97 10000 2.06 270 12:24 12.12.2021
6527 Fog -3 1030 94 2500 1.54 270 11:43 12.12.2021
6528 Fog -5 1030 98 800 2.06 270 10:45 12.12.2021
6529 Mist -4 1030 94 2300 1.54 240 10:21 12.12.2021
6530 Fog -3 1028 93 1000 2.06 250 08:53 12.12.2021
6531 Mist -2 1028 93 4500 2.06 250 07:31 12.12.2021
6532 Clouds -3 1027 100 7000 1.54 310 05:56 12.12.2021
6533 Clouds -2 1026 100 6000 2.06 250 04:55 12.12.2021
6534 Mist -2 1026 100 1500 1.54 240 02:52 12.12.2021
6535 Clouds -1 1023 93 10000 2.06 250 23:30 11.12.2021
6536 Clouds 0 1023 93 9000 2.06 250 22:21 11.12.2021
6537 Mist 0 1023 93 2100 1.03 280 21:50 11.12.2021
6538 Snow 0 1021 100 3100 0.51 0 20:21 11.12.2021
6539 Snow 0 1020 100 4000 0.51 0 19:21 11.12.2021
6540 Snow 0 1020 100 4000 0.51 0 18:50 11.12.2021
6541 Snow 1 1019 93 5000 1.03 0 17:56 11.12.2021
6542 Snow 1 1018 86 5000 1.03 0 16:40 11.12.2021
6543 Rain 1 1016 86 10000 1.54 80 15:46 11.12.2021
6544 Clouds 0 1016 83 10000 1.03 0 14:54 11.12.2021
6545 Snow 0 1015 88 9000 0.51 0 12:42 11.12.2021
6546 Snow 0 1014 88 10000 0.51 0 11:24 11.12.2021
6547 Clouds -2 1013 93 10000 0.51 0 09:45 11.12.2021
6548 Clouds -2 1013 93 10000 0.51 0 09:45 11.12.2021
6549 Clouds -2 1013 93 10000 0.51 0 09:45 11.12.2021
6550 Clouds -2 1013 93 10000 0.51 0 09:45 11.12.2021
6551 Clouds -2 1009 93 10000 0.51 0 07:30 11.12.2021
6552 Clouds -1 1004 86 10000 1.03 0 00:50 11.12.2021
6553 Clouds -1 1003 86 10000 0.51 0 23:49 10.12.2021
6554 Clouds -1 1003 86 10000 1.54 290 23:18 10.12.2021
6555 Snow -2 1002 82 10000 3.09 290 21:52 10.12.2021
6556 Snow -2 1001 81 10000 5.14 280 20:56 10.12.2021
6557 Snow -2 999 82 10000 5.66 270 19:20 10.12.2021
6558 Clouds -1 998 74 10000 7.72 270 17:54 10.12.2021
6559 Clouds -1 998 73 10000 4.63 280 16:55 10.12.2021
6560 Clouds -2 997 72 10000 6.17 270 15:47 10.12.2021
6561 Clouds -2 997 72 10000 5.66 270 15:29 10.12.2021
6562 Clouds -2 997 68 10000 6.69 280 14:59 10.12.2021
6563 Clouds 0 998 68 10000 5.66 280 13:51 10.12.2021
6564 Clouds -1 998 69 10000 6.69 280 13:25 10.12.2021
6565 Clouds -1 998 69 10000 7.72 260 12:23 10.12.2021
6566 Clouds -4 999 74 10000 7.72 270 11:28 10.12.2021
6567 Clear -6 1000 80 10000 6.17 270 09:54 10.12.2021
6568 Clouds -7 1001 87 10000 5.14 280 08:32 10.12.2021
6569 Clouds -6 1002 93 10000 1.03 0 05:57 10.12.2021
6570 Clouds -4 1005 93 10000 0.51 0 02:48 10.12.2021
6571 Clouds -1 1008 93 7000 1.03 0 23:46 09.12.2021
6572 Mist -1 1008 93 5000 1.54 250 23:20 09.12.2021
6573 Clouds 0 1008 93 6000 0.51 0 22:24 09.12.2021
6574 Clouds 0 1008 93 10000 1.54 100 21:50 09.12.2021
6575 Clouds 1 1008 93 10000 1.03 0 20:41 09.12.2021
6576 Clouds 1 1008 93 10000 1.03 0 20:41 09.12.2021
6577 Clouds 0 1008 93 10000 1.54 70 20:20 09.12.2021
6578 Snow 1 1008 93 10000 2.57 70 19:21 09.12.2021
6579 Snow 1 1007 93 10000 1.54 70 18:36 09.12.2021
6580 Drizzle 1 1007 93 8000 2.06 70 17:51 09.12.2021
6581 Snow 1 1007 93 8000 3.09 70 17:25 09.12.2021
6582 Snow 1 1007 93 10000 2.57 0 16:53 09.12.2021
6583 Drizzle 0 1007 94 10000 3.6 60 15:32 09.12.2021
6584 Snow 0 1006 94 10000 3.09 70 14:46 09.12.2021
6585 Snow 0 1006 94 6000 2.57 90 13:20 09.12.2021
6586 Mist 0 1006 94 9000 2.06 80 12:37 09.12.2021
6587 Snow 1 1006 94 2500 1.54 50 11:21 09.12.2021
6588 Snow 0 1005 97 1500 0.51 0 08:54 09.12.2021
6589 Snow -1 1004 98 2000 0.51 0 06:21 09.12.2021
6590 Snow 0 1002 97 4000 2.06 90 02:58 09.12.2021
6591 Snow -1 1001 98 2800 1.03 60 23:43 08.12.2021
6592 Snow 0 1001 96 2000 1.54 80 23:21 08.12.2021
6593 Snow 0 1001 96 2000 1.03 0 22:46 08.12.2021
6594 Snow 0 1001 95 4000 1.54 170 21:40 08.12.2021
6595 Snow 0 1000 90 10000 3.6 290 20:59 08.12.2021
6596 Snow -1 1000 87 10000 6.69 260 19:58 08.12.2021
6597 Snow -1 1000 87 10000 6.69 260 19:58 08.12.2021
6598 Snow -1 1000 87 10000 6.69 260 19:58 08.12.2021
6599 Snow -1 1000 86 10000 6.69 260 19:33 08.12.2021
6600 Snow 0 1000 86 10000 5.14 270 18:40 08.12.2021
6601 Snow 0 1000 86 10000 5.66 270 17:34 08.12.2021
6602 Clouds 0 999 78 10000 2.06 270 15:49 08.12.2021
6603 Clouds 2 999 76 10000 3.09 280 15:26 08.12.2021
6604 Clouds 2 1000 73 10000 4.12 280 14:30 08.12.2021
6605 Clouds -2 1003 82 10000 5.66 250 10:55 08.12.2021
6606 Snow -2 1004 81 10000 4.12 270 10:28 08.12.2021
6607 Snow -3 1005 83 10000 4.12 260 08:55 08.12.2021
6608 Clouds -3 1005 83 10000 5.14 270 07:25 08.12.2021
6609 Clouds -6 1008 89 10000 3.6 290 02:30 08.12.2021
6610 Clouds -6 1010 93 10000 3.09 250 23:33 07.12.2021
6611 Clear -5 1011 93 10000 2.06 260 21:40 07.12.2021
6612 Clear -5 1011 100 10000 2.57 250 21:18 07.12.2021
6613 Clear -4 1012 93 10000 1.54 240 20:19 07.12.2021
6614 Clear -3 1013 93 10000 1.54 240 18:43 07.12.2021
6615 Clear -3 1013 93 10000 1.03 0 17:48 07.12.2021
6616 Clear -2 1013 86 10000 0.51 0 17:19 07.12.2021
6617 Clouds -2 1013 86 10000 2.06 260 16:28 07.12.2021
6618 Clouds 1 1015 80 10000 1.03 270 15:23 07.12.2021
6619 Snow 0 1015 80 10000 1.54 270 13:53 07.12.2021
6620 Snow 1 1016 80 10000 1.54 250 12:49 07.12.2021
6621 Snow -1 1017 86 2500 0.51 0 11:25 07.12.2021
6622 Snow -2 1016 88 6000 0.51 0 10:33 07.12.2021
6623 Snow -3 1015 88 2000 1.54 260 07:57 07.12.2021
6624 Snow -3 1015 87 10000 2.06 250 05:59 07.12.2021
6625 Snow -3 1014 87 10000 2.06 250 05:33 07.12.2021
6626 Clouds -3 1014 93 10000 1.54 310 23:47 06.12.2021
6627 Clouds -3 1014 93 10000 1.54 210 22:46 06.12.2021
6628 Clouds -3 1014 93 10000 1.54 280 22:23 06.12.2021
6629 Clouds -3 1014 100 6000 1.03 330 21:46 06.12.2021
6630 Clouds -2 1014 93 10000 0.51 0 20:33 06.12.2021
6631 Clouds -1 1014 93 10000 0.51 0 19:27 06.12.2021
6632 Clouds -1 1014 93 10000 1.03 0 18:59 06.12.2021
6633 Clouds 0 1014 93 10000 0.51 0 17:56 06.12.2021
6634 Clouds 0 1014 86 10000 1.03 0 17:37 06.12.2021
6635 Clouds 0 1014 86 10000 1.54 70 16:22 06.12.2021
6636 Clouds 1 1014 84 10000 1.03 0 15:38 06.12.2021
6637 Clouds 1 1014 84 10000 0.51 0 13:46 06.12.2021
6638 Clouds 1 1014 84 10000 0.51 0 13:46 06.12.2021
6639 Clouds 0 1015 87 10000 1.03 0 12:39 06.12.2021
6640 Snow 0 1014 93 6000 0.51 0 10:38 06.12.2021
6641 Snow -1 1012 86 3000 1.54 300 08:45 06.12.2021
6642 Clouds 0 1009 86 10000 3.09 280 04:56 06.12.2021
6643 Clouds 0 1007 93 10000 0.51 0 22:54 05.12.2021
6644 Clouds 0 1007 100 10000 1.03 0 21:43 05.12.2021
6645 Clouds -1 1007 93 10000 0.51 0 21:19 05.12.2021
6646 Snow 0 1006 100 10000 0.51 0 20:19 05.12.2021
6647 Snow -1 1007 94 10000 0.51 0 19:33 05.12.2021
6648 Snow 1 1006 93 10000 1.54 100 18:43 05.12.2021
6649 Snow 0 1006 100 8000 0.51 0 18:19 05.12.2021
6650 Snow 0 1005 100 4000 1.03 0 17:48 05.12.2021
6651 Snow 1 1005 93 8000 0.51 0 16:45 05.12.2021
6652 Snow 1 1005 94 8000 0.51 0 16:26 05.12.2021
6653 Snow 1 1005 95 3000 2.06 80 14:49 05.12.2021
6654 Snow 1 1005 95 4000 2.06 70 14:31 05.12.2021
6655 Snow 1 1005 95 4500 1.03 0 13:50 05.12.2021
6656 Snow 1 1005 97 2500 0.51 0 13:22 05.12.2021
6657 Snow 1 1005 97 2500 1.03 230 12:40 05.12.2021
6658 Snow 1 1005 97 2500 1.03 230 12:18 05.12.2021
6659 Mist 2 1004 94 3500 2.06 270 11:20 05.12.2021
6660 Snow 0 1005 98 10000 0.51 0 09:59 05.12.2021
6661 Snow 0 1005 94 7000 1.03 0 07:55 05.12.2021
6662 Snow 1 1004 93 10000 2.06 90 02:28 05.12.2021
6663 Snow 1 1002 93 10000 1.54 0 23:34 04.12.2021
6664 Clouds 2 1002 87 10000 4.12 270 21:54 04.12.2021
6665 Clouds 2 1002 88 10000 2.06 250 20:55 04.12.2021
6666 Clouds 2 1002 92 10000 1.54 0 19:55 04.12.2021
6667 Clouds 2 1002 91 10000 1.54 0 19:31 04.12.2021
6668 Rain 2 1003 90 10000 5.14 290 18:20 04.12.2021
6669 Rain 1 1002 90 10000 4.12 290 17:38 04.12.2021
6670 Clouds 1 1002 86 10000 6.69 270 16:49 04.12.2021
6671 Clouds 2 1002 86 10000